<?xml version='1.0' encoding='UTF-8'?><gpx version="1.1" creator="JPX - https://github.com/jenetics/jpx" xmlns="http://www.topografix.com/GPX/1/1"><trk><trkseg><trkpt lat="40.7208954" lon="14.8737286"><ele>351.0</ele><time>2026-05-03T06:42:57.012Z</time></trkpt><trkpt lat="40.7210536" lon="14.8737431"><ele>351.0</ele><time>2026-05-03T06:43:00.06Z</time></trkpt><trkpt lat="40.7211744" lon="14.8737738"><ele>351.0</ele><time>2026-05-03T06:43:01.98Z</time></trkpt><trkpt lat="40.7213066" lon="14.8738338"><ele>351.0</ele><time>2026-05-03T06:43:07.985Z</time></trkpt><trkpt lat="40.7212422" lon="14.8738375"><ele>351.0</ele><time>2026-05-03T06:43:38Z</time></trkpt><trkpt lat="40.7211785" lon="14.8738269"><ele>351.0</ele><time>2026-05-03T06:44:33.952Z</time></trkpt><trkpt lat="40.7210812" lon="14.8738575"><ele>351.0</ele><time>2026-05-03T06:44:49.054Z</time></trkpt><trkpt lat="40.7210826" lon="14.8737739"><ele>351.0</ele><time>2026-05-03T06:46:17.031Z</time></trkpt><trkpt lat="40.7210631" lon="14.8736617"><ele>351.0</ele><time>2026-05-03T06:46:58.959Z</time></trkpt><trkpt lat="40.7209839" lon="14.8736115"><ele>351.0</ele><time>2026-05-03T06:48:02.961Z</time></trkpt><trkpt lat="40.7209094" lon="14.8736627"><ele>351.0</ele><time>2026-05-03T06:49:45.96Z</time></trkpt><trkpt lat="40.7208795" lon="14.8735886"><ele>351.0</ele><time>2026-05-03T06:50:06.971Z</time></trkpt><trkpt lat="40.7208138" lon="14.8736057"><ele>351.0</ele><time>2026-05-03T06:50:20.96Z</time></trkpt><trkpt lat="40.7207378" lon="14.8736193"><ele>351.0</ele><time>2026-05-03T06:51:20.963Z</time></trkpt><trkpt lat="40.7206682" lon="14.8736074"><ele>351.0</ele><time>2026-05-03T06:54:17.951Z</time></trkpt><trkpt lat="40.7206671" lon="14.8734704"><ele>351.0</ele><time>2026-05-03T06:54:20.961Z</time></trkpt><trkpt lat="40.7206521" lon="14.8733608"><ele>351.0</ele><time>2026-05-03T06:54:21.969Z</time></trkpt><trkpt lat="40.7206143" lon="14.8732896"><ele>351.0</ele><time>2026-05-03T06:54:24.949Z</time></trkpt><trkpt lat="40.7206015" lon="14.8734008"><ele>351.0</ele><time>2026-05-03T06:54:27.961Z</time></trkpt><trkpt lat="40.7206307" lon="14.873483"><ele>351.0</ele><time>2026-05-03T06:54:29.954Z</time></trkpt><trkpt lat="40.720654" lon="14.873574"><ele>351.0</ele><time>2026-05-03T06:54:32.91Z</time></trkpt><trkpt lat="40.7206244" lon="14.8736872"><ele>351.0</ele><time>2026-05-03T06:55:14.884Z</time></trkpt><trkpt lat="40.7206112" lon="14.8738103"><ele>351.0</ele><time>2026-05-03T06:55:16.958Z</time></trkpt><trkpt lat="40.7206068" lon="14.8739247"><ele>351.0</ele><time>2026-05-03T06:55:20.041Z</time></trkpt><trkpt lat="40.7206426" lon="14.8739936"><ele>351.0</ele><time>2026-05-03T06:55:22.957Z</time></trkpt><trkpt lat="40.7207095" lon="14.8739861"><ele>351.0</ele><time>2026-05-03T06:55:26.961Z</time></trkpt><trkpt lat="40.7207731" lon="14.8739804"><ele>351.0</ele><time>2026-05-03T06:55:30.964Z</time></trkpt><trkpt lat="40.720857" lon="14.8739841"><ele>351.0</ele><time>2026-05-03T06:55:33.96Z</time></trkpt><trkpt lat="40.7209952" lon="14.8739534"><ele>353.6</ele><time>2026-05-03T06:55:34.972Z</time></trkpt><trkpt lat="40.7211167" lon="14.873916"><ele>356.20000000000005</ele><time>2026-05-03T06:55:35.961Z</time></trkpt><trkpt lat="40.7212081" lon="14.8738889"><ele>358.79999999999995</ele><time>2026-05-03T06:55:36.966Z</time></trkpt><trkpt lat="40.7212848" lon="14.8738661"><ele>361.4</ele><time>2026-05-03T06:55:37.956Z</time></trkpt><trkpt lat="40.7213495" lon="14.8738399"><ele>364.0</ele><time>2026-05-03T06:55:38.958Z</time></trkpt><trkpt lat="40.7214571" lon="14.8737894"><ele>364.0</ele><time>2026-05-03T06:55:40.964Z</time></trkpt><trkpt lat="40.7215234" lon="14.8737712"><ele>364.0</ele><time>2026-05-03T06:55:42.963Z</time></trkpt><trkpt lat="40.7215529" lon="14.8736512"><ele>364.0</ele><time>2026-05-03T06:55:46.038Z</time></trkpt><trkpt lat="40.7215273" lon="14.873555"><ele>364.0</ele><time>2026-05-03T06:55:46.967Z</time></trkpt><trkpt lat="40.7215072" lon="14.8734251"><ele>364.0</ele><time>2026-05-03T06:55:48.026Z</time></trkpt><trkpt lat="40.721496" lon="14.8732768"><ele>366.0</ele><time>2026-05-03T06:55:48.967Z</time></trkpt><trkpt lat="40.7214996" lon="14.8731214"><ele>368.0</ele><time>2026-05-03T06:55:49.959Z</time></trkpt><trkpt lat="40.721501" lon="14.8729659"><ele>370.0</ele><time>2026-05-03T06:55:50.965Z</time></trkpt><trkpt lat="40.7214828" lon="14.8728002"><ele>372.0</ele><time>2026-05-03T06:55:51.957Z</time></trkpt><trkpt lat="40.7214561" lon="14.8726357"><ele>374.5</ele><time>2026-05-03T06:55:53.034Z</time></trkpt><trkpt lat="40.7214213" lon="14.872482"><ele>377.0</ele><time>2026-05-03T06:55:53.95Z</time></trkpt><trkpt lat="40.7213757" lon="14.8723271"><ele>379.5</ele><time>2026-05-03T06:55:54.954Z</time></trkpt><trkpt lat="40.7213161" lon="14.8721947"><ele>382.0</ele><time>2026-05-03T06:55:55.96Z</time></trkpt><trkpt lat="40.7212357" lon="14.8720625"><ele>382.0</ele><time>2026-05-03T06:55:57.046Z</time></trkpt><trkpt lat="40.7211695" lon="14.8719302"><ele>382.0</ele><time>2026-05-03T06:55:58.041Z</time></trkpt><trkpt lat="40.7211284" lon="14.8717902"><ele>382.0</ele><time>2026-05-03T06:55:58.953Z</time></trkpt><trkpt lat="40.7211028" lon="14.8716304"><ele>382.0</ele><time>2026-05-03T06:55:59.952Z</time></trkpt><trkpt lat="40.7210761" lon="14.8714771"><ele>381.5</ele><time>2026-05-03T06:56:00.965Z</time></trkpt><trkpt lat="40.7210505" lon="14.8713317"><ele>381.0</ele><time>2026-05-03T06:56:02.034Z</time></trkpt><trkpt lat="40.7210322" lon="14.871217"><ele>380.5</ele><time>2026-05-03T06:56:02.961Z</time></trkpt><trkpt lat="40.7210201" lon="14.8711317"><ele>380.0</ele><time>2026-05-03T06:56:03.969Z</time></trkpt><trkpt lat="40.7210351" lon="14.8710442"><ele>379.5</ele><time>2026-05-03T06:56:06.962Z</time></trkpt><trkpt lat="40.7211153" lon="14.87103"><ele>379.0</ele><time>2026-05-03T06:56:09.954Z</time></trkpt><trkpt lat="40.7212353" lon="14.8711365"><ele>381.0</ele><time>2026-05-03T06:56:12.034Z</time></trkpt><trkpt lat="40.7213124" lon="14.8711972"><ele>383.0</ele><time>2026-05-03T06:56:12.953Z</time></trkpt><trkpt lat="40.7214138" lon="14.8712317"><ele>385.0</ele><time>2026-05-03T06:56:13.955Z</time></trkpt><trkpt lat="40.7215213" lon="14.8712214"><ele>387.0</ele><time>2026-05-03T06:56:14.944Z</time></trkpt><trkpt lat="40.7216281" lon="14.8711958"><ele>389.0</ele><time>2026-05-03T06:56:15.962Z</time></trkpt><trkpt lat="40.7217269" lon="14.8711819"><ele>389.0</ele><time>2026-05-03T06:56:16.961Z</time></trkpt><trkpt lat="40.7218212" lon="14.8711779"><ele>389.0</ele><time>2026-05-03T06:56:17.957Z</time></trkpt><trkpt lat="40.721918" lon="14.8711905"><ele>389.0</ele><time>2026-05-03T06:56:18.956Z</time></trkpt><trkpt lat="40.7220098" lon="14.8712084"><ele>389.0</ele><time>2026-05-03T06:56:19.958Z</time></trkpt><trkpt lat="40.7221046" lon="14.8712352"><ele>389.0</ele><time>2026-05-03T06:56:20.959Z</time></trkpt><trkpt lat="40.7221927" lon="14.8712692"><ele>390.99999999999994</ele><time>2026-05-03T06:56:21.958Z</time></trkpt><trkpt lat="40.722275" lon="14.8712954"><ele>393.0</ele><time>2026-05-03T06:56:22.955Z</time></trkpt><trkpt lat="40.7223535" lon="14.8713137"><ele>395.0</ele><time>2026-05-03T06:56:23.96Z</time></trkpt><trkpt lat="40.7224324" lon="14.8713197"><ele>397.0</ele><time>2026-05-03T06:56:24.945Z</time></trkpt><trkpt lat="40.7225145" lon="14.8713171"><ele>398.99999999999994</ele><time>2026-05-03T06:56:25.958Z</time></trkpt><trkpt lat="40.7226029" lon="14.8713045"><ele>401.0</ele><time>2026-05-03T06:56:26.958Z</time></trkpt><trkpt lat="40.7226944" lon="14.8712571"><ele>402.20000000000005</ele><time>2026-05-03T06:56:27.959Z</time></trkpt><trkpt lat="40.7227903" lon="14.8711941"><ele>403.40000000000003</ele><time>2026-05-03T06:56:28.956Z</time></trkpt><trkpt lat="40.7228799" lon="14.8711163"><ele>404.6</ele><time>2026-05-03T06:56:29.962Z</time></trkpt><trkpt lat="40.7229596" lon="14.87103"><ele>405.8</ele><time>2026-05-03T06:56:30.957Z</time></trkpt><trkpt lat="40.7230289" lon="14.8709316"><ele>407.0</ele><time>2026-05-03T06:56:31.96Z</time></trkpt><trkpt lat="40.7231075" lon="14.8708391"><ele>408.8333333333333</ele><time>2026-05-03T06:56:32.954Z</time></trkpt><trkpt lat="40.7231738" lon="14.8707601"><ele>410.66666666666663</ele><time>2026-05-03T06:56:33.958Z</time></trkpt><trkpt lat="40.7232315" lon="14.8707092"><ele>412.5</ele><time>2026-05-03T06:56:34.972Z</time></trkpt><trkpt lat="40.723294" lon="14.8706005"><ele>414.33333333333337</ele><time>2026-05-03T06:56:36.961Z</time></trkpt><trkpt lat="40.7233455" lon="14.8705166"><ele>416.1666666666667</ele><time>2026-05-03T06:56:39.953Z</time></trkpt><trkpt lat="40.7234273" lon="14.8704823"><ele>418.0</ele><time>2026-05-03T06:56:42.95Z</time></trkpt><trkpt lat="40.7234937" lon="14.8705512"><ele>420.33333333333337</ele><time>2026-05-03T06:56:45.96Z</time></trkpt><trkpt lat="40.7235777" lon="14.870572"><ele>422.6666666666667</ele><time>2026-05-03T06:56:47.955Z</time></trkpt><trkpt lat="40.7236593" lon="14.8706357"><ele>425.0</ele><time>2026-05-03T06:56:50.034Z</time></trkpt><trkpt lat="40.7237478" lon="14.8706956"><ele>427.33333333333337</ele><time>2026-05-03T06:56:51.964Z</time></trkpt><trkpt lat="40.7238214" lon="14.870729"><ele>429.6666666666667</ele><time>2026-05-03T06:56:53.961Z</time></trkpt><trkpt lat="40.7239063" lon="14.8707507"><ele>432.0</ele><time>2026-05-03T06:56:55.959Z</time></trkpt><trkpt lat="40.7239905" lon="14.8707741"><ele>432.0</ele><time>2026-05-03T06:56:57.962Z</time></trkpt><trkpt lat="40.7240961" lon="14.8708303"><ele>432.00000000000006</ele><time>2026-05-03T06:56:59.952Z</time></trkpt><trkpt lat="40.7242039" lon="14.8708377"><ele>432.00000000000006</ele><time>2026-05-03T06:57:01.958Z</time></trkpt><trkpt lat="40.7242949" lon="14.870833"><ele>432.0</ele><time>2026-05-03T06:57:04.015Z</time></trkpt><trkpt lat="40.7243969" lon="14.8708363"><ele>432.0</ele><time>2026-05-03T06:57:05.963Z</time></trkpt><trkpt lat="40.7244658" lon="14.8708347"><ele>432.20000000000005</ele><time>2026-05-03T06:57:07.953Z</time></trkpt><trkpt lat="40.7245634" lon="14.8708446"><ele>432.40000000000003</ele><time>2026-05-03T06:57:10.001Z</time></trkpt><trkpt lat="40.7246893" lon="14.8709022"><ele>432.59999999999997</ele><time>2026-05-03T06:57:11.958Z</time></trkpt><trkpt lat="40.7247688" lon="14.8709437"><ele>432.79999999999995</ele><time>2026-05-03T06:57:12.957Z</time></trkpt><trkpt lat="40.7248781" lon="14.8709574"><ele>433.0</ele><time>2026-05-03T06:57:13.96Z</time></trkpt><trkpt lat="40.7249906" lon="14.8709826"><ele>433.0</ele><time>2026-05-03T06:57:14.957Z</time></trkpt><trkpt lat="40.7250895" lon="14.8710149"><ele>432.99999999999994</ele><time>2026-05-03T06:57:15.96Z</time></trkpt><trkpt lat="40.725164" lon="14.8710469"><ele>432.99999999999994</ele><time>2026-05-03T06:57:16.96Z</time></trkpt><trkpt lat="40.7252713" lon="14.8711423"><ele>433.0</ele><time>2026-05-03T06:57:18.955Z</time></trkpt><trkpt lat="40.725299" lon="14.8712231"><ele>433.0</ele><time>2026-05-03T06:57:19.96Z</time></trkpt><trkpt lat="40.7253375" lon="14.8713402"><ele>438.2</ele><time>2026-05-03T06:57:20.958Z</time></trkpt><trkpt lat="40.7253857" lon="14.8714678"><ele>443.4</ele><time>2026-05-03T06:57:21.953Z</time></trkpt><trkpt lat="40.7254276" lon="14.8715783"><ele>448.59999999999997</ele><time>2026-05-03T06:57:22.96Z</time></trkpt><trkpt lat="40.7254575" lon="14.8716836"><ele>453.79999999999995</ele><time>2026-05-03T06:57:23.959Z</time></trkpt><trkpt lat="40.7254871" lon="14.8717689"><ele>459.0</ele><time>2026-05-03T06:57:24.961Z</time></trkpt><trkpt lat="40.7255386" lon="14.8718784"><ele>460.0</ele><time>2026-05-03T06:57:26.96Z</time></trkpt><trkpt lat="40.7255917" lon="14.8719857"><ele>461.0</ele><time>2026-05-03T06:57:29.969Z</time></trkpt><trkpt lat="40.7256193" lon="14.8721151"><ele>462.0</ele><time>2026-05-03T06:57:32.035Z</time></trkpt><trkpt lat="40.725635" lon="14.8722123"><ele>463.0</ele><time>2026-05-03T06:57:33.028Z</time></trkpt><trkpt lat="40.7256543" lon="14.8723098"><ele>464.0</ele><time>2026-05-03T06:57:33.963Z</time></trkpt><trkpt lat="40.7256642" lon="14.8724172"><ele>465.0</ele><time>2026-05-03T06:57:34.966Z</time></trkpt><trkpt lat="40.7256713" lon="14.8725347"><ele>465.6</ele><time>2026-05-03T06:57:35.968Z</time></trkpt><trkpt lat="40.7256818" lon="14.87266"><ele>466.2</ele><time>2026-05-03T06:57:36.966Z</time></trkpt><trkpt lat="40.7256978" lon="14.8727855"><ele>466.79999999999995</ele><time>2026-05-03T06:57:37.968Z</time></trkpt><trkpt lat="40.725716" lon="14.8729154"><ele>467.4</ele><time>2026-05-03T06:57:38.972Z</time></trkpt><trkpt lat="40.7257367" lon="14.873045"><ele>468.0</ele><time>2026-05-03T06:57:40.049Z</time></trkpt><trkpt lat="40.725758" lon="14.8731715"><ele>468.0</ele><time>2026-05-03T06:57:41.033Z</time></trkpt><trkpt lat="40.7257854" lon="14.8732961"><ele>467.99999999999994</ele><time>2026-05-03T06:57:42.036Z</time></trkpt><trkpt lat="40.7258017" lon="14.8734071"><ele>467.99999999999994</ele><time>2026-05-03T06:57:42.961Z</time></trkpt><trkpt lat="40.7258156" lon="14.873525"><ele>468.0</ele><time>2026-05-03T06:57:43.96Z</time></trkpt><trkpt lat="40.7258284" lon="14.8736425"><ele>468.0</ele><time>2026-05-03T06:57:44.958Z</time></trkpt><trkpt lat="40.7258458" lon="14.8737706"><ele>467.0</ele><time>2026-05-03T06:57:45.954Z</time></trkpt><trkpt lat="40.7258718" lon="14.8739058"><ele>465.99999999999994</ele><time>2026-05-03T06:57:46.958Z</time></trkpt><trkpt lat="40.7259005" lon="14.8740372"><ele>464.99999999999994</ele><time>2026-05-03T06:57:47.985Z</time></trkpt><trkpt lat="40.7259429" lon="14.8741655"><ele>464.0</ele><time>2026-05-03T06:57:48.979Z</time></trkpt><trkpt lat="40.7260004" lon="14.874293"><ele>463.0</ele><time>2026-05-03T06:57:50.07Z</time></trkpt><trkpt lat="40.726061" lon="14.8744069"><ele>465.1666666666667</ele><time>2026-05-03T06:57:50.972Z</time></trkpt><trkpt lat="40.7261169" lon="14.8744993"><ele>467.33333333333337</ele><time>2026-05-03T06:57:51.971Z</time></trkpt><trkpt lat="40.7261738" lon="14.8745771"><ele>469.5</ele><time>2026-05-03T06:57:53.031Z</time></trkpt><trkpt lat="40.7262325" lon="14.8746368"><ele>471.66666666666663</ele><time>2026-05-03T06:57:53.957Z</time></trkpt><trkpt lat="40.7263468" lon="14.8746626"><ele>473.8333333333333</ele><time>2026-05-03T06:57:55.959Z</time></trkpt><trkpt lat="40.7264166" lon="14.8746581"><ele>476.0</ele><time>2026-05-03T06:57:57.04Z</time></trkpt><trkpt lat="40.7264841" lon="14.874658"><ele>475.99999999999994</ele><time>2026-05-03T06:57:57.952Z</time></trkpt><trkpt lat="40.7265486" lon="14.8746477"><ele>476.0</ele><time>2026-05-03T06:57:58.966Z</time></trkpt><trkpt lat="40.7266161" lon="14.8746214"><ele>476.0</ele><time>2026-05-03T06:57:59.962Z</time></trkpt><trkpt lat="40.7266893" lon="14.8745796"><ele>476.0</ele><time>2026-05-03T06:58:01.039Z</time></trkpt><trkpt lat="40.7267524" lon="14.8745526"><ele>475.99999999999994</ele><time>2026-05-03T06:58:02.039Z</time></trkpt><trkpt lat="40.7268418" lon="14.8745094"><ele>476.0</ele><time>2026-05-03T06:58:03.96Z</time></trkpt><trkpt lat="40.7267693" lon="14.8744308"><ele>476.0</ele><time>2026-05-03T06:58:11.96Z</time></trkpt><trkpt lat="40.7266964" lon="14.8743716"><ele>476.0</ele><time>2026-05-03T06:58:13.959Z</time></trkpt><trkpt lat="40.7266454" lon="14.8742815"><ele>476.0</ele><time>2026-05-03T06:58:15.987Z</time></trkpt><trkpt lat="40.7266091" lon="14.8741798"><ele>476.0</ele><time>2026-05-03T06:58:18.964Z</time></trkpt><trkpt lat="40.7267435" lon="14.8741427"><ele>476.0</ele><time>2026-05-03T06:58:23.959Z</time></trkpt><trkpt lat="40.7268133" lon="14.8741146"><ele>481.0</ele><time>2026-05-03T06:58:24.946Z</time></trkpt><trkpt lat="40.7268881" lon="14.874079"><ele>486.0</ele><time>2026-05-03T06:58:25.96Z</time></trkpt><trkpt lat="40.7269769" lon="14.8740137"><ele>491.0</ele><time>2026-05-03T06:58:27.035Z</time></trkpt><trkpt lat="40.7270773" lon="14.8739105"><ele>496.0</ele><time>2026-05-03T06:58:28.035Z</time></trkpt><trkpt lat="40.7271791" lon="14.8738131"><ele>501.0</ele><time>2026-05-03T06:58:28.964Z</time></trkpt><trkpt lat="40.7272772" lon="14.8737034"><ele>501.5</ele><time>2026-05-03T06:58:29.961Z</time></trkpt><trkpt lat="40.7273883" lon="14.8735868"><ele>502.0</ele><time>2026-05-03T06:58:30.958Z</time></trkpt><trkpt lat="40.727496" lon="14.8734726"><ele>502.5</ele><time>2026-05-03T06:58:32.041Z</time></trkpt><trkpt lat="40.7276032" lon="14.8733578"><ele>503.0</ele><time>2026-05-03T06:58:33.032Z</time></trkpt><trkpt lat="40.7277029" lon="14.8732495"><ele>509.5</ele><time>2026-05-03T06:58:33.965Z</time></trkpt><trkpt lat="40.7277976" lon="14.8731416"><ele>516.0</ele><time>2026-05-03T06:58:34.96Z</time></trkpt><trkpt lat="40.7278888" lon="14.8730255"><ele>522.5</ele><time>2026-05-03T06:58:36.011Z</time></trkpt><trkpt lat="40.7279811" lon="14.8728998"><ele>529.0</ele><time>2026-05-03T06:58:37.033Z</time></trkpt><trkpt lat="40.7280842" lon="14.87277"><ele>529.0</ele><time>2026-05-03T06:58:38.036Z</time></trkpt><trkpt lat="40.7281771" lon="14.8726439"><ele>529.0</ele><time>2026-05-03T06:58:38.959Z</time></trkpt><trkpt lat="40.7282717" lon="14.8725078"><ele>529.0</ele><time>2026-05-03T06:58:39.954Z</time></trkpt><trkpt lat="40.7283561" lon="14.8723881"><ele>529.0</ele><time>2026-05-03T06:58:40.996Z</time></trkpt><trkpt lat="40.7284484" lon="14.8722781"><ele>534.25</ele><time>2026-05-03T06:58:42.038Z</time></trkpt><trkpt lat="40.7285552" lon="14.8721749"><ele>539.5</ele><time>2026-05-03T06:58:43.047Z</time></trkpt><trkpt lat="40.7286601" lon="14.872067"><ele>544.75</ele><time>2026-05-03T06:58:43.961Z</time></trkpt><trkpt lat="40.7287654" lon="14.8719623"><ele>550.0</ele><time>2026-05-03T06:58:44.958Z</time></trkpt><trkpt lat="40.728872" lon="14.8718508"><ele>553.5</ele><time>2026-05-03T06:58:45.988Z</time></trkpt><trkpt lat="40.7289795" lon="14.871734"><ele>557.0</ele><time>2026-05-03T06:58:47.046Z</time></trkpt><trkpt lat="40.7290751" lon="14.8716219"><ele>560.5</ele><time>2026-05-03T06:58:48.042Z</time></trkpt><trkpt lat="40.7291694" lon="14.8715001"><ele>564.0</ele><time>2026-05-03T06:58:49Z</time></trkpt><trkpt lat="40.729276" lon="14.8713843"><ele>564.0</ele><time>2026-05-03T06:58:50.031Z</time></trkpt><trkpt lat="40.7293833" lon="14.8712878"><ele>564.0</ele><time>2026-05-03T06:58:50.959Z</time></trkpt><trkpt lat="40.7294946" lon="14.8712077"><ele>564.0</ele><time>2026-05-03T06:58:51.965Z</time></trkpt><trkpt lat="40.7296177" lon="14.8711333"><ele>564.0</ele><time>2026-05-03T06:58:52.961Z</time></trkpt><trkpt lat="40.7297408" lon="14.8710555"><ele>565.5</ele><time>2026-05-03T06:58:53.968Z</time></trkpt><trkpt lat="40.7298674" lon="14.8709724"><ele>567.0</ele><time>2026-05-03T06:58:54.958Z</time></trkpt><trkpt lat="40.7299919" lon="14.8708927"><ele>568.5</ele><time>2026-05-03T06:58:55.958Z</time></trkpt><trkpt lat="40.7301139" lon="14.8708072"><ele>570.0</ele><time>2026-05-03T06:58:56.96Z</time></trkpt><trkpt lat="40.7302157" lon="14.8707428"><ele>576.25</ele><time>2026-05-03T06:58:57.96Z</time></trkpt><trkpt lat="40.7303216" lon="14.8706986"><ele>582.5</ele><time>2026-05-03T06:58:58.96Z</time></trkpt><trkpt lat="40.7304293" lon="14.8706621"><ele>588.75</ele><time>2026-05-03T06:58:59.964Z</time></trkpt><trkpt lat="40.730547" lon="14.8706196"><ele>595.0</ele><time>2026-05-03T06:59:00.967Z</time></trkpt><trkpt lat="40.7306508" lon="14.8705405"><ele>595.0</ele><time>2026-05-03T06:59:01.963Z</time></trkpt><trkpt lat="40.7307552" lon="14.8704565"><ele>595.0</ele><time>2026-05-03T06:59:02.961Z</time></trkpt><trkpt lat="40.7308547" lon="14.8703872"><ele>595.0</ele><time>2026-05-03T06:59:03.969Z</time></trkpt><trkpt lat="40.730951" lon="14.8703482"><ele>595.0</ele><time>2026-05-03T06:59:05.043Z</time></trkpt><trkpt lat="40.7310424" lon="14.8703386"><ele>595.0</ele><time>2026-05-03T06:59:06.028Z</time></trkpt><trkpt lat="40.7311344" lon="14.8703297"><ele>599.1428571428571</ele><time>2026-05-03T06:59:06.971Z</time></trkpt><trkpt lat="40.731211" lon="14.8703381"><ele>603.2857142857142</ele><time>2026-05-03T06:59:07.968Z</time></trkpt><trkpt lat="40.7312938" lon="14.870358"><ele>607.4285714285714</ele><time>2026-05-03T06:59:09.966Z</time></trkpt><trkpt lat="40.7312571" lon="14.8704356"><ele>611.5714285714286</ele><time>2026-05-03T06:59:13.963Z</time></trkpt><trkpt lat="40.731204" lon="14.8704808"><ele>615.7142857142857</ele><time>2026-05-03T06:59:15.967Z</time></trkpt><trkpt lat="40.7311354" lon="14.8705221"><ele>619.8571428571429</ele><time>2026-05-03T06:59:16.966Z</time></trkpt><trkpt lat="40.7310922" lon="14.8705899"><ele>624.0</ele><time>2026-05-03T06:59:18.962Z</time></trkpt><trkpt lat="40.7310779" lon="14.8707216"><ele>619.0</ele><time>2026-05-03T06:59:20.965Z</time></trkpt><trkpt lat="40.7310504" lon="14.8708362"><ele>614.0</ele><time>2026-05-03T06:59:21.967Z</time></trkpt><trkpt lat="40.7310284" lon="14.8709397"><ele>609.0</ele><time>2026-05-03T06:59:22.969Z</time></trkpt><trkpt lat="40.7309608" lon="14.8711082"><ele>604.0</ele><time>2026-05-03T06:59:23.965Z</time></trkpt><trkpt lat="40.7309368" lon="14.8712669"><ele>599.0</ele><time>2026-05-03T06:59:24.968Z</time></trkpt><trkpt lat="40.7309245" lon="14.8713594"><ele>599.0</ele><time>2026-05-03T06:59:26.954Z</time></trkpt><trkpt lat="40.7309247" lon="14.8714638"><ele>599.0</ele><time>2026-05-03T06:59:28.968Z</time></trkpt><trkpt lat="40.7309438" lon="14.8715614"><ele>599.0</ele><time>2026-05-03T06:59:29.966Z</time></trkpt><trkpt lat="40.7309579" lon="14.8716593"><ele>599.0</ele><time>2026-05-03T06:59:30.963Z</time></trkpt><trkpt lat="40.7309826" lon="14.8717524"><ele>599.0</ele><time>2026-05-03T06:59:31.962Z</time></trkpt><trkpt lat="40.7310179" lon="14.871851"><ele>599.0</ele><time>2026-05-03T06:59:32.972Z</time></trkpt><trkpt lat="40.7310516" lon="14.8719254"><ele>605.75</ele><time>2026-05-03T06:59:33.967Z</time></trkpt><trkpt lat="40.7311467" lon="14.8719091"><ele>612.5</ele><time>2026-05-03T06:59:35.963Z</time></trkpt><trkpt lat="40.7312371" lon="14.8718022"><ele>619.25</ele><time>2026-05-03T06:59:36.967Z</time></trkpt><trkpt lat="40.7313355" lon="14.8716801"><ele>626.0</ele><time>2026-05-03T06:59:37.959Z</time></trkpt><trkpt lat="40.7314082" lon="14.8715438"><ele>626.0</ele><time>2026-05-03T06:59:38.963Z</time></trkpt><trkpt lat="40.7314742" lon="14.8714395"><ele>626.0</ele><time>2026-05-03T06:59:39.967Z</time></trkpt><trkpt lat="40.7315482" lon="14.87136"><ele>626.0</ele><time>2026-05-03T06:59:40.965Z</time></trkpt><trkpt lat="40.7316187" lon="14.8713023"><ele>626.0</ele><time>2026-05-03T06:59:41.967Z</time></trkpt><trkpt lat="40.7316998" lon="14.8712727"><ele>626.0</ele><time>2026-05-03T06:59:42.967Z</time></trkpt><trkpt lat="40.7317974" lon="14.8712611"><ele>627.2</ele><time>2026-05-03T06:59:43.957Z</time></trkpt><trkpt lat="40.7318936" lon="14.8712494"><ele>628.4000000000001</ele><time>2026-05-03T06:59:44.965Z</time></trkpt><trkpt lat="40.7320041" lon="14.8712345"><ele>629.6</ele><time>2026-05-03T06:59:45.964Z</time></trkpt><trkpt lat="40.7321157" lon="14.8712138"><ele>630.8000000000001</ele><time>2026-05-03T06:59:46.966Z</time></trkpt><trkpt lat="40.7322263" lon="14.8711832"><ele>632.0</ele><time>2026-05-03T06:59:47.959Z</time></trkpt><trkpt lat="40.7323337" lon="14.8711503"><ele>632.0</ele><time>2026-05-03T06:59:48.966Z</time></trkpt><trkpt lat="40.7324354" lon="14.8711145"><ele>632.0</ele><time>2026-05-03T06:59:49.963Z</time></trkpt><trkpt lat="40.7325317" lon="14.8710727"><ele>632.0</ele><time>2026-05-03T06:59:50.952Z</time></trkpt><trkpt lat="40.7326172" lon="14.8710331"><ele>632.0</ele><time>2026-05-03T06:59:51.967Z</time></trkpt><trkpt lat="40.7326774" lon="14.8709829"><ele>632.0</ele><time>2026-05-03T06:59:52.962Z</time></trkpt><trkpt lat="40.7327263" lon="14.8708946"><ele>631.0</ele><time>2026-05-03T06:59:53.965Z</time></trkpt><trkpt lat="40.7327729" lon="14.8707839"><ele>630.0</ele><time>2026-05-03T06:59:54.961Z</time></trkpt><trkpt lat="40.7328239" lon="14.8706631"><ele>629.0</ele><time>2026-05-03T06:59:55.959Z</time></trkpt><trkpt lat="40.7328679" lon="14.8705653"><ele>628.0</ele><time>2026-05-03T06:59:56.963Z</time></trkpt><trkpt lat="40.7329222" lon="14.8705124"><ele>627.0</ele><time>2026-05-03T06:59:57.965Z</time></trkpt><trkpt lat="40.7330417" lon="14.8704441"><ele>627.0</ele><time>2026-05-03T06:59:59.967Z</time></trkpt><trkpt lat="40.733095" lon="14.8703657"><ele>627.0</ele><time>2026-05-03T07:00:00.965Z</time></trkpt><trkpt lat="40.7331437" lon="14.8702636"><ele>627.0</ele><time>2026-05-03T07:00:01.97Z</time></trkpt><trkpt lat="40.7331847" lon="14.8701906"><ele>627.0</ele><time>2026-05-03T07:00:02.964Z</time></trkpt><trkpt lat="40.7332761" lon="14.8701647"><ele>627.0</ele><time>2026-05-03T07:00:05.965Z</time></trkpt><trkpt lat="40.7333946" lon="14.8701747"><ele>627.0</ele><time>2026-05-03T07:00:07.964Z</time></trkpt><trkpt lat="40.7334797" lon="14.8701274"><ele>627.0</ele><time>2026-05-03T07:00:08.965Z</time></trkpt><trkpt lat="40.7335462" lon="14.8700592"><ele>627.0</ele><time>2026-05-03T07:00:09.961Z</time></trkpt><trkpt lat="40.7336132" lon="14.8700223"><ele>627.0</ele><time>2026-05-03T07:00:10.965Z</time></trkpt><trkpt lat="40.7336847" lon="14.8699888"><ele>627.0</ele><time>2026-05-03T07:00:11.954Z</time></trkpt><trkpt lat="40.7337697" lon="14.8699889"><ele>627.0</ele><time>2026-05-03T07:00:12.96Z</time></trkpt><trkpt lat="40.7338401" lon="14.8699903"><ele>628.6666666666666</ele><time>2026-05-03T07:00:13.962Z</time></trkpt><trkpt lat="40.7339057" lon="14.8700758"><ele>630.3333333333334</ele><time>2026-05-03T07:00:15.968Z</time></trkpt><trkpt lat="40.7339508" lon="14.8702293"><ele>632.0</ele><time>2026-05-03T07:00:17.962Z</time></trkpt><trkpt lat="40.7339743" lon="14.870314"><ele>633.6666666666667</ele><time>2026-05-03T07:00:18.958Z</time></trkpt><trkpt lat="40.7340026" lon="14.8704133"><ele>635.3333333333334</ele><time>2026-05-03T07:00:19.964Z</time></trkpt><trkpt lat="40.734034" lon="14.8705091"><ele>637.0</ele><time>2026-05-03T07:00:20.962Z</time></trkpt><trkpt lat="40.7340985" lon="14.8706014"><ele>637.0</ele><time>2026-05-03T07:00:21.965Z</time></trkpt><trkpt lat="40.7341646" lon="14.8706653"><ele>637.0</ele><time>2026-05-03T07:00:22.963Z</time></trkpt><trkpt lat="40.734224" lon="14.8707272"><ele>637.0</ele><time>2026-05-03T07:00:23.963Z</time></trkpt><trkpt lat="40.7342826" lon="14.870798"><ele>637.0</ele><time>2026-05-03T07:00:25.031Z</time></trkpt><trkpt lat="40.7343537" lon="14.8708572"><ele>637.0</ele><time>2026-05-03T07:00:25.969Z</time></trkpt><trkpt lat="40.7344333" lon="14.8708971"><ele>637.0</ele><time>2026-05-03T07:00:27.034Z</time></trkpt><trkpt lat="40.7345152" lon="14.8708994"><ele>636.5</ele><time>2026-05-03T07:00:28.04Z</time></trkpt><trkpt lat="40.7345973" lon="14.8708969"><ele>636.0</ele><time>2026-05-03T07:00:28.956Z</time></trkpt><trkpt lat="40.7346686" lon="14.8708844"><ele>635.5</ele><time>2026-05-03T07:00:29.96Z</time></trkpt><trkpt lat="40.7347427" lon="14.8708566"><ele>635.0</ele><time>2026-05-03T07:00:30.956Z</time></trkpt><trkpt lat="40.7348109" lon="14.8708049"><ele>634.5</ele><time>2026-05-03T07:00:32.04Z</time></trkpt><trkpt lat="40.7348688" lon="14.8707303"><ele>634.0</ele><time>2026-05-03T07:00:33.048Z</time></trkpt><trkpt lat="40.7349163" lon="14.8706593"><ele>634.0</ele><time>2026-05-03T07:00:33.953Z</time></trkpt><trkpt lat="40.7349532" lon="14.8705865"><ele>634.0</ele><time>2026-05-03T07:00:34.959Z</time></trkpt><trkpt lat="40.7349922" lon="14.8704366"><ele>634.0</ele><time>2026-05-03T07:00:37.042Z</time></trkpt><trkpt lat="40.735025" lon="14.8702902"><ele>634.0</ele><time>2026-05-03T07:00:38.958Z</time></trkpt><trkpt lat="40.7350837" lon="14.8701725"><ele>634.0</ele><time>2026-05-03T07:00:40.961Z</time></trkpt><trkpt lat="40.73513" lon="14.87007"><ele>636.8333333333334</ele><time>2026-05-03T07:00:43.038Z</time></trkpt><trkpt lat="40.7351463" lon="14.8699704"><ele>639.6666666666667</ele><time>2026-05-03T07:00:44.96Z</time></trkpt><trkpt lat="40.7351537" lon="14.869872"><ele>642.5</ele><time>2026-05-03T07:00:48.967Z</time></trkpt><trkpt lat="40.7351717" lon="14.8697534"><ele>645.3333333333334</ele><time>2026-05-03T07:00:51.96Z</time></trkpt><trkpt lat="40.7352509" lon="14.869614"><ele>648.1666666666666</ele><time>2026-05-03T07:00:53.975Z</time></trkpt><trkpt lat="40.7352974" lon="14.869545"><ele>651.0</ele><time>2026-05-03T07:00:55.024Z</time></trkpt><trkpt lat="40.735361" lon="14.8694987"><ele>649.1999999999999</ele><time>2026-05-03T07:00:56.022Z</time></trkpt><trkpt lat="40.735431" lon="14.8694572"><ele>647.4</ele><time>2026-05-03T07:00:56.961Z</time></trkpt><trkpt lat="40.7355117" lon="14.8693938"><ele>645.6</ele><time>2026-05-03T07:00:57.962Z</time></trkpt><trkpt lat="40.7355928" lon="14.8692822"><ele>643.8</ele><time>2026-05-03T07:00:58.96Z</time></trkpt><trkpt lat="40.7356595" lon="14.8691734"><ele>642.0</ele><time>2026-05-03T07:00:59.962Z</time></trkpt><trkpt lat="40.7356929" lon="14.8690738"><ele>642.0</ele><time>2026-05-03T07:01:01.957Z</time></trkpt><trkpt lat="40.7357843" lon="14.8690655"><ele>642.0</ele><time>2026-05-03T07:01:03.964Z</time></trkpt><trkpt lat="40.735877" lon="14.8690627"><ele>642.0</ele><time>2026-05-03T07:01:05.048Z</time></trkpt><trkpt lat="40.7359943" lon="14.8690582"><ele>642.0</ele><time>2026-05-03T07:01:06.047Z</time></trkpt><trkpt lat="40.7360995" lon="14.8690616"><ele>642.0</ele><time>2026-05-03T07:01:07.034Z</time></trkpt><trkpt lat="40.7362251" lon="14.8690477"><ele>637.0</ele><time>2026-05-03T07:01:08.033Z</time></trkpt><trkpt lat="40.7363165" lon="14.8690009"><ele>632.0</ele><time>2026-05-03T07:01:08.962Z</time></trkpt><trkpt lat="40.7363616" lon="14.8689148"><ele>627.0</ele><time>2026-05-03T07:01:09.955Z</time></trkpt><trkpt lat="40.7363795" lon="14.8687884"><ele>622.0</ele><time>2026-05-03T07:01:10.978Z</time></trkpt><trkpt lat="40.7363905" lon="14.8686334"><ele>617.0</ele><time>2026-05-03T07:01:12.026Z</time></trkpt><trkpt lat="40.7363966" lon="14.8684722"><ele>619.1666666666666</ele><time>2026-05-03T07:01:12.982Z</time></trkpt><trkpt lat="40.7364099" lon="14.8683461"><ele>621.3333333333333</ele><time>2026-05-03T07:01:13.958Z</time></trkpt><trkpt lat="40.7364068" lon="14.8682514"><ele>623.5</ele><time>2026-05-03T07:01:15.025Z</time></trkpt><trkpt lat="40.7363884" lon="14.8681453"><ele>625.6666666666666</ele><time>2026-05-03T07:01:16.024Z</time></trkpt><trkpt lat="40.7363903" lon="14.8680107"><ele>627.8333333333334</ele><time>2026-05-03T07:01:17.965Z</time></trkpt><trkpt lat="40.7364568" lon="14.8679268"><ele>630.0</ele><time>2026-05-03T07:01:19.961Z</time></trkpt><trkpt lat="40.7365018" lon="14.8678492"><ele>630.0</ele><time>2026-05-03T07:01:20.962Z</time></trkpt><trkpt lat="40.7365414" lon="14.8677633"><ele>630.0</ele><time>2026-05-03T07:01:22.079Z</time></trkpt><trkpt lat="40.7366611" lon="14.8676653"><ele>630.0</ele><time>2026-05-03T07:01:23.96Z</time></trkpt><trkpt lat="40.7367663" lon="14.8676168"><ele>630.0</ele><time>2026-05-03T07:01:24.953Z</time></trkpt><trkpt lat="40.7368621" lon="14.8675629"><ele>630.0</ele><time>2026-05-03T07:01:25.951Z</time></trkpt><trkpt lat="40.7369464" lon="14.8675095"><ele>624.8333333333334</ele><time>2026-05-03T07:01:26.959Z</time></trkpt><trkpt lat="40.7369969" lon="14.8674115"><ele>619.6666666666666</ele><time>2026-05-03T07:01:27.957Z</time></trkpt><trkpt lat="40.7370204" lon="14.8673013"><ele>614.5</ele><time>2026-05-03T07:01:28.965Z</time></trkpt><trkpt lat="40.7370038" lon="14.8671953"><ele>609.3333333333333</ele><time>2026-05-03T07:01:29.965Z</time></trkpt><trkpt lat="40.7369664" lon="14.8670775"><ele>604.1666666666666</ele><time>2026-05-03T07:01:30.997Z</time></trkpt><trkpt lat="40.7369241" lon="14.8669722"><ele>599.0</ele><time>2026-05-03T07:01:31.948Z</time></trkpt><trkpt lat="40.7369022" lon="14.8668838"><ele>599.0</ele><time>2026-05-03T07:01:33.032Z</time></trkpt><trkpt lat="40.7369174" lon="14.8667799"><ele>599.0</ele><time>2026-05-03T07:01:33.95Z</time></trkpt><trkpt lat="40.7369376" lon="14.8666756"><ele>599.0</ele><time>2026-05-03T07:01:34.957Z</time></trkpt><trkpt lat="40.7369645" lon="14.8665934"><ele>599.0</ele><time>2026-05-03T07:01:35.954Z</time></trkpt><trkpt lat="40.7370375" lon="14.8665025"><ele>599.0</ele><time>2026-05-03T07:01:37.953Z</time></trkpt><trkpt lat="40.7371476" lon="14.8665295"><ele>599.0</ele><time>2026-05-03T07:01:40.024Z</time></trkpt><trkpt lat="40.7372364" lon="14.8665508"><ele>606.5</ele><time>2026-05-03T07:01:41.031Z</time></trkpt><trkpt lat="40.737347" lon="14.8665157"><ele>614.0</ele><time>2026-05-03T07:01:42.024Z</time></trkpt><trkpt lat="40.7374639" lon="14.8664347"><ele>621.5</ele><time>2026-05-03T07:01:43.036Z</time></trkpt><trkpt lat="40.7375698" lon="14.8663334"><ele>629.0</ele><time>2026-05-03T07:01:43.953Z</time></trkpt><trkpt lat="40.7376527" lon="14.8662528"><ele>629.5</ele><time>2026-05-03T07:01:44.955Z</time></trkpt><trkpt lat="40.737747" lon="14.86615"><ele>630.0</ele><time>2026-05-03T07:01:45.975Z</time></trkpt><trkpt lat="40.7378444" lon="14.8660154"><ele>630.5</ele><time>2026-05-03T07:01:47.029Z</time></trkpt><trkpt lat="40.7379338" lon="14.8658989"><ele>631.0</ele><time>2026-05-03T07:01:48.029Z</time></trkpt><trkpt lat="40.7380063" lon="14.8658243"><ele>631.0</ele><time>2026-05-03T07:01:48.96Z</time></trkpt><trkpt lat="40.7380612" lon="14.8657554"><ele>631.0</ele><time>2026-05-03T07:01:49.968Z</time></trkpt><trkpt lat="40.7381149" lon="14.8656354"><ele>631.0</ele><time>2026-05-03T07:01:51.083Z</time></trkpt><trkpt lat="40.7381769" lon="14.8655027"><ele>631.0</ele><time>2026-05-03T07:01:52.039Z</time></trkpt><trkpt lat="40.7382417" lon="14.8654262"><ele>631.0</ele><time>2026-05-03T07:01:52.979Z</time></trkpt><trkpt lat="40.7383242" lon="14.8654385"><ele>631.0</ele><time>2026-05-03T07:01:54.963Z</time></trkpt><trkpt lat="40.7384474" lon="14.8654201"><ele>631.0</ele><time>2026-05-03T07:01:56.944Z</time></trkpt><trkpt lat="40.7385059" lon="14.8653746"><ele>631.0</ele><time>2026-05-03T07:01:57.954Z</time></trkpt><trkpt lat="40.7385608" lon="14.8652554"><ele>631.0</ele><time>2026-05-03T07:01:59.942Z</time></trkpt><trkpt lat="40.7385837" lon="14.8651495"><ele>631.0</ele><time>2026-05-03T07:02:00.979Z</time></trkpt><trkpt lat="40.7386126" lon="14.8650429"><ele>631.2</ele><time>2026-05-03T07:02:02.952Z</time></trkpt><trkpt lat="40.7386711" lon="14.8649662"><ele>631.4000000000001</ele><time>2026-05-03T07:02:06.954Z</time></trkpt><trkpt lat="40.7387766" lon="14.8649498"><ele>631.6</ele><time>2026-05-03T07:02:08.951Z</time></trkpt><trkpt lat="40.738832" lon="14.8650377"><ele>631.8000000000001</ele><time>2026-05-03T07:02:11.955Z</time></trkpt><trkpt lat="40.7389534" lon="14.8651044"><ele>632.0</ele><time>2026-05-03T07:02:13.965Z</time></trkpt><trkpt lat="40.7390092" lon="14.8651484"><ele>632.0</ele><time>2026-05-03T07:02:14.976Z</time></trkpt><trkpt lat="40.7391094" lon="14.8651908"><ele>632.0</ele><time>2026-05-03T07:02:16.959Z</time></trkpt><trkpt lat="40.7392476" lon="14.8652137"><ele>632.0</ele><time>2026-05-03T07:02:17.944Z</time></trkpt><trkpt lat="40.739277" lon="14.8652935"><ele>632.0</ele><time>2026-05-03T07:02:18.94Z</time></trkpt><trkpt lat="40.7393157" lon="14.8653619"><ele>632.0</ele><time>2026-05-03T07:02:19.938Z</time></trkpt><trkpt lat="40.739372" lon="14.8654107"><ele>632.0</ele><time>2026-05-03T07:02:21.94Z</time></trkpt><trkpt lat="40.7394362" lon="14.8653507"><ele>644.0</ele><time>2026-05-03T07:02:24.947Z</time></trkpt><trkpt lat="40.739588" lon="14.8652989"><ele>656.0</ele><time>2026-05-03T07:02:26.983Z</time></trkpt><trkpt lat="40.7397111" lon="14.8652684"><ele>668.0</ele><time>2026-05-03T07:02:27.951Z</time></trkpt><trkpt lat="40.7398309" lon="14.865232"><ele>680.0</ele><time>2026-05-03T07:02:28.941Z</time></trkpt><trkpt lat="40.7399279" lon="14.8651697"><ele>683.2</ele><time>2026-05-03T07:02:29.95Z</time></trkpt><trkpt lat="40.740009" lon="14.8650662"><ele>686.4</ele><time>2026-05-03T07:02:30.952Z</time></trkpt><trkpt lat="40.7400716" lon="14.8649721"><ele>689.5999999999999</ele><time>2026-05-03T07:02:31.939Z</time></trkpt><trkpt lat="40.7401437" lon="14.8648985"><ele>692.8</ele><time>2026-05-03T07:02:33.013Z</time></trkpt><trkpt lat="40.7402034" lon="14.8648102"><ele>696.0</ele><time>2026-05-03T07:02:33.95Z</time></trkpt><trkpt lat="40.7402459" lon="14.8647184"><ele>695.6666666666666</ele><time>2026-05-03T07:02:34.948Z</time></trkpt><trkpt lat="40.7402764" lon="14.8646194"><ele>695.3333333333334</ele><time>2026-05-03T07:02:35.956Z</time></trkpt><trkpt lat="40.7403021" lon="14.8645301"><ele>695.0</ele><time>2026-05-03T07:02:36.952Z</time></trkpt><trkpt lat="40.740299" lon="14.864432"><ele>694.6666666666667</ele><time>2026-05-03T07:02:37.957Z</time></trkpt><trkpt lat="40.7402903" lon="14.8642933"><ele>694.3333333333334</ele><time>2026-05-03T07:02:38.96Z</time></trkpt><trkpt lat="40.7402886" lon="14.8641828"><ele>694.0</ele><time>2026-05-03T07:02:39.951Z</time></trkpt><trkpt lat="40.7403054" lon="14.8640703"><ele>694.0</ele><time>2026-05-03T07:02:41.957Z</time></trkpt><trkpt lat="40.740392" lon="14.8640669"><ele>694.0</ele><time>2026-05-03T07:02:43.957Z</time></trkpt><trkpt lat="40.7404725" lon="14.8640591"><ele>694.0</ele><time>2026-05-03T07:02:44.953Z</time></trkpt><trkpt lat="40.7405743" lon="14.8640315"><ele>694.0</ele><time>2026-05-03T07:02:45.953Z</time></trkpt><trkpt lat="40.7406725" lon="14.8640175"><ele>694.0</ele><time>2026-05-03T07:02:46.954Z</time></trkpt><trkpt lat="40.7407739" lon="14.8640021"><ele>694.0</ele><time>2026-05-03T07:02:47.97Z</time></trkpt><trkpt lat="40.7408769" lon="14.8639724"><ele>694.0</ele><time>2026-05-03T07:02:48.957Z</time></trkpt><trkpt lat="40.7409835" lon="14.8639311"><ele>694.0</ele><time>2026-05-03T07:02:49.957Z</time></trkpt><trkpt lat="40.7410844" lon="14.8638848"><ele>694.0</ele><time>2026-05-03T07:02:50.957Z</time></trkpt><trkpt lat="40.7411688" lon="14.863835"><ele>694.0</ele><time>2026-05-03T07:02:51.955Z</time></trkpt><trkpt lat="40.7412455" lon="14.8637508"><ele>690.6</ele><time>2026-05-03T07:02:52.952Z</time></trkpt><trkpt lat="40.7413085" lon="14.8636299"><ele>687.2</ele><time>2026-05-03T07:02:53.955Z</time></trkpt><trkpt lat="40.7413725" lon="14.8635103"><ele>683.8000000000001</ele><time>2026-05-03T07:02:54.961Z</time></trkpt><trkpt lat="40.7414225" lon="14.8633985"><ele>680.4000000000001</ele><time>2026-05-03T07:02:55.953Z</time></trkpt><trkpt lat="40.7414513" lon="14.8633107"><ele>677.0</ele><time>2026-05-03T07:02:57.036Z</time></trkpt><trkpt lat="40.7414593" lon="14.863209"><ele>677.0</ele><time>2026-05-03T07:02:57.958Z</time></trkpt><trkpt lat="40.7414607" lon="14.8630805"><ele>677.0</ele><time>2026-05-03T07:02:58.948Z</time></trkpt><trkpt lat="40.7414373" lon="14.8629618"><ele>677.0</ele><time>2026-05-03T07:02:59.955Z</time></trkpt><trkpt lat="40.7413966" lon="14.862861"><ele>677.0</ele><time>2026-05-03T07:03:01.011Z</time></trkpt><trkpt lat="40.7413664" lon="14.8627872"><ele>677.0</ele><time>2026-05-03T07:03:02.016Z</time></trkpt><trkpt lat="40.7413197" lon="14.8627195"><ele>677.0</ele><time>2026-05-03T07:03:03.023Z</time></trkpt><trkpt lat="40.7412549" lon="14.8626712"><ele>677.0</ele><time>2026-05-03T07:03:03.951Z</time></trkpt><trkpt lat="40.7411918" lon="14.862618"><ele>677.0</ele><time>2026-05-03T07:03:04.956Z</time></trkpt><trkpt lat="40.7411167" lon="14.8625545"><ele>677.0</ele><time>2026-05-03T07:03:07.017Z</time></trkpt><trkpt lat="40.7411782" lon="14.8625072"><ele>677.0</ele><time>2026-05-03T07:03:09.951Z</time></trkpt><trkpt lat="40.7412499" lon="14.8624829"><ele>677.0</ele><time>2026-05-03T07:03:11.012Z</time></trkpt><trkpt lat="40.741376" lon="14.8624522"><ele>677.0</ele><time>2026-05-03T07:03:12.015Z</time></trkpt><trkpt lat="40.7415063" lon="14.862418"><ele>676.6</ele><time>2026-05-03T07:03:13.012Z</time></trkpt><trkpt lat="40.7416251" lon="14.8623771"><ele>676.2</ele><time>2026-05-03T07:03:13.954Z</time></trkpt><trkpt lat="40.741711" lon="14.8623227"><ele>675.8</ele><time>2026-05-03T07:03:14.951Z</time></trkpt><trkpt lat="40.7417452" lon="14.8622523"><ele>675.4</ele><time>2026-05-03T07:03:15.952Z</time></trkpt><trkpt lat="40.7417725" lon="14.8621311"><ele>675.0</ele><time>2026-05-03T07:03:16.96Z</time></trkpt><trkpt lat="40.7417974" lon="14.8620264"><ele>675.0</ele><time>2026-05-03T07:03:17.953Z</time></trkpt><trkpt lat="40.7418242" lon="14.8619415"><ele>675.0</ele><time>2026-05-03T07:03:18.956Z</time></trkpt><trkpt lat="40.7418631" lon="14.8618541"><ele>675.0</ele><time>2026-05-03T07:03:20.028Z</time></trkpt><trkpt lat="40.7418906" lon="14.8617515"><ele>675.0</ele><time>2026-05-03T07:03:21.023Z</time></trkpt><trkpt lat="40.7418834" lon="14.8616487"><ele>675.0</ele><time>2026-05-03T07:03:22.018Z</time></trkpt><trkpt lat="40.7418735" lon="14.8615277"><ele>675.0</ele><time>2026-05-03T07:03:22.955Z</time></trkpt><trkpt lat="40.7418547" lon="14.8613851"><ele>677.6</ele><time>2026-05-03T07:03:23.956Z</time></trkpt><trkpt lat="40.7418371" lon="14.8612544"><ele>680.2</ele><time>2026-05-03T07:03:24.957Z</time></trkpt><trkpt lat="40.7418062" lon="14.8611375"><ele>682.8</ele><time>2026-05-03T07:03:25.955Z</time></trkpt><trkpt lat="40.7417593" lon="14.861012"><ele>685.4</ele><time>2026-05-03T07:03:26.956Z</time></trkpt><trkpt lat="40.7417055" lon="14.8608757"><ele>688.0</ele><time>2026-05-03T07:03:28.02Z</time></trkpt><trkpt lat="40.7416965" lon="14.8607657"><ele>689.1666666666667</ele><time>2026-05-03T07:03:28.956Z</time></trkpt><trkpt lat="40.7416925" lon="14.8606143"><ele>690.3333333333334</ele><time>2026-05-03T07:03:31.049Z</time></trkpt><trkpt lat="40.7417474" lon="14.8605544"><ele>691.5</ele><time>2026-05-03T07:03:33.024Z</time></trkpt><trkpt lat="40.741826" lon="14.8605577"><ele>692.6666666666666</ele><time>2026-05-03T07:03:33.952Z</time></trkpt><trkpt lat="40.7419032" lon="14.8605893"><ele>693.8333333333333</ele><time>2026-05-03T07:03:34.969Z</time></trkpt><trkpt lat="40.7419793" lon="14.8606273"><ele>695.0</ele><time>2026-05-03T07:03:35.948Z</time></trkpt><trkpt lat="40.7420669" lon="14.8606529"><ele>691.6</ele><time>2026-05-03T07:03:37.022Z</time></trkpt><trkpt lat="40.7421633" lon="14.8606761"><ele>688.2</ele><time>2026-05-03T07:03:38.018Z</time></trkpt><trkpt lat="40.7422664" lon="14.8607227"><ele>684.8</ele><time>2026-05-03T07:03:38.954Z</time></trkpt><trkpt lat="40.7423531" lon="14.8607832"><ele>681.4</ele><time>2026-05-03T07:03:39.951Z</time></trkpt><trkpt lat="40.7424241" lon="14.8608516"><ele>678.0</ele><time>2026-05-03T07:03:40.949Z</time></trkpt><trkpt lat="40.7424814" lon="14.8609252"><ele>674.0</ele><time>2026-05-03T07:03:41.955Z</time></trkpt><trkpt lat="40.742553" lon="14.86098"><ele>670.0</ele><time>2026-05-03T07:03:42.959Z</time></trkpt><trkpt lat="40.7426317" lon="14.861023"><ele>666.0</ele><time>2026-05-03T07:03:43.957Z</time></trkpt><trkpt lat="40.7427274" lon="14.8610623"><ele>662.0</ele><time>2026-05-03T07:03:44.954Z</time></trkpt><trkpt lat="40.74283" lon="14.8611007"><ele>658.0</ele><time>2026-05-03T07:03:46.059Z</time></trkpt><trkpt lat="40.742923" lon="14.8611427"><ele>657.3333333333334</ele><time>2026-05-03T07:03:47.021Z</time></trkpt><trkpt lat="40.7430045" lon="14.8611405"><ele>656.6666666666667</ele><time>2026-05-03T07:03:48.955Z</time></trkpt><trkpt lat="40.7430564" lon="14.8610096"><ele>656.0</ele><time>2026-05-03T07:03:51.956Z</time></trkpt><trkpt lat="40.7431066" lon="14.860891"><ele>655.3333333333334</ele><time>2026-05-03T07:03:52.941Z</time></trkpt><trkpt lat="40.7431442" lon="14.8608098"><ele>654.6666666666666</ele><time>2026-05-03T07:03:53.944Z</time></trkpt><trkpt lat="40.7431785" lon="14.8607174"><ele>654.0</ele><time>2026-05-03T07:03:54.954Z</time></trkpt><trkpt lat="40.7432203" lon="14.8606233"><ele>657.0</ele><time>2026-05-03T07:03:55.954Z</time></trkpt><trkpt lat="40.7432536" lon="14.8605142"><ele>660.0</ele><time>2026-05-03T07:03:56.948Z</time></trkpt><trkpt lat="40.74329" lon="14.8604203"><ele>663.0</ele><time>2026-05-03T07:03:57.953Z</time></trkpt><trkpt lat="40.7433243" lon="14.8602971"><ele>666.0</ele><time>2026-05-03T07:03:58.956Z</time></trkpt><trkpt lat="40.7433288" lon="14.8601797"><ele>669.0</ele><time>2026-05-03T07:03:59.952Z</time></trkpt><trkpt lat="40.7433055" lon="14.8600698"><ele>672.0</ele><time>2026-05-03T07:04:00.953Z</time></trkpt><trkpt lat="40.7432636" lon="14.859959"><ele>673.2</ele><time>2026-05-03T07:04:01.952Z</time></trkpt><trkpt lat="40.7432268" lon="14.8598446"><ele>674.4000000000001</ele><time>2026-05-03T07:04:02.953Z</time></trkpt><trkpt lat="40.7431772" lon="14.8597378"><ele>675.5999999999999</ele><time>2026-05-03T07:04:03.954Z</time></trkpt><trkpt lat="40.7431232" lon="14.8596413"><ele>676.8</ele><time>2026-05-03T07:04:04.951Z</time></trkpt><trkpt lat="40.7430908" lon="14.8595617"><ele>678.0</ele><time>2026-05-03T07:04:05.959Z</time></trkpt><trkpt lat="40.7430269" lon="14.8594509"><ele>678.0</ele><time>2026-05-03T07:04:07.945Z</time></trkpt><trkpt lat="40.7429359" lon="14.8593323"><ele>678.0</ele><time>2026-05-03T07:04:09.952Z</time></trkpt><trkpt lat="40.7428463" lon="14.8592019"><ele>678.0</ele><time>2026-05-03T07:04:11.954Z</time></trkpt><trkpt lat="40.742801" lon="14.8591194"><ele>678.0</ele><time>2026-05-03T07:04:12.955Z</time></trkpt><trkpt lat="40.7427573" lon="14.8590378"><ele>678.0</ele><time>2026-05-03T07:04:13.959Z</time></trkpt><trkpt lat="40.7427239" lon="14.858959"><ele>683.5</ele><time>2026-05-03T07:04:14.957Z</time></trkpt><trkpt lat="40.7426845" lon="14.8588818"><ele>689.0</ele><time>2026-05-03T07:04:15.948Z</time></trkpt><trkpt lat="40.7426298" lon="14.8588198"><ele>694.5</ele><time>2026-05-03T07:04:16.952Z</time></trkpt><trkpt lat="40.7425704" lon="14.8587433"><ele>700.0</ele><time>2026-05-03T07:04:17.957Z</time></trkpt><trkpt lat="40.7424991" lon="14.8586402"><ele>705.5</ele><time>2026-05-03T07:04:18.95Z</time></trkpt><trkpt lat="40.7424318" lon="14.8585343"><ele>711.0</ele><time>2026-05-03T07:04:19.957Z</time></trkpt><trkpt lat="40.7423877" lon="14.8584442"><ele>711.0</ele><time>2026-05-03T07:04:20.953Z</time></trkpt><trkpt lat="40.7423661" lon="14.8583511"><ele>711.0</ele><time>2026-05-03T07:04:21.954Z</time></trkpt><trkpt lat="40.7423227" lon="14.8582657"><ele>711.0</ele><time>2026-05-03T07:04:23.951Z</time></trkpt><trkpt lat="40.7423684" lon="14.8582014"><ele>711.0</ele><time>2026-05-03T07:04:25.95Z</time></trkpt><trkpt lat="40.7424423" lon="14.8581803"><ele>711.0</ele><time>2026-05-03T07:04:26.96Z</time></trkpt><trkpt lat="40.742537" lon="14.8581686"><ele>711.0</ele><time>2026-05-03T07:04:27.946Z</time></trkpt><trkpt lat="40.7426494" lon="14.8581573"><ele>705.5</ele><time>2026-05-03T07:04:28.951Z</time></trkpt><trkpt lat="40.7427542" lon="14.8581684"><ele>700.0</ele><time>2026-05-03T07:04:29.954Z</time></trkpt><trkpt lat="40.7428212" lon="14.8581521"><ele>694.5</ele><time>2026-05-03T07:04:30.951Z</time></trkpt><trkpt lat="40.7428876" lon="14.8580967"><ele>689.0</ele><time>2026-05-03T07:04:32.954Z</time></trkpt><trkpt lat="40.7429192" lon="14.8579624"><ele>683.5</ele><time>2026-05-03T07:04:34.953Z</time></trkpt><trkpt lat="40.742924" lon="14.8578545"><ele>678.0</ele><time>2026-05-03T07:04:35.958Z</time></trkpt><trkpt lat="40.7429368" lon="14.8577557"><ele>678.0</ele><time>2026-05-03T07:04:36.956Z</time></trkpt><trkpt lat="40.7429561" lon="14.8576761"><ele>678.0</ele><time>2026-05-03T07:04:37.95Z</time></trkpt><trkpt lat="40.7429941" lon="14.857563"><ele>678.0</ele><time>2026-05-03T07:04:38.954Z</time></trkpt><trkpt lat="40.7430375" lon="14.8574551"><ele>678.0</ele><time>2026-05-03T07:04:39.953Z</time></trkpt><trkpt lat="40.7430924" lon="14.8573336"><ele>678.0</ele><time>2026-05-03T07:04:40.944Z</time></trkpt><trkpt lat="40.7431268" lon="14.857228"><ele>678.0</ele><time>2026-05-03T07:04:41.949Z</time></trkpt><trkpt lat="40.743139" lon="14.8571102"><ele>681.0</ele><time>2026-05-03T07:04:42.955Z</time></trkpt><trkpt lat="40.7431503" lon="14.8569813"><ele>684.0</ele><time>2026-05-03T07:04:43.946Z</time></trkpt><trkpt lat="40.7431519" lon="14.8568355"><ele>687.0</ele><time>2026-05-03T07:04:45.011Z</time></trkpt><trkpt lat="40.7431792" lon="14.8567274"><ele>690.0</ele><time>2026-05-03T07:04:45.953Z</time></trkpt><trkpt lat="40.7432068" lon="14.8566347"><ele>693.0</ele><time>2026-05-03T07:04:47.028Z</time></trkpt><trkpt lat="40.7432489" lon="14.8565232"><ele>697.5999999999999</ele><time>2026-05-03T07:04:48.036Z</time></trkpt><trkpt lat="40.7432832" lon="14.8564012"><ele>702.1999999999999</ele><time>2026-05-03T07:04:48.957Z</time></trkpt><trkpt lat="40.743305" lon="14.856243"><ele>706.8</ele><time>2026-05-03T07:04:49.961Z</time></trkpt><trkpt lat="40.7433273" lon="14.8561095"><ele>711.4</ele><time>2026-05-03T07:04:50.956Z</time></trkpt><trkpt lat="40.7433394" lon="14.8560137"><ele>716.0</ele><time>2026-05-03T07:04:52.003Z</time></trkpt><trkpt lat="40.7434564" lon="14.8559951"><ele>716.0</ele><time>2026-05-03T07:04:53.958Z</time></trkpt><trkpt lat="40.7435365" lon="14.8560536"><ele>716.0</ele><time>2026-05-03T07:04:55.964Z</time></trkpt><trkpt lat="40.7435948" lon="14.8561202"><ele>716.0</ele><time>2026-05-03T07:04:56.955Z</time></trkpt><trkpt lat="40.7436635" lon="14.8562128"><ele>716.0</ele><time>2026-05-03T07:04:57.955Z</time></trkpt><trkpt lat="40.7437407" lon="14.8562776"><ele>716.0</ele><time>2026-05-03T07:04:58.961Z</time></trkpt><trkpt lat="40.7438606" lon="14.8563288"><ele>716.4</ele><time>2026-05-03T07:04:59.964Z</time></trkpt><trkpt lat="40.7439604" lon="14.8563371"><ele>716.8</ele><time>2026-05-03T07:05:00.96Z</time></trkpt><trkpt lat="40.7440299" lon="14.8563014"><ele>717.1999999999999</ele><time>2026-05-03T07:05:01.96Z</time></trkpt><trkpt lat="40.7440821" lon="14.8561481"><ele>717.5999999999999</ele><time>2026-05-03T07:05:03.96Z</time></trkpt><trkpt lat="40.744089" lon="14.8560542"><ele>718.0</ele><time>2026-05-03T07:05:04.953Z</time></trkpt><trkpt lat="40.744066" lon="14.8559307"><ele>718.0</ele><time>2026-05-03T07:05:05.986Z</time></trkpt><trkpt lat="40.7440299" lon="14.8557825"><ele>718.0</ele><time>2026-05-03T07:05:06.952Z</time></trkpt><trkpt lat="40.7440071" lon="14.8556751"><ele>718.0</ele><time>2026-05-03T07:05:07.954Z</time></trkpt><trkpt lat="40.7440012" lon="14.8555825"><ele>718.0</ele><time>2026-05-03T07:05:08.959Z</time></trkpt><trkpt lat="40.7440003" lon="14.8554389"><ele>718.0</ele><time>2026-05-03T07:05:10.961Z</time></trkpt><trkpt lat="40.7440427" lon="14.8553391"><ele>718.0</ele><time>2026-05-03T07:05:12.957Z</time></trkpt><trkpt lat="40.744132" lon="14.8552806"><ele>718.0</ele><time>2026-05-03T07:05:13.959Z</time></trkpt><trkpt lat="40.7442198" lon="14.8552142"><ele>718.0</ele><time>2026-05-03T07:05:14.955Z</time></trkpt><trkpt lat="40.7443128" lon="14.8551545"><ele>718.0</ele><time>2026-05-03T07:05:15.956Z</time></trkpt><trkpt lat="40.7444041" lon="14.8550814"><ele>718.0</ele><time>2026-05-03T07:05:17.037Z</time></trkpt><trkpt lat="40.7445047" lon="14.8549975"><ele>714.75</ele><time>2026-05-03T07:05:17.969Z</time></trkpt><trkpt lat="40.7446021" lon="14.854909"><ele>711.5</ele><time>2026-05-03T07:05:18.957Z</time></trkpt><trkpt lat="40.7446823" lon="14.854786"><ele>708.25</ele><time>2026-05-03T07:05:19.962Z</time></trkpt><trkpt lat="40.7447313" lon="14.8546569"><ele>705.0</ele><time>2026-05-03T07:05:21.044Z</time></trkpt><trkpt lat="40.7447888" lon="14.8545439"><ele>705.0</ele><time>2026-05-03T07:05:22.956Z</time></trkpt><trkpt lat="40.7448711" lon="14.8545318"><ele>705.0</ele><time>2026-05-03T07:05:24.952Z</time></trkpt><trkpt lat="40.7449763" lon="14.8545432"><ele>705.0</ele><time>2026-05-03T07:05:25.956Z</time></trkpt><trkpt lat="40.7450819" lon="14.8545546"><ele>705.0</ele><time>2026-05-03T07:05:27.03Z</time></trkpt><trkpt lat="40.7451815" lon="14.8545676"><ele>705.0</ele><time>2026-05-03T07:05:28.048Z</time></trkpt><trkpt lat="40.7452493" lon="14.8545297"><ele>704.8</ele><time>2026-05-03T07:05:28.953Z</time></trkpt><trkpt lat="40.7453392" lon="14.854407"><ele>704.6</ele><time>2026-05-03T07:05:30.966Z</time></trkpt><trkpt lat="40.7453874" lon="14.8543381"><ele>704.4000000000001</ele><time>2026-05-03T07:05:31.951Z</time></trkpt><trkpt lat="40.7454888" lon="14.8542407"><ele>704.2</ele><time>2026-05-03T07:05:33.956Z</time></trkpt><trkpt lat="40.7455682" lon="14.8542026"><ele>704.0</ele><time>2026-05-03T07:05:34.968Z</time></trkpt><trkpt lat="40.745647" lon="14.8541791"><ele>704.0</ele><time>2026-05-03T07:05:35.969Z</time></trkpt><trkpt lat="40.7457096" lon="14.8542052"><ele>704.0</ele><time>2026-05-03T07:05:36.956Z</time></trkpt><trkpt lat="40.7457792" lon="14.8542621"><ele>704.0</ele><time>2026-05-03T07:05:38.037Z</time></trkpt><trkpt lat="40.7458371" lon="14.8543052"><ele>704.0</ele><time>2026-05-03T07:05:38.966Z</time></trkpt><trkpt lat="40.7458965" lon="14.8543448"><ele>704.0</ele><time>2026-05-03T07:05:39.961Z</time></trkpt><trkpt lat="40.7460142" lon="14.8544031"><ele>704.0</ele><time>2026-05-03T07:05:41.961Z</time></trkpt><trkpt lat="40.7460913" lon="14.8544124"><ele>706.2</ele><time>2026-05-03T07:05:42.961Z</time></trkpt><trkpt lat="40.746159" lon="14.854364"><ele>708.4000000000001</ele><time>2026-05-03T07:05:43.961Z</time></trkpt><trkpt lat="40.7462018" lon="14.8542785"><ele>710.6</ele><time>2026-05-03T07:05:44.96Z</time></trkpt><trkpt lat="40.7462461" lon="14.8541593"><ele>712.8</ele><time>2026-05-03T07:05:46.052Z</time></trkpt><trkpt lat="40.7462963" lon="14.8540223"><ele>715.0</ele><time>2026-05-03T07:05:46.953Z</time></trkpt><trkpt lat="40.7463649" lon="14.8538756"><ele>717.3333333333334</ele><time>2026-05-03T07:05:48.039Z</time></trkpt><trkpt lat="40.7464258" lon="14.8537178"><ele>719.6666666666667</ele><time>2026-05-03T07:05:48.963Z</time></trkpt><trkpt lat="40.7464764" lon="14.8535956"><ele>722.0</ele><time>2026-05-03T07:05:49.963Z</time></trkpt><trkpt lat="40.7465233" lon="14.8535321"><ele>724.3333333333334</ele><time>2026-05-03T07:05:50.979Z</time></trkpt><trkpt lat="40.7465951" lon="14.8535113"><ele>726.6666666666666</ele><time>2026-05-03T07:05:52.96Z</time></trkpt><trkpt lat="40.7466583" lon="14.8535221"><ele>729.0</ele><time>2026-05-03T07:05:53.957Z</time></trkpt><trkpt lat="40.7467717" lon="14.8535019"><ele>730.1666666666666</ele><time>2026-05-03T07:05:54.969Z</time></trkpt><trkpt lat="40.7468818" lon="14.8534585"><ele>731.3333333333334</ele><time>2026-05-03T07:05:55.962Z</time></trkpt><trkpt lat="40.7469596" lon="14.8534055"><ele>732.5</ele><time>2026-05-03T07:05:57.025Z</time></trkpt><trkpt lat="40.7470106" lon="14.8533458"><ele>733.6666666666667</ele><time>2026-05-03T07:05:58.039Z</time></trkpt><trkpt lat="40.7470784" lon="14.8532599"><ele>734.8333333333334</ele><time>2026-05-03T07:05:59.971Z</time></trkpt><trkpt lat="40.7471491" lon="14.8532596"><ele>736.0</ele><time>2026-05-03T07:06:00.971Z</time></trkpt><trkpt lat="40.7472644" lon="14.8532922"><ele>736.0</ele><time>2026-05-03T07:06:01.97Z</time></trkpt><trkpt lat="40.7473696" lon="14.8533166"><ele>736.0</ele><time>2026-05-03T07:06:02.967Z</time></trkpt><trkpt lat="40.7474945" lon="14.8533182"><ele>736.0</ele><time>2026-05-03T07:06:03.965Z</time></trkpt><trkpt lat="40.7476423" lon="14.8532601"><ele>736.0</ele><time>2026-05-03T07:06:05.036Z</time></trkpt><trkpt lat="40.7477967" lon="14.8531819"><ele>731.5999999999999</ele><time>2026-05-03T07:06:06.036Z</time></trkpt><trkpt lat="40.7479131" lon="14.8530906"><ele>727.2</ele><time>2026-05-03T07:06:06.967Z</time></trkpt><trkpt lat="40.7480069" lon="14.8530199"><ele>722.8</ele><time>2026-05-03T07:06:07.97Z</time></trkpt><trkpt lat="40.748078" lon="14.8529588"><ele>718.4000000000001</ele><time>2026-05-03T07:06:08.972Z</time></trkpt><trkpt lat="40.7481155" lon="14.8528816"><ele>714.0</ele><time>2026-05-03T07:06:09.972Z</time></trkpt><trkpt lat="40.7481314" lon="14.8527882"><ele>714.0</ele><time>2026-05-03T07:06:10.963Z</time></trkpt><trkpt lat="40.7481349" lon="14.8526619"><ele>714.0</ele><time>2026-05-03T07:06:11.993Z</time></trkpt><trkpt lat="40.7481349" lon="14.8525324"><ele>714.0</ele><time>2026-05-03T07:06:13.034Z</time></trkpt><trkpt lat="40.7481426" lon="14.8524433"><ele>714.0</ele><time>2026-05-03T07:06:13.964Z</time></trkpt><trkpt lat="40.7481378" lon="14.8523504"><ele>714.0</ele><time>2026-05-03T07:06:15.966Z</time></trkpt><trkpt lat="40.7481937" lon="14.8524461"><ele>714.0</ele><time>2026-05-03T07:06:22.968Z</time></trkpt><trkpt lat="40.7482072" lon="14.8525718"><ele>714.0</ele><time>2026-05-03T07:06:24.969Z</time></trkpt><trkpt lat="40.748217" lon="14.852655"><ele>714.0</ele><time>2026-05-03T07:06:25.968Z</time></trkpt><trkpt lat="40.7482407" lon="14.8528128"><ele>714.0</ele><time>2026-05-03T07:06:28.027Z</time></trkpt><trkpt lat="40.7482622" lon="14.8528997"><ele>714.0</ele><time>2026-05-03T07:06:28.969Z</time></trkpt><trkpt lat="40.7482759" lon="14.8529855"><ele>714.0</ele><time>2026-05-03T07:06:29.966Z</time></trkpt><trkpt lat="40.7482707" lon="14.8530757"><ele>714.0</ele><time>2026-05-03T07:06:30.968Z</time></trkpt><trkpt lat="40.7482459" lon="14.8531725"><ele>714.0</ele><time>2026-05-03T07:06:31.96Z</time></trkpt><trkpt lat="40.7482082" lon="14.8532744"><ele>714.0</ele><time>2026-05-03T07:06:32.964Z</time></trkpt><trkpt lat="40.7481801" lon="14.8533611"><ele>714.0</ele><time>2026-05-03T07:06:33.967Z</time></trkpt><trkpt lat="40.7481401" lon="14.8534566"><ele>714.0</ele><time>2026-05-03T07:06:34.966Z</time></trkpt><trkpt lat="40.7480854" lon="14.8535571"><ele>714.0</ele><time>2026-05-03T07:06:36.027Z</time></trkpt><trkpt lat="40.7480306" lon="14.8536423"><ele>714.0</ele><time>2026-05-03T07:06:37.023Z</time></trkpt><trkpt lat="40.7479848" lon="14.8537178"><ele>712.4000000000001</ele><time>2026-05-03T07:06:38.031Z</time></trkpt><trkpt lat="40.7479276" lon="14.853786"><ele>710.8</ele><time>2026-05-03T07:06:38.966Z</time></trkpt><trkpt lat="40.7478347" lon="14.8538691"><ele>709.2</ele><time>2026-05-03T07:06:40.996Z</time></trkpt><trkpt lat="40.7477079" lon="14.8539001"><ele>707.5999999999999</ele><time>2026-05-03T07:06:42.968Z</time></trkpt><trkpt lat="40.7476321" lon="14.8539004"><ele>706.0</ele><time>2026-05-03T07:06:43.963Z</time></trkpt><trkpt lat="40.7475442" lon="14.8539028"><ele>706.0</ele><time>2026-05-03T07:06:44.965Z</time></trkpt><trkpt lat="40.7474706" lon="14.8539015"><ele>706.0</ele><time>2026-05-03T07:06:46.056Z</time></trkpt><trkpt lat="40.7473988" lon="14.8538928"><ele>706.0</ele><time>2026-05-03T07:06:47.029Z</time></trkpt><trkpt lat="40.7472862" lon="14.8539209"><ele>706.0</ele><time>2026-05-03T07:06:48.96Z</time></trkpt><trkpt lat="40.7472113" lon="14.853994"><ele>706.0</ele><time>2026-05-03T07:06:49.952Z</time></trkpt><trkpt lat="40.7471439" lon="14.8540692"><ele>706.0</ele><time>2026-05-03T07:06:50.956Z</time></trkpt><trkpt lat="40.7470815" lon="14.8541925"><ele>706.0</ele><time>2026-05-03T07:06:52.957Z</time></trkpt><trkpt lat="40.747118" lon="14.8542719"><ele>706.0</ele><time>2026-05-03T07:06:54.952Z</time></trkpt><trkpt lat="40.7471909" lon="14.8543268"><ele>706.0</ele><time>2026-05-03T07:06:55.95Z</time></trkpt><trkpt lat="40.7472642" lon="14.85439"><ele>706.0</ele><time>2026-05-03T07:06:56.955Z</time></trkpt><trkpt lat="40.7473518" lon="14.8544965"><ele>706.0</ele><time>2026-05-03T07:06:57.953Z</time></trkpt><trkpt lat="40.7474242" lon="14.8546349"><ele>704.25</ele><time>2026-05-03T07:06:58.956Z</time></trkpt><trkpt lat="40.7474931" lon="14.8547669"><ele>702.5</ele><time>2026-05-03T07:06:59.958Z</time></trkpt><trkpt lat="40.7475527" lon="14.8549016"><ele>700.75</ele><time>2026-05-03T07:07:00.973Z</time></trkpt><trkpt lat="40.7476107" lon="14.8550395"><ele>699.0</ele><time>2026-05-03T07:07:01.958Z</time></trkpt><trkpt lat="40.7476665" lon="14.8551679"><ele>697.8333333333334</ele><time>2026-05-03T07:07:02.955Z</time></trkpt><trkpt lat="40.7477203" lon="14.8553016"><ele>696.6666666666666</ele><time>2026-05-03T07:07:03.95Z</time></trkpt><trkpt lat="40.7477487" lon="14.855412"><ele>695.5</ele><time>2026-05-03T07:07:05.031Z</time></trkpt><trkpt lat="40.7477512" lon="14.8554972"><ele>694.3333333333333</ele><time>2026-05-03T07:07:06.02Z</time></trkpt><trkpt lat="40.7477268" lon="14.8555902"><ele>693.1666666666666</ele><time>2026-05-03T07:07:07.039Z</time></trkpt><trkpt lat="40.747689" lon="14.8556931"><ele>692.0</ele><time>2026-05-03T07:07:08.031Z</time></trkpt><trkpt lat="40.7476562" lon="14.8558003"><ele>692.0</ele><time>2026-05-03T07:07:08.968Z</time></trkpt><trkpt lat="40.7476362" lon="14.8559118"><ele>692.0</ele><time>2026-05-03T07:07:09.963Z</time></trkpt><trkpt lat="40.7476218" lon="14.856038"><ele>692.0</ele><time>2026-05-03T07:07:11.002Z</time></trkpt><trkpt lat="40.7476134" lon="14.8561687"><ele>692.0</ele><time>2026-05-03T07:07:12.04Z</time></trkpt><trkpt lat="40.7476148" lon="14.8562958"><ele>692.0</ele><time>2026-05-03T07:07:12.969Z</time></trkpt><trkpt lat="40.7476286" lon="14.8564067"><ele>689.5</ele><time>2026-05-03T07:07:13.965Z</time></trkpt><trkpt lat="40.747639" lon="14.8565034"><ele>687.0</ele><time>2026-05-03T07:07:14.973Z</time></trkpt><trkpt lat="40.7476311" lon="14.8565937"><ele>684.5</ele><time>2026-05-03T07:07:16.06Z</time></trkpt><trkpt lat="40.7476152" lon="14.856704"><ele>682.0</ele><time>2026-05-03T07:07:16.964Z</time></trkpt><trkpt lat="40.747615" lon="14.8568061"><ele>679.5</ele><time>2026-05-03T07:07:17.98Z</time></trkpt><trkpt lat="40.7476148" lon="14.8569187"><ele>677.0</ele><time>2026-05-03T07:07:18.971Z</time></trkpt><trkpt lat="40.7476163" lon="14.8570066"><ele>673.1666666666666</ele><time>2026-05-03T07:07:19.968Z</time></trkpt><trkpt lat="40.7475936" lon="14.8571012"><ele>669.3333333333333</ele><time>2026-05-03T07:07:21.971Z</time></trkpt><trkpt lat="40.7476719" lon="14.8572048"><ele>665.5</ele><time>2026-05-03T07:07:23.967Z</time></trkpt><trkpt lat="40.7477428" lon="14.8572535"><ele>661.6666666666666</ele><time>2026-05-03T07:07:25.032Z</time></trkpt><trkpt lat="40.7478169" lon="14.8573015"><ele>657.8333333333334</ele><time>2026-05-03T07:07:26.032Z</time></trkpt><trkpt lat="40.7479009" lon="14.8573562"><ele>654.0</ele><time>2026-05-03T07:07:26.966Z</time></trkpt><trkpt lat="40.7479896" lon="14.8574028"><ele>654.0</ele><time>2026-05-03T07:07:27.965Z</time></trkpt><trkpt lat="40.7480827" lon="14.8574837"><ele>654.0</ele><time>2026-05-03T07:07:28.961Z</time></trkpt><trkpt lat="40.7481776" lon="14.857596"><ele>654.0</ele><time>2026-05-03T07:07:29.958Z</time></trkpt><trkpt lat="40.7482692" lon="14.8576874"><ele>654.0</ele><time>2026-05-03T07:07:30.976Z</time></trkpt><trkpt lat="40.748357" lon="14.8577542"><ele>651.0</ele><time>2026-05-03T07:07:31.963Z</time></trkpt><trkpt lat="40.7484504" lon="14.8578179"><ele>648.0</ele><time>2026-05-03T07:07:32.961Z</time></trkpt><trkpt lat="40.7485288" lon="14.8578689"><ele>645.0</ele><time>2026-05-03T07:07:33.966Z</time></trkpt><trkpt lat="40.7486064" lon="14.8579283"><ele>642.0</ele><time>2026-05-03T07:07:34.97Z</time></trkpt><trkpt lat="40.7486902" lon="14.8579989"><ele>639.0</ele><time>2026-05-03T07:07:35.961Z</time></trkpt><trkpt lat="40.7487648" lon="14.8580663"><ele>638.6666666666666</ele><time>2026-05-03T07:07:36.965Z</time></trkpt><trkpt lat="40.748827" lon="14.8581346"><ele>638.3333333333334</ele><time>2026-05-03T07:07:37.958Z</time></trkpt><trkpt lat="40.7488907" lon="14.8582087"><ele>638.0</ele><time>2026-05-03T07:07:38.965Z</time></trkpt><trkpt lat="40.7489602" lon="14.8582631"><ele>637.6666666666667</ele><time>2026-05-03T07:07:39.967Z</time></trkpt><trkpt lat="40.7490187" lon="14.8582996"><ele>637.3333333333334</ele><time>2026-05-03T07:07:40.968Z</time></trkpt><trkpt lat="40.7490519" lon="14.8584208"><ele>637.0</ele><time>2026-05-03T07:07:43.025Z</time></trkpt><trkpt lat="40.7490528" lon="14.8585108"><ele>634.4</ele><time>2026-05-03T07:07:43.96Z</time></trkpt><trkpt lat="40.7490448" lon="14.8586588"><ele>631.8000000000001</ele><time>2026-05-03T07:07:45.972Z</time></trkpt><trkpt lat="40.7490844" lon="14.8587704"><ele>629.2</ele><time>2026-05-03T07:07:48.044Z</time></trkpt><trkpt lat="40.7491399" lon="14.8588676"><ele>626.6</ele><time>2026-05-03T07:07:50.964Z</time></trkpt><trkpt lat="40.749195" lon="14.8590008"><ele>624.0</ele><time>2026-05-03T07:07:53.022Z</time></trkpt><trkpt lat="40.7492436" lon="14.8590932"><ele>624.0</ele><time>2026-05-03T07:07:55.964Z</time></trkpt><trkpt lat="40.7492618" lon="14.8591988"><ele>624.0</ele><time>2026-05-03T07:07:58.965Z</time></trkpt><trkpt lat="40.7492045" lon="14.8592649"><ele>624.0</ele><time>2026-05-03T07:08:01.037Z</time></trkpt><trkpt lat="40.7491501" lon="14.8593443"><ele>624.0</ele><time>2026-05-03T07:08:02.998Z</time></trkpt><trkpt lat="40.7490821" lon="14.8594361"><ele>624.0</ele><time>2026-05-03T07:08:06.953Z</time></trkpt><trkpt lat="40.7489755" lon="14.8594752"><ele>624.0</ele><time>2026-05-03T07:08:08.968Z</time></trkpt><trkpt lat="40.7488861" lon="14.859499"><ele>620.5</ele><time>2026-05-03T07:08:10.963Z</time></trkpt><trkpt lat="40.7488868" lon="14.8596028"><ele>617.0</ele><time>2026-05-03T07:08:14.969Z</time></trkpt><trkpt lat="40.7489373" lon="14.8596591"><ele>613.5</ele><time>2026-05-03T07:08:15.962Z</time></trkpt><trkpt lat="40.7490548" lon="14.8597194"><ele>610.0</ele><time>2026-05-03T07:08:17.965Z</time></trkpt><trkpt lat="40.7491248" lon="14.8597381"><ele>606.5</ele><time>2026-05-03T07:08:18.961Z</time></trkpt><trkpt lat="40.7491998" lon="14.8597526"><ele>603.0</ele><time>2026-05-03T07:08:19.965Z</time></trkpt><trkpt lat="40.7492971" lon="14.8597622"><ele>603.0</ele><time>2026-05-03T07:08:20.968Z</time></trkpt><trkpt lat="40.749387" lon="14.8597491"><ele>603.0</ele><time>2026-05-03T07:08:21.959Z</time></trkpt><trkpt lat="40.7494529" lon="14.8597208"><ele>603.0</ele><time>2026-05-03T07:08:22.966Z</time></trkpt><trkpt lat="40.7495132" lon="14.8597512"><ele>603.0</ele><time>2026-05-03T07:08:26.968Z</time></trkpt><trkpt lat="40.7494458" lon="14.8598179"><ele>603.0</ele><time>2026-05-03T07:08:29.967Z</time></trkpt><trkpt lat="40.7493772" lon="14.8598948"><ele>603.0</ele><time>2026-05-03T07:08:31.963Z</time></trkpt><trkpt lat="40.7493455" lon="14.8599743"><ele>603.0</ele><time>2026-05-03T07:08:32.958Z</time></trkpt><trkpt lat="40.7493034" lon="14.8600543"><ele>603.0</ele><time>2026-05-03T07:08:33.963Z</time></trkpt><trkpt lat="40.7492268" lon="14.8601673"><ele>603.0</ele><time>2026-05-03T07:08:35.961Z</time></trkpt><trkpt lat="40.7491323" lon="14.8602834"><ele>603.0</ele><time>2026-05-03T07:08:37.962Z</time></trkpt><trkpt lat="40.74907" lon="14.8603341"><ele>603.0</ele><time>2026-05-03T07:08:38.96Z</time></trkpt><trkpt lat="40.74899" lon="14.8603853"><ele>599.3333333333334</ele><time>2026-05-03T07:08:40.963Z</time></trkpt><trkpt lat="40.7489863" lon="14.8604968"><ele>595.6666666666666</ele><time>2026-05-03T07:08:43.963Z</time></trkpt><trkpt lat="40.7490911" lon="14.8605734"><ele>592.0</ele><time>2026-05-03T07:08:45.961Z</time></trkpt><trkpt lat="40.7491516" lon="14.8606129"><ele>588.3333333333333</ele><time>2026-05-03T07:08:46.961Z</time></trkpt><trkpt lat="40.7492229" lon="14.8606277"><ele>584.6666666666666</ele><time>2026-05-03T07:08:47.964Z</time></trkpt><trkpt lat="40.7492987" lon="14.8606261"><ele>581.0</ele><time>2026-05-03T07:08:48.96Z</time></trkpt><trkpt lat="40.7494066" lon="14.8606264"><ele>581.0</ele><time>2026-05-03T07:08:50.962Z</time></trkpt><trkpt lat="40.7493606" lon="14.860692"><ele>581.0</ele><time>2026-05-03T07:08:55.965Z</time></trkpt><trkpt lat="40.7492554" lon="14.8607308"><ele>581.0</ele><time>2026-05-03T07:08:57.966Z</time></trkpt><trkpt lat="40.7491953" lon="14.8608169"><ele>581.0</ele><time>2026-05-03T07:08:59.966Z</time></trkpt><trkpt lat="40.7491584" lon="14.8609597"><ele>581.0</ele><time>2026-05-03T07:09:02.037Z</time></trkpt><trkpt lat="40.7491728" lon="14.8610916"><ele>579.0</ele><time>2026-05-03T07:09:03.961Z</time></trkpt><trkpt lat="40.7492071" lon="14.8612053"><ele>577.0</ele><time>2026-05-03T07:09:05.964Z</time></trkpt><trkpt lat="40.7492512" lon="14.8612762"><ele>575.0</ele><time>2026-05-03T07:09:06.966Z</time></trkpt><trkpt lat="40.7492898" lon="14.8613579"><ele>573.0</ele><time>2026-05-03T07:09:07.966Z</time></trkpt><trkpt lat="40.7493134" lon="14.8614421"><ele>571.0</ele><time>2026-05-03T07:09:08.966Z</time></trkpt><trkpt lat="40.7493092" lon="14.8615267"><ele>569.0</ele><time>2026-05-03T07:09:10.045Z</time></trkpt><trkpt lat="40.7492964" lon="14.8616146"><ele>567.0</ele><time>2026-05-03T07:09:11.033Z</time></trkpt><trkpt lat="40.7492833" lon="14.8617067"><ele>563.8333333333334</ele><time>2026-05-03T07:09:12.024Z</time></trkpt><trkpt lat="40.7492665" lon="14.8617927"><ele>560.6666666666666</ele><time>2026-05-03T07:09:12.986Z</time></trkpt><trkpt lat="40.7492384" lon="14.861885"><ele>557.5</ele><time>2026-05-03T07:09:13.965Z</time></trkpt><trkpt lat="40.749198" lon="14.8619757"><ele>554.3333333333333</ele><time>2026-05-03T07:09:14.963Z</time></trkpt><trkpt lat="40.7491624" lon="14.8620651"><ele>551.1666666666666</ele><time>2026-05-03T07:09:15.958Z</time></trkpt><trkpt lat="40.7491205" lon="14.862174"><ele>548.0</ele><time>2026-05-03T07:09:16.957Z</time></trkpt><trkpt lat="40.7490832" lon="14.8622605"><ele>548.0</ele><time>2026-05-03T07:09:17.995Z</time></trkpt><trkpt lat="40.7490622" lon="14.8623524"><ele>548.0</ele><time>2026-05-03T07:09:18.969Z</time></trkpt><trkpt lat="40.749027" lon="14.8624976"><ele>548.0</ele><time>2026-05-03T07:09:20.962Z</time></trkpt><trkpt lat="40.7490322" lon="14.8626071"><ele>548.0</ele><time>2026-05-03T07:09:22.973Z</time></trkpt><trkpt lat="40.7491021" lon="14.8626371"><ele>548.0</ele><time>2026-05-03T07:09:24.969Z</time></trkpt><trkpt lat="40.7490815" lon="14.8624938"><ele>548.0</ele><time>2026-05-03T07:09:27.972Z</time></trkpt><trkpt lat="40.7490818" lon="14.8624006"><ele>548.0</ele><time>2026-05-03T07:09:29.969Z</time></trkpt><trkpt lat="40.7491119" lon="14.8623274"><ele>548.0</ele><time>2026-05-03T07:09:31.972Z</time></trkpt><trkpt lat="40.749173" lon="14.8624038"><ele>548.0</ele><time>2026-05-03T07:09:36.976Z</time></trkpt><trkpt lat="40.749151" lon="14.8625624"><ele>548.0</ele><time>2026-05-03T07:09:38.957Z</time></trkpt><trkpt lat="40.7491549" lon="14.8627217"><ele>544.8</ele><time>2026-05-03T07:09:40.977Z</time></trkpt><trkpt lat="40.7491543" lon="14.862864"><ele>541.5999999999999</ele><time>2026-05-03T07:09:43.039Z</time></trkpt><trkpt lat="40.7490894" lon="14.8629621"><ele>538.4000000000001</ele><time>2026-05-03T07:09:44.969Z</time></trkpt><trkpt lat="40.7489949" lon="14.8630569"><ele>535.2</ele><time>2026-05-03T07:09:46.978Z</time></trkpt><trkpt lat="40.7489775" lon="14.8631936"><ele>532.0</ele><time>2026-05-03T07:09:48.957Z</time></trkpt><trkpt lat="40.7490532" lon="14.8633168"><ele>532.0</ele><time>2026-05-03T07:09:50.974Z</time></trkpt><trkpt lat="40.749127" lon="14.8634285"><ele>532.0</ele><time>2026-05-03T07:09:52.978Z</time></trkpt><trkpt lat="40.7491593" lon="14.8635287"><ele>532.0</ele><time>2026-05-03T07:09:54.971Z</time></trkpt><trkpt lat="40.7491229" lon="14.8636096"><ele>532.0</ele><time>2026-05-03T07:09:58.969Z</time></trkpt><trkpt lat="40.7490451" lon="14.8636353"><ele>532.0</ele><time>2026-05-03T07:10:00.972Z</time></trkpt><trkpt lat="40.74895" lon="14.8637452"><ele>529.1666666666667</ele><time>2026-05-03T07:10:02.97Z</time></trkpt><trkpt lat="40.7489172" lon="14.8638566"><ele>526.3333333333334</ele><time>2026-05-03T07:10:03.968Z</time></trkpt><trkpt lat="40.7489307" lon="14.8639575"><ele>523.5</ele><time>2026-05-03T07:10:05.047Z</time></trkpt><trkpt lat="40.7489831" lon="14.8640406"><ele>520.6666666666666</ele><time>2026-05-03T07:10:05.965Z</time></trkpt><trkpt lat="40.7490644" lon="14.8641323"><ele>517.8333333333333</ele><time>2026-05-03T07:10:08.032Z</time></trkpt><trkpt lat="40.7490547" lon="14.8642373"><ele>515.0</ele><time>2026-05-03T07:10:11.978Z</time></trkpt><trkpt lat="40.7489956" lon="14.8642778"><ele>512.5</ele><time>2026-05-03T07:10:13.97Z</time></trkpt><trkpt lat="40.7489317" lon="14.864322"><ele>510.0</ele><time>2026-05-03T07:10:15.97Z</time></trkpt><trkpt lat="40.7488306" lon="14.8643139"><ele>507.5</ele><time>2026-05-03T07:10:17.975Z</time></trkpt><trkpt lat="40.748784" lon="14.8643704"><ele>505.0</ele><time>2026-05-03T07:10:21.044Z</time></trkpt><trkpt lat="40.7488174" lon="14.8644552"><ele>502.49999999999994</ele><time>2026-05-03T07:10:23.054Z</time></trkpt><trkpt lat="40.7488687" lon="14.8645361"><ele>500.0</ele><time>2026-05-03T07:10:26.969Z</time></trkpt><trkpt lat="40.7489278" lon="14.8645698"><ele>499.99999999999994</ele><time>2026-05-03T07:10:28.974Z</time></trkpt><trkpt lat="40.7489839" lon="14.8646175"><ele>500.0</ele><time>2026-05-03T07:10:30.98Z</time></trkpt><trkpt lat="40.7490592" lon="14.8646351"><ele>500.0</ele><time>2026-05-03T07:10:32.968Z</time></trkpt><trkpt lat="40.7491329" lon="14.8646078"><ele>500.0</ele><time>2026-05-03T07:10:34.975Z</time></trkpt><trkpt lat="40.7491915" lon="14.864639"><ele>499.99999999999994</ele><time>2026-05-03T07:10:37.972Z</time></trkpt><trkpt lat="40.7491808" lon="14.8647847"><ele>500.0</ele><time>2026-05-03T07:10:41.034Z</time></trkpt><trkpt lat="40.7491794" lon="14.8648971"><ele>499.99999999999994</ele><time>2026-05-03T07:10:43.05Z</time></trkpt><trkpt lat="40.749207" lon="14.8650214"><ele>500.0</ele><time>2026-05-03T07:10:45.969Z</time></trkpt><trkpt lat="40.7492541" lon="14.8650934"><ele>500.0</ele><time>2026-05-03T07:10:47.969Z</time></trkpt><trkpt lat="40.7492508" lon="14.8652084"><ele>500.0</ele><time>2026-05-03T07:10:49.973Z</time></trkpt><trkpt lat="40.7492709" lon="14.8653266"><ele>499.99999999999994</ele><time>2026-05-03T07:10:50.969Z</time></trkpt><trkpt lat="40.7492694" lon="14.8654352"><ele>500.0</ele><time>2026-05-03T07:10:51.97Z</time></trkpt><trkpt lat="40.7492694" lon="14.8655604"><ele>497.6</ele><time>2026-05-03T07:10:53.033Z</time></trkpt><trkpt lat="40.7492593" lon="14.8656707"><ele>495.2</ele><time>2026-05-03T07:10:53.958Z</time></trkpt><trkpt lat="40.7492405" lon="14.8657739"><ele>492.79999999999995</ele><time>2026-05-03T07:10:54.975Z</time></trkpt><trkpt lat="40.7492125" lon="14.8658906"><ele>490.4</ele><time>2026-05-03T07:10:55.975Z</time></trkpt><trkpt lat="40.7491941" lon="14.8660351"><ele>488.0</ele><time>2026-05-03T07:10:56.965Z</time></trkpt><trkpt lat="40.7491885" lon="14.8661981"><ele>485.75</ele><time>2026-05-03T07:10:57.967Z</time></trkpt><trkpt lat="40.7491855" lon="14.8663745"><ele>483.5</ele><time>2026-05-03T07:10:58.976Z</time></trkpt><trkpt lat="40.7491865" lon="14.8665407"><ele>481.25</ele><time>2026-05-03T07:10:59.969Z</time></trkpt><trkpt lat="40.7491875" lon="14.8666988"><ele>479.0</ele><time>2026-05-03T07:11:01.032Z</time></trkpt><trkpt lat="40.7491889" lon="14.8668305"><ele>477.99999999999994</ele><time>2026-05-03T07:11:02.03Z</time></trkpt><trkpt lat="40.7491948" lon="14.8669623"><ele>477.0</ele><time>2026-05-03T07:11:03.039Z</time></trkpt><trkpt lat="40.7492045" lon="14.8670882"><ele>476.0</ele><time>2026-05-03T07:11:03.967Z</time></trkpt><trkpt lat="40.7492146" lon="14.867209"><ele>475.0</ele><time>2026-05-03T07:11:04.969Z</time></trkpt><trkpt lat="40.7492287" lon="14.8673145"><ele>473.99999999999994</ele><time>2026-05-03T07:11:05.969Z</time></trkpt><trkpt lat="40.749255" lon="14.8674113"><ele>473.0</ele><time>2026-05-03T07:11:06.97Z</time></trkpt><trkpt lat="40.7492799" lon="14.8675177"><ele>473.0</ele><time>2026-05-03T07:11:08.973Z</time></trkpt><trkpt lat="40.7492707" lon="14.8674337"><ele>472.99999999999994</ele><time>2026-05-03T07:11:13.043Z</time></trkpt><trkpt lat="40.7492697" lon="14.8672382"><ele>472.99999999999994</ele><time>2026-05-03T07:11:14.97Z</time></trkpt><trkpt lat="40.7492862" lon="14.8670947"><ele>473.0</ele><time>2026-05-03T07:11:15.967Z</time></trkpt><trkpt lat="40.7493137" lon="14.8669391"><ele>473.0</ele><time>2026-05-03T07:11:16.965Z</time></trkpt><trkpt lat="40.7493366" lon="14.8667966"><ele>473.99999999999994</ele><time>2026-05-03T07:11:18.049Z</time></trkpt><trkpt lat="40.7493435" lon="14.8666995"><ele>475.0</ele><time>2026-05-03T07:11:18.969Z</time></trkpt><trkpt lat="40.7493552" lon="14.8666145"><ele>476.0</ele><time>2026-05-03T07:11:19.972Z</time></trkpt><trkpt lat="40.7493626" lon="14.8665186"><ele>477.0</ele><time>2026-05-03T07:11:20.967Z</time></trkpt><trkpt lat="40.7493802" lon="14.8663897"><ele>477.99999999999994</ele><time>2026-05-03T07:11:21.963Z</time></trkpt><trkpt lat="40.749403" lon="14.8662476"><ele>479.0</ele><time>2026-05-03T07:11:22.971Z</time></trkpt><trkpt lat="40.7494298" lon="14.8661192"><ele>475.49999999999994</ele><time>2026-05-03T07:11:23.972Z</time></trkpt><trkpt lat="40.749462" lon="14.8660044"><ele>472.0</ele><time>2026-05-03T07:11:24.971Z</time></trkpt><trkpt lat="40.7495042" lon="14.8658922"><ele>468.5</ele><time>2026-05-03T07:11:25.978Z</time></trkpt><trkpt lat="40.7495398" lon="14.8657872"><ele>465.0</ele><time>2026-05-03T07:11:26.97Z</time></trkpt><trkpt lat="40.7495544" lon="14.8656914"><ele>461.49999999999994</ele><time>2026-05-03T07:11:27.968Z</time></trkpt><trkpt lat="40.7495634" lon="14.8656021"><ele>458.0</ele><time>2026-05-03T07:11:28.973Z</time></trkpt><trkpt lat="40.7495703" lon="14.8655024"><ele>457.99999999999994</ele><time>2026-05-03T07:11:29.971Z</time></trkpt><trkpt lat="40.7495724" lon="14.8654093"><ele>458.0</ele><time>2026-05-03T07:11:30.97Z</time></trkpt><trkpt lat="40.7495633" lon="14.8652971"><ele>458.0</ele><time>2026-05-03T07:11:31.973Z</time></trkpt><trkpt lat="40.7495661" lon="14.8651855"><ele>458.0</ele><time>2026-05-03T07:11:32.971Z</time></trkpt><trkpt lat="40.7495866" lon="14.8650807"><ele>457.99999999999994</ele><time>2026-05-03T07:11:33.967Z</time></trkpt><trkpt lat="40.7496271" lon="14.8649816"><ele>458.0</ele><time>2026-05-03T07:11:34.969Z</time></trkpt><trkpt lat="40.7496644" lon="14.8648846"><ele>459.59999999999997</ele><time>2026-05-03T07:11:35.967Z</time></trkpt><trkpt lat="40.7496905" lon="14.8647921"><ele>461.19999999999993</ele><time>2026-05-03T07:11:36.969Z</time></trkpt><trkpt lat="40.7497326" lon="14.8646602"><ele>462.8</ele><time>2026-05-03T07:11:38.972Z</time></trkpt><trkpt lat="40.7497358" lon="14.8645285"><ele>464.4</ele><time>2026-05-03T07:11:40.971Z</time></trkpt><trkpt lat="40.7497286" lon="14.8643639"><ele>466.0</ele><time>2026-05-03T07:11:42.97Z</time></trkpt><trkpt lat="40.7497246" lon="14.8642375"><ele>468.20000000000005</ele><time>2026-05-03T07:11:44.973Z</time></trkpt><trkpt lat="40.7497848" lon="14.8641421"><ele>470.40000000000003</ele><time>2026-05-03T07:11:47.957Z</time></trkpt><trkpt lat="40.7498354" lon="14.8640457"><ele>472.6</ele><time>2026-05-03T07:11:49.97Z</time></trkpt><trkpt lat="40.7498869" lon="14.8639208"><ele>474.8</ele><time>2026-05-03T07:11:51.967Z</time></trkpt><trkpt lat="40.7498952" lon="14.8637954"><ele>477.0</ele><time>2026-05-03T07:11:53.967Z</time></trkpt><trkpt lat="40.7499364" lon="14.8636576"><ele>477.0</ele><time>2026-05-03T07:11:55.972Z</time></trkpt><trkpt lat="40.7499849" lon="14.8635255"><ele>477.0</ele><time>2026-05-03T07:11:57.971Z</time></trkpt><trkpt lat="40.7500295" lon="14.8634543"><ele>477.0</ele><time>2026-05-03T07:11:58.972Z</time></trkpt><trkpt lat="40.7500773" lon="14.8633753"><ele>477.0</ele><time>2026-05-03T07:11:59.968Z</time></trkpt><trkpt lat="40.7501279" lon="14.8632272"><ele>477.0</ele><time>2026-05-03T07:12:01.967Z</time></trkpt><trkpt lat="40.7501555" lon="14.8631479"><ele>477.0</ele><time>2026-05-03T07:12:02.969Z</time></trkpt><trkpt lat="40.7501943" lon="14.8630453"><ele>480.20000000000005</ele><time>2026-05-03T07:12:03.969Z</time></trkpt><trkpt lat="40.7502137" lon="14.8629485"><ele>483.40000000000003</ele><time>2026-05-03T07:12:04.971Z</time></trkpt><trkpt lat="40.7502569" lon="14.862865"><ele>486.59999999999997</ele><time>2026-05-03T07:12:06.971Z</time></trkpt><trkpt lat="40.7503551" lon="14.8628037"><ele>489.79999999999995</ele><time>2026-05-03T07:12:08.97Z</time></trkpt><trkpt lat="40.7504559" lon="14.8627486"><ele>493.0</ele><time>2026-05-03T07:12:09.971Z</time></trkpt><trkpt lat="40.7505464" lon="14.8626848"><ele>493.0</ele><time>2026-05-03T07:12:10.964Z</time></trkpt><trkpt lat="40.7506319" lon="14.8626242"><ele>492.99999999999994</ele><time>2026-05-03T07:12:11.971Z</time></trkpt><trkpt lat="40.7507024" lon="14.8625583"><ele>492.99999999999994</ele><time>2026-05-03T07:12:12.971Z</time></trkpt><trkpt lat="40.7507751" lon="14.8624693"><ele>493.0</ele><time>2026-05-03T07:12:13.968Z</time></trkpt><trkpt lat="40.750827" lon="14.8623911"><ele>493.0</ele><time>2026-05-03T07:12:14.973Z</time></trkpt><trkpt lat="40.750872" lon="14.8622345"><ele>492.50000000000006</ele><time>2026-05-03T07:12:16.972Z</time></trkpt><trkpt lat="40.7509001" lon="14.8621211"><ele>492.0</ele><time>2026-05-03T07:12:17.964Z</time></trkpt><trkpt lat="40.7509326" lon="14.8620191"><ele>491.5</ele><time>2026-05-03T07:12:18.971Z</time></trkpt><trkpt lat="40.7509681" lon="14.8619095"><ele>491.0</ele><time>2026-05-03T07:12:19.968Z</time></trkpt><trkpt lat="40.7509944" lon="14.8618119"><ele>490.50000000000006</ele><time>2026-05-03T07:12:20.968Z</time></trkpt><trkpt lat="40.7510127" lon="14.8617114"><ele>490.0</ele><time>2026-05-03T07:12:21.97Z</time></trkpt><trkpt lat="40.7510474" lon="14.8616206"><ele>491.83333333333337</ele><time>2026-05-03T07:12:22.966Z</time></trkpt><trkpt lat="40.7510931" lon="14.8615338"><ele>493.6666666666667</ele><time>2026-05-03T07:12:23.971Z</time></trkpt><trkpt lat="40.7511515" lon="14.8614484"><ele>495.5</ele><time>2026-05-03T07:12:24.971Z</time></trkpt><trkpt lat="40.7512152" lon="14.86137"><ele>497.33333333333337</ele><time>2026-05-03T07:12:25.966Z</time></trkpt><trkpt lat="40.7512912" lon="14.8612826"><ele>499.1666666666667</ele><time>2026-05-03T07:12:27.054Z</time></trkpt><trkpt lat="40.751366" lon="14.8612203"><ele>501.0</ele><time>2026-05-03T07:12:28.031Z</time></trkpt><trkpt lat="40.7514342" lon="14.8611872"><ele>501.0</ele><time>2026-05-03T07:12:28.967Z</time></trkpt><trkpt lat="40.7515295" lon="14.8611861"><ele>501.0</ele><time>2026-05-03T07:12:30.974Z</time></trkpt><trkpt lat="40.7516244" lon="14.8611881"><ele>501.0</ele><time>2026-05-03T07:12:33.056Z</time></trkpt><trkpt lat="40.7517076" lon="14.8611872"><ele>501.0</ele><time>2026-05-03T07:12:34.972Z</time></trkpt><trkpt lat="40.7516868" lon="14.8612827"><ele>501.0</ele><time>2026-05-03T07:12:40.97Z</time></trkpt><trkpt lat="40.7517427" lon="14.8612064"><ele>501.0</ele><time>2026-05-03T07:12:48.967Z</time></trkpt><trkpt lat="40.7518097" lon="14.8612208"><ele>501.0</ele><time>2026-05-03T07:12:51.958Z</time></trkpt><trkpt lat="40.7518777" lon="14.8612521"><ele>501.0</ele><time>2026-05-03T07:12:53.969Z</time></trkpt><trkpt lat="40.7519536" lon="14.861321"><ele>501.0</ele><time>2026-05-03T07:12:56.96Z</time></trkpt><trkpt lat="40.7519738" lon="14.8614219"><ele>501.0</ele><time>2026-05-03T07:12:58.968Z</time></trkpt><trkpt lat="40.7519692" lon="14.8615417"><ele>501.0</ele><time>2026-05-03T07:13:00.987Z</time></trkpt><trkpt lat="40.7519288" lon="14.8616395"><ele>501.0</ele><time>2026-05-03T07:13:03.048Z</time></trkpt><trkpt lat="40.7518672" lon="14.8617039"><ele>501.0</ele><time>2026-05-03T07:13:03.969Z</time></trkpt><trkpt lat="40.7518044" lon="14.8617526"><ele>501.0</ele><time>2026-05-03T07:13:04.965Z</time></trkpt><trkpt lat="40.751753" lon="14.8618026"><ele>501.0</ele><time>2026-05-03T07:13:05.97Z</time></trkpt><trkpt lat="40.7516853" lon="14.861854"><ele>501.0</ele><time>2026-05-03T07:13:07.974Z</time></trkpt><trkpt lat="40.7516458" lon="14.86195"><ele>501.0</ele><time>2026-05-03T07:13:10.06Z</time></trkpt><trkpt lat="40.7516065" lon="14.8620362"><ele>501.0</ele><time>2026-05-03T07:13:11.04Z</time></trkpt><trkpt lat="40.751567" lon="14.8621957"><ele>504.0</ele><time>2026-05-03T07:13:12.971Z</time></trkpt><trkpt lat="40.7515196" lon="14.8623977"><ele>507.0</ele><time>2026-05-03T07:13:14.974Z</time></trkpt><trkpt lat="40.7514746" lon="14.8625252"><ele>510.0</ele><time>2026-05-03T07:13:15.972Z</time></trkpt><trkpt lat="40.7514232" lon="14.86265"><ele>513.0</ele><time>2026-05-03T07:13:16.972Z</time></trkpt><trkpt lat="40.7513733" lon="14.8627364"><ele>513.0</ele><time>2026-05-03T07:13:18.048Z</time></trkpt><trkpt lat="40.7513538" lon="14.8628226"><ele>513.0</ele><time>2026-05-03T07:13:18.978Z</time></trkpt><trkpt lat="40.7513742" lon="14.8629604"><ele>513.0</ele><time>2026-05-03T07:13:20.97Z</time></trkpt><trkpt lat="40.7514689" lon="14.8630611"><ele>513.0</ele><time>2026-05-03T07:13:23.056Z</time></trkpt><trkpt lat="40.7515604" lon="14.863099"><ele>513.0</ele><time>2026-05-03T07:13:24.972Z</time></trkpt><trkpt lat="40.7516622" lon="14.8630065"><ele>513.0</ele><time>2026-05-03T07:13:26.968Z</time></trkpt><trkpt lat="40.7517165" lon="14.8629485"><ele>513.0</ele><time>2026-05-03T07:13:27.969Z</time></trkpt><trkpt lat="40.7517833" lon="14.8628921"><ele>513.0</ele><time>2026-05-03T07:13:28.968Z</time></trkpt><trkpt lat="40.7518552" lon="14.8628325"><ele>513.0</ele><time>2026-05-03T07:13:30.04Z</time></trkpt><trkpt lat="40.7519188" lon="14.8627615"><ele>513.0</ele><time>2026-05-03T07:13:31.035Z</time></trkpt><trkpt lat="40.7519749" lon="14.8626695"><ele>513.0</ele><time>2026-05-03T07:13:32.035Z</time></trkpt><trkpt lat="40.7520202" lon="14.8625942"><ele>516.8333333333334</ele><time>2026-05-03T07:13:32.968Z</time></trkpt><trkpt lat="40.7520707" lon="14.8625351"><ele>520.6666666666666</ele><time>2026-05-03T07:13:33.972Z</time></trkpt><trkpt lat="40.7521342" lon="14.8624843"><ele>524.5</ele><time>2026-05-03T07:13:34.975Z</time></trkpt><trkpt lat="40.7522053" lon="14.8624277"><ele>528.3333333333333</ele><time>2026-05-03T07:13:35.969Z</time></trkpt><trkpt lat="40.7522769" lon="14.8623625"><ele>532.1666666666666</ele><time>2026-05-03T07:13:36.971Z</time></trkpt><trkpt lat="40.7523544" lon="14.8622862"><ele>536.0</ele><time>2026-05-03T07:13:38.034Z</time></trkpt><trkpt lat="40.7524245" lon="14.8622049"><ele>536.0</ele><time>2026-05-03T07:13:38.973Z</time></trkpt><trkpt lat="40.7524946" lon="14.8621278"><ele>536.0</ele><time>2026-05-03T07:13:39.97Z</time></trkpt><trkpt lat="40.7525658" lon="14.8620523"><ele>536.0</ele><time>2026-05-03T07:13:40.966Z</time></trkpt><trkpt lat="40.7526408" lon="14.8619566"><ele>536.0</ele><time>2026-05-03T07:13:41.97Z</time></trkpt><trkpt lat="40.7527124" lon="14.8618742"><ele>536.0</ele><time>2026-05-03T07:13:42.97Z</time></trkpt><trkpt lat="40.7527835" lon="14.8617904"><ele>539.0</ele><time>2026-05-03T07:13:43.972Z</time></trkpt><trkpt lat="40.7528488" lon="14.8617308"><ele>542.0</ele><time>2026-05-03T07:13:44.972Z</time></trkpt><trkpt lat="40.7529098" lon="14.8616813"><ele>545.0</ele><time>2026-05-03T07:13:45.972Z</time></trkpt><trkpt lat="40.7529581" lon="14.8616081"><ele>548.0</ele><time>2026-05-03T07:13:47.035Z</time></trkpt><trkpt lat="40.7530199" lon="14.8614659"><ele>551.0</ele><time>2026-05-03T07:13:48.966Z</time></trkpt><trkpt lat="40.7530479" lon="14.8613819"><ele>554.0</ele><time>2026-05-03T07:13:49.966Z</time></trkpt><trkpt lat="40.7531187" lon="14.8612321"><ele>554.0</ele><time>2026-05-03T07:13:51.966Z</time></trkpt><trkpt lat="40.7531594" lon="14.8611561"><ele>554.0</ele><time>2026-05-03T07:13:52.974Z</time></trkpt><trkpt lat="40.7531902" lon="14.8610825"><ele>554.0</ele><time>2026-05-03T07:13:53.957Z</time></trkpt><trkpt lat="40.7532392" lon="14.8609458"><ele>554.0</ele><time>2026-05-03T07:13:55.963Z</time></trkpt><trkpt lat="40.7533089" lon="14.860797"><ele>554.0</ele><time>2026-05-03T07:13:57.97Z</time></trkpt><trkpt lat="40.7533392" lon="14.8607052"><ele>555.3333333333333</ele><time>2026-05-03T07:13:58.963Z</time></trkpt><trkpt lat="40.7533515" lon="14.8606181"><ele>556.6666666666666</ele><time>2026-05-03T07:13:59.967Z</time></trkpt><trkpt lat="40.7533635" lon="14.8605211"><ele>558.0</ele><time>2026-05-03T07:14:00.97Z</time></trkpt><trkpt lat="40.753382" lon="14.8603589"><ele>559.3333333333334</ele><time>2026-05-03T07:14:02.98Z</time></trkpt><trkpt lat="40.7534155" lon="14.8602617"><ele>560.6666666666667</ele><time>2026-05-03T07:14:04.969Z</time></trkpt><trkpt lat="40.7534845" lon="14.8601636"><ele>562.0</ele><time>2026-05-03T07:14:07.05Z</time></trkpt><trkpt lat="40.7535486" lon="14.8600486"><ele>566.2</ele><time>2026-05-03T07:14:08.048Z</time></trkpt><trkpt lat="40.7536242" lon="14.8599456"><ele>570.4000000000001</ele><time>2026-05-03T07:14:09.977Z</time></trkpt><trkpt lat="40.7537305" lon="14.8599001"><ele>574.5999999999999</ele><time>2026-05-03T07:14:11.974Z</time></trkpt><trkpt lat="40.7538139" lon="14.859875"><ele>578.8</ele><time>2026-05-03T07:14:12.974Z</time></trkpt><trkpt lat="40.7538876" lon="14.8598579"><ele>583.0</ele><time>2026-05-03T07:14:13.976Z</time></trkpt><trkpt lat="40.7539602" lon="14.8598187"><ele>583.0</ele><time>2026-05-03T07:14:15.053Z</time></trkpt><trkpt lat="40.7540164" lon="14.8597698"><ele>583.0</ele><time>2026-05-03T07:14:16.035Z</time></trkpt><trkpt lat="40.7539582" lon="14.8596943"><ele>583.0</ele><time>2026-05-03T07:14:19.956Z</time></trkpt><trkpt lat="40.7539278" lon="14.8596177"><ele>583.0</ele><time>2026-05-03T07:14:23.039Z</time></trkpt><trkpt lat="40.7540114" lon="14.8596135"><ele>583.0</ele><time>2026-05-03T07:14:25.967Z</time></trkpt><trkpt lat="40.754136" lon="14.8595943"><ele>583.0</ele><time>2026-05-03T07:14:27.973Z</time></trkpt><trkpt lat="40.7542065" lon="14.8595706"><ele>583.0</ele><time>2026-05-03T07:14:28.974Z</time></trkpt><trkpt lat="40.7542722" lon="14.8595485"><ele>583.0</ele><time>2026-05-03T07:14:29.958Z</time></trkpt><trkpt lat="40.7543391" lon="14.8595169"><ele>583.0</ele><time>2026-05-03T07:14:30.97Z</time></trkpt><trkpt lat="40.7544014" lon="14.8594457"><ele>583.0</ele><time>2026-05-03T07:14:32.956Z</time></trkpt><trkpt lat="40.7543266" lon="14.8593908"><ele>583.0</ele><time>2026-05-03T07:14:37.029Z</time></trkpt><trkpt lat="40.7543542" lon="14.8593064"><ele>583.0</ele><time>2026-05-03T07:14:41.964Z</time></trkpt><trkpt lat="40.7544754" lon="14.8592137"><ele>588.75</ele><time>2026-05-03T07:14:43.962Z</time></trkpt><trkpt lat="40.7545811" lon="14.859154"><ele>594.5</ele><time>2026-05-03T07:14:44.969Z</time></trkpt><trkpt lat="40.7547133" lon="14.8590643"><ele>600.25</ele><time>2026-05-03T07:14:45.963Z</time></trkpt><trkpt lat="40.7548453" lon="14.8589448"><ele>606.0</ele><time>2026-05-03T07:14:46.962Z</time></trkpt><trkpt lat="40.7549525" lon="14.8588344"><ele>606.0</ele><time>2026-05-03T07:14:48.043Z</time></trkpt><trkpt lat="40.7550549" lon="14.8587395"><ele>606.0</ele><time>2026-05-03T07:14:48.957Z</time></trkpt><trkpt lat="40.7551489" lon="14.8586614"><ele>606.0</ele><time>2026-05-03T07:14:49.951Z</time></trkpt><trkpt lat="40.7552373" lon="14.8585792"><ele>606.0</ele><time>2026-05-03T07:14:50.962Z</time></trkpt><trkpt lat="40.7553171" lon="14.8585349"><ele>606.0</ele><time>2026-05-03T07:14:51.952Z</time></trkpt><trkpt lat="40.7553905" lon="14.8585106"><ele>605.7142857142858</ele><time>2026-05-03T07:14:52.954Z</time></trkpt><trkpt lat="40.755465" lon="14.8584687"><ele>605.4285714285714</ele><time>2026-05-03T07:14:53.952Z</time></trkpt><trkpt lat="40.7555362" lon="14.8584238"><ele>605.1428571428571</ele><time>2026-05-03T07:14:54.96Z</time></trkpt><trkpt lat="40.7555978" lon="14.858392"><ele>604.8571428571429</ele><time>2026-05-03T07:14:55.953Z</time></trkpt><trkpt lat="40.755665" lon="14.8583611"><ele>604.5714285714286</ele><time>2026-05-03T07:14:57.034Z</time></trkpt><trkpt lat="40.7556461" lon="14.8582624"><ele>604.2857142857143</ele><time>2026-05-03T07:14:59.954Z</time></trkpt><trkpt lat="40.7555931" lon="14.8581921"><ele>604.0</ele><time>2026-05-03T07:15:02.036Z</time></trkpt><trkpt lat="40.7555381" lon="14.8581134"><ele>606.8</ele><time>2026-05-03T07:15:04.01Z</time></trkpt><trkpt lat="40.755647" lon="14.8581257"><ele>609.5999999999999</ele><time>2026-05-03T07:15:06.962Z</time></trkpt><trkpt lat="40.7557458" lon="14.8581262"><ele>612.4</ele><time>2026-05-03T07:15:08.994Z</time></trkpt><trkpt lat="40.7558501" lon="14.858112"><ele>615.1999999999999</ele><time>2026-05-03T07:15:10.958Z</time></trkpt><trkpt lat="40.7559612" lon="14.8580596"><ele>618.0</ele><time>2026-05-03T07:15:12.022Z</time></trkpt><trkpt lat="40.7560528" lon="14.8579831"><ele>618.0</ele><time>2026-05-03T07:15:12.955Z</time></trkpt><trkpt lat="40.7561331" lon="14.8579005"><ele>618.0</ele><time>2026-05-03T07:15:13.956Z</time></trkpt><trkpt lat="40.7562132" lon="14.8578153"><ele>618.0</ele><time>2026-05-03T07:15:14.956Z</time></trkpt><trkpt lat="40.7563004" lon="14.8577383"><ele>618.0</ele><time>2026-05-03T07:15:15.95Z</time></trkpt><trkpt lat="40.7563955" lon="14.8576855"><ele>618.0</ele><time>2026-05-03T07:15:16.954Z</time></trkpt><trkpt lat="40.7564915" lon="14.8576342"><ele>622.5999999999999</ele><time>2026-05-03T07:15:17.952Z</time></trkpt><trkpt lat="40.7565757" lon="14.8575713"><ele>627.1999999999999</ele><time>2026-05-03T07:15:18.956Z</time></trkpt><trkpt lat="40.7566673" lon="14.8574986"><ele>631.8</ele><time>2026-05-03T07:15:19.951Z</time></trkpt><trkpt lat="40.756749" lon="14.8574104"><ele>636.4</ele><time>2026-05-03T07:15:20.953Z</time></trkpt><trkpt lat="40.756827" lon="14.8573111"><ele>641.0</ele><time>2026-05-03T07:15:21.953Z</time></trkpt><trkpt lat="40.7569122" lon="14.857206"><ele>641.0</ele><time>2026-05-03T07:15:22.952Z</time></trkpt><trkpt lat="40.7570015" lon="14.8571157"><ele>641.0</ele><time>2026-05-03T07:15:23.954Z</time></trkpt><trkpt lat="40.7570987" lon="14.8570316"><ele>641.0</ele><time>2026-05-03T07:15:24.949Z</time></trkpt><trkpt lat="40.7571954" lon="14.8569836"><ele>641.0</ele><time>2026-05-03T07:15:25.953Z</time></trkpt><trkpt lat="40.7572688" lon="14.8569318"><ele>641.0</ele><time>2026-05-03T07:15:26.949Z</time></trkpt><trkpt lat="40.7573236" lon="14.8568636"><ele>648.5999999999999</ele><time>2026-05-03T07:15:27.948Z</time></trkpt><trkpt lat="40.7573604" lon="14.8567753"><ele>656.2</ele><time>2026-05-03T07:15:28.946Z</time></trkpt><trkpt lat="40.7574027" lon="14.8566641"><ele>663.8</ele><time>2026-05-03T07:15:29.955Z</time></trkpt><trkpt lat="40.7574465" lon="14.8565453"><ele>671.4000000000001</ele><time>2026-05-03T07:15:31.033Z</time></trkpt><trkpt lat="40.7574974" lon="14.8564398"><ele>679.0</ele><time>2026-05-03T07:15:31.957Z</time></trkpt><trkpt lat="40.7575686" lon="14.8563317"><ele>679.0</ele><time>2026-05-03T07:15:33.042Z</time></trkpt><trkpt lat="40.7576474" lon="14.8562162"><ele>679.0</ele><time>2026-05-03T07:15:33.959Z</time></trkpt><trkpt lat="40.7577211" lon="14.8561239"><ele>679.0</ele><time>2026-05-03T07:15:34.955Z</time></trkpt><trkpt lat="40.7578077" lon="14.8560485"><ele>679.0</ele><time>2026-05-03T07:15:35.983Z</time></trkpt><trkpt lat="40.7578955" lon="14.8559771"><ele>679.0</ele><time>2026-05-03T07:15:37.029Z</time></trkpt><trkpt lat="40.7579761" lon="14.8559016"><ele>681.2</ele><time>2026-05-03T07:15:38.028Z</time></trkpt><trkpt lat="40.7580664" lon="14.8558228"><ele>683.4000000000001</ele><time>2026-05-03T07:15:38.963Z</time></trkpt><trkpt lat="40.7581413" lon="14.8557354"><ele>685.6</ele><time>2026-05-03T07:15:39.956Z</time></trkpt><trkpt lat="40.7582027" lon="14.8556433"><ele>687.8</ele><time>2026-05-03T07:15:41.052Z</time></trkpt><trkpt lat="40.7582594" lon="14.855583"><ele>690.0</ele><time>2026-05-03T07:15:42.04Z</time></trkpt><trkpt lat="40.7583449" lon="14.8555217"><ele>690.0</ele><time>2026-05-03T07:15:42.985Z</time></trkpt><trkpt lat="40.7584444" lon="14.855409"><ele>690.0</ele><time>2026-05-03T07:15:43.962Z</time></trkpt><trkpt lat="40.7585314" lon="14.8552938"><ele>690.0</ele><time>2026-05-03T07:15:45.035Z</time></trkpt><trkpt lat="40.7586352" lon="14.8551967"><ele>690.0</ele><time>2026-05-03T07:15:46.038Z</time></trkpt><trkpt lat="40.7587476" lon="14.8551043"><ele>694.25</ele><time>2026-05-03T07:15:47.028Z</time></trkpt><trkpt lat="40.7588632" lon="14.855012"><ele>698.5</ele><time>2026-05-03T07:15:48.041Z</time></trkpt><trkpt lat="40.7589848" lon="14.8549259"><ele>702.75</ele><time>2026-05-03T07:15:48.961Z</time></trkpt><trkpt lat="40.7591073" lon="14.8548487"><ele>707.0</ele><time>2026-05-03T07:15:49.963Z</time></trkpt><trkpt lat="40.7592056" lon="14.8547939"><ele>707.0</ele><time>2026-05-03T07:15:51.065Z</time></trkpt><trkpt lat="40.7592889" lon="14.8547884"><ele>707.0</ele><time>2026-05-03T07:15:52.033Z</time></trkpt><trkpt lat="40.7593556" lon="14.854784"><ele>707.0</ele><time>2026-05-03T07:15:52.954Z</time></trkpt><trkpt lat="40.7594518" lon="14.854745"><ele>707.0</ele><time>2026-05-03T07:15:54.957Z</time></trkpt><trkpt lat="40.7594722" lon="14.8546475"><ele>707.0</ele><time>2026-05-03T07:15:56.953Z</time></trkpt><trkpt lat="40.7595242" lon="14.8545082"><ele>707.0</ele><time>2026-05-03T07:15:58.951Z</time></trkpt><trkpt lat="40.7595673" lon="14.8543487"><ele>710.5</ele><time>2026-05-03T07:15:59.957Z</time></trkpt><trkpt lat="40.7596286" lon="14.8541705"><ele>714.0</ele><time>2026-05-03T07:16:01.02Z</time></trkpt><trkpt lat="40.7596742" lon="14.8540151"><ele>717.5</ele><time>2026-05-03T07:16:01.956Z</time></trkpt><trkpt lat="40.7597035" lon="14.8538699"><ele>721.0</ele><time>2026-05-03T07:16:02.964Z</time></trkpt><trkpt lat="40.7597077" lon="14.8537605"><ele>721.0</ele><time>2026-05-03T07:16:03.953Z</time></trkpt><trkpt lat="40.7597035" lon="14.853617"><ele>721.0</ele><time>2026-05-03T07:16:04.953Z</time></trkpt><trkpt lat="40.7596959" lon="14.8534752"><ele>721.0</ele><time>2026-05-03T07:16:05.955Z</time></trkpt><trkpt lat="40.7596627" lon="14.8533654"><ele>721.0</ele><time>2026-05-03T07:16:06.956Z</time></trkpt><trkpt lat="40.7596329" lon="14.8532479"><ele>721.0</ele><time>2026-05-03T07:16:07.963Z</time></trkpt><trkpt lat="40.7596228" lon="14.8531509"><ele>722.1999999999999</ele><time>2026-05-03T07:16:08.955Z</time></trkpt><trkpt lat="40.7596347" lon="14.8530226"><ele>723.4</ele><time>2026-05-03T07:16:09.954Z</time></trkpt><trkpt lat="40.7596319" lon="14.8529035"><ele>724.6</ele><time>2026-05-03T07:16:10.951Z</time></trkpt><trkpt lat="40.7596091" lon="14.8527676"><ele>725.8</ele><time>2026-05-03T07:16:11.953Z</time></trkpt><trkpt lat="40.7595633" lon="14.8526276"><ele>727.0</ele><time>2026-05-03T07:16:12.968Z</time></trkpt><trkpt lat="40.7595191" lon="14.8525046"><ele>727.0</ele><time>2026-05-03T07:16:13.957Z</time></trkpt><trkpt lat="40.7595157" lon="14.8523887"><ele>727.0</ele><time>2026-05-03T07:16:14.951Z</time></trkpt><trkpt lat="40.7595521" lon="14.8522716"><ele>727.0</ele><time>2026-05-03T07:16:15.952Z</time></trkpt><trkpt lat="40.7596184" lon="14.8521432"><ele>727.0</ele><time>2026-05-03T07:16:16.953Z</time></trkpt><trkpt lat="40.7596689" lon="14.8520065"><ele>727.0</ele><time>2026-05-03T07:16:17.954Z</time></trkpt><trkpt lat="40.7597023" lon="14.8518883"><ele>727.0</ele><time>2026-05-03T07:16:18.957Z</time></trkpt><trkpt lat="40.7597252" lon="14.8518085"><ele>727.0</ele><time>2026-05-03T07:16:19.95Z</time></trkpt><trkpt lat="40.7597241" lon="14.8516402"><ele>727.0</ele><time>2026-05-03T07:16:21.943Z</time></trkpt><trkpt lat="40.7597057" lon="14.8515127"><ele>727.0</ele><time>2026-05-03T07:16:23.033Z</time></trkpt><trkpt lat="40.7596753" lon="14.8513836"><ele>727.0</ele><time>2026-05-03T07:16:23.949Z</time></trkpt><trkpt lat="40.7596457" lon="14.8512475"><ele>726.6666666666667</ele><time>2026-05-03T07:16:24.952Z</time></trkpt><trkpt lat="40.7596226" lon="14.8511171"><ele>726.3333333333334</ele><time>2026-05-03T07:16:25.974Z</time></trkpt><trkpt lat="40.759591" lon="14.8509974"><ele>726.0</ele><time>2026-05-03T07:16:26.954Z</time></trkpt><trkpt lat="40.7595623" lon="14.8509027"><ele>725.6666666666666</ele><time>2026-05-03T07:16:28.046Z</time></trkpt><trkpt lat="40.7595306" lon="14.8507808"><ele>725.3333333333333</ele><time>2026-05-03T07:16:29.972Z</time></trkpt><trkpt lat="40.7595187" lon="14.8506879"><ele>725.0</ele><time>2026-05-03T07:16:31.972Z</time></trkpt><trkpt lat="40.759517" lon="14.8505971"><ele>725.0</ele><time>2026-05-03T07:16:35.963Z</time></trkpt><trkpt lat="40.7594883" lon="14.8505187"><ele>725.0</ele><time>2026-05-03T07:16:37.957Z</time></trkpt><trkpt lat="40.7594427" lon="14.8504471"><ele>725.0</ele><time>2026-05-03T07:16:40.961Z</time></trkpt><trkpt lat="40.7594136" lon="14.8503607"><ele>725.0</ele><time>2026-05-03T07:16:50.97Z</time></trkpt><trkpt lat="40.7593858" lon="14.850261"><ele>725.0</ele><time>2026-05-03T07:16:52.968Z</time></trkpt><trkpt lat="40.7593727" lon="14.850142"><ele>725.0</ele><time>2026-05-03T07:16:54.959Z</time></trkpt><trkpt lat="40.7593538" lon="14.8500096"><ele>722.8333333333333</ele><time>2026-05-03T07:16:56.968Z</time></trkpt><trkpt lat="40.7593762" lon="14.8498953"><ele>720.6666666666666</ele><time>2026-05-03T07:16:58.949Z</time></trkpt><trkpt lat="40.75945" lon="14.8497955"><ele>718.5</ele><time>2026-05-03T07:17:00.957Z</time></trkpt><trkpt lat="40.7595045" lon="14.8497475"><ele>716.3333333333334</ele><time>2026-05-03T07:17:01.97Z</time></trkpt><trkpt lat="40.7595592" lon="14.8496998"><ele>714.1666666666667</ele><time>2026-05-03T07:17:02.964Z</time></trkpt><trkpt lat="40.7596193" lon="14.8496592"><ele>712.0</ele><time>2026-05-03T07:17:03.95Z</time></trkpt><trkpt lat="40.7596766" lon="14.849615"><ele>712.0</ele><time>2026-05-03T07:17:04.961Z</time></trkpt><trkpt lat="40.7597397" lon="14.8495734"><ele>712.0</ele><time>2026-05-03T07:17:05.955Z</time></trkpt><trkpt lat="40.7598018" lon="14.849528"><ele>712.0</ele><time>2026-05-03T07:17:06.964Z</time></trkpt><trkpt lat="40.7598667" lon="14.8494957"><ele>712.0</ele><time>2026-05-03T07:17:07.962Z</time></trkpt><trkpt lat="40.7599703" lon="14.8494199"><ele>712.0</ele><time>2026-05-03T07:17:09.968Z</time></trkpt><trkpt lat="40.7600231" lon="14.8493395"><ele>712.0</ele><time>2026-05-03T07:17:10.964Z</time></trkpt><trkpt lat="40.7600693" lon="14.8492474"><ele>712.1666666666667</ele><time>2026-05-03T07:17:11.962Z</time></trkpt><trkpt lat="40.7601132" lon="14.8491609"><ele>712.3333333333334</ele><time>2026-05-03T07:17:12.966Z</time></trkpt><trkpt lat="40.7601672" lon="14.8490853"><ele>712.5</ele><time>2026-05-03T07:17:13.957Z</time></trkpt><trkpt lat="40.7602175" lon="14.8490102"><ele>712.6666666666666</ele><time>2026-05-03T07:17:14.968Z</time></trkpt><trkpt lat="40.7602473" lon="14.8489231"><ele>712.8333333333333</ele><time>2026-05-03T07:17:15.963Z</time></trkpt><trkpt lat="40.7602696" lon="14.8488452"><ele>713.0</ele><time>2026-05-03T07:17:16.963Z</time></trkpt><trkpt lat="40.7602828" lon="14.8486854"><ele>708.8333333333333</ele><time>2026-05-03T07:17:18.966Z</time></trkpt><trkpt lat="40.7602859" lon="14.8485947"><ele>704.6666666666666</ele><time>2026-05-03T07:17:19.965Z</time></trkpt><trkpt lat="40.760281" lon="14.8485053"><ele>700.5</ele><time>2026-05-03T07:17:20.965Z</time></trkpt><trkpt lat="40.7602763" lon="14.848411"><ele>696.3333333333334</ele><time>2026-05-03T07:17:21.961Z</time></trkpt><trkpt lat="40.7602703" lon="14.8482762"><ele>692.1666666666667</ele><time>2026-05-03T07:17:23.964Z</time></trkpt><trkpt lat="40.7602616" lon="14.8481696"><ele>688.0</ele><time>2026-05-03T07:17:25.961Z</time></trkpt><trkpt lat="40.7602721" lon="14.8480375"><ele>688.0</ele><time>2026-05-03T07:17:27.965Z</time></trkpt><trkpt lat="40.7602851" lon="14.8479183"><ele>688.0</ele><time>2026-05-03T07:17:29.958Z</time></trkpt><trkpt lat="40.7603328" lon="14.847798"><ele>688.0</ele><time>2026-05-03T07:17:32.045Z</time></trkpt><trkpt lat="40.7603553" lon="14.8477183"><ele>688.0</ele><time>2026-05-03T07:17:33.045Z</time></trkpt><trkpt lat="40.760361" lon="14.8476034"><ele>688.0</ele><time>2026-05-03T07:17:34.972Z</time></trkpt><trkpt lat="40.7603952" lon="14.8474875"><ele>688.0</ele><time>2026-05-03T07:17:36.972Z</time></trkpt><trkpt lat="40.7604311" lon="14.847346"><ele>685.8333333333334</ele><time>2026-05-03T07:17:38.974Z</time></trkpt><trkpt lat="40.7604716" lon="14.8471989"><ele>683.6666666666667</ele><time>2026-05-03T07:17:41.037Z</time></trkpt><trkpt lat="40.7604957" lon="14.8471161"><ele>681.5</ele><time>2026-05-03T07:17:41.967Z</time></trkpt><trkpt lat="40.7605172" lon="14.8470333"><ele>679.3333333333334</ele><time>2026-05-03T07:17:42.97Z</time></trkpt><trkpt lat="40.7605684" lon="14.8468787"><ele>677.1666666666666</ele><time>2026-05-03T07:17:44.97Z</time></trkpt><trkpt lat="40.7605916" lon="14.8468012"><ele>675.0</ele><time>2026-05-03T07:17:45.971Z</time></trkpt><trkpt lat="40.7606379" lon="14.8467"><ele>675.0</ele><time>2026-05-03T07:17:47.969Z</time></trkpt><trkpt lat="40.7606569" lon="14.8466127"><ele>675.0</ele><time>2026-05-03T07:17:50.042Z</time></trkpt><trkpt lat="40.7607336" lon="14.8465449"><ele>675.0</ele><time>2026-05-03T07:17:52.963Z</time></trkpt><trkpt lat="40.7608096" lon="14.8465862"><ele>675.0</ele><time>2026-05-03T07:17:55.963Z</time></trkpt><trkpt lat="40.7608463" lon="14.8466871"><ele>675.0</ele><time>2026-05-03T07:17:57.947Z</time></trkpt><trkpt lat="40.7608799" lon="14.8467762"><ele>675.0</ele><time>2026-05-03T07:17:59.955Z</time></trkpt><trkpt lat="40.7609075" lon="14.846899"><ele>675.0</ele><time>2026-05-03T07:18:01.955Z</time></trkpt><trkpt lat="40.760915" lon="14.8470336"><ele>675.0</ele><time>2026-05-03T07:18:03.954Z</time></trkpt><trkpt lat="40.7609467" lon="14.8471098"><ele>675.0</ele><time>2026-05-03T07:18:05.963Z</time></trkpt><trkpt lat="40.7610211" lon="14.8471358"><ele>675.0</ele><time>2026-05-03T07:18:08.038Z</time></trkpt><trkpt lat="40.7610901" lon="14.8471218"><ele>675.0</ele><time>2026-05-03T07:18:08.953Z</time></trkpt><trkpt lat="40.7612051" lon="14.8470931"><ele>675.0</ele><time>2026-05-03T07:18:10.96Z</time></trkpt><trkpt lat="40.7613261" lon="14.8471314"><ele>669.6</ele><time>2026-05-03T07:18:12.95Z</time></trkpt><trkpt lat="40.7614063" lon="14.8471746"><ele>664.2</ele><time>2026-05-03T07:18:14.95Z</time></trkpt><trkpt lat="40.7614853" lon="14.8472119"><ele>658.8</ele><time>2026-05-03T07:18:16.959Z</time></trkpt><trkpt lat="40.7614332" lon="14.8471396"><ele>653.4</ele><time>2026-05-03T07:18:19.965Z</time></trkpt><trkpt lat="40.7613468" lon="14.8470515"><ele>648.0</ele><time>2026-05-03T07:18:21.962Z</time></trkpt><trkpt lat="40.7612719" lon="14.8469605"><ele>648.0</ele><time>2026-05-03T07:18:23.958Z</time></trkpt><trkpt lat="40.7611949" lon="14.8469197"><ele>648.0</ele><time>2026-05-03T07:18:25.96Z</time></trkpt><trkpt lat="40.7611553" lon="14.8468295"><ele>648.0</ele><time>2026-05-03T07:18:27.956Z</time></trkpt><trkpt lat="40.761185" lon="14.8467125"><ele>648.0</ele><time>2026-05-03T07:18:29.958Z</time></trkpt><trkpt lat="40.7612189" lon="14.8466161"><ele>648.0</ele><time>2026-05-03T07:18:30.943Z</time></trkpt><trkpt lat="40.7612329" lon="14.8465204"><ele>648.0</ele><time>2026-05-03T07:18:31.957Z</time></trkpt><trkpt lat="40.7612336" lon="14.8464218"><ele>646.3333333333334</ele><time>2026-05-03T07:18:32.961Z</time></trkpt><trkpt lat="40.7612131" lon="14.8463095"><ele>644.6666666666666</ele><time>2026-05-03T07:18:33.961Z</time></trkpt><trkpt lat="40.7611959" lon="14.8461853"><ele>643.0</ele><time>2026-05-03T07:18:35.029Z</time></trkpt><trkpt lat="40.7612027" lon="14.8460814"><ele>641.3333333333333</ele><time>2026-05-03T07:18:36.046Z</time></trkpt><trkpt lat="40.7612116" lon="14.8459723"><ele>639.6666666666666</ele><time>2026-05-03T07:18:37.029Z</time></trkpt><trkpt lat="40.7612178" lon="14.8458608"><ele>638.0</ele><time>2026-05-03T07:18:38.03Z</time></trkpt><trkpt lat="40.761217" lon="14.8457526"><ele>634.8</ele><time>2026-05-03T07:18:38.959Z</time></trkpt><trkpt lat="40.7612125" lon="14.8456435"><ele>631.5999999999999</ele><time>2026-05-03T07:18:39.957Z</time></trkpt><trkpt lat="40.7612147" lon="14.8455342"><ele>628.4000000000001</ele><time>2026-05-03T07:18:40.968Z</time></trkpt><trkpt lat="40.761218" lon="14.8453909"><ele>625.2</ele><time>2026-05-03T07:18:43.054Z</time></trkpt><trkpt lat="40.7612626" lon="14.8452873"><ele>622.0</ele><time>2026-05-03T07:18:44.963Z</time></trkpt><trkpt lat="40.7613465" lon="14.8452091"><ele>621.1666666666667</ele><time>2026-05-03T07:18:46.958Z</time></trkpt><trkpt lat="40.7614203" lon="14.8451244"><ele>620.3333333333334</ele><time>2026-05-03T07:18:48.967Z</time></trkpt><trkpt lat="40.7615112" lon="14.8450911"><ele>619.5</ele><time>2026-05-03T07:18:50.959Z</time></trkpt><trkpt lat="40.761597" lon="14.8450524"><ele>618.6666666666666</ele><time>2026-05-03T07:18:52.957Z</time></trkpt><trkpt lat="40.7616146" lon="14.8449513"><ele>617.8333333333333</ele><time>2026-05-03T07:18:55.956Z</time></trkpt><trkpt lat="40.7616322" lon="14.8448542"><ele>617.0</ele><time>2026-05-03T07:18:57.96Z</time></trkpt><trkpt lat="40.7616814" lon="14.8447544"><ele>617.0</ele><time>2026-05-03T07:18:59.96Z</time></trkpt><trkpt lat="40.7617406" lon="14.8447004"><ele>617.0</ele><time>2026-05-03T07:19:00.958Z</time></trkpt><trkpt lat="40.7617963" lon="14.8446459"><ele>617.0</ele><time>2026-05-03T07:19:01.957Z</time></trkpt><trkpt lat="40.7618873" lon="14.844505"><ele>617.0</ele><time>2026-05-03T07:19:03.96Z</time></trkpt><trkpt lat="40.7619311" lon="14.8444398"><ele>617.0</ele><time>2026-05-03T07:19:04.957Z</time></trkpt><trkpt lat="40.7619802" lon="14.844383"><ele>617.0</ele><time>2026-05-03T07:19:05.958Z</time></trkpt><trkpt lat="40.762064" lon="14.8442726"><ele>612.5</ele><time>2026-05-03T07:19:08.001Z</time></trkpt><trkpt lat="40.7621259" lon="14.8441485"><ele>608.0</ele><time>2026-05-03T07:19:09.961Z</time></trkpt><trkpt lat="40.7621691" lon="14.8440451"><ele>603.5</ele><time>2026-05-03T07:19:11.962Z</time></trkpt><trkpt lat="40.7622095" lon="14.8439778"><ele>599.0</ele><time>2026-05-03T07:19:13.966Z</time></trkpt><trkpt lat="40.7622729" lon="14.8440131"><ele>594.5</ele><time>2026-05-03T07:19:16.055Z</time></trkpt><trkpt lat="40.762273" lon="14.8441157"><ele>590.0</ele><time>2026-05-03T07:19:18.951Z</time></trkpt><trkpt lat="40.7622409" lon="14.844197"><ele>590.0</ele><time>2026-05-03T07:19:20.956Z</time></trkpt><trkpt lat="40.762197" lon="14.8443129"><ele>590.0</ele><time>2026-05-03T07:19:27.954Z</time></trkpt><trkpt lat="40.7622705" lon="14.8443195"><ele>590.0</ele><time>2026-05-03T07:20:03.981Z</time></trkpt><trkpt lat="40.7623498" lon="14.8442352"><ele>590.0</ele><time>2026-05-03T07:20:05.952Z</time></trkpt><trkpt lat="40.7624279" lon="14.8441674"><ele>590.0</ele><time>2026-05-03T07:20:06.953Z</time></trkpt><trkpt lat="40.7624893" lon="14.8440797"><ele>590.0</ele><time>2026-05-03T07:20:07.954Z</time></trkpt><trkpt lat="40.7625509" lon="14.8439917"><ele>590.0</ele><time>2026-05-03T07:20:08.957Z</time></trkpt><trkpt lat="40.7626104" lon="14.8438991"><ele>590.0</ele><time>2026-05-03T07:20:09.955Z</time></trkpt><trkpt lat="40.7626584" lon="14.8438142"><ele>590.0</ele><time>2026-05-03T07:20:11.039Z</time></trkpt><trkpt lat="40.762709" lon="14.843729"><ele>590.0</ele><time>2026-05-03T07:20:11.958Z</time></trkpt><trkpt lat="40.7627586" lon="14.8436603"><ele>590.0</ele><time>2026-05-03T07:20:12.956Z</time></trkpt><trkpt lat="40.7628062" lon="14.8435887"><ele>587.0</ele><time>2026-05-03T07:20:13.958Z</time></trkpt><trkpt lat="40.7628435" lon="14.8435136"><ele>584.0</ele><time>2026-05-03T07:20:14.958Z</time></trkpt><trkpt lat="40.7628595" lon="14.8434291"><ele>581.0</ele><time>2026-05-03T07:20:15.953Z</time></trkpt><trkpt lat="40.7628599" lon="14.8433139"><ele>578.0</ele><time>2026-05-03T07:20:17.969Z</time></trkpt><trkpt lat="40.762863" lon="14.8431947"><ele>575.0</ele><time>2026-05-03T07:20:20.026Z</time></trkpt><trkpt lat="40.7628989" lon="14.8430924"><ele>572.0</ele><time>2026-05-03T07:20:21.944Z</time></trkpt><trkpt lat="40.7629585" lon="14.8430191"><ele>572.0</ele><time>2026-05-03T07:20:23.961Z</time></trkpt><trkpt lat="40.7630113" lon="14.8429391"><ele>572.0</ele><time>2026-05-03T07:20:24.956Z</time></trkpt><trkpt lat="40.7630839" lon="14.8428431"><ele>572.0</ele><time>2026-05-03T07:20:26.033Z</time></trkpt><trkpt lat="40.7631468" lon="14.8427562"><ele>572.0</ele><time>2026-05-03T07:20:27.042Z</time></trkpt><trkpt lat="40.7632126" lon="14.84266"><ele>572.0</ele><time>2026-05-03T07:20:28.032Z</time></trkpt><trkpt lat="40.7632758" lon="14.8425404"><ele>572.0</ele><time>2026-05-03T07:20:28.962Z</time></trkpt><trkpt lat="40.7633362" lon="14.842426"><ele>572.0</ele><time>2026-05-03T07:20:29.958Z</time></trkpt><trkpt lat="40.7633941" lon="14.8423159"><ele>572.0</ele><time>2026-05-03T07:20:30.96Z</time></trkpt><trkpt lat="40.7634431" lon="14.842198"><ele>572.0</ele><time>2026-05-03T07:20:31.958Z</time></trkpt><trkpt lat="40.763492" lon="14.8420746"><ele>572.0</ele><time>2026-05-03T07:20:32.956Z</time></trkpt><trkpt lat="40.76353" lon="14.8419494"><ele>570.6</ele><time>2026-05-03T07:20:33.962Z</time></trkpt><trkpt lat="40.763544" lon="14.8418302"><ele>569.2</ele><time>2026-05-03T07:20:35.025Z</time></trkpt><trkpt lat="40.7635679" lon="14.8416989"><ele>567.8</ele><time>2026-05-03T07:20:36.026Z</time></trkpt><trkpt lat="40.763597" lon="14.8415817"><ele>566.4</ele><time>2026-05-03T07:20:37.035Z</time></trkpt><trkpt lat="40.7636322" lon="14.8414622"><ele>565.0</ele><time>2026-05-03T07:20:37.959Z</time></trkpt><trkpt lat="40.7636681" lon="14.841362"><ele>563.1666666666667</ele><time>2026-05-03T07:20:38.97Z</time></trkpt><trkpt lat="40.7637154" lon="14.84127"><ele>561.3333333333334</ele><time>2026-05-03T07:20:39.961Z</time></trkpt><trkpt lat="40.7637624" lon="14.8411885"><ele>559.5</ele><time>2026-05-03T07:20:40.959Z</time></trkpt><trkpt lat="40.7638306" lon="14.8411303"><ele>557.6666666666666</ele><time>2026-05-03T07:20:41.968Z</time></trkpt><trkpt lat="40.7639068" lon="14.8410921"><ele>555.8333333333333</ele><time>2026-05-03T07:20:42.962Z</time></trkpt><trkpt lat="40.7639754" lon="14.841047"><ele>554.0</ele><time>2026-05-03T07:20:43.961Z</time></trkpt><trkpt lat="40.7640318" lon="14.8409957"><ele>553.6666666666666</ele><time>2026-05-03T07:20:44.959Z</time></trkpt><trkpt lat="40.7640991" lon="14.8409538"><ele>553.3333333333333</ele><time>2026-05-03T07:20:45.969Z</time></trkpt><trkpt lat="40.7641735" lon="14.8409169"><ele>553.0</ele><time>2026-05-03T07:20:46.959Z</time></trkpt><trkpt lat="40.7642463" lon="14.8408521"><ele>552.6666666666666</ele><time>2026-05-03T07:20:47.965Z</time></trkpt><trkpt lat="40.7643203" lon="14.8407893"><ele>552.3333333333334</ele><time>2026-05-03T07:20:48.962Z</time></trkpt><trkpt lat="40.7643844" lon="14.8407303"><ele>552.0</ele><time>2026-05-03T07:20:49.963Z</time></trkpt><trkpt lat="40.764453" lon="14.8406777"><ele>554.2</ele><time>2026-05-03T07:20:51.024Z</time></trkpt><trkpt lat="40.764523" lon="14.8406348"><ele>556.4000000000001</ele><time>2026-05-03T07:20:52.032Z</time></trkpt><trkpt lat="40.7646045" lon="14.8405711"><ele>558.5999999999999</ele><time>2026-05-03T07:20:53.972Z</time></trkpt><trkpt lat="40.7646308" lon="14.8406484"><ele>560.8</ele><time>2026-05-03T07:20:58.045Z</time></trkpt><trkpt lat="40.7646335" lon="14.8407683"><ele>563.0</ele><time>2026-05-03T07:21:00.972Z</time></trkpt><trkpt lat="40.7646343" lon="14.8405943"><ele>563.0</ele><time>2026-05-03T07:21:08.954Z</time></trkpt><trkpt lat="40.7646199" lon="14.8405129"><ele>563.0</ele><time>2026-05-03T07:21:09.955Z</time></trkpt><trkpt lat="40.7646046" lon="14.84042"><ele>563.0</ele><time>2026-05-03T07:21:10.959Z</time></trkpt><trkpt lat="40.7645841" lon="14.8403283"><ele>563.0</ele><time>2026-05-03T07:21:11.958Z</time></trkpt><trkpt lat="40.7645762" lon="14.8402416"><ele>563.0</ele><time>2026-05-03T07:21:12.958Z</time></trkpt><trkpt lat="40.7645944" lon="14.8401588"><ele>563.0</ele><time>2026-05-03T07:21:13.942Z</time></trkpt><trkpt lat="40.7646299" lon="14.8400284"><ele>563.0</ele><time>2026-05-03T07:21:14.974Z</time></trkpt><trkpt lat="40.7646678" lon="14.8399108"><ele>560.5</ele><time>2026-05-03T07:21:15.955Z</time></trkpt><trkpt lat="40.7647184" lon="14.8398401"><ele>558.0</ele><time>2026-05-03T07:21:16.966Z</time></trkpt><trkpt lat="40.7647842" lon="14.839758"><ele>555.5</ele><time>2026-05-03T07:21:17.956Z</time></trkpt><trkpt lat="40.7649563" lon="14.8394918"><ele>553.0</ele><time>2026-05-03T07:21:18.958Z</time></trkpt><trkpt lat="40.7650701" lon="14.839337"><ele>551.75</ele><time>2026-05-03T07:21:19.956Z</time></trkpt><trkpt lat="40.7651859" lon="14.8392093"><ele>550.5</ele><time>2026-05-03T07:21:20.957Z</time></trkpt><trkpt lat="40.7653015" lon="14.839054"><ele>549.25</ele><time>2026-05-03T07:21:21.952Z</time></trkpt><trkpt lat="40.7653711" lon="14.8389336"><ele>548.0</ele><time>2026-05-03T07:21:22.956Z</time></trkpt><trkpt lat="40.7654286" lon="14.838853"><ele>548.0</ele><time>2026-05-03T07:21:23.956Z</time></trkpt><trkpt lat="40.7654775" lon="14.8387951"><ele>548.0</ele><time>2026-05-03T07:21:24.953Z</time></trkpt><trkpt lat="40.7655697" lon="14.8387253"><ele>548.0</ele><time>2026-05-03T07:21:26.961Z</time></trkpt><trkpt lat="40.7656366" lon="14.8386939"><ele>548.0</ele><time>2026-05-03T07:21:27.952Z</time></trkpt><trkpt lat="40.7657107" lon="14.8386746"><ele>548.0</ele><time>2026-05-03T07:21:28.948Z</time></trkpt><trkpt lat="40.7658064" lon="14.8386774"><ele>548.0</ele><time>2026-05-03T07:21:29.953Z</time></trkpt><trkpt lat="40.765884" lon="14.8386698"><ele>548.0</ele><time>2026-05-03T07:21:30.956Z</time></trkpt><trkpt lat="40.7659477" lon="14.8386541"><ele>548.0</ele><time>2026-05-03T07:21:31.955Z</time></trkpt><trkpt lat="40.7659717" lon="14.838493"><ele>548.0</ele><time>2026-05-03T07:21:33.958Z</time></trkpt><trkpt lat="40.7659818" lon="14.8383937"><ele>548.0</ele><time>2026-05-03T07:21:34.954Z</time></trkpt><trkpt lat="40.7660281" lon="14.838301"><ele>548.0</ele><time>2026-05-03T07:21:35.962Z</time></trkpt><trkpt lat="40.7660757" lon="14.8382282"><ele>548.0</ele><time>2026-05-03T07:21:37.039Z</time></trkpt><trkpt lat="40.7661451" lon="14.8381688"><ele>547.5</ele><time>2026-05-03T07:21:38.014Z</time></trkpt><trkpt lat="40.7662029" lon="14.8381002"><ele>547.0</ele><time>2026-05-03T07:21:38.957Z</time></trkpt><trkpt lat="40.766269" lon="14.8380157"><ele>546.5</ele><time>2026-05-03T07:21:40.955Z</time></trkpt><trkpt lat="40.7661716" lon="14.8379605"><ele>546.0</ele><time>2026-05-03T07:21:44.959Z</time></trkpt><trkpt lat="40.7661093" lon="14.8379747"><ele>545.5</ele><time>2026-05-03T07:21:45.96Z</time></trkpt><trkpt lat="40.7660358" lon="14.8379984"><ele>545.0</ele><time>2026-05-03T07:21:46.958Z</time></trkpt><trkpt lat="40.7659665" lon="14.8380181"><ele>545.6</ele><time>2026-05-03T07:21:47.961Z</time></trkpt><trkpt lat="40.7659014" lon="14.8380606"><ele>546.2</ele><time>2026-05-03T07:21:48.958Z</time></trkpt><trkpt lat="40.7658258" lon="14.8381904"><ele>546.8</ele><time>2026-05-03T07:21:50.959Z</time></trkpt><trkpt lat="40.7657726" lon="14.8383133"><ele>547.4</ele><time>2026-05-03T07:21:53.045Z</time></trkpt><trkpt lat="40.7656817" lon="14.8383721"><ele>548.0</ele><time>2026-05-03T07:21:54.959Z</time></trkpt><trkpt lat="40.7655558" lon="14.8384962"><ele>548.0</ele><time>2026-05-03T07:21:56.953Z</time></trkpt><trkpt lat="40.7654843" lon="14.8385924"><ele>548.0</ele><time>2026-05-03T07:21:57.956Z</time></trkpt><trkpt lat="40.7654208" lon="14.8386545"><ele>548.0</ele><time>2026-05-03T07:21:58.957Z</time></trkpt><trkpt lat="40.7653651" lon="14.8386999"><ele>548.0</ele><time>2026-05-03T07:21:59.956Z</time></trkpt><trkpt lat="40.765294" lon="14.8387233"><ele>548.0</ele><time>2026-05-03T07:22:01.033Z</time></trkpt><trkpt lat="40.7652153" lon="14.8387371"><ele>548.0</ele><time>2026-05-03T07:22:02.045Z</time></trkpt><trkpt lat="40.7651332" lon="14.8387573"><ele>545.0</ele><time>2026-05-03T07:22:03.035Z</time></trkpt><trkpt lat="40.7650577" lon="14.8387749"><ele>542.0</ele><time>2026-05-03T07:22:03.961Z</time></trkpt><trkpt lat="40.7649859" lon="14.8387617"><ele>539.0</ele><time>2026-05-03T07:22:04.958Z</time></trkpt><trkpt lat="40.7649138" lon="14.838727"><ele>536.0</ele><time>2026-05-03T07:22:05.954Z</time></trkpt><trkpt lat="40.764855" lon="14.8386947"><ele>533.0</ele><time>2026-05-03T07:22:06.962Z</time></trkpt><trkpt lat="40.7647532" lon="14.8386876"><ele>530.0</ele><time>2026-05-03T07:22:08.959Z</time></trkpt><trkpt lat="40.7646917" lon="14.8386624"><ele>530.0</ele><time>2026-05-03T07:22:10.96Z</time></trkpt><trkpt lat="40.7645936" lon="14.8386357"><ele>530.0</ele><time>2026-05-03T07:22:13.965Z</time></trkpt><trkpt lat="40.7644695" lon="14.8385891"><ele>530.0</ele><time>2026-05-03T07:22:15.956Z</time></trkpt><trkpt lat="40.7643637" lon="14.8385148"><ele>530.0</ele><time>2026-05-03T07:22:17.956Z</time></trkpt><trkpt lat="40.7642955" lon="14.8384654"><ele>530.0</ele><time>2026-05-03T07:22:18.957Z</time></trkpt><trkpt lat="40.7641962" lon="14.8384209"><ele>528.8333333333333</ele><time>2026-05-03T07:22:21.044Z</time></trkpt><trkpt lat="40.76418" lon="14.8382951"><ele>527.6666666666666</ele><time>2026-05-03T07:22:24.956Z</time></trkpt><trkpt lat="40.764239" lon="14.8382193"><ele>526.5</ele><time>2026-05-03T07:22:27.956Z</time></trkpt><trkpt lat="40.7643105" lon="14.8382558"><ele>525.3333333333334</ele><time>2026-05-03T07:22:29.956Z</time></trkpt><trkpt lat="40.7643947" lon="14.8382775"><ele>524.1666666666667</ele><time>2026-05-03T07:22:31.955Z</time></trkpt><trkpt lat="40.7644938" lon="14.8382783"><ele>523.0</ele><time>2026-05-03T07:22:33.953Z</time></trkpt><trkpt lat="40.7645777" lon="14.8382637"><ele>521.8</ele><time>2026-05-03T07:22:34.953Z</time></trkpt><trkpt lat="40.7646733" lon="14.8382337"><ele>520.5999999999999</ele><time>2026-05-03T07:22:35.955Z</time></trkpt><trkpt lat="40.7647679" lon="14.8382085"><ele>519.4000000000001</ele><time>2026-05-03T07:22:36.957Z</time></trkpt><trkpt lat="40.7648476" lon="14.8381667"><ele>518.2</ele><time>2026-05-03T07:22:38.026Z</time></trkpt><trkpt lat="40.7649107" lon="14.838068"><ele>517.0</ele><time>2026-05-03T07:22:39.964Z</time></trkpt><trkpt lat="40.7648975" lon="14.8379286"><ele>517.0</ele><time>2026-05-03T07:22:42.009Z</time></trkpt><trkpt lat="40.7648846" lon="14.837817"><ele>517.0</ele><time>2026-05-03T07:22:43.035Z</time></trkpt><trkpt lat="40.7648629" lon="14.8377118"><ele>517.0</ele><time>2026-05-03T07:22:43.951Z</time></trkpt><trkpt lat="40.7648488" lon="14.8376178"><ele>517.0</ele><time>2026-05-03T07:22:44.953Z</time></trkpt><trkpt lat="40.7648217" lon="14.83752"><ele>517.0</ele><time>2026-05-03T07:22:46.958Z</time></trkpt><trkpt lat="40.7648377" lon="14.8373958"><ele>517.0</ele><time>2026-05-03T07:22:48.948Z</time></trkpt><trkpt lat="40.7648874" lon="14.8372569"><ele>518.8000000000001</ele><time>2026-05-03T07:22:51.011Z</time></trkpt><trkpt lat="40.7649355" lon="14.8371075"><ele>520.6</ele><time>2026-05-03T07:22:52.953Z</time></trkpt><trkpt lat="40.7649661" lon="14.8369489"><ele>522.4000000000001</ele><time>2026-05-03T07:22:54.952Z</time></trkpt><trkpt lat="40.76497" lon="14.8368547"><ele>524.2</ele><time>2026-05-03T07:22:55.956Z</time></trkpt><trkpt lat="40.7649696" lon="14.836761"><ele>526.0</ele><time>2026-05-03T07:22:57.036Z</time></trkpt><trkpt lat="40.7649583" lon="14.8366422"><ele>529.5</ele><time>2026-05-03T07:22:57.965Z</time></trkpt><trkpt lat="40.764962" lon="14.8364916"><ele>533.0</ele><time>2026-05-03T07:22:58.962Z</time></trkpt><trkpt lat="40.7649428" lon="14.836324"><ele>536.5</ele><time>2026-05-03T07:22:59.964Z</time></trkpt><trkpt lat="40.7649092" lon="14.8360969"><ele>540.0</ele><time>2026-05-03T07:23:00.984Z</time></trkpt><trkpt lat="40.7648832" lon="14.8358621"><ele>542.0</ele><time>2026-05-03T07:23:02.036Z</time></trkpt><trkpt lat="40.764855" lon="14.8356562"><ele>544.0</ele><time>2026-05-03T07:23:03.04Z</time></trkpt><trkpt lat="40.7648486" lon="14.8354577"><ele>546.0</ele><time>2026-05-03T07:23:03.96Z</time></trkpt><trkpt lat="40.7648482" lon="14.8352734"><ele>548.0</ele><time>2026-05-03T07:23:04.955Z</time></trkpt><trkpt lat="40.7648454" lon="14.8351023"><ele>548.0</ele><time>2026-05-03T07:23:05.96Z</time></trkpt><trkpt lat="40.764851" lon="14.8349309"><ele>548.0</ele><time>2026-05-03T07:23:06.952Z</time></trkpt><trkpt lat="40.7648755" lon="14.8347651"><ele>548.0</ele><time>2026-05-03T07:23:07.954Z</time></trkpt><trkpt lat="40.7649016" lon="14.8345874"><ele>548.0</ele><time>2026-05-03T07:23:08.95Z</time></trkpt><trkpt lat="40.7649306" lon="14.8344492"><ele>548.0</ele><time>2026-05-03T07:23:10.016Z</time></trkpt><trkpt lat="40.7649247" lon="14.8343401"><ele>548.0</ele><time>2026-05-03T07:23:11.023Z</time></trkpt><trkpt lat="40.7648864" lon="14.8342114"><ele>548.0</ele><time>2026-05-03T07:23:12.022Z</time></trkpt><trkpt lat="40.764853" lon="14.8340844"><ele>548.0</ele><time>2026-05-03T07:23:12.956Z</time></trkpt><trkpt lat="40.7648239" lon="14.8339785"><ele>548.0</ele><time>2026-05-03T07:23:13.96Z</time></trkpt><trkpt lat="40.7647317" lon="14.833901"><ele>547.1999999999999</ele><time>2026-05-03T07:23:15.951Z</time></trkpt><trkpt lat="40.7646413" lon="14.833762"><ele>546.4</ele><time>2026-05-03T07:23:17.958Z</time></trkpt><trkpt lat="40.7645839" lon="14.8336732"><ele>545.5999999999999</ele><time>2026-05-03T07:23:18.949Z</time></trkpt><trkpt lat="40.7645191" lon="14.8335729"><ele>544.8</ele><time>2026-05-03T07:23:19.957Z</time></trkpt><trkpt lat="40.7644618" lon="14.8334851"><ele>544.0</ele><time>2026-05-03T07:23:20.947Z</time></trkpt><trkpt lat="40.7644117" lon="14.8333965"><ele>543.0</ele><time>2026-05-03T07:23:21.959Z</time></trkpt><trkpt lat="40.7643797" lon="14.8332987"><ele>542.0</ele><time>2026-05-03T07:23:22.959Z</time></trkpt><trkpt lat="40.7643574" lon="14.8332032"><ele>541.0</ele><time>2026-05-03T07:23:23.972Z</time></trkpt><trkpt lat="40.7643365" lon="14.8331235"><ele>540.0</ele><time>2026-05-03T07:23:24.944Z</time></trkpt><trkpt lat="40.7643029" lon="14.8329641"><ele>539.0</ele><time>2026-05-03T07:23:27.024Z</time></trkpt><trkpt lat="40.7642977" lon="14.8328751"><ele>538.0</ele><time>2026-05-03T07:23:27.954Z</time></trkpt><trkpt lat="40.7643135" lon="14.8327889"><ele>538.1999999999999</ele><time>2026-05-03T07:23:28.955Z</time></trkpt><trkpt lat="40.7643585" lon="14.8326967"><ele>538.4</ele><time>2026-05-03T07:23:29.955Z</time></trkpt><trkpt lat="40.7644116" lon="14.8326081"><ele>538.5999999999999</ele><time>2026-05-03T07:23:30.977Z</time></trkpt><trkpt lat="40.7644745" lon="14.8325273"><ele>538.8</ele><time>2026-05-03T07:23:31.955Z</time></trkpt><trkpt lat="40.7645517" lon="14.8324582"><ele>539.0</ele><time>2026-05-03T07:23:33.019Z</time></trkpt><trkpt lat="40.7646514" lon="14.8323935"><ele>539.0</ele><time>2026-05-03T07:23:33.95Z</time></trkpt><trkpt lat="40.7647463" lon="14.8323352"><ele>539.0</ele><time>2026-05-03T07:23:34.953Z</time></trkpt><trkpt lat="40.7648416" lon="14.8322634"><ele>539.0</ele><time>2026-05-03T07:23:35.953Z</time></trkpt><trkpt lat="40.7649576" lon="14.8321749"><ele>539.0</ele><time>2026-05-03T07:23:36.955Z</time></trkpt><trkpt lat="40.7650844" lon="14.8320815"><ele>538.6</ele><time>2026-05-03T07:23:37.951Z</time></trkpt><trkpt lat="40.7652042" lon="14.8319839"><ele>538.2</ele><time>2026-05-03T07:23:38.957Z</time></trkpt><trkpt lat="40.7652863" lon="14.8319154"><ele>537.8000000000001</ele><time>2026-05-03T07:23:40.024Z</time></trkpt><trkpt lat="40.7652995" lon="14.8318249"><ele>537.4</ele><time>2026-05-03T07:23:42.958Z</time></trkpt><trkpt lat="40.7652298" lon="14.831745"><ele>537.0</ele><time>2026-05-03T07:23:44.957Z</time></trkpt><trkpt lat="40.7651747" lon="14.8316823"><ele>539.5</ele><time>2026-05-03T07:23:45.956Z</time></trkpt><trkpt lat="40.7651019" lon="14.8316093"><ele>542.0</ele><time>2026-05-03T07:23:46.956Z</time></trkpt><trkpt lat="40.7650264" lon="14.831521"><ele>544.5</ele><time>2026-05-03T07:23:47.955Z</time></trkpt><trkpt lat="40.7649739" lon="14.8314467"><ele>547.0</ele><time>2026-05-03T07:23:48.956Z</time></trkpt><trkpt lat="40.7649156" lon="14.8313791"><ele>549.5</ele><time>2026-05-03T07:23:49.944Z</time></trkpt><trkpt lat="40.7648648" lon="14.8312995"><ele>552.0</ele><time>2026-05-03T07:23:50.955Z</time></trkpt><trkpt lat="40.7648282" lon="14.8312247"><ele>552.0</ele><time>2026-05-03T07:23:51.954Z</time></trkpt><trkpt lat="40.7648098" lon="14.8311147"><ele>552.0</ele><time>2026-05-03T07:23:53.952Z</time></trkpt><trkpt lat="40.7648369" lon="14.8310023"><ele>552.0</ele><time>2026-05-03T07:23:55.956Z</time></trkpt><trkpt lat="40.7649091" lon="14.8309531"><ele>552.0</ele><time>2026-05-03T07:23:57.953Z</time></trkpt><trkpt lat="40.765" lon="14.8308855"><ele>552.0</ele><time>2026-05-03T07:23:59.954Z</time></trkpt><trkpt lat="40.7650492" lon="14.8307881"><ele>552.0</ele><time>2026-05-03T07:24:01.955Z</time></trkpt><trkpt lat="40.7650587" lon="14.8306929"><ele>553.6</ele><time>2026-05-03T07:24:02.951Z</time></trkpt><trkpt lat="40.7650677" lon="14.830562"><ele>555.2</ele><time>2026-05-03T07:24:04.954Z</time></trkpt><trkpt lat="40.7651363" lon="14.8304985"><ele>556.8</ele><time>2026-05-03T07:24:07.952Z</time></trkpt><trkpt lat="40.7652362" lon="14.8305507"><ele>558.4</ele><time>2026-05-03T07:24:10.956Z</time></trkpt><trkpt lat="40.7653033" lon="14.8305758"><ele>560.0</ele><time>2026-05-03T07:24:11.959Z</time></trkpt><trkpt lat="40.7654169" lon="14.830579"><ele>560.0</ele><time>2026-05-03T07:24:12.956Z</time></trkpt><trkpt lat="40.7655334" lon="14.830553"><ele>560.0</ele><time>2026-05-03T07:24:13.949Z</time></trkpt><trkpt lat="40.7656487" lon="14.8305283"><ele>560.0</ele><time>2026-05-03T07:24:14.949Z</time></trkpt><trkpt lat="40.7657655" lon="14.8304949"><ele>560.0</ele><time>2026-05-03T07:24:15.948Z</time></trkpt><trkpt lat="40.7658644" lon="14.8304666"><ele>560.0</ele><time>2026-05-03T07:24:16.951Z</time></trkpt><trkpt lat="40.7659614" lon="14.830442"><ele>560.0</ele><time>2026-05-03T07:24:17.953Z</time></trkpt><trkpt lat="40.7660632" lon="14.8304359"><ele>560.0</ele><time>2026-05-03T07:24:18.949Z</time></trkpt><trkpt lat="40.7661419" lon="14.830459"><ele>560.0</ele><time>2026-05-03T07:24:19.947Z</time></trkpt><trkpt lat="40.7662159" lon="14.8304601"><ele>560.0</ele><time>2026-05-03T07:24:20.951Z</time></trkpt><trkpt lat="40.7662875" lon="14.830452"><ele>560.0</ele><time>2026-05-03T07:24:21.958Z</time></trkpt><trkpt lat="40.7663676" lon="14.830437"><ele>559.3333333333333</ele><time>2026-05-03T07:24:22.957Z</time></trkpt><trkpt lat="40.7664494" lon="14.8303954"><ele>558.6666666666666</ele><time>2026-05-03T07:24:23.952Z</time></trkpt><trkpt lat="40.7665113" lon="14.8303404"><ele>558.0</ele><time>2026-05-03T07:24:24.972Z</time></trkpt><trkpt lat="40.7665567" lon="14.8302271"><ele>557.3333333333334</ele><time>2026-05-03T07:24:26.967Z</time></trkpt><trkpt lat="40.7665516" lon="14.8301329"><ele>556.6666666666667</ele><time>2026-05-03T07:24:28.955Z</time></trkpt><trkpt lat="40.7664674" lon="14.8301212"><ele>556.0</ele><time>2026-05-03T07:24:31.958Z</time></trkpt><trkpt lat="40.766399" lon="14.8301156"><ele>560.4</ele><time>2026-05-03T07:24:32.962Z</time></trkpt><trkpt lat="40.7663038" lon="14.8300708"><ele>564.8</ele><time>2026-05-03T07:24:33.959Z</time></trkpt><trkpt lat="40.7662142" lon="14.8300314"><ele>569.1999999999999</ele><time>2026-05-03T07:24:34.955Z</time></trkpt><trkpt lat="40.766116" lon="14.8299932"><ele>573.6</ele><time>2026-05-03T07:24:35.955Z</time></trkpt><trkpt lat="40.766013" lon="14.8299466"><ele>578.0</ele><time>2026-05-03T07:24:36.948Z</time></trkpt><trkpt lat="40.7658973" lon="14.8299087"><ele>579.4</ele><time>2026-05-03T07:24:37.949Z</time></trkpt><trkpt lat="40.7657882" lon="14.8298699"><ele>580.8</ele><time>2026-05-03T07:24:38.96Z</time></trkpt><trkpt lat="40.7656898" lon="14.829815"><ele>582.2</ele><time>2026-05-03T07:24:39.953Z</time></trkpt><trkpt lat="40.7655952" lon="14.8297511"><ele>583.6</ele><time>2026-05-03T07:24:40.957Z</time></trkpt><trkpt lat="40.7654961" lon="14.829686"><ele>585.0</ele><time>2026-05-03T07:24:41.957Z</time></trkpt><trkpt lat="40.7654016" lon="14.8296204"><ele>585.0</ele><time>2026-05-03T07:24:42.962Z</time></trkpt><trkpt lat="40.7653072" lon="14.8295637"><ele>585.0</ele><time>2026-05-03T07:24:43.954Z</time></trkpt><trkpt lat="40.7652184" lon="14.8295285"><ele>585.0</ele><time>2026-05-03T07:24:44.956Z</time></trkpt><trkpt lat="40.7651266" lon="14.8295176"><ele>585.0</ele><time>2026-05-03T07:24:46.043Z</time></trkpt><trkpt lat="40.765042" lon="14.8295122"><ele>585.0</ele><time>2026-05-03T07:24:46.987Z</time></trkpt><trkpt lat="40.764974" lon="14.8295185"><ele>585.0</ele><time>2026-05-03T07:24:48.052Z</time></trkpt><trkpt lat="40.7649057" lon="14.8295314"><ele>587.3333333333334</ele><time>2026-05-03T07:24:48.964Z</time></trkpt><trkpt lat="40.7648356" lon="14.8295713"><ele>589.6666666666666</ele><time>2026-05-03T07:24:49.963Z</time></trkpt><trkpt lat="40.7647861" lon="14.8296513"><ele>592.0</ele><time>2026-05-03T07:24:50.964Z</time></trkpt><trkpt lat="40.7647375" lon="14.8297619"><ele>594.3333333333333</ele><time>2026-05-03T07:24:51.95Z</time></trkpt><trkpt lat="40.7647037" lon="14.8298632"><ele>596.6666666666666</ele><time>2026-05-03T07:24:52.961Z</time></trkpt><trkpt lat="40.7646774" lon="14.829959"><ele>599.0</ele><time>2026-05-03T07:24:53.959Z</time></trkpt><trkpt lat="40.7646443" lon="14.8300339"><ele>597.5</ele><time>2026-05-03T07:24:54.971Z</time></trkpt><trkpt lat="40.7646031" lon="14.8301527"><ele>596.0</ele><time>2026-05-03T07:24:56.965Z</time></trkpt><trkpt lat="40.7644804" lon="14.8302826"><ele>594.5</ele><time>2026-05-03T07:24:58.968Z</time></trkpt><trkpt lat="40.7643777" lon="14.8303398"><ele>593.0</ele><time>2026-05-03T07:24:59.964Z</time></trkpt><trkpt lat="40.7642836" lon="14.8303853"><ele>593.0</ele><time>2026-05-03T07:25:00.96Z</time></trkpt><trkpt lat="40.764191" lon="14.8304202"><ele>593.0</ele><time>2026-05-03T07:25:01.958Z</time></trkpt><trkpt lat="40.7641197" lon="14.8304369"><ele>593.0</ele><time>2026-05-03T07:25:02.962Z</time></trkpt><trkpt lat="40.7639934" lon="14.8304902"><ele>593.0</ele><time>2026-05-03T07:25:04.967Z</time></trkpt><trkpt lat="40.7639082" lon="14.8305759"><ele>593.0</ele><time>2026-05-03T07:25:06.994Z</time></trkpt><trkpt lat="40.763854" lon="14.8306941"><ele>593.0</ele><time>2026-05-03T07:25:08.966Z</time></trkpt><trkpt lat="40.7637814" lon="14.8307769"><ele>593.0</ele><time>2026-05-03T07:25:10.963Z</time></trkpt><trkpt lat="40.7637155" lon="14.8307756"><ele>593.0</ele><time>2026-05-03T07:25:11.961Z</time></trkpt><trkpt lat="40.7636452" lon="14.8307544"><ele>593.0</ele><time>2026-05-03T07:25:12.959Z</time></trkpt><trkpt lat="40.7635582" lon="14.8307282"><ele>593.0</ele><time>2026-05-03T07:25:13.958Z</time></trkpt><trkpt lat="40.7634571" lon="14.8306957"><ele>593.0</ele><time>2026-05-03T07:25:15.031Z</time></trkpt><trkpt lat="40.7633425" lon="14.830673"><ele>597.25</ele><time>2026-05-03T07:25:16.027Z</time></trkpt><trkpt lat="40.7631952" lon="14.8306334"><ele>601.5</ele><time>2026-05-03T07:25:17.027Z</time></trkpt><trkpt lat="40.763051" lon="14.8306158"><ele>605.75</ele><time>2026-05-03T07:25:18.031Z</time></trkpt><trkpt lat="40.7629452" lon="14.8306318"><ele>610.0</ele><time>2026-05-03T07:25:18.959Z</time></trkpt><trkpt lat="40.7628622" lon="14.8306363"><ele>610.0</ele><time>2026-05-03T07:25:19.961Z</time></trkpt><trkpt lat="40.762777" lon="14.8306345"><ele>610.0</ele><time>2026-05-03T07:25:20.974Z</time></trkpt><trkpt lat="40.7626882" lon="14.8306112"><ele>610.0</ele><time>2026-05-03T07:25:22.96Z</time></trkpt><trkpt lat="40.7625866" lon="14.8305855"><ele>610.0</ele><time>2026-05-03T07:25:25.076Z</time></trkpt><trkpt lat="40.7624955" lon="14.8305719"><ele>610.0</ele><time>2026-05-03T07:25:26.965Z</time></trkpt><trkpt lat="40.7624157" lon="14.8305618"><ele>610.5</ele><time>2026-05-03T07:25:28.959Z</time></trkpt><trkpt lat="40.7623442" lon="14.8305601"><ele>611.0</ele><time>2026-05-03T07:25:30.962Z</time></trkpt><trkpt lat="40.7622818" lon="14.8306087"><ele>611.5</ele><time>2026-05-03T07:26:50.035Z</time></trkpt><trkpt lat="40.7622131" lon="14.8306959"><ele>612.0</ele><time>2026-05-03T07:26:51.951Z</time></trkpt><trkpt lat="40.7621486" lon="14.8307508"><ele>612.5</ele><time>2026-05-03T07:26:52.957Z</time></trkpt><trkpt lat="40.7620676" lon="14.83082"><ele>613.0</ele><time>2026-05-03T07:26:53.957Z</time></trkpt><trkpt lat="40.7619921" lon="14.8308983"><ele>610.6</ele><time>2026-05-03T07:26:54.956Z</time></trkpt><trkpt lat="40.7619212" lon="14.8309841"><ele>608.1999999999999</ele><time>2026-05-03T07:26:56.026Z</time></trkpt><trkpt lat="40.7618662" lon="14.8310895"><ele>605.8</ele><time>2026-05-03T07:26:57.047Z</time></trkpt><trkpt lat="40.7618301" lon="14.8312065"><ele>603.4</ele><time>2026-05-03T07:26:57.957Z</time></trkpt><trkpt lat="40.7618054" lon="14.8313307"><ele>601.0</ele><time>2026-05-03T07:26:58.973Z</time></trkpt><trkpt lat="40.7617744" lon="14.8314572"><ele>607.75</ele><time>2026-05-03T07:26:59.958Z</time></trkpt><trkpt lat="40.7617414" lon="14.8315786"><ele>614.5</ele><time>2026-05-03T07:27:00.962Z</time></trkpt><trkpt lat="40.7617052" lon="14.8316968"><ele>621.25</ele><time>2026-05-03T07:27:01.961Z</time></trkpt><trkpt lat="40.7616302" lon="14.831915"><ele>628.0</ele><time>2026-05-03T07:27:03.991Z</time></trkpt><trkpt lat="40.7615897" lon="14.8320129"><ele>629.0</ele><time>2026-05-03T07:27:05.034Z</time></trkpt><trkpt lat="40.761543" lon="14.8321037"><ele>630.0</ele><time>2026-05-03T07:27:06.043Z</time></trkpt><trkpt lat="40.7614854" lon="14.8321802"><ele>631.0</ele><time>2026-05-03T07:27:07.039Z</time></trkpt><trkpt lat="40.7614225" lon="14.8322439"><ele>632.0</ele><time>2026-05-03T07:27:08.041Z</time></trkpt><trkpt lat="40.7613507" lon="14.8322907"><ele>633.0</ele><time>2026-05-03T07:27:08.956Z</time></trkpt><trkpt lat="40.761281" lon="14.8323289"><ele>634.0</ele><time>2026-05-03T07:27:10.041Z</time></trkpt><trkpt lat="40.7612027" lon="14.8323533"><ele>634.0</ele><time>2026-05-03T07:27:11.036Z</time></trkpt><trkpt lat="40.7611235" lon="14.8323742"><ele>634.0</ele><time>2026-05-03T07:27:12.02Z</time></trkpt><trkpt lat="40.7610401" lon="14.8324002"><ele>634.0</ele><time>2026-05-03T07:27:12.975Z</time></trkpt><trkpt lat="40.7609562" lon="14.8324242"><ele>634.0</ele><time>2026-05-03T07:27:13.953Z</time></trkpt><trkpt lat="40.7608807" lon="14.8324391"><ele>634.0</ele><time>2026-05-03T07:27:14.955Z</time></trkpt><trkpt lat="40.7607992" lon="14.8324462"><ele>634.0</ele><time>2026-05-03T07:27:16.04Z</time></trkpt><trkpt lat="40.7607081" lon="14.8324752"><ele>639.4</ele><time>2026-05-03T07:27:17.031Z</time></trkpt><trkpt lat="40.760627" lon="14.8324992"><ele>644.8</ele><time>2026-05-03T07:27:18.03Z</time></trkpt><trkpt lat="40.7605421" lon="14.8325097"><ele>650.1999999999999</ele><time>2026-05-03T07:27:18.966Z</time></trkpt><trkpt lat="40.7604407" lon="14.832493"><ele>655.5999999999999</ele><time>2026-05-03T07:27:20.984Z</time></trkpt><trkpt lat="40.7603291" lon="14.8324558"><ele>661.0</ele><time>2026-05-03T07:27:22.966Z</time></trkpt><trkpt lat="40.7602597" lon="14.8324352"><ele>661.0</ele><time>2026-05-03T07:27:23.967Z</time></trkpt><trkpt lat="40.7601887" lon="14.832421"><ele>661.0</ele><time>2026-05-03T07:27:24.97Z</time></trkpt><trkpt lat="40.7601089" lon="14.8324002"><ele>661.0</ele><time>2026-05-03T07:27:26.03Z</time></trkpt><trkpt lat="40.7601494" lon="14.8324948"><ele>661.0</ele><time>2026-05-03T07:27:30.972Z</time></trkpt><trkpt lat="40.7602234" lon="14.8325486"><ele>661.0</ele><time>2026-05-03T07:27:32.97Z</time></trkpt><trkpt lat="40.7603097" lon="14.8326133"><ele>661.0</ele><time>2026-05-03T07:27:34.968Z</time></trkpt><trkpt lat="40.7603763" lon="14.832671"><ele>664.3333333333334</ele><time>2026-05-03T07:27:36.969Z</time></trkpt><trkpt lat="40.7603925" lon="14.8327809"><ele>667.6666666666667</ele><time>2026-05-03T07:27:39.969Z</time></trkpt><trkpt lat="40.7603967" lon="14.8328782"><ele>671.0</ele><time>2026-05-03T07:27:43.968Z</time></trkpt><trkpt lat="40.7603092" lon="14.8329184"><ele>674.3333333333334</ele><time>2026-05-03T07:27:47.971Z</time></trkpt><trkpt lat="40.7602429" lon="14.8329015"><ele>677.6666666666666</ele><time>2026-05-03T07:27:49.965Z</time></trkpt><trkpt lat="40.7601665" lon="14.832886"><ele>681.0</ele><time>2026-05-03T07:27:51.969Z</time></trkpt><trkpt lat="40.7600994" lon="14.8329267"><ele>686.5</ele><time>2026-05-03T07:27:53.968Z</time></trkpt><trkpt lat="40.7600243" lon="14.8329671"><ele>692.0</ele><time>2026-05-03T07:27:55.966Z</time></trkpt><trkpt lat="40.7599183" lon="14.8330381"><ele>697.5</ele><time>2026-05-03T07:27:57.968Z</time></trkpt><trkpt lat="40.7598006" lon="14.8331228"><ele>703.0</ele><time>2026-05-03T07:27:59.995Z</time></trkpt><trkpt lat="40.7596984" lon="14.8332043"><ele>703.0</ele><time>2026-05-03T07:28:01.967Z</time></trkpt><trkpt lat="40.7596109" lon="14.8333312"><ele>703.0</ele><time>2026-05-03T07:28:03.968Z</time></trkpt><trkpt lat="40.7595277" lon="14.833475"><ele>703.0</ele><time>2026-05-03T07:28:05.966Z</time></trkpt><trkpt lat="40.7594966" lon="14.8335497"><ele>703.0</ele><time>2026-05-03T07:28:06.968Z</time></trkpt><trkpt lat="40.7594625" lon="14.8336203"><ele>703.0</ele><time>2026-05-03T07:28:07.969Z</time></trkpt><trkpt lat="40.7594146" lon="14.8336835"><ele>712.0</ele><time>2026-05-03T07:28:08.964Z</time></trkpt><trkpt lat="40.7593421" lon="14.8337547"><ele>721.0</ele><time>2026-05-03T07:28:09.973Z</time></trkpt><trkpt lat="40.7590364" lon="14.834075"><ele>728.0</ele><time>2026-05-03T07:28:10.965Z</time></trkpt><trkpt lat="40.7586808" lon="14.8343355"><ele>735.0</ele><time>2026-05-03T07:28:11.965Z</time></trkpt><trkpt lat="40.7583715" lon="14.8344928"><ele>741.5</ele><time>2026-05-03T07:28:12.967Z</time></trkpt><trkpt lat="40.7581057" lon="14.834602"><ele>748.0</ele><time>2026-05-03T07:28:13.966Z</time></trkpt><trkpt lat="40.7579295" lon="14.8346966"><ele>748.0</ele><time>2026-05-03T07:28:14.968Z</time></trkpt><trkpt lat="40.7578026" lon="14.8347879"><ele>748.0</ele><time>2026-05-03T07:28:15.967Z</time></trkpt><trkpt lat="40.7577057" lon="14.834872"><ele>748.0</ele><time>2026-05-03T07:28:16.969Z</time></trkpt><trkpt lat="40.757611" lon="14.8349593"><ele>748.0</ele><time>2026-05-03T07:28:17.964Z</time></trkpt><trkpt lat="40.7575267" lon="14.8350412"><ele>749.5999999999999</ele><time>2026-05-03T07:28:18.962Z</time></trkpt><trkpt lat="40.7574408" lon="14.8351204"><ele>751.1999999999999</ele><time>2026-05-03T07:28:19.968Z</time></trkpt><trkpt lat="40.7573511" lon="14.8351903"><ele>752.8</ele><time>2026-05-03T07:28:20.962Z</time></trkpt><trkpt lat="40.7572594" lon="14.8352789"><ele>754.4</ele><time>2026-05-03T07:28:21.96Z</time></trkpt><trkpt lat="40.7571755" lon="14.8353736"><ele>756.0</ele><time>2026-05-03T07:28:22.965Z</time></trkpt><trkpt lat="40.7571016" lon="14.8354735"><ele>756.0</ele><time>2026-05-03T07:28:23.964Z</time></trkpt><trkpt lat="40.7570536" lon="14.8355782"><ele>756.0</ele><time>2026-05-03T07:28:24.963Z</time></trkpt><trkpt lat="40.7570133" lon="14.835661"><ele>756.0</ele><time>2026-05-03T07:28:25.968Z</time></trkpt><trkpt lat="40.7569434" lon="14.8357771"><ele>756.0</ele><time>2026-05-03T07:28:27.964Z</time></trkpt><trkpt lat="40.7568894" lon="14.8358514"><ele>756.0</ele><time>2026-05-03T07:28:28.969Z</time></trkpt><trkpt lat="40.7568268" lon="14.835935"><ele>756.0</ele><time>2026-05-03T07:28:29.971Z</time></trkpt><trkpt lat="40.7567598" lon="14.8360291"><ele>753.6666666666666</ele><time>2026-05-03T07:28:30.97Z</time></trkpt><trkpt lat="40.7566913" lon="14.8361192"><ele>751.3333333333334</ele><time>2026-05-03T07:28:31.959Z</time></trkpt><trkpt lat="40.7566316" lon="14.8362078"><ele>749.0</ele><time>2026-05-03T07:28:32.966Z</time></trkpt><trkpt lat="40.7565745" lon="14.8362884"><ele>746.6666666666667</ele><time>2026-05-03T07:28:33.969Z</time></trkpt><trkpt lat="40.7565049" lon="14.8363603"><ele>744.3333333333334</ele><time>2026-05-03T07:28:34.969Z</time></trkpt><trkpt lat="40.7564389" lon="14.8364208"><ele>742.0</ele><time>2026-05-03T07:28:35.969Z</time></trkpt><trkpt lat="40.7563779" lon="14.8364848"><ele>742.0</ele><time>2026-05-03T07:28:36.973Z</time></trkpt><trkpt lat="40.7562598" lon="14.8366215"><ele>742.0</ele><time>2026-05-03T07:28:38.963Z</time></trkpt><trkpt lat="40.7561797" lon="14.8366957"><ele>742.0</ele><time>2026-05-03T07:28:39.967Z</time></trkpt><trkpt lat="40.756108" lon="14.8367449"><ele>742.0</ele><time>2026-05-03T07:28:40.966Z</time></trkpt><trkpt lat="40.7560352" lon="14.8367816"><ele>742.0</ele><time>2026-05-03T07:28:41.961Z</time></trkpt><trkpt lat="40.7559328" lon="14.8368463"><ele>738.25</ele><time>2026-05-03T07:28:43.968Z</time></trkpt><trkpt lat="40.7558707" lon="14.8368925"><ele>734.5</ele><time>2026-05-03T07:28:44.971Z</time></trkpt><trkpt lat="40.7557524" lon="14.8369609"><ele>730.75</ele><time>2026-05-03T07:28:46.968Z</time></trkpt><trkpt lat="40.7556462" lon="14.8369832"><ele>727.0</ele><time>2026-05-03T07:28:48.966Z</time></trkpt><trkpt lat="40.7555036" lon="14.8369397"><ele>727.0</ele><time>2026-05-03T07:28:50.969Z</time></trkpt><trkpt lat="40.7554318" lon="14.8369399"><ele>727.0</ele><time>2026-05-03T07:28:51.966Z</time></trkpt><trkpt lat="40.7553066" lon="14.8369571"><ele>727.0</ele><time>2026-05-03T07:28:53.964Z</time></trkpt><trkpt lat="40.7552332" lon="14.8369547"><ele>727.0</ele><time>2026-05-03T07:28:54.961Z</time></trkpt><trkpt lat="40.7551535" lon="14.8369474"><ele>727.0</ele><time>2026-05-03T07:28:55.963Z</time></trkpt><trkpt lat="40.7550791" lon="14.8369195"><ele>727.0</ele><time>2026-05-03T07:28:56.966Z</time></trkpt><trkpt lat="40.7550189" lon="14.8368796"><ele>728.8333333333334</ele><time>2026-05-03T07:28:57.962Z</time></trkpt><trkpt lat="40.7549596" lon="14.8368402"><ele>730.6666666666667</ele><time>2026-05-03T07:28:58.965Z</time></trkpt><trkpt lat="40.754914" lon="14.8367658"><ele>732.5</ele><time>2026-05-03T07:28:59.966Z</time></trkpt><trkpt lat="40.7548812" lon="14.8366908"><ele>734.3333333333334</ele><time>2026-05-03T07:29:00.964Z</time></trkpt><trkpt lat="40.7548482" lon="14.8366165"><ele>736.1666666666666</ele><time>2026-05-03T07:29:01.966Z</time></trkpt><trkpt lat="40.7548053" lon="14.836493"><ele>738.0</ele><time>2026-05-03T07:29:03.959Z</time></trkpt><trkpt lat="40.7547676" lon="14.8363951"><ele>738.0</ele><time>2026-05-03T07:29:05.966Z</time></trkpt><trkpt lat="40.7546844" lon="14.8363664"><ele>738.0</ele><time>2026-05-03T07:29:08.964Z</time></trkpt><trkpt lat="40.7545767" lon="14.8363502"><ele>738.0</ele><time>2026-05-03T07:29:10.965Z</time></trkpt><trkpt lat="40.7545079" lon="14.8363348"><ele>738.0</ele><time>2026-05-03T07:29:11.963Z</time></trkpt><trkpt lat="40.754387" lon="14.836343"><ele>738.0</ele><time>2026-05-03T07:29:13.966Z</time></trkpt><trkpt lat="40.7543141" lon="14.8363504"><ele>735.8</ele><time>2026-05-03T07:29:14.964Z</time></trkpt><trkpt lat="40.7542354" lon="14.8363378"><ele>733.5999999999999</ele><time>2026-05-03T07:29:15.959Z</time></trkpt><trkpt lat="40.7541142" lon="14.8362975"><ele>731.4000000000001</ele><time>2026-05-03T07:29:16.964Z</time></trkpt><trkpt lat="40.7540057" lon="14.836239"><ele>729.2</ele><time>2026-05-03T07:29:17.961Z</time></trkpt><trkpt lat="40.7539123" lon="14.8361971"><ele>727.0</ele><time>2026-05-03T07:29:18.957Z</time></trkpt><trkpt lat="40.753826" lon="14.83616"><ele>727.0</ele><time>2026-05-03T07:29:19.956Z</time></trkpt><trkpt lat="40.7537583" lon="14.8361197"><ele>727.0</ele><time>2026-05-03T07:29:20.959Z</time></trkpt><trkpt lat="40.7536897" lon="14.8360669"><ele>727.0</ele><time>2026-05-03T07:29:21.961Z</time></trkpt><trkpt lat="40.753645" lon="14.8360029"><ele>727.0</ele><time>2026-05-03T07:29:22.964Z</time></trkpt><trkpt lat="40.7536069" lon="14.8359192"><ele>727.0</ele><time>2026-05-03T07:29:23.963Z</time></trkpt><trkpt lat="40.7535807" lon="14.835806"><ele>727.0</ele><time>2026-05-03T07:29:24.964Z</time></trkpt><trkpt lat="40.7535603" lon="14.8356803"><ele>727.5</ele><time>2026-05-03T07:29:25.968Z</time></trkpt><trkpt lat="40.7535369" lon="14.8355795"><ele>728.0</ele><time>2026-05-03T07:29:26.971Z</time></trkpt><trkpt lat="40.753504" lon="14.8354942"><ele>728.5</ele><time>2026-05-03T07:29:27.968Z</time></trkpt><trkpt lat="40.7534445" lon="14.8354017"><ele>729.0</ele><time>2026-05-03T07:29:28.966Z</time></trkpt><trkpt lat="40.7533806" lon="14.835325"><ele>729.5</ele><time>2026-05-03T07:29:29.964Z</time></trkpt><trkpt lat="40.7532997" lon="14.8352747"><ele>730.0</ele><time>2026-05-03T07:29:30.972Z</time></trkpt><trkpt lat="40.7532249" lon="14.8352413"><ele>730.0</ele><time>2026-05-03T07:29:31.958Z</time></trkpt><trkpt lat="40.753153" lon="14.8352042"><ele>730.0</ele><time>2026-05-03T07:29:32.967Z</time></trkpt><trkpt lat="40.7530847" lon="14.835185"><ele>730.0</ele><time>2026-05-03T07:29:33.961Z</time></trkpt><trkpt lat="40.7529963" lon="14.8351619"><ele>730.0</ele><time>2026-05-03T07:29:34.962Z</time></trkpt><trkpt lat="40.7528993" lon="14.8351298"><ele>730.0</ele><time>2026-05-03T07:29:35.962Z</time></trkpt><trkpt lat="40.7528128" lon="14.835092"><ele>730.0</ele><time>2026-05-03T07:29:36.961Z</time></trkpt><trkpt lat="40.7527348" lon="14.8350255"><ele>729.0</ele><time>2026-05-03T07:29:37.967Z</time></trkpt><trkpt lat="40.7526807" lon="14.8349408"><ele>728.0</ele><time>2026-05-03T07:29:38.966Z</time></trkpt><trkpt lat="40.7526344" lon="14.8348269"><ele>727.0</ele><time>2026-05-03T07:29:39.958Z</time></trkpt><trkpt lat="40.7525965" lon="14.8347269"><ele>726.0</ele><time>2026-05-03T07:29:40.96Z</time></trkpt><trkpt lat="40.7525678" lon="14.8346397"><ele>725.0</ele><time>2026-05-03T07:29:41.967Z</time></trkpt><trkpt lat="40.7525354" lon="14.8345439"><ele>724.0</ele><time>2026-05-03T07:29:42.975Z</time></trkpt><trkpt lat="40.7524861" lon="14.8344452"><ele>724.0</ele><time>2026-05-03T07:29:43.966Z</time></trkpt><trkpt lat="40.7524047" lon="14.8343864"><ele>724.0</ele><time>2026-05-03T07:29:44.968Z</time></trkpt><trkpt lat="40.7523251" lon="14.8343273"><ele>724.0</ele><time>2026-05-03T07:29:45.963Z</time></trkpt><trkpt lat="40.7522368" lon="14.8342551"><ele>724.0</ele><time>2026-05-03T07:29:46.971Z</time></trkpt><trkpt lat="40.7521521" lon="14.8341868"><ele>724.0</ele><time>2026-05-03T07:29:47.967Z</time></trkpt><trkpt lat="40.7520746" lon="14.8341212"><ele>722.8000000000001</ele><time>2026-05-03T07:29:48.967Z</time></trkpt><trkpt lat="40.7520021" lon="14.8340583"><ele>721.6</ele><time>2026-05-03T07:29:49.968Z</time></trkpt><trkpt lat="40.7519194" lon="14.8339751"><ele>720.4</ele><time>2026-05-03T07:29:50.965Z</time></trkpt><trkpt lat="40.7518519" lon="14.833879"><ele>719.2</ele><time>2026-05-03T07:29:51.965Z</time></trkpt><trkpt lat="40.75179" lon="14.8337526"><ele>718.0</ele><time>2026-05-03T07:29:52.971Z</time></trkpt><trkpt lat="40.7517304" lon="14.8336229"><ele>717.5</ele><time>2026-05-03T07:29:53.968Z</time></trkpt><trkpt lat="40.7516758" lon="14.8334978"><ele>717.0</ele><time>2026-05-03T07:29:54.971Z</time></trkpt><trkpt lat="40.7516098" lon="14.833363"><ele>716.5</ele><time>2026-05-03T07:29:55.968Z</time></trkpt><trkpt lat="40.7515458" lon="14.8332174"><ele>716.0</ele><time>2026-05-03T07:29:56.966Z</time></trkpt><trkpt lat="40.7514891" lon="14.8330841"><ele>717.0</ele><time>2026-05-03T07:29:57.969Z</time></trkpt><trkpt lat="40.7514519" lon="14.8329492"><ele>718.0</ele><time>2026-05-03T07:29:58.975Z</time></trkpt><trkpt lat="40.7514114" lon="14.8328347"><ele>719.0</ele><time>2026-05-03T07:29:59.97Z</time></trkpt><trkpt lat="40.7513739" lon="14.8327241"><ele>720.0</ele><time>2026-05-03T07:30:00.971Z</time></trkpt><trkpt lat="40.7513243" lon="14.8326338"><ele>721.0</ele><time>2026-05-03T07:30:01.964Z</time></trkpt><trkpt lat="40.7512667" lon="14.8325941"><ele>722.0</ele><time>2026-05-03T07:30:02.969Z</time></trkpt><trkpt lat="40.7511906" lon="14.832567"><ele>722.0</ele><time>2026-05-03T07:30:03.966Z</time></trkpt><trkpt lat="40.7511205" lon="14.8325466"><ele>722.0</ele><time>2026-05-03T07:30:04.963Z</time></trkpt><trkpt lat="40.7510508" lon="14.8324957"><ele>722.0</ele><time>2026-05-03T07:30:05.972Z</time></trkpt><trkpt lat="40.7509548" lon="14.8324066"><ele>722.0</ele><time>2026-05-03T07:30:06.973Z</time></trkpt><trkpt lat="40.7508754" lon="14.8323374"><ele>722.0</ele><time>2026-05-03T07:30:07.968Z</time></trkpt><trkpt lat="40.750797" lon="14.8322706"><ele>723.8</ele><time>2026-05-03T07:30:08.967Z</time></trkpt><trkpt lat="40.7507115" lon="14.8322349"><ele>725.6</ele><time>2026-05-03T07:30:09.961Z</time></trkpt><trkpt lat="40.7506142" lon="14.8322149"><ele>727.4</ele><time>2026-05-03T07:30:10.964Z</time></trkpt><trkpt lat="40.7505149" lon="14.8321892"><ele>729.1999999999999</ele><time>2026-05-03T07:30:11.966Z</time></trkpt><trkpt lat="40.7504059" lon="14.8321605"><ele>731.0</ele><time>2026-05-03T07:30:12.97Z</time></trkpt><trkpt lat="40.750299" lon="14.8321461"><ele>732.5999999999999</ele><time>2026-05-03T07:30:13.968Z</time></trkpt><trkpt lat="40.7501949" lon="14.8321436"><ele>734.2</ele><time>2026-05-03T07:30:14.97Z</time></trkpt><trkpt lat="40.7500733" lon="14.8321345"><ele>735.8</ele><time>2026-05-03T07:30:15.966Z</time></trkpt><trkpt lat="40.7499662" lon="14.8321334"><ele>737.4000000000001</ele><time>2026-05-03T07:30:16.965Z</time></trkpt><trkpt lat="40.7498818" lon="14.8321247"><ele>739.0</ele><time>2026-05-03T07:30:17.964Z</time></trkpt><trkpt lat="40.7497846" lon="14.8321155"><ele>739.0</ele><time>2026-05-03T07:30:19.969Z</time></trkpt><trkpt lat="40.7496665" lon="14.8321193"><ele>739.0</ele><time>2026-05-03T07:30:21.964Z</time></trkpt><trkpt lat="40.7495754" lon="14.8321489"><ele>739.0</ele><time>2026-05-03T07:30:23.951Z</time></trkpt><trkpt lat="40.7495276" lon="14.8322335"><ele>739.0</ele><time>2026-05-03T07:31:28.973Z</time></trkpt><trkpt lat="40.7494296" lon="14.8322412"><ele>739.0</ele><time>2026-05-03T07:31:32.03Z</time></trkpt><trkpt lat="40.749349" lon="14.8322338"><ele>738.8333333333334</ele><time>2026-05-03T07:31:33.019Z</time></trkpt><trkpt lat="40.749277" lon="14.8322187"><ele>738.6666666666667</ele><time>2026-05-03T07:31:33.958Z</time></trkpt><trkpt lat="40.7491505" lon="14.8321595"><ele>738.5</ele><time>2026-05-03T07:31:35.958Z</time></trkpt><trkpt lat="40.7490919" lon="14.8321212"><ele>738.3333333333334</ele><time>2026-05-03T07:31:36.959Z</time></trkpt><trkpt lat="40.7490344" lon="14.8320815"><ele>738.1666666666666</ele><time>2026-05-03T07:31:37.953Z</time></trkpt><trkpt lat="40.7489433" lon="14.8320455"><ele>738.0</ele><time>2026-05-03T07:31:39.954Z</time></trkpt><trkpt lat="40.748849" lon="14.8320465"><ele>738.0</ele><time>2026-05-03T07:31:41.966Z</time></trkpt><trkpt lat="40.7487734" lon="14.8320404"><ele>738.0</ele><time>2026-05-03T07:31:43.957Z</time></trkpt><trkpt lat="40.7486553" lon="14.8320238"><ele>738.0</ele><time>2026-05-03T07:31:46.957Z</time></trkpt><trkpt lat="40.7485338" lon="14.831992"><ele>738.0</ele><time>2026-05-03T07:31:48.039Z</time></trkpt><trkpt lat="40.7484286" lon="14.8319477"><ele>738.0</ele><time>2026-05-03T07:31:48.959Z</time></trkpt><trkpt lat="40.7483447" lon="14.8319232"><ele>739.0</ele><time>2026-05-03T07:31:49.955Z</time></trkpt><trkpt lat="40.7482728" lon="14.8319052"><ele>740.0</ele><time>2026-05-03T07:31:50.959Z</time></trkpt><trkpt lat="40.7482004" lon="14.8318699"><ele>741.0</ele><time>2026-05-03T07:31:51.951Z</time></trkpt><trkpt lat="40.7481095" lon="14.8318124"><ele>742.0</ele><time>2026-05-03T07:31:52.959Z</time></trkpt><trkpt lat="40.74803" lon="14.8317679"><ele>743.0</ele><time>2026-05-03T07:31:53.953Z</time></trkpt><trkpt lat="40.7479538" lon="14.8316953"><ele>744.0</ele><time>2026-05-03T07:31:55.975Z</time></trkpt><trkpt lat="40.7478853" lon="14.8317014"><ele>744.0</ele><time>2026-05-03T07:31:59.957Z</time></trkpt><trkpt lat="40.7478735" lon="14.8317927"><ele>744.0</ele><time>2026-05-03T07:32:01.955Z</time></trkpt><trkpt lat="40.7478593" lon="14.8318871"><ele>744.0</ele><time>2026-05-03T07:32:02.963Z</time></trkpt><trkpt lat="40.7478335" lon="14.8319937"><ele>744.0</ele><time>2026-05-03T07:32:03.947Z</time></trkpt><trkpt lat="40.7478192" lon="14.8321013"><ele>744.0</ele><time>2026-05-03T07:32:04.957Z</time></trkpt><trkpt lat="40.7478127" lon="14.8322208"><ele>744.0</ele><time>2026-05-03T07:32:05.958Z</time></trkpt><trkpt lat="40.7478121" lon="14.8323512"><ele>738.4000000000001</ele><time>2026-05-03T07:32:06.957Z</time></trkpt><trkpt lat="40.7478129" lon="14.8324791"><ele>732.8</ele><time>2026-05-03T07:32:07.957Z</time></trkpt><trkpt lat="40.7478072" lon="14.8326044"><ele>727.2</ele><time>2026-05-03T07:32:08.954Z</time></trkpt><trkpt lat="40.7478022" lon="14.8327279"><ele>721.5999999999999</ele><time>2026-05-03T07:32:09.956Z</time></trkpt><trkpt lat="40.7477728" lon="14.8328637"><ele>716.0</ele><time>2026-05-03T07:32:10.951Z</time></trkpt><trkpt lat="40.7477483" lon="14.8329967"><ele>716.4</ele><time>2026-05-03T07:32:11.952Z</time></trkpt><trkpt lat="40.7477174" lon="14.8331334"><ele>716.8</ele><time>2026-05-03T07:32:13.028Z</time></trkpt><trkpt lat="40.7477002" lon="14.8332417"><ele>717.1999999999999</ele><time>2026-05-03T07:32:13.956Z</time></trkpt><trkpt lat="40.7476846" lon="14.8333241"><ele>717.5999999999999</ele><time>2026-05-03T07:32:14.955Z</time></trkpt><trkpt lat="40.7477148" lon="14.8334843"><ele>718.0</ele><time>2026-05-03T07:32:16.955Z</time></trkpt><trkpt lat="40.7477286" lon="14.8335731"><ele>712.3333333333334</ele><time>2026-05-03T07:32:17.953Z</time></trkpt><trkpt lat="40.747733" lon="14.8336739"><ele>706.6666666666667</ele><time>2026-05-03T07:32:18.96Z</time></trkpt><trkpt lat="40.747739" lon="14.8337778"><ele>701.0</ele><time>2026-05-03T07:32:19.953Z</time></trkpt><trkpt lat="40.7477449" lon="14.8338844"><ele>695.3333333333334</ele><time>2026-05-03T07:32:20.977Z</time></trkpt><trkpt lat="40.7477489" lon="14.8339824"><ele>689.6666666666666</ele><time>2026-05-03T07:32:21.981Z</time></trkpt><trkpt lat="40.7477405" lon="14.8340771"><ele>684.0</ele><time>2026-05-03T07:32:22.957Z</time></trkpt><trkpt lat="40.7477292" lon="14.8341704"><ele>684.0</ele><time>2026-05-03T07:32:23.953Z</time></trkpt><trkpt lat="40.7477113" lon="14.8342683"><ele>684.0</ele><time>2026-05-03T07:32:24.96Z</time></trkpt><trkpt lat="40.7476892" lon="14.8343557"><ele>684.0</ele><time>2026-05-03T07:32:25.952Z</time></trkpt><trkpt lat="40.7476701" lon="14.8344369"><ele>684.0</ele><time>2026-05-03T07:32:26.953Z</time></trkpt><trkpt lat="40.7476449" lon="14.8345215"><ele>684.0</ele><time>2026-05-03T07:32:27.958Z</time></trkpt><trkpt lat="40.7476016" lon="14.8346083"><ele>684.0</ele><time>2026-05-03T07:32:28.95Z</time></trkpt><trkpt lat="40.7475347" lon="14.8346952"><ele>681.8000000000001</ele><time>2026-05-03T07:32:30.02Z</time></trkpt><trkpt lat="40.7474577" lon="14.8347609"><ele>679.6</ele><time>2026-05-03T07:32:31.021Z</time></trkpt><trkpt lat="40.7473565" lon="14.8348187"><ele>677.4</ele><time>2026-05-03T07:32:32.022Z</time></trkpt><trkpt lat="40.7472667" lon="14.834862"><ele>675.2</ele><time>2026-05-03T07:32:32.96Z</time></trkpt><trkpt lat="40.7471912" lon="14.8349"><ele>673.0</ele><time>2026-05-03T07:32:33.959Z</time></trkpt><trkpt lat="40.7471081" lon="14.8349386"><ele>673.0</ele><time>2026-05-03T07:32:34.957Z</time></trkpt><trkpt lat="40.7470259" lon="14.834965"><ele>673.0</ele><time>2026-05-03T07:32:35.957Z</time></trkpt><trkpt lat="40.7469542" lon="14.8349716"><ele>673.0</ele><time>2026-05-03T07:32:36.957Z</time></trkpt><trkpt lat="40.7468874" lon="14.8349616"><ele>673.0</ele><time>2026-05-03T07:32:37.957Z</time></trkpt><trkpt lat="40.7468202" lon="14.8349277"><ele>673.0</ele><time>2026-05-03T07:32:38.959Z</time></trkpt><trkpt lat="40.7467494" lon="14.8348965"><ele>673.0</ele><time>2026-05-03T07:32:39.951Z</time></trkpt><trkpt lat="40.7466595" lon="14.8348251"><ele>672.6666666666667</ele><time>2026-05-03T07:32:41.951Z</time></trkpt><trkpt lat="40.7466039" lon="14.8347604"><ele>672.3333333333334</ele><time>2026-05-03T07:32:42.951Z</time></trkpt><trkpt lat="40.7465483" lon="14.8346795"><ele>672.0</ele><time>2026-05-03T07:32:43.952Z</time></trkpt><trkpt lat="40.7465089" lon="14.834605"><ele>671.6666666666666</ele><time>2026-05-03T07:32:44.962Z</time></trkpt><trkpt lat="40.7464387" lon="14.8345162"><ele>671.3333333333333</ele><time>2026-05-03T07:32:47.007Z</time></trkpt><trkpt lat="40.7463778" lon="14.8344862"><ele>671.0</ele><time>2026-05-03T07:32:48.958Z</time></trkpt><trkpt lat="40.746282" lon="14.8344905"><ele>671.0</ele><time>2026-05-03T07:32:50.961Z</time></trkpt><trkpt lat="40.7462131" lon="14.8344907"><ele>671.0</ele><time>2026-05-03T07:32:53.015Z</time></trkpt><trkpt lat="40.7461267" lon="14.8344814"><ele>671.0</ele><time>2026-05-03T07:32:54.959Z</time></trkpt><trkpt lat="40.7460399" lon="14.8344066"><ele>671.0</ele><time>2026-05-03T07:32:56.954Z</time></trkpt><trkpt lat="40.7459998" lon="14.8343227"><ele>671.0</ele><time>2026-05-03T07:32:57.961Z</time></trkpt><trkpt lat="40.7459628" lon="14.8342519"><ele>671.0</ele><time>2026-05-03T07:32:58.952Z</time></trkpt><trkpt lat="40.7459226" lon="14.8341626"><ele>670.8333333333333</ele><time>2026-05-03T07:32:59.955Z</time></trkpt><trkpt lat="40.7459085" lon="14.834054"><ele>670.6666666666666</ele><time>2026-05-03T07:33:01.013Z</time></trkpt><trkpt lat="40.7458893" lon="14.833953"><ele>670.5</ele><time>2026-05-03T07:33:01.955Z</time></trkpt><trkpt lat="40.7458722" lon="14.8338336"><ele>670.3333333333334</ele><time>2026-05-03T07:33:03.955Z</time></trkpt><trkpt lat="40.7458178" lon="14.8337881"><ele>670.1666666666667</ele><time>2026-05-03T07:33:08.955Z</time></trkpt><trkpt lat="40.7457568" lon="14.8338336"><ele>670.0</ele><time>2026-05-03T07:33:10.953Z</time></trkpt><trkpt lat="40.7456703" lon="14.8338749"><ele>670.0</ele><time>2026-05-03T07:33:12.956Z</time></trkpt><trkpt lat="40.7455778" lon="14.8339329"><ele>670.0</ele><time>2026-05-03T07:33:14.957Z</time></trkpt><trkpt lat="40.7454911" lon="14.8339653"><ele>670.0</ele><time>2026-05-03T07:33:17.018Z</time></trkpt><trkpt lat="40.7453817" lon="14.8339444"><ele>670.0</ele><time>2026-05-03T07:33:18.954Z</time></trkpt><trkpt lat="40.7453408" lon="14.8338805"><ele>670.0</ele><time>2026-05-03T07:33:19.955Z</time></trkpt><trkpt lat="40.74529" lon="14.8338091"><ele>670.0</ele><time>2026-05-03T07:33:21.043Z</time></trkpt><trkpt lat="40.7452296" lon="14.8337223"><ele>668.8</ele><time>2026-05-03T07:33:22.027Z</time></trkpt><trkpt lat="40.7451701" lon="14.8336151"><ele>667.6</ele><time>2026-05-03T07:33:23.017Z</time></trkpt><trkpt lat="40.7451035" lon="14.8335153"><ele>666.4000000000001</ele><time>2026-05-03T07:33:23.958Z</time></trkpt><trkpt lat="40.7450367" lon="14.8334191"><ele>665.2</ele><time>2026-05-03T07:33:24.957Z</time></trkpt><trkpt lat="40.74499" lon="14.8333467"><ele>664.0</ele><time>2026-05-03T07:33:25.952Z</time></trkpt><trkpt lat="40.7449279" lon="14.8332567"><ele>664.0</ele><time>2026-05-03T07:33:27.956Z</time></trkpt><trkpt lat="40.7448217" lon="14.8332588"><ele>664.0</ele><time>2026-05-03T07:33:30.97Z</time></trkpt><trkpt lat="40.7447139" lon="14.8333148"><ele>664.0</ele><time>2026-05-03T07:33:32.954Z</time></trkpt><trkpt lat="40.7446496" lon="14.8333572"><ele>664.0</ele><time>2026-05-03T07:33:33.956Z</time></trkpt><trkpt lat="40.7445716" lon="14.8334009"><ele>664.0</ele><time>2026-05-03T07:33:34.958Z</time></trkpt><trkpt lat="40.7444918" lon="14.8334393"><ele>664.0</ele><time>2026-05-03T07:33:35.951Z</time></trkpt><trkpt lat="40.7444135" lon="14.8334667"><ele>664.0</ele><time>2026-05-03T07:33:36.956Z</time></trkpt><trkpt lat="40.7443455" lon="14.8334904"><ele>664.0</ele><time>2026-05-03T07:33:38.019Z</time></trkpt><trkpt lat="40.7442493" lon="14.8334895"><ele>664.0</ele><time>2026-05-03T07:33:39.961Z</time></trkpt><trkpt lat="40.7441493" lon="14.8333945"><ele>664.0</ele><time>2026-05-03T07:33:41.954Z</time></trkpt><trkpt lat="40.744094" lon="14.8333246"><ele>664.0</ele><time>2026-05-03T07:33:43.046Z</time></trkpt><trkpt lat="40.7440437" lon="14.8332496"><ele>660.3333333333334</ele><time>2026-05-03T07:33:43.951Z</time></trkpt><trkpt lat="40.7439974" lon="14.8331872"><ele>656.6666666666667</ele><time>2026-05-03T07:33:44.957Z</time></trkpt><trkpt lat="40.74392" lon="14.8330913"><ele>653.0</ele><time>2026-05-03T07:33:46.957Z</time></trkpt><trkpt lat="40.7438689" lon="14.8329716"><ele>649.3333333333334</ele><time>2026-05-03T07:33:48.962Z</time></trkpt><trkpt lat="40.7438386" lon="14.832894"><ele>645.6666666666666</ele><time>2026-05-03T07:33:50.984Z</time></trkpt><trkpt lat="40.7437645" lon="14.8328683"><ele>642.0</ele><time>2026-05-03T07:33:56.964Z</time></trkpt><trkpt lat="40.7436829" lon="14.8328821"><ele>642.0</ele><time>2026-05-03T07:33:58.952Z</time></trkpt><trkpt lat="40.7436194" lon="14.8328629"><ele>642.0</ele><time>2026-05-03T07:33:59.957Z</time></trkpt><trkpt lat="40.7435448" lon="14.8328433"><ele>642.0</ele><time>2026-05-03T07:34:00.96Z</time></trkpt><trkpt lat="40.7434585" lon="14.8327795"><ele>642.0</ele><time>2026-05-03T07:34:02.956Z</time></trkpt><trkpt lat="40.7433862" lon="14.8326783"><ele>642.0</ele><time>2026-05-03T07:34:04.954Z</time></trkpt><trkpt lat="40.7433073" lon="14.8325701"><ele>641.8333333333334</ele><time>2026-05-03T07:34:07.032Z</time></trkpt><trkpt lat="40.7432956" lon="14.8324853"><ele>641.6666666666666</ele><time>2026-05-03T07:34:08.961Z</time></trkpt><trkpt lat="40.7432695" lon="14.8323793"><ele>641.5</ele><time>2026-05-03T07:34:11.959Z</time></trkpt><trkpt lat="40.7431916" lon="14.8323694"><ele>641.3333333333333</ele><time>2026-05-03T07:34:14.957Z</time></trkpt><trkpt lat="40.7431056" lon="14.8324006"><ele>641.1666666666666</ele><time>2026-05-03T07:34:17.031Z</time></trkpt><trkpt lat="40.7429985" lon="14.8323971"><ele>641.0</ele><time>2026-05-03T07:34:18.951Z</time></trkpt><trkpt lat="40.7428835" lon="14.8323731"><ele>641.0</ele><time>2026-05-03T07:34:20.946Z</time></trkpt><trkpt lat="40.742781" lon="14.8323116"><ele>641.0</ele><time>2026-05-03T07:34:22.957Z</time></trkpt><trkpt lat="40.7427243" lon="14.832263"><ele>641.0</ele><time>2026-05-03T07:34:23.956Z</time></trkpt><trkpt lat="40.7426611" lon="14.832191"><ele>641.0</ele><time>2026-05-03T07:34:25.973Z</time></trkpt><trkpt lat="40.742628" lon="14.8320495"><ele>641.0</ele><time>2026-05-03T07:34:27.954Z</time></trkpt><trkpt lat="40.7426082" lon="14.8319642"><ele>641.0</ele><time>2026-05-03T07:34:29.963Z</time></trkpt><trkpt lat="40.7425605" lon="14.8318962"><ele>640.0</ele><time>2026-05-03T07:34:32.956Z</time></trkpt><trkpt lat="40.7424731" lon="14.8318718"><ele>639.0</ele><time>2026-05-03T07:34:36.029Z</time></trkpt><trkpt lat="40.7424062" lon="14.831848"><ele>638.0</ele><time>2026-05-03T07:34:38.028Z</time></trkpt><trkpt lat="40.7423024" lon="14.831804"><ele>637.0</ele><time>2026-05-03T07:34:39.959Z</time></trkpt><trkpt lat="40.7422417" lon="14.8317697"><ele>636.0</ele><time>2026-05-03T07:34:40.961Z</time></trkpt><trkpt lat="40.7421578" lon="14.8316648"><ele>635.0</ele><time>2026-05-03T07:34:42.955Z</time></trkpt><trkpt lat="40.7421171" lon="14.8315379"><ele>635.0</ele><time>2026-05-03T07:34:45.023Z</time></trkpt><trkpt lat="40.7421192" lon="14.8313773"><ele>635.0</ele><time>2026-05-03T07:34:47.02Z</time></trkpt><trkpt lat="40.7421304" lon="14.8312359"><ele>635.0</ele><time>2026-05-03T07:34:48.955Z</time></trkpt><trkpt lat="40.7421208" lon="14.831139"><ele>635.0</ele><time>2026-05-03T07:34:51.949Z</time></trkpt><trkpt lat="40.7420586" lon="14.8310798"><ele>635.0</ele><time>2026-05-03T07:34:59.95Z</time></trkpt><trkpt lat="40.7419645" lon="14.831138"><ele>629.6</ele><time>2026-05-03T07:35:01.957Z</time></trkpt><trkpt lat="40.7418458" lon="14.8312342"><ele>624.2</ele><time>2026-05-03T07:35:03.957Z</time></trkpt><trkpt lat="40.7417766" lon="14.8312701"><ele>618.8</ele><time>2026-05-03T07:35:04.956Z</time></trkpt><trkpt lat="40.7416498" lon="14.8312875"><ele>613.4</ele><time>2026-05-03T07:35:06.956Z</time></trkpt><trkpt lat="40.7415663" lon="14.8312954"><ele>608.0</ele><time>2026-05-03T07:35:08.954Z</time></trkpt><trkpt lat="40.7414988" lon="14.8313477"><ele>608.0</ele><time>2026-05-03T07:35:13.953Z</time></trkpt><trkpt lat="40.7414352" lon="14.8312564"><ele>608.0</ele><time>2026-05-03T07:35:19.953Z</time></trkpt><trkpt lat="40.7414367" lon="14.8311684"><ele>608.0</ele><time>2026-05-03T07:35:20.95Z</time></trkpt><trkpt lat="40.7414483" lon="14.8310148"><ele>608.0</ele><time>2026-05-03T07:35:23.055Z</time></trkpt><trkpt lat="40.7414392" lon="14.8309044"><ele>608.0</ele><time>2026-05-03T07:35:24.955Z</time></trkpt><trkpt lat="40.7414435" lon="14.8307982"><ele>608.0</ele><time>2026-05-03T07:35:27.958Z</time></trkpt><trkpt lat="40.7413745" lon="14.83081"><ele>606.5</ele><time>2026-05-03T07:35:30.948Z</time></trkpt><trkpt lat="40.7413215" lon="14.8308765"><ele>605.0</ele><time>2026-05-03T07:35:34.956Z</time></trkpt><trkpt lat="40.7412491" lon="14.830909"><ele>603.5</ele><time>2026-05-03T07:35:38.957Z</time></trkpt><trkpt lat="40.7411726" lon="14.8308842"><ele>602.0</ele><time>2026-05-03T07:35:40.951Z</time></trkpt><trkpt lat="40.7410629" lon="14.8308531"><ele>600.5</ele><time>2026-05-03T07:35:42.951Z</time></trkpt><trkpt lat="40.7409794" lon="14.8308068"><ele>599.0</ele><time>2026-05-03T07:35:45.02Z</time></trkpt><trkpt lat="40.7409191" lon="14.8307055"><ele>599.0</ele><time>2026-05-03T07:35:46.955Z</time></trkpt><trkpt lat="40.7409022" lon="14.8306201"><ele>599.0</ele><time>2026-05-03T07:35:47.958Z</time></trkpt><trkpt lat="40.7409011" lon="14.8305117"><ele>599.0</ele><time>2026-05-03T07:35:48.95Z</time></trkpt><trkpt lat="40.7409035" lon="14.8304039"><ele>599.0</ele><time>2026-05-03T07:35:49.95Z</time></trkpt><trkpt lat="40.7409069" lon="14.8302989"><ele>599.0</ele><time>2026-05-03T07:35:50.961Z</time></trkpt><trkpt lat="40.7409118" lon="14.8302"><ele>599.0</ele><time>2026-05-03T07:35:51.947Z</time></trkpt><trkpt lat="40.7409153" lon="14.8300863"><ele>602.0</ele><time>2026-05-03T07:35:52.954Z</time></trkpt><trkpt lat="40.740911" lon="14.8299828"><ele>605.0</ele><time>2026-05-03T07:35:53.959Z</time></trkpt><trkpt lat="40.7409106" lon="14.8298873"><ele>608.0</ele><time>2026-05-03T07:35:54.959Z</time></trkpt><trkpt lat="40.7409164" lon="14.8297994"><ele>611.0</ele><time>2026-05-03T07:35:55.954Z</time></trkpt><trkpt lat="40.7409602" lon="14.8296937"><ele>614.0</ele><time>2026-05-03T07:35:57.947Z</time></trkpt><trkpt lat="40.7410323" lon="14.82958"><ele>617.0</ele><time>2026-05-03T07:35:59.957Z</time></trkpt><trkpt lat="40.7410786" lon="14.8295156"><ele>620.1666666666666</ele><time>2026-05-03T07:36:00.959Z</time></trkpt><trkpt lat="40.741121" lon="14.8294488"><ele>623.3333333333333</ele><time>2026-05-03T07:36:01.953Z</time></trkpt><trkpt lat="40.7412072" lon="14.8293531"><ele>626.5</ele><time>2026-05-03T07:36:03.954Z</time></trkpt><trkpt lat="40.7412115" lon="14.8292543"><ele>629.6666666666666</ele><time>2026-05-03T07:36:07.957Z</time></trkpt><trkpt lat="40.7411606" lon="14.8291843"><ele>632.8333333333334</ele><time>2026-05-03T07:36:09.957Z</time></trkpt><trkpt lat="40.7410791" lon="14.8291148"><ele>636.0</ele><time>2026-05-03T07:36:11.954Z</time></trkpt><trkpt lat="40.7410217" lon="14.8290649"><ele>636.0</ele><time>2026-05-03T07:36:12.958Z</time></trkpt><trkpt lat="40.7409745" lon="14.8289738"><ele>636.0</ele><time>2026-05-03T07:36:14.954Z</time></trkpt><trkpt lat="40.740937" lon="14.8288247"><ele>636.0</ele><time>2026-05-03T07:36:16.955Z</time></trkpt><trkpt lat="40.7409138" lon="14.828738"><ele>636.0</ele><time>2026-05-03T07:36:17.954Z</time></trkpt><trkpt lat="40.7408833" lon="14.8286591"><ele>636.0</ele><time>2026-05-03T07:36:18.954Z</time></trkpt><trkpt lat="40.740843" lon="14.8285893"><ele>636.0</ele><time>2026-05-03T07:36:19.95Z</time></trkpt><trkpt lat="40.740763" lon="14.8284658"><ele>640.6666666666666</ele><time>2026-05-03T07:36:21.945Z</time></trkpt><trkpt lat="40.7407144" lon="14.828398"><ele>645.3333333333334</ele><time>2026-05-03T07:36:22.956Z</time></trkpt><trkpt lat="40.7406699" lon="14.828338"><ele>650.0</ele><time>2026-05-03T07:36:23.956Z</time></trkpt><trkpt lat="40.7406133" lon="14.8282481"><ele>654.6666666666667</ele><time>2026-05-03T07:36:25.953Z</time></trkpt><trkpt lat="40.7405591" lon="14.8281831"><ele>659.3333333333334</ele><time>2026-05-03T07:36:27.953Z</time></trkpt><trkpt lat="40.7404813" lon="14.8281385"><ele>664.0</ele><time>2026-05-03T07:36:29.951Z</time></trkpt><trkpt lat="40.7403673" lon="14.8280798"><ele>664.0</ele><time>2026-05-03T07:36:31.96Z</time></trkpt><trkpt lat="40.7403171" lon="14.8280273"><ele>664.0</ele><time>2026-05-03T07:36:32.955Z</time></trkpt><trkpt lat="40.7402679" lon="14.8279039"><ele>664.0</ele><time>2026-05-03T07:36:34.953Z</time></trkpt><trkpt lat="40.7402413" lon="14.8277498"><ele>664.0</ele><time>2026-05-03T07:36:36.952Z</time></trkpt><trkpt lat="40.7402158" lon="14.8276634"><ele>664.0</ele><time>2026-05-03T07:36:37.956Z</time></trkpt><trkpt lat="40.7401885" lon="14.827585"><ele>664.0</ele><time>2026-05-03T07:36:38.959Z</time></trkpt><trkpt lat="40.7401638" lon="14.8275016"><ele>662.1428571428571</ele><time>2026-05-03T07:36:39.953Z</time></trkpt><trkpt lat="40.7401395" lon="14.8274094"><ele>660.2857142857143</ele><time>2026-05-03T07:36:40.954Z</time></trkpt><trkpt lat="40.7401236" lon="14.8273256"><ele>658.4285714285714</ele><time>2026-05-03T07:36:41.952Z</time></trkpt><trkpt lat="40.7401142" lon="14.8272359"><ele>656.5714285714286</ele><time>2026-05-03T07:36:42.954Z</time></trkpt><trkpt lat="40.7400864" lon="14.8271306"><ele>654.7142857142858</ele><time>2026-05-03T07:36:43.951Z</time></trkpt><trkpt lat="40.7400603" lon="14.8270289"><ele>652.8571428571429</ele><time>2026-05-03T07:36:44.954Z</time></trkpt><trkpt lat="40.7400609" lon="14.8269437"><ele>651.0</ele><time>2026-05-03T07:36:46.955Z</time></trkpt><trkpt lat="40.7401515" lon="14.8269929"><ele>651.0</ele><time>2026-05-03T07:36:54.953Z</time></trkpt><trkpt lat="40.7402063" lon="14.8270345"><ele>651.0</ele><time>2026-05-03T07:36:55.955Z</time></trkpt><trkpt lat="40.7402947" lon="14.8270851"><ele>651.0</ele><time>2026-05-03T07:36:56.954Z</time></trkpt><trkpt lat="40.7403852" lon="14.8271244"><ele>651.0</ele><time>2026-05-03T07:36:57.957Z</time></trkpt><trkpt lat="40.7404669" lon="14.8271636"><ele>651.0</ele><time>2026-05-03T07:36:58.954Z</time></trkpt><trkpt lat="40.7405375" lon="14.8272128"><ele>651.0</ele><time>2026-05-03T07:36:59.96Z</time></trkpt><trkpt lat="40.7405958" lon="14.8272797"><ele>655.3333333333334</ele><time>2026-05-03T07:37:00.954Z</time></trkpt><trkpt lat="40.7406489" lon="14.82734"><ele>659.6666666666666</ele><time>2026-05-03T07:37:01.957Z</time></trkpt><trkpt lat="40.7407045" lon="14.8274011"><ele>664.0</ele><time>2026-05-03T07:37:02.961Z</time></trkpt><trkpt lat="40.7407663" lon="14.8274622"><ele>668.3333333333333</ele><time>2026-05-03T07:37:03.955Z</time></trkpt><trkpt lat="40.7408345" lon="14.8275126"><ele>672.6666666666666</ele><time>2026-05-03T07:37:04.954Z</time></trkpt><trkpt lat="40.7409118" lon="14.8275655"><ele>677.0</ele><time>2026-05-03T07:37:05.96Z</time></trkpt><trkpt lat="40.7409857" lon="14.8276131"><ele>680.4000000000001</ele><time>2026-05-03T07:37:06.956Z</time></trkpt><trkpt lat="40.7410646" lon="14.8276448"><ele>683.8000000000001</ele><time>2026-05-03T07:37:07.956Z</time></trkpt><trkpt lat="40.7411515" lon="14.827681"><ele>687.2</ele><time>2026-05-03T07:37:08.955Z</time></trkpt><trkpt lat="40.7412261" lon="14.8277202"><ele>690.6</ele><time>2026-05-03T07:37:09.96Z</time></trkpt><trkpt lat="40.7413338" lon="14.8277892"><ele>694.0</ele><time>2026-05-03T07:37:11.957Z</time></trkpt><trkpt lat="40.7414386" lon="14.827773"><ele>694.0</ele><time>2026-05-03T07:37:13.959Z</time></trkpt><trkpt lat="40.7415399" lon="14.8277611"><ele>694.0</ele><time>2026-05-03T07:37:15.953Z</time></trkpt><trkpt lat="40.7416533" lon="14.8277419"><ele>694.0</ele><time>2026-05-03T07:37:17.951Z</time></trkpt><trkpt lat="40.7417713" lon="14.8277199"><ele>694.0</ele><time>2026-05-03T07:37:19.955Z</time></trkpt><trkpt lat="40.7418362" lon="14.8276885"><ele>694.0</ele><time>2026-05-03T07:37:20.958Z</time></trkpt><trkpt lat="40.7418969" lon="14.8276588"><ele>695.0</ele><time>2026-05-03T07:37:21.954Z</time></trkpt><trkpt lat="40.7419574" lon="14.8276283"><ele>696.0</ele><time>2026-05-03T07:37:22.96Z</time></trkpt><trkpt lat="40.742017" lon="14.8275952"><ele>697.0</ele><time>2026-05-03T07:37:23.954Z</time></trkpt><trkpt lat="40.7420799" lon="14.8275675"><ele>698.0</ele><time>2026-05-03T07:37:24.957Z</time></trkpt><trkpt lat="40.7421682" lon="14.8275316"><ele>699.0</ele><time>2026-05-03T07:37:26.954Z</time></trkpt><trkpt lat="40.7422555" lon="14.8275149"><ele>700.0</ele><time>2026-05-03T07:37:27.961Z</time></trkpt><trkpt lat="40.7423328" lon="14.8275073"><ele>700.0</ele><time>2026-05-03T07:37:28.958Z</time></trkpt><trkpt lat="40.7423993" lon="14.8275005"><ele>700.0</ele><time>2026-05-03T07:37:29.958Z</time></trkpt><trkpt lat="40.7424721" lon="14.8274997"><ele>700.0</ele><time>2026-05-03T07:37:30.96Z</time></trkpt><trkpt lat="40.7426037" lon="14.8274793"><ele>700.0</ele><time>2026-05-03T07:37:32.961Z</time></trkpt><trkpt lat="40.7426829" lon="14.827458"><ele>700.0</ele><time>2026-05-03T07:37:33.957Z</time></trkpt><trkpt lat="40.7427671" lon="14.8274466"><ele>700.0</ele><time>2026-05-03T07:37:34.958Z</time></trkpt><trkpt lat="40.7428609" lon="14.8274455"><ele>702.0</ele><time>2026-05-03T07:37:35.949Z</time></trkpt><trkpt lat="40.7429647" lon="14.8274575"><ele>704.0</ele><time>2026-05-03T07:37:36.957Z</time></trkpt><trkpt lat="40.7430724" lon="14.8274788"><ele>706.0</ele><time>2026-05-03T07:37:37.955Z</time></trkpt><trkpt lat="40.7431962" lon="14.8274992"><ele>708.0</ele><time>2026-05-03T07:37:38.955Z</time></trkpt><trkpt lat="40.7433349" lon="14.8275299"><ele>708.0</ele><time>2026-05-03T07:37:39.954Z</time></trkpt><trkpt lat="40.7434663" lon="14.8275374"><ele>708.0</ele><time>2026-05-03T07:37:40.953Z</time></trkpt><trkpt lat="40.743591" lon="14.8275405"><ele>708.0</ele><time>2026-05-03T07:37:41.954Z</time></trkpt><trkpt lat="40.7437093" lon="14.8275561"><ele>708.0</ele><time>2026-05-03T07:37:42.949Z</time></trkpt><trkpt lat="40.7438249" lon="14.8275826"><ele>705.8</ele><time>2026-05-03T07:37:43.951Z</time></trkpt><trkpt lat="40.7439463" lon="14.8276331"><ele>703.5999999999999</ele><time>2026-05-03T07:37:44.953Z</time></trkpt><trkpt lat="40.7440575" lon="14.8276728"><ele>701.4000000000001</ele><time>2026-05-03T07:37:45.948Z</time></trkpt><trkpt lat="40.7441506" lon="14.8276891"><ele>699.2</ele><time>2026-05-03T07:37:46.949Z</time></trkpt><trkpt lat="40.7442433" lon="14.8277229"><ele>697.0</ele><time>2026-05-03T07:37:47.955Z</time></trkpt><trkpt lat="40.7443431" lon="14.827752"><ele>703.1666666666667</ele><time>2026-05-03T07:37:48.951Z</time></trkpt><trkpt lat="40.7444442" lon="14.827788"><ele>709.3333333333334</ele><time>2026-05-03T07:37:50.025Z</time></trkpt><trkpt lat="40.7445223" lon="14.8278338"><ele>715.5</ele><time>2026-05-03T07:37:51.018Z</time></trkpt><trkpt lat="40.7446038" lon="14.8278959"><ele>721.6666666666666</ele><time>2026-05-03T07:37:52.007Z</time></trkpt><trkpt lat="40.7446803" lon="14.8279302"><ele>727.8333333333333</ele><time>2026-05-03T07:37:53.013Z</time></trkpt><trkpt lat="40.7447549" lon="14.8279615"><ele>734.0</ele><time>2026-05-03T07:37:53.949Z</time></trkpt><trkpt lat="40.7448243" lon="14.8279812"><ele>734.0</ele><time>2026-05-03T07:37:54.954Z</time></trkpt><trkpt lat="40.744896" lon="14.8280336"><ele>734.0</ele><time>2026-05-03T07:37:57.024Z</time></trkpt><trkpt lat="40.7448584" lon="14.8279664"><ele>734.0</ele><time>2026-05-03T07:37:59.954Z</time></trkpt><trkpt lat="40.7448305" lon="14.8278722"><ele>734.0</ele><time>2026-05-03T07:38:02.011Z</time></trkpt><trkpt lat="40.7448462" lon="14.8277564"><ele>734.0</ele><time>2026-05-03T07:38:03.953Z</time></trkpt><trkpt lat="40.7449106" lon="14.8276621"><ele>734.0</ele><time>2026-05-03T07:38:05.949Z</time></trkpt><trkpt lat="40.7449831" lon="14.8275993"><ele>734.1666666666666</ele><time>2026-05-03T07:38:07.951Z</time></trkpt><trkpt lat="40.7450593" lon="14.8275667"><ele>734.3333333333333</ele><time>2026-05-03T07:38:09.958Z</time></trkpt><trkpt lat="40.7451618" lon="14.8275684"><ele>734.5</ele><time>2026-05-03T07:38:11.949Z</time></trkpt><trkpt lat="40.745232" lon="14.8275859"><ele>734.6666666666666</ele><time>2026-05-03T07:38:13.95Z</time></trkpt><trkpt lat="40.7452976" lon="14.8275555"><ele>734.8333333333334</ele><time>2026-05-03T07:38:15.954Z</time></trkpt><trkpt lat="40.7453451" lon="14.8274791"><ele>735.0</ele><time>2026-05-03T07:38:18.948Z</time></trkpt><trkpt lat="40.74541" lon="14.8274117"><ele>735.0</ele><time>2026-05-03T07:38:20.952Z</time></trkpt><trkpt lat="40.7454761" lon="14.8273646"><ele>735.0</ele><time>2026-05-03T07:38:21.951Z</time></trkpt><trkpt lat="40.7455781" lon="14.8272861"><ele>735.0</ele><time>2026-05-03T07:38:22.952Z</time></trkpt><trkpt lat="40.7456564" lon="14.8272272"><ele>735.0</ele><time>2026-05-03T07:38:23.944Z</time></trkpt><trkpt lat="40.7457272" lon="14.8271545"><ele>735.0</ele><time>2026-05-03T07:38:24.953Z</time></trkpt><trkpt lat="40.7458112" lon="14.8270813"><ele>735.0</ele><time>2026-05-03T07:38:25.944Z</time></trkpt><trkpt lat="40.745889" lon="14.8269945"><ele>735.0</ele><time>2026-05-03T07:38:26.94Z</time></trkpt><trkpt lat="40.7462273" lon="14.8267401"><ele>734.8</ele><time>2026-05-03T07:38:29.946Z</time></trkpt><trkpt lat="40.7462469" lon="14.8266517"><ele>734.6</ele><time>2026-05-03T07:40:30.953Z</time></trkpt><trkpt lat="40.7462798" lon="14.8267665"><ele>734.4000000000001</ele><time>2026-05-03T07:43:53.973Z</time></trkpt><trkpt lat="40.7462652" lon="14.8269121"><ele>734.2</ele><time>2026-05-03T07:43:56.039Z</time></trkpt><trkpt lat="40.746239" lon="14.8269956"><ele>734.0</ele><time>2026-05-03T07:43:56.965Z</time></trkpt><trkpt lat="40.7461786" lon="14.827135"><ele>734.0</ele><time>2026-05-03T07:43:58.976Z</time></trkpt><trkpt lat="40.7460866" lon="14.8272548"><ele>734.0</ele><time>2026-05-03T07:44:00.963Z</time></trkpt><trkpt lat="40.7460398" lon="14.8273131"><ele>734.0</ele><time>2026-05-03T07:44:01.962Z</time></trkpt><trkpt lat="40.7459803" lon="14.8274166"><ele>734.0</ele><time>2026-05-03T07:44:03.952Z</time></trkpt><trkpt lat="40.7459375" lon="14.8275875"><ele>734.0</ele><time>2026-05-03T07:44:05.958Z</time></trkpt><trkpt lat="40.7459094" lon="14.8276933"><ele>738.6666666666666</ele><time>2026-05-03T07:44:07.04Z</time></trkpt><trkpt lat="40.7458819" lon="14.8277885"><ele>743.3333333333333</ele><time>2026-05-03T07:44:08.03Z</time></trkpt><trkpt lat="40.7458355" lon="14.827902"><ele>748.0</ele><time>2026-05-03T07:44:09.959Z</time></trkpt><trkpt lat="40.7457769" lon="14.8280086"><ele>752.6666666666666</ele><time>2026-05-03T07:44:11.98Z</time></trkpt><trkpt lat="40.7457236" lon="14.8280588"><ele>757.3333333333334</ele><time>2026-05-03T07:44:12.963Z</time></trkpt><trkpt lat="40.7456617" lon="14.8281195"><ele>762.0</ele><time>2026-05-03T07:44:14.959Z</time></trkpt><trkpt lat="40.7455817" lon="14.8282579"><ele>762.0</ele><time>2026-05-03T07:44:16.956Z</time></trkpt><trkpt lat="40.7455372" lon="14.8283371"><ele>762.0</ele><time>2026-05-03T07:44:18.021Z</time></trkpt><trkpt lat="40.7454954" lon="14.8284529"><ele>762.0</ele><time>2026-05-03T07:44:19.955Z</time></trkpt><trkpt lat="40.7454692" lon="14.8285533"><ele>762.0</ele><time>2026-05-03T07:44:21.958Z</time></trkpt><trkpt lat="40.7454314" lon="14.8286463"><ele>762.0</ele><time>2026-05-03T07:44:23.948Z</time></trkpt><trkpt lat="40.7453615" lon="14.8286926"><ele>762.0</ele><time>2026-05-03T07:44:25.976Z</time></trkpt><trkpt lat="40.7452488" lon="14.8287272"><ele>764.1666666666666</ele><time>2026-05-03T07:44:28.017Z</time></trkpt><trkpt lat="40.7451825" lon="14.8287374"><ele>766.3333333333333</ele><time>2026-05-03T07:44:29.024Z</time></trkpt><trkpt lat="40.7451179" lon="14.8287571"><ele>768.5</ele><time>2026-05-03T07:44:29.957Z</time></trkpt><trkpt lat="40.7450517" lon="14.8287751"><ele>770.6666666666666</ele><time>2026-05-03T07:44:30.957Z</time></trkpt><trkpt lat="40.7449725" lon="14.8287982"><ele>772.8333333333333</ele><time>2026-05-03T07:44:31.958Z</time></trkpt><trkpt lat="40.7448654" lon="14.8288525"><ele>775.0</ele><time>2026-05-03T07:44:32.952Z</time></trkpt><trkpt lat="40.7447784" lon="14.8288717"><ele>774.9999999999999</ele><time>2026-05-03T07:44:33.951Z</time></trkpt><trkpt lat="40.7447155" lon="14.8288752"><ele>775.0</ele><time>2026-05-03T07:44:34.953Z</time></trkpt><trkpt lat="40.7445938" lon="14.8288844"><ele>775.0</ele><time>2026-05-03T07:44:36.952Z</time></trkpt><trkpt lat="40.744513" lon="14.8288784"><ele>775.0</ele><time>2026-05-03T07:44:38.031Z</time></trkpt><trkpt lat="40.744433" lon="14.8288758"><ele>774.9999999999999</ele><time>2026-05-03T07:44:38.954Z</time></trkpt><trkpt lat="40.7443534" lon="14.8288724"><ele>775.0</ele><time>2026-05-03T07:44:39.951Z</time></trkpt><trkpt lat="40.7442744" lon="14.8288662"><ele>773.9999999999999</ele><time>2026-05-03T07:44:40.949Z</time></trkpt><trkpt lat="40.7441929" lon="14.8288457"><ele>773.0</ele><time>2026-05-03T07:44:41.95Z</time></trkpt><trkpt lat="40.7441213" lon="14.8288378"><ele>772.0</ele><time>2026-05-03T07:44:42.953Z</time></trkpt><trkpt lat="40.7440428" lon="14.82887"><ele>771.0</ele><time>2026-05-03T07:44:44.952Z</time></trkpt><trkpt lat="40.7439794" lon="14.8288043"><ele>769.9999999999999</ele><time>2026-05-03T07:44:47.04Z</time></trkpt><trkpt lat="40.7440857" lon="14.8287944"><ele>769.0</ele><time>2026-05-03T07:44:51.96Z</time></trkpt><trkpt lat="40.7441561" lon="14.8287854"><ele>768.9999999999999</ele><time>2026-05-03T07:44:52.954Z</time></trkpt><trkpt lat="40.7442328" lon="14.8287774"><ele>769.0</ele><time>2026-05-03T07:44:53.956Z</time></trkpt><trkpt lat="40.7443201" lon="14.8287749"><ele>769.0</ele><time>2026-05-03T07:44:54.946Z</time></trkpt><trkpt lat="40.7444107" lon="14.8287611"><ele>769.0</ele><time>2026-05-03T07:44:56.049Z</time></trkpt><trkpt lat="40.7445039" lon="14.8287531"><ele>768.9999999999999</ele><time>2026-05-03T07:44:57.033Z</time></trkpt><trkpt lat="40.7445909" lon="14.828744"><ele>769.0</ele><time>2026-05-03T07:44:58.031Z</time></trkpt><trkpt lat="40.7446936" lon="14.828745"><ele>770.2</ele><time>2026-05-03T07:44:59.037Z</time></trkpt><trkpt lat="40.7448018" lon="14.8287576"><ele>771.4000000000001</ele><time>2026-05-03T07:44:59.958Z</time></trkpt><trkpt lat="40.7449121" lon="14.8287675"><ele>772.6</ele><time>2026-05-03T07:45:01.04Z</time></trkpt><trkpt lat="40.745008" lon="14.8287738"><ele>773.8</ele><time>2026-05-03T07:45:02.039Z</time></trkpt><trkpt lat="40.7450804" lon="14.8287637"><ele>775.0</ele><time>2026-05-03T07:45:03.022Z</time></trkpt><trkpt lat="40.7451473" lon="14.8287569"><ele>777.1666666666666</ele><time>2026-05-03T07:45:04.022Z</time></trkpt><trkpt lat="40.7452161" lon="14.8287531"><ele>779.3333333333333</ele><time>2026-05-03T07:45:04.961Z</time></trkpt><trkpt lat="40.7453019" lon="14.8287691"><ele>781.5</ele><time>2026-05-03T07:45:07.962Z</time></trkpt><trkpt lat="40.7453451" lon="14.8286442"><ele>783.6666666666667</ele><time>2026-05-03T07:45:11.037Z</time></trkpt><trkpt lat="40.7453653" lon="14.8285498"><ele>785.8333333333334</ele><time>2026-05-03T07:45:12.026Z</time></trkpt><trkpt lat="40.7454132" lon="14.8284459"><ele>788.0</ele><time>2026-05-03T07:45:13.958Z</time></trkpt><trkpt lat="40.7454861" lon="14.8283885"><ele>782.8</ele><time>2026-05-03T07:45:14.963Z</time></trkpt><trkpt lat="40.7455433" lon="14.8283294"><ele>777.5999999999999</ele><time>2026-05-03T07:45:15.954Z</time></trkpt><trkpt lat="40.7456215" lon="14.8282527"><ele>772.4000000000001</ele><time>2026-05-03T07:45:18.027Z</time></trkpt><trkpt lat="40.7456726" lon="14.8281387"><ele>767.2</ele><time>2026-05-03T07:45:18.959Z</time></trkpt><trkpt lat="40.7457195" lon="14.8280412"><ele>762.0</ele><time>2026-05-03T07:45:19.962Z</time></trkpt><trkpt lat="40.7457661" lon="14.8279331"><ele>762.0</ele><time>2026-05-03T07:45:20.964Z</time></trkpt><trkpt lat="40.7458038" lon="14.8277741"><ele>762.0</ele><time>2026-05-03T07:45:22.947Z</time></trkpt><trkpt lat="40.7458837" lon="14.8276523"><ele>762.0</ele><time>2026-05-03T07:45:24.965Z</time></trkpt><trkpt lat="40.7459468" lon="14.8275751"><ele>762.0</ele><time>2026-05-03T07:45:25.96Z</time></trkpt><trkpt lat="40.7460056" lon="14.8274876"><ele>762.0</ele><time>2026-05-03T07:45:26.958Z</time></trkpt><trkpt lat="40.7460649" lon="14.8273948"><ele>756.4000000000001</ele><time>2026-05-03T07:45:28.034Z</time></trkpt><trkpt lat="40.7461219" lon="14.8272922"><ele>750.8000000000001</ele><time>2026-05-03T07:45:28.952Z</time></trkpt><trkpt lat="40.7461773" lon="14.8271628"><ele>745.2</ele><time>2026-05-03T07:45:29.964Z</time></trkpt><trkpt lat="40.7462163" lon="14.827024"><ele>739.6</ele><time>2026-05-03T07:45:30.963Z</time></trkpt><trkpt lat="40.7462272" lon="14.8268915"><ele>734.0</ele><time>2026-05-03T07:45:31.958Z</time></trkpt><trkpt lat="40.7462463" lon="14.8267508"><ele>734.0</ele><time>2026-05-03T07:45:32.959Z</time></trkpt><trkpt lat="40.7462528" lon="14.8266585"><ele>734.0</ele><time>2026-05-03T07:45:33.961Z</time></trkpt><trkpt lat="40.7462537" lon="14.8265631"><ele>734.0</ele><time>2026-05-03T07:45:35.961Z</time></trkpt><trkpt lat="40.7461952" lon="14.8265122"><ele>734.0</ele><time>2026-05-03T07:45:41.97Z</time></trkpt><trkpt lat="40.7462051" lon="14.8266397"><ele>734.0</ele><time>2026-05-03T07:46:24.964Z</time></trkpt><trkpt lat="40.7461724" lon="14.826766"><ele>734.0</ele><time>2026-05-03T07:46:26.964Z</time></trkpt><trkpt lat="40.7461523" lon="14.8268733"><ele>734.0</ele><time>2026-05-03T07:46:27.951Z</time></trkpt><trkpt lat="40.7461231" lon="14.8269755"><ele>734.0</ele><time>2026-05-03T07:46:28.971Z</time></trkpt><trkpt lat="40.7460763" lon="14.8270861"><ele>734.0</ele><time>2026-05-03T07:46:29.962Z</time></trkpt><trkpt lat="40.7460258" lon="14.8271933"><ele>734.0</ele><time>2026-05-03T07:46:30.961Z</time></trkpt><trkpt lat="40.7459841" lon="14.8272809"><ele>734.0</ele><time>2026-05-03T07:46:31.96Z</time></trkpt><trkpt lat="40.7459476" lon="14.8273622"><ele>734.0</ele><time>2026-05-03T07:46:32.957Z</time></trkpt><trkpt lat="40.7459036" lon="14.8274621"><ele>734.2</ele><time>2026-05-03T07:46:33.954Z</time></trkpt><trkpt lat="40.7458753" lon="14.8275766"><ele>734.4000000000001</ele><time>2026-05-03T07:46:34.954Z</time></trkpt><trkpt lat="40.7458472" lon="14.827694"><ele>734.6</ele><time>2026-05-03T07:46:35.954Z</time></trkpt><trkpt lat="40.7458116" lon="14.8278133"><ele>734.8</ele><time>2026-05-03T07:46:36.955Z</time></trkpt><trkpt lat="40.7457914" lon="14.8278994"><ele>735.0</ele><time>2026-05-03T07:46:37.952Z</time></trkpt><trkpt lat="40.7457561" lon="14.8280538"><ele>739.5</ele><time>2026-05-03T07:46:39.96Z</time></trkpt><trkpt lat="40.7456977" lon="14.8281056"><ele>744.0</ele><time>2026-05-03T07:46:40.954Z</time></trkpt><trkpt lat="40.7455931" lon="14.828164"><ele>748.5</ele><time>2026-05-03T07:46:42.957Z</time></trkpt><trkpt lat="40.7455264" lon="14.8282354"><ele>753.0</ele><time>2026-05-03T07:46:43.953Z</time></trkpt><trkpt lat="40.7454358" lon="14.8283265"><ele>757.5</ele><time>2026-05-03T07:46:45.96Z</time></trkpt><trkpt lat="40.7454184" lon="14.8284084"><ele>762.0</ele><time>2026-05-03T07:46:47.959Z</time></trkpt><trkpt lat="40.7453666" lon="14.8284676"><ele>764.6</ele><time>2026-05-03T07:46:49.959Z</time></trkpt><trkpt lat="40.7452947" lon="14.828523"><ele>767.2</ele><time>2026-05-03T07:46:50.959Z</time></trkpt><trkpt lat="40.74519" lon="14.8285907"><ele>769.8</ele><time>2026-05-03T07:46:53.051Z</time></trkpt><trkpt lat="40.7450421" lon="14.8286393"><ele>772.4</ele><time>2026-05-03T07:46:54.961Z</time></trkpt><trkpt lat="40.7449616" lon="14.8286691"><ele>775.0</ele><time>2026-05-03T07:46:55.962Z</time></trkpt><trkpt lat="40.7448844" lon="14.8286958"><ele>775.0</ele><time>2026-05-03T07:46:56.968Z</time></trkpt><trkpt lat="40.7447835" lon="14.8287398"><ele>775.0</ele><time>2026-05-03T07:46:57.968Z</time></trkpt><trkpt lat="40.7446794" lon="14.8287645"><ele>775.0</ele><time>2026-05-03T07:46:58.969Z</time></trkpt><trkpt lat="40.7445966" lon="14.8287754"><ele>775.0</ele><time>2026-05-03T07:46:59.967Z</time></trkpt><trkpt lat="40.7445296" lon="14.8287946"><ele>775.0</ele><time>2026-05-03T07:47:00.968Z</time></trkpt><trkpt lat="40.7443986" lon="14.828795"><ele>773.9999999999999</ele><time>2026-05-03T07:47:03.039Z</time></trkpt><trkpt lat="40.7443354" lon="14.8287842"><ele>773.0</ele><time>2026-05-03T07:47:03.968Z</time></trkpt><trkpt lat="40.7442591" lon="14.8287601"><ele>772.0</ele><time>2026-05-03T07:47:04.974Z</time></trkpt><trkpt lat="40.7441675" lon="14.8287533"><ele>771.0</ele><time>2026-05-03T07:47:05.965Z</time></trkpt><trkpt lat="40.7440903" lon="14.8287537"><ele>769.9999999999999</ele><time>2026-05-03T07:47:06.964Z</time></trkpt><trkpt lat="40.7440206" lon="14.8287639"><ele>769.0</ele><time>2026-05-03T07:47:07.971Z</time></trkpt><trkpt lat="40.7439303" lon="14.8288169"><ele>768.9999999999999</ele><time>2026-05-03T07:47:09.972Z</time></trkpt><trkpt lat="40.7438639" lon="14.8288009"><ele>769.0</ele><time>2026-05-03T07:47:11.967Z</time></trkpt><trkpt lat="40.7439308" lon="14.8287876"><ele>769.0</ele><time>2026-05-03T07:47:15.954Z</time></trkpt><trkpt lat="40.7440684" lon="14.8287819"><ele>769.0</ele><time>2026-05-03T07:47:17.957Z</time></trkpt><trkpt lat="40.7441491" lon="14.8287816"><ele>768.9999999999999</ele><time>2026-05-03T07:47:19.024Z</time></trkpt><trkpt lat="40.744237" lon="14.8287779"><ele>769.0</ele><time>2026-05-03T07:47:19.952Z</time></trkpt><trkpt lat="40.7443531" lon="14.8287591"><ele>770.5</ele><time>2026-05-03T07:47:20.954Z</time></trkpt><trkpt lat="40.7444702" lon="14.8287396"><ele>772.0</ele><time>2026-05-03T07:47:21.971Z</time></trkpt><trkpt lat="40.7445834" lon="14.8287209"><ele>773.5</ele><time>2026-05-03T07:47:22.939Z</time></trkpt><trkpt lat="40.744692" lon="14.8287115"><ele>775.0</ele><time>2026-05-03T07:47:23.948Z</time></trkpt><trkpt lat="40.7448123" lon="14.8287142"><ele>774.9999999999999</ele><time>2026-05-03T07:47:24.953Z</time></trkpt><trkpt lat="40.7449191" lon="14.8287161"><ele>775.0</ele><time>2026-05-03T07:47:25.952Z</time></trkpt><trkpt lat="40.7450175" lon="14.828724"><ele>775.0</ele><time>2026-05-03T07:47:27.032Z</time></trkpt><trkpt lat="40.7450816" lon="14.8287289"><ele>775.0</ele><time>2026-05-03T07:47:28.027Z</time></trkpt><trkpt lat="40.7451854" lon="14.8287196"><ele>774.9999999999999</ele><time>2026-05-03T07:47:29.952Z</time></trkpt><trkpt lat="40.7452527" lon="14.8287146"><ele>775.0</ele><time>2026-05-03T07:47:32.952Z</time></trkpt><trkpt lat="40.7452853" lon="14.8286109"><ele>777.1666666666666</ele><time>2026-05-03T07:47:36.953Z</time></trkpt><trkpt lat="40.7453414" lon="14.8284845"><ele>779.3333333333333</ele><time>2026-05-03T07:47:38.952Z</time></trkpt><trkpt lat="40.7454076" lon="14.8284069"><ele>781.5</ele><time>2026-05-03T07:47:39.951Z</time></trkpt><trkpt lat="40.7454656" lon="14.828357"><ele>783.6666666666667</ele><time>2026-05-03T07:47:40.955Z</time></trkpt><trkpt lat="40.7455265" lon="14.8283028"><ele>785.8333333333334</ele><time>2026-05-03T07:47:42.033Z</time></trkpt><trkpt lat="40.7455988" lon="14.8282226"><ele>788.0</ele><time>2026-05-03T07:47:43.03Z</time></trkpt><trkpt lat="40.745657" lon="14.8281361"><ele>782.8</ele><time>2026-05-03T07:47:44.03Z</time></trkpt><trkpt lat="40.7457057" lon="14.8280302"><ele>777.5999999999999</ele><time>2026-05-03T07:47:44.952Z</time></trkpt><trkpt lat="40.7457321" lon="14.8279336"><ele>772.4000000000001</ele><time>2026-05-03T07:47:45.955Z</time></trkpt><trkpt lat="40.7457611" lon="14.827842"><ele>767.2</ele><time>2026-05-03T07:47:46.958Z</time></trkpt><trkpt lat="40.7458316" lon="14.8277501"><ele>762.0</ele><time>2026-05-03T07:47:47.957Z</time></trkpt><trkpt lat="40.7459159" lon="14.8276561"><ele>756.6</ele><time>2026-05-03T07:47:48.948Z</time></trkpt><trkpt lat="40.745997" lon="14.8275321"><ele>751.2</ele><time>2026-05-03T07:47:49.951Z</time></trkpt><trkpt lat="40.7460678" lon="14.8274111"><ele>745.8</ele><time>2026-05-03T07:47:50.96Z</time></trkpt><trkpt lat="40.7461213" lon="14.827313"><ele>740.4</ele><time>2026-05-03T07:47:51.952Z</time></trkpt><trkpt lat="40.746177" lon="14.8271835"><ele>735.0</ele><time>2026-05-03T07:47:52.957Z</time></trkpt><trkpt lat="40.746212" lon="14.8270157"><ele>734.8</ele><time>2026-05-03T07:47:53.969Z</time></trkpt><trkpt lat="40.7462254" lon="14.8268486"><ele>734.6</ele><time>2026-05-03T07:47:54.956Z</time></trkpt><trkpt lat="40.746236" lon="14.8267029"><ele>734.4000000000001</ele><time>2026-05-03T07:47:55.958Z</time></trkpt><trkpt lat="40.7462533" lon="14.8266195"><ele>734.2</ele><time>2026-05-03T07:47:56.96Z</time></trkpt><trkpt lat="40.7461889" lon="14.8264469"><ele>734.0</ele><time>2026-05-03T07:50:43.951Z</time></trkpt><trkpt lat="40.7461319" lon="14.8263732"><ele>731.3333333333333</ele><time>2026-05-03T07:50:44.95Z</time></trkpt><trkpt lat="40.7460775" lon="14.8262921"><ele>728.6666666666666</ele><time>2026-05-03T07:50:45.952Z</time></trkpt><trkpt lat="40.7460301" lon="14.8262144"><ele>726.0</ele><time>2026-05-03T07:50:46.946Z</time></trkpt><trkpt lat="40.7459914" lon="14.8261249"><ele>723.3333333333334</ele><time>2026-05-03T07:50:48.036Z</time></trkpt><trkpt lat="40.7459539" lon="14.826033"><ele>720.6666666666667</ele><time>2026-05-03T07:50:48.97Z</time></trkpt><trkpt lat="40.7459214" lon="14.8259366"><ele>718.0</ele><time>2026-05-03T07:50:49.957Z</time></trkpt><trkpt lat="40.7458987" lon="14.8258454"><ele>718.0</ele><time>2026-05-03T07:50:51.029Z</time></trkpt><trkpt lat="40.7458805" lon="14.8257524"><ele>718.0</ele><time>2026-05-03T07:50:51.949Z</time></trkpt><trkpt lat="40.7458443" lon="14.8256066"><ele>718.0</ele><time>2026-05-03T07:50:53.97Z</time></trkpt><trkpt lat="40.7457828" lon="14.825494"><ele>718.0</ele><time>2026-05-03T07:50:55.979Z</time></trkpt><trkpt lat="40.7457383" lon="14.8254278"><ele>718.0</ele><time>2026-05-03T07:50:57.034Z</time></trkpt><trkpt lat="40.7456415" lon="14.8253077"><ele>718.0</ele><time>2026-05-03T07:50:58.952Z</time></trkpt><trkpt lat="40.7455977" lon="14.8252418"><ele>718.0</ele><time>2026-05-03T07:50:59.959Z</time></trkpt><trkpt lat="40.7455524" lon="14.8251769"><ele>718.0</ele><time>2026-05-03T07:51:00.956Z</time></trkpt><trkpt lat="40.7454971" lon="14.8251169"><ele>718.0</ele><time>2026-05-03T07:51:02.021Z</time></trkpt><trkpt lat="40.7454335" lon="14.8250714"><ele>718.0</ele><time>2026-05-03T07:51:02.975Z</time></trkpt><trkpt lat="40.745323" lon="14.8249959"><ele>718.0</ele><time>2026-05-03T07:51:04.956Z</time></trkpt><trkpt lat="40.7452611" lon="14.824938"><ele>715.5</ele><time>2026-05-03T07:51:05.959Z</time></trkpt><trkpt lat="40.7452006" lon="14.8248736"><ele>713.0</ele><time>2026-05-03T07:51:07.029Z</time></trkpt><trkpt lat="40.745126" lon="14.824781"><ele>710.5</ele><time>2026-05-03T07:51:08.966Z</time></trkpt><trkpt lat="40.7450728" lon="14.8247135"><ele>708.0</ele><time>2026-05-03T07:51:09.964Z</time></trkpt><trkpt lat="40.7450277" lon="14.8246307"><ele>705.5</ele><time>2026-05-03T07:51:10.978Z</time></trkpt><trkpt lat="40.7449584" lon="14.8245808"><ele>703.0</ele><time>2026-05-03T07:51:12.047Z</time></trkpt><trkpt lat="40.7448888" lon="14.82453"><ele>703.0</ele><time>2026-05-03T07:51:13.041Z</time></trkpt><trkpt lat="40.7448194" lon="14.8244913"><ele>703.0</ele><time>2026-05-03T07:51:14Z</time></trkpt><trkpt lat="40.7447044" lon="14.8244422"><ele>703.0</ele><time>2026-05-03T07:51:15.967Z</time></trkpt><trkpt lat="40.744659" lon="14.8243633"><ele>703.0</ele><time>2026-05-03T07:51:16.97Z</time></trkpt><trkpt lat="40.7446261" lon="14.8242597"><ele>703.0</ele><time>2026-05-03T07:51:17.968Z</time></trkpt><trkpt lat="40.7445925" lon="14.8241541"><ele>703.0</ele><time>2026-05-03T07:51:18.971Z</time></trkpt><trkpt lat="40.7445626" lon="14.8240724"><ele>701.3333333333334</ele><time>2026-05-03T07:51:19.959Z</time></trkpt><trkpt lat="40.744513" lon="14.824016"><ele>699.6666666666667</ele><time>2026-05-03T07:51:21.05Z</time></trkpt><trkpt lat="40.7444547" lon="14.8239677"><ele>698.0</ele><time>2026-05-03T07:51:21.967Z</time></trkpt><trkpt lat="40.7443672" lon="14.8239213"><ele>696.3333333333334</ele><time>2026-05-03T07:51:22.965Z</time></trkpt><trkpt lat="40.7442815" lon="14.8238708"><ele>694.6666666666666</ele><time>2026-05-03T07:51:23.965Z</time></trkpt><trkpt lat="40.7442146" lon="14.8238166"><ele>693.0</ele><time>2026-05-03T07:51:24.966Z</time></trkpt><trkpt lat="40.7441618" lon="14.8237673"><ele>693.0</ele><time>2026-05-03T07:51:25.967Z</time></trkpt><trkpt lat="40.7441066" lon="14.8237153"><ele>693.0</ele><time>2026-05-03T07:51:26.967Z</time></trkpt><trkpt lat="40.7440691" lon="14.8236274"><ele>693.0</ele><time>2026-05-03T07:51:28.038Z</time></trkpt><trkpt lat="40.7440312" lon="14.8235484"><ele>693.0</ele><time>2026-05-03T07:51:28.967Z</time></trkpt><trkpt lat="40.7439933" lon="14.8234709"><ele>693.0</ele><time>2026-05-03T07:51:29.971Z</time></trkpt><trkpt lat="40.7439345" lon="14.8233983"><ele>693.0</ele><time>2026-05-03T07:51:30.972Z</time></trkpt><trkpt lat="40.743867" lon="14.8233207"><ele>694.0</ele><time>2026-05-03T07:51:32.022Z</time></trkpt><trkpt lat="40.7437924" lon="14.8232262"><ele>695.0</ele><time>2026-05-03T07:51:33.029Z</time></trkpt><trkpt lat="40.7437074" lon="14.8231672"><ele>696.0</ele><time>2026-05-03T07:51:34.028Z</time></trkpt><trkpt lat="40.7436431" lon="14.8231391"><ele>697.0</ele><time>2026-05-03T07:51:34.973Z</time></trkpt><trkpt lat="40.7435075" lon="14.8231153"><ele>698.0</ele><time>2026-05-03T07:51:37.087Z</time></trkpt><trkpt lat="40.7434234" lon="14.8231193"><ele>698.0</ele><time>2026-05-03T07:51:38.031Z</time></trkpt><trkpt lat="40.7433431" lon="14.8231117"><ele>698.0</ele><time>2026-05-03T07:51:39.032Z</time></trkpt><trkpt lat="40.7432723" lon="14.8231128"><ele>698.0</ele><time>2026-05-03T07:51:39.966Z</time></trkpt><trkpt lat="40.743183" lon="14.8230885"><ele>698.0</ele><time>2026-05-03T07:51:40.965Z</time></trkpt><trkpt lat="40.7430846" lon="14.8230549"><ele>698.0</ele><time>2026-05-03T07:51:41.987Z</time></trkpt><trkpt lat="40.7430177" lon="14.8230094"><ele>698.0</ele><time>2026-05-03T07:51:43.031Z</time></trkpt><trkpt lat="40.7429561" lon="14.82298"><ele>698.0</ele><time>2026-05-03T07:51:43.979Z</time></trkpt><trkpt lat="40.7429012" lon="14.8229295"><ele>698.0</ele><time>2026-05-03T07:51:44.96Z</time></trkpt><trkpt lat="40.7428838" lon="14.8227754"><ele>698.0</ele><time>2026-05-03T07:51:46.955Z</time></trkpt><trkpt lat="40.7429071" lon="14.8226809"><ele>698.0</ele><time>2026-05-03T07:51:47.956Z</time></trkpt><trkpt lat="40.7429293" lon="14.8225742"><ele>698.0</ele><time>2026-05-03T07:51:48.955Z</time></trkpt><trkpt lat="40.7429474" lon="14.822467"><ele>698.0</ele><time>2026-05-03T07:51:49.957Z</time></trkpt><trkpt lat="40.7429556" lon="14.8223743"><ele>702.8333333333333</ele><time>2026-05-03T07:51:51.032Z</time></trkpt><trkpt lat="40.742969" lon="14.8222888"><ele>707.6666666666666</ele><time>2026-05-03T07:51:51.953Z</time></trkpt><trkpt lat="40.7429909" lon="14.8221894"><ele>712.5</ele><time>2026-05-03T07:51:52.958Z</time></trkpt><trkpt lat="40.7430033" lon="14.8220834"><ele>717.3333333333334</ele><time>2026-05-03T07:51:53.954Z</time></trkpt><trkpt lat="40.7429955" lon="14.8219813"><ele>722.1666666666667</ele><time>2026-05-03T07:51:54.96Z</time></trkpt><trkpt lat="40.742982" lon="14.8218733"><ele>727.0</ele><time>2026-05-03T07:51:55.96Z</time></trkpt><trkpt lat="40.7429772" lon="14.8217457"><ele>727.0</ele><time>2026-05-03T07:51:56.962Z</time></trkpt><trkpt lat="40.7429662" lon="14.8216221"><ele>727.0</ele><time>2026-05-03T07:51:58.036Z</time></trkpt><trkpt lat="40.7429364" lon="14.8215138"><ele>727.0</ele><time>2026-05-03T07:51:59.001Z</time></trkpt><trkpt lat="40.7429076" lon="14.8214077"><ele>727.0</ele><time>2026-05-03T07:51:59.955Z</time></trkpt><trkpt lat="40.7428722" lon="14.8212877"><ele>727.0</ele><time>2026-05-03T07:52:00.961Z</time></trkpt><trkpt lat="40.7428324" lon="14.8211611"><ele>727.0</ele><time>2026-05-03T07:52:01.954Z</time></trkpt><trkpt lat="40.7427855" lon="14.8210333"><ele>727.0</ele><time>2026-05-03T07:52:02.95Z</time></trkpt><trkpt lat="40.742721" lon="14.8209157"><ele>727.0</ele><time>2026-05-03T07:52:03.952Z</time></trkpt><trkpt lat="40.7426466" lon="14.8208125"><ele>727.0</ele><time>2026-05-03T07:52:04.95Z</time></trkpt><trkpt lat="40.742565" lon="14.8207422"><ele>727.0</ele><time>2026-05-03T07:52:06.033Z</time></trkpt><trkpt lat="40.7424788" lon="14.8206798"><ele>723.4000000000001</ele><time>2026-05-03T07:52:07.031Z</time></trkpt><trkpt lat="40.7423992" lon="14.8206233"><ele>719.8000000000001</ele><time>2026-05-03T07:52:08.029Z</time></trkpt><trkpt lat="40.7423151" lon="14.8205815"><ele>716.2</ele><time>2026-05-03T07:52:09.035Z</time></trkpt><trkpt lat="40.7422477" lon="14.82053"><ele>712.6</ele><time>2026-05-03T07:52:09.954Z</time></trkpt><trkpt lat="40.7421898" lon="14.8204309"><ele>709.0</ele><time>2026-05-03T07:52:10.958Z</time></trkpt><trkpt lat="40.7421277" lon="14.8203297"><ele>709.0</ele><time>2026-05-03T07:52:11.99Z</time></trkpt><trkpt lat="40.742066" lon="14.8202485"><ele>709.0</ele><time>2026-05-03T07:52:12.964Z</time></trkpt><trkpt lat="40.7420243" lon="14.8201731"><ele>709.0</ele><time>2026-05-03T07:52:14.049Z</time></trkpt><trkpt lat="40.7419459" lon="14.8200713"><ele>709.0</ele><time>2026-05-03T07:52:15.956Z</time></trkpt><trkpt lat="40.7428838" lon="14.8227754"><ele>707.1666666666667</ele><time>2026-05-03T07:51:46.955Z</time></trkpt><trkpt lat="40.7429071" lon="14.8226809"><ele>705.3333333333334</ele><time>2026-05-03T07:51:47.956Z</time></trkpt><trkpt lat="40.7429293" lon="14.8225742"><ele>703.5</ele><time>2026-05-03T07:51:48.955Z</time></trkpt><trkpt lat="40.7429474" lon="14.822467"><ele>701.6666666666666</ele><time>2026-05-03T07:51:49.957Z</time></trkpt><trkpt lat="40.7429556" lon="14.8223743"><ele>699.8333333333333</ele><time>2026-05-03T07:51:51.032Z</time></trkpt><trkpt lat="40.742969" lon="14.8222888"><ele>698.0</ele><time>2026-05-03T07:51:51.953Z</time></trkpt><trkpt lat="40.7429909" lon="14.8221894"><ele>702.8333333333333</ele><time>2026-05-03T07:51:52.958Z</time></trkpt><trkpt lat="40.7430033" lon="14.8220834"><ele>707.6666666666666</ele><time>2026-05-03T07:51:53.954Z</time></trkpt><trkpt lat="40.7429955" lon="14.8219813"><ele>712.5</ele><time>2026-05-03T07:51:54.96Z</time></trkpt><trkpt lat="40.742982" lon="14.8218733"><ele>717.3333333333334</ele><time>2026-05-03T07:51:55.96Z</time></trkpt><trkpt lat="40.7429772" lon="14.8217457"><ele>722.1666666666667</ele><time>2026-05-03T07:51:56.962Z</time></trkpt><trkpt lat="40.7429662" lon="14.8216221"><ele>727.0</ele><time>2026-05-03T07:51:58.036Z</time></trkpt><trkpt lat="40.7429364" lon="14.8215138"><ele>727.0</ele><time>2026-05-03T07:51:59.001Z</time></trkpt><trkpt lat="40.7429076" lon="14.8214077"><ele>727.0</ele><time>2026-05-03T07:51:59.955Z</time></trkpt><trkpt lat="40.7428722" lon="14.8212877"><ele>727.0</ele><time>2026-05-03T07:52:00.961Z</time></trkpt><trkpt lat="40.7428324" lon="14.8211611"><ele>727.0</ele><time>2026-05-03T07:52:01.954Z</time></trkpt><trkpt lat="40.7427855" lon="14.8210333"><ele>727.0</ele><time>2026-05-03T07:52:02.95Z</time></trkpt><trkpt lat="40.742721" lon="14.8209157"><ele>723.4000000000001</ele><time>2026-05-03T07:52:03.952Z</time></trkpt><trkpt lat="40.7426466" lon="14.8208125"><ele>719.8000000000001</ele><time>2026-05-03T07:52:04.95Z</time></trkpt><trkpt lat="40.742565" lon="14.8207422"><ele>716.2</ele><time>2026-05-03T07:52:06.033Z</time></trkpt><trkpt lat="40.7424788" lon="14.8206798"><ele>712.6</ele><time>2026-05-03T07:52:07.031Z</time></trkpt><trkpt lat="40.7423992" lon="14.8206233"><ele>709.0</ele><time>2026-05-03T07:52:08.029Z</time></trkpt><trkpt lat="40.7423151" lon="14.8205815"><ele>709.0</ele><time>2026-05-03T07:52:09.035Z</time></trkpt><trkpt lat="40.7422477" lon="14.82053"><ele>709.0</ele><time>2026-05-03T07:52:09.954Z</time></trkpt><trkpt lat="40.7421898" lon="14.8204309"><ele>709.0</ele><time>2026-05-03T07:52:10.958Z</time></trkpt><trkpt lat="40.7421277" lon="14.8203297"><ele>709.0</ele><time>2026-05-03T07:52:11.99Z</time></trkpt><trkpt lat="40.742066" lon="14.8202485"><ele>709.0</ele><time>2026-05-03T07:52:12.964Z</time></trkpt><trkpt lat="40.7420243" lon="14.8201731"><ele>709.0</ele><time>2026-05-03T07:52:14.049Z</time></trkpt><trkpt lat="40.7419459" lon="14.8200713"><ele>705.4000000000001</ele><time>2026-05-03T07:52:15.956Z</time></trkpt><trkpt lat="40.7418609" lon="14.8200659"><ele>701.8</ele><time>2026-05-03T07:52:17.954Z</time></trkpt><trkpt lat="40.7417624" lon="14.8201155"><ele>698.2</ele><time>2026-05-03T07:52:19.953Z</time></trkpt><trkpt lat="40.7417155" lon="14.8200589"><ele>694.5999999999999</ele><time>2026-05-03T07:52:22.952Z</time></trkpt><trkpt lat="40.7418085" lon="14.8199337"><ele>691.0</ele><time>2026-05-03T07:52:24.95Z</time></trkpt><trkpt lat="40.7418771" lon="14.8198634"><ele>696.0</ele><time>2026-05-03T07:52:25.942Z</time></trkpt><trkpt lat="40.74195" lon="14.8197848"><ele>701.0</ele><time>2026-05-03T07:52:27.029Z</time></trkpt><trkpt lat="40.7420112" lon="14.819701"><ele>706.0</ele><time>2026-05-03T07:52:27.962Z</time></trkpt><trkpt lat="40.7420758" lon="14.8196161"><ele>711.0</ele><time>2026-05-03T07:52:28.957Z</time></trkpt><trkpt lat="40.7421407" lon="14.8195229"><ele>716.0</ele><time>2026-05-03T07:52:29.954Z</time></trkpt><trkpt lat="40.7422186" lon="14.8194377"><ele>716.0</ele><time>2026-05-03T07:52:30.961Z</time></trkpt><trkpt lat="40.7422893" lon="14.8193626"><ele>716.0</ele><time>2026-05-03T07:52:31.942Z</time></trkpt><trkpt lat="40.7423645" lon="14.8192952"><ele>716.0</ele><time>2026-05-03T07:52:32.952Z</time></trkpt><trkpt lat="40.7424286" lon="14.8192351"><ele>716.0</ele><time>2026-05-03T07:52:33.95Z</time></trkpt><trkpt lat="40.7425135" lon="14.8191874"><ele>716.0</ele><time>2026-05-03T07:52:35.952Z</time></trkpt><trkpt lat="40.7425374" lon="14.8190897"><ele>716.0</ele><time>2026-05-03T07:52:37.951Z</time></trkpt><trkpt lat="40.7425108" lon="14.8189775"><ele>712.5</ele><time>2026-05-03T07:52:39.951Z</time></trkpt><trkpt lat="40.7424411" lon="14.8188831"><ele>709.0</ele><time>2026-05-03T07:52:41.031Z</time></trkpt><trkpt lat="40.7423896" lon="14.8187915"><ele>705.5</ele><time>2026-05-03T07:52:41.949Z</time></trkpt><trkpt lat="40.7423439" lon="14.8187108"><ele>702.0</ele><time>2026-05-03T07:52:42.953Z</time></trkpt><trkpt lat="40.7423045" lon="14.8186353"><ele>698.5</ele><time>2026-05-03T07:52:44.014Z</time></trkpt><trkpt lat="40.7422757" lon="14.8185568"><ele>695.0</ele><time>2026-05-03T07:52:44.952Z</time></trkpt><trkpt lat="40.7422423" lon="14.8184656"><ele>693.8333333333333</ele><time>2026-05-03T07:52:45.954Z</time></trkpt><trkpt lat="40.7422307" lon="14.8183834"><ele>692.6666666666666</ele><time>2026-05-03T07:52:46.954Z</time></trkpt><trkpt lat="40.7422529" lon="14.818241"><ele>691.5</ele><time>2026-05-03T07:52:48.954Z</time></trkpt><trkpt lat="40.7422868" lon="14.818131"><ele>690.3333333333334</ele><time>2026-05-03T07:52:49.947Z</time></trkpt><trkpt lat="40.7423179" lon="14.818024"><ele>689.1666666666667</ele><time>2026-05-03T07:52:50.952Z</time></trkpt><trkpt lat="40.7423258" lon="14.8179168"><ele>688.0</ele><time>2026-05-03T07:52:51.95Z</time></trkpt><trkpt lat="40.7423244" lon="14.817778"><ele>688.0</ele><time>2026-05-03T07:52:52.947Z</time></trkpt><trkpt lat="40.7423208" lon="14.8176666"><ele>688.0</ele><time>2026-05-03T07:52:53.948Z</time></trkpt><trkpt lat="40.7423011" lon="14.8175473"><ele>688.0</ele><time>2026-05-03T07:52:54.953Z</time></trkpt><trkpt lat="40.7422645" lon="14.8174182"><ele>688.0</ele><time>2026-05-03T07:52:55.951Z</time></trkpt><trkpt lat="40.7422225" lon="14.8172998"><ele>688.0</ele><time>2026-05-03T07:52:56.975Z</time></trkpt><trkpt lat="40.742183" lon="14.8171624"><ele>685.0</ele><time>2026-05-03T07:52:57.947Z</time></trkpt><trkpt lat="40.7421379" lon="14.8170113"><ele>682.0</ele><time>2026-05-03T07:52:58.937Z</time></trkpt><trkpt lat="40.7420638" lon="14.8168783"><ele>679.0</ele><time>2026-05-03T07:52:59.951Z</time></trkpt><trkpt lat="40.7419895" lon="14.8167622"><ele>676.0</ele><time>2026-05-03T07:53:00.958Z</time></trkpt><trkpt lat="40.7419083" lon="14.8166689"><ele>672.0</ele><time>2026-05-03T07:53:01.953Z</time></trkpt><trkpt lat="40.7418225" lon="14.8165971"><ele>668.0</ele><time>2026-05-03T07:53:02.953Z</time></trkpt><trkpt lat="40.7417321" lon="14.8165311"><ele>664.0</ele><time>2026-05-03T07:53:03.95Z</time></trkpt><trkpt lat="40.7416377" lon="14.8164565"><ele>660.0</ele><time>2026-05-03T07:53:04.953Z</time></trkpt><trkpt lat="40.7415501" lon="14.8163733"><ele>656.0</ele><time>2026-05-03T07:53:05.955Z</time></trkpt><trkpt lat="40.7414783" lon="14.8162975"><ele>655.9999999999999</ele><time>2026-05-03T07:53:06.959Z</time></trkpt><trkpt lat="40.741415" lon="14.8162196"><ele>656.0</ele><time>2026-05-03T07:53:07.948Z</time></trkpt><trkpt lat="40.7413541" lon="14.8161441"><ele>656.0</ele><time>2026-05-03T07:53:08.946Z</time></trkpt><trkpt lat="40.7413067" lon="14.8160665"><ele>656.0</ele><time>2026-05-03T07:53:09.948Z</time></trkpt><trkpt lat="40.7412828" lon="14.8159833"><ele>656.0</ele><time>2026-05-03T07:53:10.953Z</time></trkpt><trkpt lat="40.7412569" lon="14.8159052"><ele>655.9999999999999</ele><time>2026-05-03T07:53:11.953Z</time></trkpt><trkpt lat="40.741236" lon="14.8158177"><ele>656.0</ele><time>2026-05-03T07:53:12.955Z</time></trkpt><trkpt lat="40.7412397" lon="14.8157002"><ele>657.0</ele><time>2026-05-03T07:53:13.953Z</time></trkpt><trkpt lat="40.7412413" lon="14.8155942"><ele>658.0</ele><time>2026-05-03T07:53:14.951Z</time></trkpt><trkpt lat="40.7412249" lon="14.815488"><ele>659.0</ele><time>2026-05-03T07:53:15.956Z</time></trkpt><trkpt lat="40.7411836" lon="14.8153765"><ele>660.0</ele><time>2026-05-03T07:53:16.95Z</time></trkpt><trkpt lat="40.7411388" lon="14.8152738"><ele>661.0</ele><time>2026-05-03T07:53:17.953Z</time></trkpt><trkpt lat="40.741115" lon="14.8151848"><ele>662.0</ele><time>2026-05-03T07:53:18.952Z</time></trkpt><trkpt lat="40.7410854" lon="14.8150289"><ele>662.0</ele><time>2026-05-03T07:53:20.956Z</time></trkpt><trkpt lat="40.7410674" lon="14.8149181"><ele>662.0</ele><time>2026-05-03T07:53:21.977Z</time></trkpt><trkpt lat="40.7410282" lon="14.8148042"><ele>662.0</ele><time>2026-05-03T07:53:22.956Z</time></trkpt><trkpt lat="40.7409821" lon="14.8146918"><ele>662.0</ele><time>2026-05-03T07:53:23.949Z</time></trkpt><trkpt lat="40.7409265" lon="14.8145983"><ele>662.0</ele><time>2026-05-03T07:53:24.958Z</time></trkpt><trkpt lat="40.7408724" lon="14.8145166"><ele>665.6</ele><time>2026-05-03T07:53:25.954Z</time></trkpt><trkpt lat="40.7408147" lon="14.8144354"><ele>669.2</ele><time>2026-05-03T07:53:26.955Z</time></trkpt><trkpt lat="40.7407458" lon="14.8143565"><ele>672.8</ele><time>2026-05-03T07:53:27.959Z</time></trkpt><trkpt lat="40.7406609" lon="14.8143115"><ele>676.4</ele><time>2026-05-03T07:53:28.95Z</time></trkpt><trkpt lat="40.7405672" lon="14.8143194"><ele>680.0</ele><time>2026-05-03T07:53:29.954Z</time></trkpt><trkpt lat="40.7404699" lon="14.8143398"><ele>680.0</ele><time>2026-05-03T07:53:30.951Z</time></trkpt><trkpt lat="40.7403866" lon="14.8143592"><ele>680.0</ele><time>2026-05-03T07:53:31.956Z</time></trkpt><trkpt lat="40.7403076" lon="14.8143583"><ele>680.0</ele><time>2026-05-03T07:53:32.953Z</time></trkpt><trkpt lat="40.7402293" lon="14.8143306"><ele>680.0</ele><time>2026-05-03T07:53:33.962Z</time></trkpt><trkpt lat="40.7401588" lon="14.8142774"><ele>680.0</ele><time>2026-05-03T07:53:34.954Z</time></trkpt><trkpt lat="40.7401315" lon="14.8141503"><ele>680.0</ele><time>2026-05-03T07:53:36.956Z</time></trkpt><trkpt lat="40.7401802" lon="14.8140936"><ele>682.3333333333333</ele><time>2026-05-03T07:53:37.956Z</time></trkpt><trkpt lat="40.7403082" lon="14.814024"><ele>684.6666666666666</ele><time>2026-05-03T07:53:39.956Z</time></trkpt><trkpt lat="40.7403716" lon="14.8139729"><ele>687.0</ele><time>2026-05-03T07:53:40.957Z</time></trkpt><trkpt lat="40.7404403" lon="14.8139393"><ele>689.3333333333334</ele><time>2026-05-03T07:53:41.951Z</time></trkpt><trkpt lat="40.7405065" lon="14.8139025"><ele>691.6666666666667</ele><time>2026-05-03T07:53:42.959Z</time></trkpt><trkpt lat="40.7405635" lon="14.8138513"><ele>694.0</ele><time>2026-05-03T07:53:43.947Z</time></trkpt><trkpt lat="40.7406211" lon="14.8138036"><ele>694.0</ele><time>2026-05-03T07:53:44.96Z</time></trkpt><trkpt lat="40.7407047" lon="14.8137244"><ele>694.0</ele><time>2026-05-03T07:53:46.959Z</time></trkpt><trkpt lat="40.7407492" lon="14.8135852"><ele>694.0</ele><time>2026-05-03T07:53:49.015Z</time></trkpt><trkpt lat="40.7407293" lon="14.8134295"><ele>694.0</ele><time>2026-05-03T07:53:50.953Z</time></trkpt><trkpt lat="40.7407146" lon="14.8133417"><ele>694.0</ele><time>2026-05-03T07:53:51.951Z</time></trkpt><trkpt lat="40.7407058" lon="14.8132345"><ele>691.1666666666667</ele><time>2026-05-03T07:53:52.951Z</time></trkpt><trkpt lat="40.7407018" lon="14.8131227"><ele>688.3333333333334</ele><time>2026-05-03T07:53:53.953Z</time></trkpt><trkpt lat="40.7406994" lon="14.8130317"><ele>685.5</ele><time>2026-05-03T07:53:54.953Z</time></trkpt><trkpt lat="40.7406972" lon="14.8129431"><ele>682.6666666666666</ele><time>2026-05-03T07:53:55.956Z</time></trkpt><trkpt lat="40.7406543" lon="14.812819"><ele>679.8333333333333</ele><time>2026-05-03T07:53:57.952Z</time></trkpt><trkpt lat="40.740558" lon="14.8127532"><ele>677.0</ele><time>2026-05-03T07:53:59.945Z</time></trkpt><trkpt lat="40.7404844" lon="14.8126927"><ele>677.0</ele><time>2026-05-03T07:54:01.95Z</time></trkpt><trkpt lat="40.7405443" lon="14.8126079"><ele>677.0</ele><time>2026-05-03T07:54:04.952Z</time></trkpt><trkpt lat="40.7406223" lon="14.8126258"><ele>677.0</ele><time>2026-05-03T07:54:06.957Z</time></trkpt><trkpt lat="40.7407075" lon="14.8126527"><ele>677.0</ele><time>2026-05-03T07:54:08.956Z</time></trkpt><trkpt lat="40.7407859" lon="14.8126683"><ele>677.0</ele><time>2026-05-03T07:54:10.952Z</time></trkpt><trkpt lat="40.7408693" lon="14.812693"><ele>677.0</ele><time>2026-05-03T07:54:12.96Z</time></trkpt><trkpt lat="40.740958" lon="14.8127484"><ele>677.0</ele><time>2026-05-03T07:54:14.951Z</time></trkpt><trkpt lat="40.7409869" lon="14.8128388"><ele>677.0</ele><time>2026-05-03T07:54:18.032Z</time></trkpt><trkpt lat="40.7410217" lon="14.8129697"><ele>677.0</ele><time>2026-05-03T07:54:19.966Z</time></trkpt><trkpt lat="40.7410589" lon="14.8130451"><ele>677.0</ele><time>2026-05-03T07:54:20.958Z</time></trkpt><trkpt lat="40.7411328" lon="14.8131337"><ele>677.0</ele><time>2026-05-03T07:54:22.959Z</time></trkpt><trkpt lat="40.7412218" lon="14.8131778"><ele>677.0</ele><time>2026-05-03T07:54:24.964Z</time></trkpt><trkpt lat="40.7413151" lon="14.8131636"><ele>673.3333333333333</ele><time>2026-05-03T07:54:26.965Z</time></trkpt><trkpt lat="40.7414117" lon="14.8131174"><ele>669.6666666666666</ele><time>2026-05-03T07:54:28.952Z</time></trkpt><trkpt lat="40.7414723" lon="14.8130755"><ele>666.0</ele><time>2026-05-03T07:54:29.964Z</time></trkpt><trkpt lat="40.7415449" lon="14.8130145"><ele>662.3333333333334</ele><time>2026-05-03T07:54:31.012Z</time></trkpt><trkpt lat="40.741613" lon="14.8129455"><ele>658.6666666666667</ele><time>2026-05-03T07:54:31.959Z</time></trkpt><trkpt lat="40.7416774" lon="14.8128806"><ele>655.0</ele><time>2026-05-03T07:54:32.959Z</time></trkpt><trkpt lat="40.7417381" lon="14.8128324"><ele>655.0</ele><time>2026-05-03T07:54:33.956Z</time></trkpt><trkpt lat="40.741839" lon="14.8127602"><ele>655.0</ele><time>2026-05-03T07:54:35.96Z</time></trkpt><trkpt lat="40.7419123" lon="14.8127434"><ele>655.0</ele><time>2026-05-03T07:54:36.961Z</time></trkpt><trkpt lat="40.741983" lon="14.8127371"><ele>655.0</ele><time>2026-05-03T07:54:38.02Z</time></trkpt><trkpt lat="40.7420512" lon="14.8127544"><ele>655.0</ele><time>2026-05-03T07:54:39.019Z</time></trkpt><trkpt lat="40.7421149" lon="14.8127875"><ele>655.0</ele><time>2026-05-03T07:54:39.951Z</time></trkpt><trkpt lat="40.7421756" lon="14.812836"><ele>650.4</ele><time>2026-05-03T07:54:40.957Z</time></trkpt><trkpt lat="40.7422343" lon="14.8129006"><ele>645.8</ele><time>2026-05-03T07:54:41.956Z</time></trkpt><trkpt lat="40.7422849" lon="14.8129584"><ele>641.2</ele><time>2026-05-03T07:54:42.951Z</time></trkpt><trkpt lat="40.7423571" lon="14.8130457"><ele>636.6</ele><time>2026-05-03T07:54:44.964Z</time></trkpt><trkpt lat="40.7424482" lon="14.8131153"><ele>632.0</ele><time>2026-05-03T07:54:46.958Z</time></trkpt><trkpt lat="40.7425455" lon="14.8131623"><ele>632.0000000000001</ele><time>2026-05-03T07:54:48.96Z</time></trkpt><trkpt lat="40.7426357" lon="14.8131706"><ele>632.0</ele><time>2026-05-03T07:54:50.967Z</time></trkpt><trkpt lat="40.7426996" lon="14.8131745"><ele>632.0</ele><time>2026-05-03T07:54:52.962Z</time></trkpt><trkpt lat="40.7427124" lon="14.8130786"><ele>632.0</ele><time>2026-05-03T07:54:55.963Z</time></trkpt><trkpt lat="40.7426544" lon="14.8130341"><ele>632.0</ele><time>2026-05-03T07:54:57.961Z</time></trkpt><trkpt lat="40.7426026" lon="14.8129722"><ele>632.0000000000001</ele><time>2026-05-03T07:54:59.969Z</time></trkpt><trkpt lat="40.7425429" lon="14.8128978"><ele>632.0</ele><time>2026-05-03T07:55:01.964Z</time></trkpt><trkpt lat="40.7425025" lon="14.8127958"><ele>632.0</ele><time>2026-05-03T07:55:03.96Z</time></trkpt><trkpt lat="40.7424602" lon="14.8126796"><ele>632.0</ele><time>2026-05-03T07:55:05.956Z</time></trkpt><trkpt lat="40.7424137" lon="14.812584"><ele>632.0</ele><time>2026-05-03T07:55:07.952Z</time></trkpt><trkpt lat="40.7423563" lon="14.8125144"><ele>632.0</ele><time>2026-05-03T07:55:09.966Z</time></trkpt><trkpt lat="40.742281" lon="14.8124632"><ele>632.0</ele><time>2026-05-03T07:55:11.958Z</time></trkpt><trkpt lat="40.7421975" lon="14.8124128"><ele>632.0</ele><time>2026-05-03T07:55:13.962Z</time></trkpt><trkpt lat="40.7420643" lon="14.8123883"><ele>631.3333333333333</ele><time>2026-05-03T07:55:15.957Z</time></trkpt><trkpt lat="40.7419656" lon="14.8123858"><ele>630.6666666666666</ele><time>2026-05-03T07:55:17.962Z</time></trkpt><trkpt lat="40.7418826" lon="14.8123808"><ele>630.0</ele><time>2026-05-03T07:55:19.972Z</time></trkpt><trkpt lat="40.7418112" lon="14.8123169"><ele>629.3333333333334</ele><time>2026-05-03T07:55:22.957Z</time></trkpt><trkpt lat="40.7417686" lon="14.8122295"><ele>628.6666666666667</ele><time>2026-05-03T07:55:24.958Z</time></trkpt><trkpt lat="40.7417308" lon="14.812154"><ele>628.0</ele><time>2026-05-03T07:55:25.955Z</time></trkpt><trkpt lat="40.741689" lon="14.8120786"><ele>628.0</ele><time>2026-05-03T07:55:26.964Z</time></trkpt><trkpt lat="40.7416204" lon="14.8119897"><ele>628.0</ele><time>2026-05-03T07:55:27.96Z</time></trkpt><trkpt lat="40.7415706" lon="14.8119286"><ele>628.0</ele><time>2026-05-03T07:55:28.964Z</time></trkpt><trkpt lat="40.7415074" lon="14.8118806"><ele>628.0</ele><time>2026-05-03T07:55:29.958Z</time></trkpt><trkpt lat="40.741421" lon="14.81182"><ele>628.0</ele><time>2026-05-03T07:55:31.959Z</time></trkpt><trkpt lat="40.7413242" lon="14.8117579"><ele>628.0</ele><time>2026-05-03T07:55:33.956Z</time></trkpt><trkpt lat="40.7412856" lon="14.8116713"><ele>622.3333333333334</ele><time>2026-05-03T07:55:34.957Z</time></trkpt><trkpt lat="40.7412577" lon="14.8115773"><ele>616.6666666666667</ele><time>2026-05-03T07:55:36.912Z</time></trkpt><trkpt lat="40.7412212" lon="14.8114605"><ele>611.0</ele><time>2026-05-03T07:55:37.953Z</time></trkpt><trkpt lat="40.7411891" lon="14.8113614"><ele>605.3333333333334</ele><time>2026-05-03T07:55:38.96Z</time></trkpt><trkpt lat="40.7411545" lon="14.8112624"><ele>599.6666666666666</ele><time>2026-05-03T07:55:39.957Z</time></trkpt><trkpt lat="40.7411293" lon="14.8111719"><ele>594.0</ele><time>2026-05-03T07:55:40.955Z</time></trkpt><trkpt lat="40.741113" lon="14.811082"><ele>590.6</ele><time>2026-05-03T07:55:41.957Z</time></trkpt><trkpt lat="40.7411326" lon="14.8109369"><ele>587.2</ele><time>2026-05-03T07:55:43.962Z</time></trkpt><trkpt lat="40.7412004" lon="14.8108267"><ele>583.8000000000001</ele><time>2026-05-03T07:55:45.963Z</time></trkpt><trkpt lat="40.7412643" lon="14.8107189"><ele>580.4</ele><time>2026-05-03T07:55:47.961Z</time></trkpt><trkpt lat="40.7413399" lon="14.810661"><ele>577.0</ele><time>2026-05-03T07:55:49.959Z</time></trkpt><trkpt lat="40.7413878" lon="14.8105857"><ele>577.0</ele><time>2026-05-03T07:55:51.956Z</time></trkpt><trkpt lat="40.741359" lon="14.810511"><ele>577.0</ele><time>2026-05-03T07:55:55.961Z</time></trkpt><trkpt lat="40.7412817" lon="14.8104942"><ele>577.0</ele><time>2026-05-03T07:55:57.946Z</time></trkpt><trkpt lat="40.7411956" lon="14.8104713"><ele>577.0</ele><time>2026-05-03T07:55:59.95Z</time></trkpt><trkpt lat="40.741064" lon="14.8104723"><ele>577.0</ele><time>2026-05-03T07:56:01.995Z</time></trkpt><trkpt lat="40.7409837" lon="14.8104622"><ele>577.0</ele><time>2026-05-03T07:56:03.006Z</time></trkpt><trkpt lat="40.7409089" lon="14.8104844"><ele>579.4</ele><time>2026-05-03T07:56:03.943Z</time></trkpt><trkpt lat="40.7408268" lon="14.8105058"><ele>581.8000000000001</ele><time>2026-05-03T07:56:04.952Z</time></trkpt><trkpt lat="40.7407416" lon="14.8105357"><ele>584.2</ele><time>2026-05-03T07:56:05.948Z</time></trkpt><trkpt lat="40.7406522" lon="14.8105489"><ele>586.6</ele><time>2026-05-03T07:56:07.947Z</time></trkpt><trkpt lat="40.7405432" lon="14.8104606"><ele>589.0</ele><time>2026-05-03T07:56:09.951Z</time></trkpt><trkpt lat="40.7404616" lon="14.8104463"><ele>589.0</ele><time>2026-05-03T07:56:10.945Z</time></trkpt><trkpt lat="40.7403661" lon="14.8104338"><ele>589.0</ele><time>2026-05-03T07:56:12.944Z</time></trkpt><trkpt lat="40.740284" lon="14.8103932"><ele>589.0</ele><time>2026-05-03T07:56:14.942Z</time></trkpt><trkpt lat="40.7401584" lon="14.8104867"><ele>589.0</ele><time>2026-05-03T07:56:16.943Z</time></trkpt><trkpt lat="40.7400773" lon="14.8105684"><ele>589.0</ele><time>2026-05-03T07:56:18.958Z</time></trkpt><trkpt lat="40.7400427" lon="14.8106465"><ele>591.0</ele><time>2026-05-03T07:56:20.945Z</time></trkpt><trkpt lat="40.7400191" lon="14.8107986"><ele>593.0</ele><time>2026-05-03T07:56:23.941Z</time></trkpt><trkpt lat="40.7399127" lon="14.8110042"><ele>595.0</ele><time>2026-05-03T07:56:26.945Z</time></trkpt><trkpt lat="40.7398347" lon="14.811151"><ele>597.0</ele><time>2026-05-03T07:56:27.954Z</time></trkpt><trkpt lat="40.7397217" lon="14.8113277"><ele>608.0</ele><time>2026-05-03T07:56:29.941Z</time></trkpt><trkpt lat="40.7396606" lon="14.8113972"><ele>619.0</ele><time>2026-05-03T07:56:32.952Z</time></trkpt><trkpt lat="40.7392144" lon="14.8115356"><ele>619.0</ele><time>2026-05-03T07:56:34.966Z</time></trkpt><trkpt lat="40.739" lon="14.8115663"><ele>619.0</ele><time>2026-05-03T07:56:35.948Z</time></trkpt><trkpt lat="40.7388606" lon="14.8115727"><ele>619.0</ele><time>2026-05-03T07:56:36.946Z</time></trkpt><trkpt lat="40.7387645" lon="14.8116059"><ele>619.0</ele><time>2026-05-03T07:56:38.964Z</time></trkpt><trkpt lat="40.7386495" lon="14.8114888"><ele>619.0</ele><time>2026-05-03T07:56:40.954Z</time></trkpt><trkpt lat="40.7385716" lon="14.811397"><ele>619.0</ele><time>2026-05-03T07:56:41.944Z</time></trkpt><trkpt lat="40.7384933" lon="14.8113463"><ele>619.0</ele><time>2026-05-03T07:56:42.964Z</time></trkpt><trkpt lat="40.7384133" lon="14.81131"><ele>619.0</ele><time>2026-05-03T07:56:43.963Z</time></trkpt><trkpt lat="40.7383221" lon="14.8112796"><ele>616.8</ele><time>2026-05-03T07:56:44.96Z</time></trkpt><trkpt lat="40.7382332" lon="14.8112358"><ele>614.5999999999999</ele><time>2026-05-03T07:56:45.949Z</time></trkpt><trkpt lat="40.7381312" lon="14.8111925"><ele>612.4</ele><time>2026-05-03T07:56:46.957Z</time></trkpt><trkpt lat="40.7380336" lon="14.8111614"><ele>610.1999999999999</ele><time>2026-05-03T07:56:47.956Z</time></trkpt><trkpt lat="40.7379302" lon="14.8111293"><ele>608.0</ele><time>2026-05-03T07:56:48.961Z</time></trkpt><trkpt lat="40.7378071" lon="14.8111077"><ele>605.6666666666666</ele><time>2026-05-03T07:56:49.961Z</time></trkpt><trkpt lat="40.7376702" lon="14.8110792"><ele>603.3333333333334</ele><time>2026-05-03T07:56:50.962Z</time></trkpt><trkpt lat="40.7375248" lon="14.8110333"><ele>601.0</ele><time>2026-05-03T07:56:51.956Z</time></trkpt><trkpt lat="40.7373677" lon="14.8109757"><ele>608.2</ele><time>2026-05-03T07:56:52.962Z</time></trkpt><trkpt lat="40.7372511" lon="14.8108838"><ele>615.4000000000001</ele><time>2026-05-03T07:56:53.955Z</time></trkpt><trkpt lat="40.7371802" lon="14.8107719"><ele>622.6</ele><time>2026-05-03T07:56:54.959Z</time></trkpt><trkpt lat="40.7371151" lon="14.810697"><ele>629.8000000000001</ele><time>2026-05-03T07:56:55.956Z</time></trkpt><trkpt lat="40.7370449" lon="14.8106738"><ele>637.0</ele><time>2026-05-03T07:56:56.958Z</time></trkpt><trkpt lat="40.7369689" lon="14.8106665"><ele>637.0</ele><time>2026-05-03T07:56:57.953Z</time></trkpt><trkpt lat="40.7368979" lon="14.810669"><ele>637.0</ele><time>2026-05-03T07:56:58.951Z</time></trkpt><trkpt lat="40.7368117" lon="14.8106642"><ele>637.0</ele><time>2026-05-03T07:56:59.957Z</time></trkpt><trkpt lat="40.7367117" lon="14.8106679"><ele>637.0</ele><time>2026-05-03T07:57:00.965Z</time></trkpt><trkpt lat="40.7366086" lon="14.8106933"><ele>637.0</ele><time>2026-05-03T07:57:01.962Z</time></trkpt><trkpt lat="40.7365193" lon="14.8107235"><ele>636.2</ele><time>2026-05-03T07:57:02.958Z</time></trkpt><trkpt lat="40.7364168" lon="14.8107664"><ele>635.4000000000001</ele><time>2026-05-03T07:57:03.965Z</time></trkpt><trkpt lat="40.7363228" lon="14.8108188"><ele>634.5999999999999</ele><time>2026-05-03T07:57:04.956Z</time></trkpt><trkpt lat="40.7362362" lon="14.8108512"><ele>633.8</ele><time>2026-05-03T07:57:05.959Z</time></trkpt><trkpt lat="40.7361374" lon="14.8108638"><ele>633.0</ele><time>2026-05-03T07:57:06.961Z</time></trkpt><trkpt lat="40.7360598" lon="14.8108715"><ele>634.5</ele><time>2026-05-03T07:57:07.955Z</time></trkpt><trkpt lat="40.7359874" lon="14.8108822"><ele>636.0</ele><time>2026-05-03T07:57:08.96Z</time></trkpt><trkpt lat="40.7358977" lon="14.8108656"><ele>637.5</ele><time>2026-05-03T07:57:09.961Z</time></trkpt><trkpt lat="40.7358052" lon="14.8108351"><ele>639.0</ele><time>2026-05-03T07:57:10.96Z</time></trkpt><trkpt lat="40.7357362" lon="14.8107754"><ele>640.5</ele><time>2026-05-03T07:57:11.955Z</time></trkpt><trkpt lat="40.7356799" lon="14.810698"><ele>642.0</ele><time>2026-05-03T07:57:12.957Z</time></trkpt><trkpt lat="40.7356046" lon="14.8105856"><ele>642.0</ele><time>2026-05-03T07:57:13.961Z</time></trkpt><trkpt lat="40.7355388" lon="14.8104841"><ele>642.0</ele><time>2026-05-03T07:57:14.962Z</time></trkpt><trkpt lat="40.7354744" lon="14.8104212"><ele>642.0</ele><time>2026-05-03T07:57:15.966Z</time></trkpt><trkpt lat="40.7354116" lon="14.8103551"><ele>642.0</ele><time>2026-05-03T07:57:16.958Z</time></trkpt><trkpt lat="40.7353603" lon="14.8102882"><ele>642.0</ele><time>2026-05-03T07:57:17.959Z</time></trkpt><trkpt lat="40.7353008" lon="14.8102402"><ele>642.0</ele><time>2026-05-03T07:57:18.963Z</time></trkpt><trkpt lat="40.7352166" lon="14.8101337"><ele>642.5</ele><time>2026-05-03T07:57:20.957Z</time></trkpt><trkpt lat="40.7351759" lon="14.8100451"><ele>643.0</ele><time>2026-05-03T07:57:23.966Z</time></trkpt><trkpt lat="40.7351121" lon="14.8100716"><ele>643.5</ele><time>2026-05-03T07:57:27.959Z</time></trkpt><trkpt lat="40.735065" lon="14.8101731"><ele>644.0</ele><time>2026-05-03T07:57:29.961Z</time></trkpt><trkpt lat="40.7350214" lon="14.8102474"><ele>644.5</ele><time>2026-05-03T07:57:30.956Z</time></trkpt><trkpt lat="40.7349409" lon="14.8102962"><ele>645.0</ele><time>2026-05-03T07:57:32.958Z</time></trkpt><trkpt lat="40.734825" lon="14.8103419"><ele>645.0</ele><time>2026-05-03T07:57:34.968Z</time></trkpt><trkpt lat="40.7347504" lon="14.8103554"><ele>645.0</ele><time>2026-05-03T07:57:35.956Z</time></trkpt><trkpt lat="40.7346677" lon="14.8103646"><ele>645.0</ele><time>2026-05-03T07:57:36.966Z</time></trkpt><trkpt lat="40.7345867" lon="14.8103626"><ele>645.0</ele><time>2026-05-03T07:57:37.962Z</time></trkpt><trkpt lat="40.7345226" lon="14.8103652"><ele>645.0</ele><time>2026-05-03T07:57:38.962Z</time></trkpt><trkpt lat="40.7344582" lon="14.8103846"><ele>645.0</ele><time>2026-05-03T07:57:39.96Z</time></trkpt><trkpt lat="40.7343398" lon="14.810484"><ele>646.6666666666666</ele><time>2026-05-03T07:57:41.965Z</time></trkpt><trkpt lat="40.7342832" lon="14.8105371"><ele>648.3333333333334</ele><time>2026-05-03T07:57:42.964Z</time></trkpt><trkpt lat="40.7341781" lon="14.810587"><ele>650.0</ele><time>2026-05-03T07:57:44.969Z</time></trkpt><trkpt lat="40.7341147" lon="14.8106234"><ele>651.6666666666667</ele><time>2026-05-03T07:57:45.97Z</time></trkpt><trkpt lat="40.734048" lon="14.8106363"><ele>653.3333333333334</ele><time>2026-05-03T07:57:46.962Z</time></trkpt><trkpt lat="40.7339768" lon="14.8106488"><ele>655.0</ele><time>2026-05-03T07:57:47.962Z</time></trkpt><trkpt lat="40.7338948" lon="14.8106362"><ele>655.0</ele><time>2026-05-03T07:57:48.964Z</time></trkpt><trkpt lat="40.7338034" lon="14.8106323"><ele>655.0</ele><time>2026-05-03T07:57:49.969Z</time></trkpt><trkpt lat="40.7337233" lon="14.8106473"><ele>655.0</ele><time>2026-05-03T07:57:50.963Z</time></trkpt><trkpt lat="40.7336218" lon="14.8106624"><ele>655.0</ele><time>2026-05-03T07:57:51.964Z</time></trkpt><trkpt lat="40.7334978" lon="14.8106768"><ele>655.0</ele><time>2026-05-03T07:57:52.961Z</time></trkpt><trkpt lat="40.7333335" lon="14.8106943"><ele>660.5</ele><time>2026-05-03T07:57:53.96Z</time></trkpt><trkpt lat="40.7330611" lon="14.8107854"><ele>666.0</ele><time>2026-05-03T07:57:54.964Z</time></trkpt><trkpt lat="40.7328549" lon="14.8107952"><ele>668.0</ele><time>2026-05-03T07:57:55.96Z</time></trkpt><trkpt lat="40.7326661" lon="14.8108007"><ele>670.0</ele><time>2026-05-03T07:57:56.958Z</time></trkpt><trkpt lat="40.7324789" lon="14.8108165"><ele>672.0</ele><time>2026-05-03T07:57:57.957Z</time></trkpt><trkpt lat="40.7322947" lon="14.8108173"><ele>672.0</ele><time>2026-05-03T07:57:58.955Z</time></trkpt><trkpt lat="40.7321201" lon="14.8108299"><ele>672.0</ele><time>2026-05-03T07:57:59.961Z</time></trkpt><trkpt lat="40.7319421" lon="14.8108543"><ele>672.0</ele><time>2026-05-03T07:58:00.956Z</time></trkpt><trkpt lat="40.7318031" lon="14.8108669"><ele>673.8</ele><time>2026-05-03T07:58:01.953Z</time></trkpt><trkpt lat="40.7316642" lon="14.8108714"><ele>675.6</ele><time>2026-05-03T07:58:02.962Z</time></trkpt><trkpt lat="40.7315693" lon="14.8108715"><ele>677.4</ele><time>2026-05-03T07:58:03.958Z</time></trkpt><trkpt lat="40.7314656" lon="14.8108703"><ele>679.1999999999999</ele><time>2026-05-03T07:58:04.953Z</time></trkpt><trkpt lat="40.7313845" lon="14.8108812"><ele>681.0</ele><time>2026-05-03T07:58:05.948Z</time></trkpt><trkpt lat="40.7312822" lon="14.8109104"><ele>681.0</ele><time>2026-05-03T07:58:06.964Z</time></trkpt><trkpt lat="40.7311649" lon="14.8109495"><ele>681.0</ele><time>2026-05-03T07:58:07.957Z</time></trkpt><trkpt lat="40.7310561" lon="14.8110102"><ele>681.0</ele><time>2026-05-03T07:58:08.96Z</time></trkpt><trkpt lat="40.7309378" lon="14.8110585"><ele>681.0</ele><time>2026-05-03T07:58:09.959Z</time></trkpt><trkpt lat="40.7308079" lon="14.8110987"><ele>679.5</ele><time>2026-05-03T07:58:10.958Z</time></trkpt><trkpt lat="40.7306681" lon="14.8111268"><ele>678.0</ele><time>2026-05-03T07:58:11.959Z</time></trkpt><trkpt lat="40.7305392" lon="14.8111527"><ele>676.5</ele><time>2026-05-03T07:58:12.961Z</time></trkpt><trkpt lat="40.7304129" lon="14.8111889"><ele>675.0</ele><time>2026-05-03T07:58:13.959Z</time></trkpt><trkpt lat="40.7302765" lon="14.8112276"><ele>675.5</ele><time>2026-05-03T07:58:14.964Z</time></trkpt><trkpt lat="40.7301395" lon="14.8112709"><ele>676.0</ele><time>2026-05-03T07:58:15.965Z</time></trkpt><trkpt lat="40.730009" lon="14.8113247"><ele>676.5</ele><time>2026-05-03T07:58:16.966Z</time></trkpt><trkpt lat="40.7299067" lon="14.8113739"><ele>677.0</ele><time>2026-05-03T07:58:17.958Z</time></trkpt><trkpt lat="40.7298153" lon="14.8114333"><ele>677.0</ele><time>2026-05-03T07:58:18.959Z</time></trkpt><trkpt lat="40.7297375" lon="14.8115076"><ele>677.0</ele><time>2026-05-03T07:58:19.961Z</time></trkpt><trkpt lat="40.729663" lon="14.8115896"><ele>677.0</ele><time>2026-05-03T07:58:20.953Z</time></trkpt><trkpt lat="40.7296095" lon="14.8116641"><ele>677.0</ele><time>2026-05-03T07:58:21.956Z</time></trkpt><trkpt lat="40.7295483" lon="14.8117996"><ele>677.0</ele><time>2026-05-03T07:58:23.963Z</time></trkpt><trkpt lat="40.7294896" lon="14.8118349"><ele>680.0</ele><time>2026-05-03T07:58:25.95Z</time></trkpt><trkpt lat="40.7293571" lon="14.8118012"><ele>683.0</ele><time>2026-05-03T07:58:27.957Z</time></trkpt><trkpt lat="40.7292755" lon="14.8117851"><ele>686.0</ele><time>2026-05-03T07:58:28.957Z</time></trkpt><trkpt lat="40.7291864" lon="14.8117747"><ele>689.0</ele><time>2026-05-03T07:58:29.966Z</time></trkpt><trkpt lat="40.7291021" lon="14.8117407"><ele>692.0</ele><time>2026-05-03T07:58:30.962Z</time></trkpt><trkpt lat="40.7290259" lon="14.8116997"><ele>692.0</ele><time>2026-05-03T07:58:31.959Z</time></trkpt><trkpt lat="40.7289373" lon="14.8116671"><ele>692.0</ele><time>2026-05-03T07:58:32.962Z</time></trkpt><trkpt lat="40.728846" lon="14.8116575"><ele>692.0</ele><time>2026-05-03T07:58:33.957Z</time></trkpt><trkpt lat="40.7287624" lon="14.8116494"><ele>692.0</ele><time>2026-05-03T07:58:34.958Z</time></trkpt><trkpt lat="40.7286876" lon="14.8116396"><ele>692.0</ele><time>2026-05-03T07:58:35.961Z</time></trkpt><trkpt lat="40.7286107" lon="14.8116251"><ele>692.0</ele><time>2026-05-03T07:58:36.959Z</time></trkpt><trkpt lat="40.72852" lon="14.8115977"><ele>697.1666666666666</ele><time>2026-05-03T07:58:37.958Z</time></trkpt><trkpt lat="40.7284398" lon="14.8115532"><ele>702.3333333333333</ele><time>2026-05-03T07:58:38.959Z</time></trkpt><trkpt lat="40.7283526" lon="14.8115044"><ele>707.5</ele><time>2026-05-03T07:58:39.959Z</time></trkpt><trkpt lat="40.7282675" lon="14.8114529"><ele>712.6666666666666</ele><time>2026-05-03T07:58:40.955Z</time></trkpt><trkpt lat="40.7281951" lon="14.8114208"><ele>717.8333333333334</ele><time>2026-05-03T07:58:41.957Z</time></trkpt><trkpt lat="40.7281292" lon="14.811389"><ele>723.0</ele><time>2026-05-03T07:58:42.958Z</time></trkpt><trkpt lat="40.7280542" lon="14.8113614"><ele>723.0</ele><time>2026-05-03T07:58:43.957Z</time></trkpt><trkpt lat="40.7279866" lon="14.8113363"><ele>723.0</ele><time>2026-05-03T07:58:44.958Z</time></trkpt><trkpt lat="40.7278874" lon="14.8112238"><ele>723.0</ele><time>2026-05-03T07:58:46.957Z</time></trkpt><trkpt lat="40.7278506" lon="14.8111412"><ele>723.0</ele><time>2026-05-03T07:58:47.965Z</time></trkpt><trkpt lat="40.7278313" lon="14.8110426"><ele>723.0</ele><time>2026-05-03T07:58:48.956Z</time></trkpt><trkpt lat="40.7278238" lon="14.8109312"><ele>723.0</ele><time>2026-05-03T07:58:49.956Z</time></trkpt><trkpt lat="40.7278079" lon="14.8108361"><ele>727.1666666666666</ele><time>2026-05-03T07:58:50.948Z</time></trkpt><trkpt lat="40.7277665" lon="14.8106732"><ele>731.3333333333334</ele><time>2026-05-03T07:58:52.955Z</time></trkpt><trkpt lat="40.7277272" lon="14.8105949"><ele>735.5</ele><time>2026-05-03T07:58:53.958Z</time></trkpt><trkpt lat="40.7276827" lon="14.8105251"><ele>739.6666666666667</ele><time>2026-05-03T07:58:54.963Z</time></trkpt><trkpt lat="40.7275957" lon="14.8104605"><ele>743.8333333333334</ele><time>2026-05-03T07:58:56.961Z</time></trkpt><trkpt lat="40.7275864" lon="14.8105495"><ele>748.0</ele><time>2026-05-03T07:59:03.961Z</time></trkpt><trkpt lat="40.7276329" lon="14.8106173"><ele>748.0</ele><time>2026-05-03T07:59:05.958Z</time></trkpt><trkpt lat="40.7276322" lon="14.8107475"><ele>748.0</ele><time>2026-05-03T07:59:08.961Z</time></trkpt><trkpt lat="40.7276376" lon="14.8108308"><ele>748.0</ele><time>2026-05-03T07:59:10.965Z</time></trkpt><trkpt lat="40.7276416" lon="14.8109514"><ele>748.0</ele><time>2026-05-03T07:59:13.96Z</time></trkpt><trkpt lat="40.7276205" lon="14.8110384"><ele>748.0</ele><time>2026-05-03T07:59:15.958Z</time></trkpt><trkpt lat="40.7276383" lon="14.8111371"><ele>748.0</ele><time>2026-05-03T07:59:17.959Z</time></trkpt><trkpt lat="40.7276667" lon="14.8112551"><ele>745.5999999999999</ele><time>2026-05-03T07:59:19.956Z</time></trkpt><trkpt lat="40.7277054" lon="14.8113755"><ele>743.1999999999999</ele><time>2026-05-03T07:59:21.957Z</time></trkpt><trkpt lat="40.7277228" lon="14.8114968"><ele>740.8</ele><time>2026-05-03T07:59:23.959Z</time></trkpt><trkpt lat="40.7277507" lon="14.811617"><ele>738.4</ele><time>2026-05-03T07:59:25.962Z</time></trkpt><trkpt lat="40.7277842" lon="14.8117291"><ele>736.0</ele><time>2026-05-03T07:59:27.968Z</time></trkpt><trkpt lat="40.7278178" lon="14.811851"><ele>736.0</ele><time>2026-05-03T07:59:29.946Z</time></trkpt><trkpt lat="40.7278526" lon="14.8119591"><ele>736.0</ele><time>2026-05-03T07:59:31.95Z</time></trkpt><trkpt lat="40.7278919" lon="14.8120715"><ele>736.0</ele><time>2026-05-03T07:59:34.959Z</time></trkpt><trkpt lat="40.7278981" lon="14.812215"><ele>736.0</ele><time>2026-05-03T07:59:38.964Z</time></trkpt><trkpt lat="40.7279092" lon="14.8123234"><ele>736.0</ele><time>2026-05-03T07:59:41.963Z</time></trkpt><trkpt lat="40.7278392" lon="14.8125077"><ele>736.0</ele><time>2026-05-03T07:59:43.959Z</time></trkpt><trkpt lat="40.7277846" lon="14.8126043"><ele>736.0</ele><time>2026-05-03T07:59:44.962Z</time></trkpt><trkpt lat="40.727711" lon="14.8126921"><ele>736.0</ele><time>2026-05-03T07:59:46.961Z</time></trkpt><trkpt lat="40.7276345" lon="14.8127861"><ele>736.0</ele><time>2026-05-03T07:59:48.962Z</time></trkpt><trkpt lat="40.7275602" lon="14.8128805"><ele>736.0</ele><time>2026-05-03T07:59:50.963Z</time></trkpt><trkpt lat="40.7274716" lon="14.8129295"><ele>738.1666666666667</ele><time>2026-05-03T07:59:51.955Z</time></trkpt><trkpt lat="40.7273715" lon="14.8129476"><ele>740.3333333333334</ele><time>2026-05-03T07:59:52.957Z</time></trkpt><trkpt lat="40.7272942" lon="14.8129469"><ele>742.5</ele><time>2026-05-03T07:59:53.959Z</time></trkpt><trkpt lat="40.7272299" lon="14.8129324"><ele>744.6666666666666</ele><time>2026-05-03T07:59:54.969Z</time></trkpt><trkpt lat="40.7271656" lon="14.8129126"><ele>746.8333333333333</ele><time>2026-05-03T07:59:55.959Z</time></trkpt><trkpt lat="40.7270978" lon="14.8128989"><ele>749.0</ele><time>2026-05-03T07:59:56.963Z</time></trkpt><trkpt lat="40.7269722" lon="14.8129297"><ele>749.0</ele><time>2026-05-03T07:59:58.96Z</time></trkpt><trkpt lat="40.7269096" lon="14.8129478"><ele>749.0</ele><time>2026-05-03T07:59:59.956Z</time></trkpt><trkpt lat="40.7267973" lon="14.8129604"><ele>749.0</ele><time>2026-05-03T08:00:01.96Z</time></trkpt><trkpt lat="40.7266857" lon="14.8129227"><ele>749.0</ele><time>2026-05-03T08:00:03.956Z</time></trkpt><trkpt lat="40.7266209" lon="14.8128997"><ele>749.0</ele><time>2026-05-03T08:00:04.96Z</time></trkpt><trkpt lat="40.726554" lon="14.8128858"><ele>749.0</ele><time>2026-05-03T08:00:05.967Z</time></trkpt><trkpt lat="40.726457" lon="14.8128782"><ele>753.6</ele><time>2026-05-03T08:00:07.963Z</time></trkpt><trkpt lat="40.7263661" lon="14.8128205"><ele>758.2</ele><time>2026-05-03T08:00:09.964Z</time></trkpt><trkpt lat="40.7262791" lon="14.8126946"><ele>762.8000000000001</ele><time>2026-05-03T08:00:11.956Z</time></trkpt><trkpt lat="40.7262234" lon="14.8126076"><ele>767.4000000000001</ele><time>2026-05-03T08:00:12.961Z</time></trkpt><trkpt lat="40.7261642" lon="14.8125328"><ele>772.0</ele><time>2026-05-03T08:00:13.963Z</time></trkpt><trkpt lat="40.7261089" lon="14.8124668"><ele>777.4999999999999</ele><time>2026-05-03T08:00:14.963Z</time></trkpt><trkpt lat="40.7260642" lon="14.8123919"><ele>783.0</ele><time>2026-05-03T08:00:15.969Z</time></trkpt><trkpt lat="40.7260298" lon="14.8123108"><ele>788.5</ele><time>2026-05-03T08:00:16.968Z</time></trkpt><trkpt lat="40.7259843" lon="14.8122017"><ele>794.0</ele><time>2026-05-03T08:00:18.958Z</time></trkpt><trkpt lat="40.725988" lon="14.8121171"><ele>799.4999999999999</ele><time>2026-05-03T08:00:20.968Z</time></trkpt><trkpt lat="40.7259783" lon="14.8120255"><ele>805.0</ele><time>2026-05-03T08:00:22.966Z</time></trkpt><trkpt lat="40.7259434" lon="14.811924"><ele>805.2857142857143</ele><time>2026-05-03T08:00:24.966Z</time></trkpt><trkpt lat="40.7259149" lon="14.8118441"><ele>805.5714285714286</ele><time>2026-05-03T08:00:25.966Z</time></trkpt><trkpt lat="40.7258764" lon="14.8117645"><ele>805.8571428571429</ele><time>2026-05-03T08:00:27.963Z</time></trkpt><trkpt lat="40.7258161" lon="14.8117152"><ele>806.1428571428571</ele><time>2026-05-03T08:00:29.962Z</time></trkpt><trkpt lat="40.7257413" lon="14.8117007"><ele>806.4285714285714</ele><time>2026-05-03T08:00:31.964Z</time></trkpt><trkpt lat="40.7256648" lon="14.8117131"><ele>806.7142857142858</ele><time>2026-05-03T08:00:33.961Z</time></trkpt><trkpt lat="40.7255884" lon="14.8117443"><ele>807.0</ele><time>2026-05-03T08:00:35.956Z</time></trkpt><trkpt lat="40.7255388" lon="14.8118135"><ele>807.0</ele><time>2026-05-03T08:00:37.971Z</time></trkpt><trkpt lat="40.7254897" lon="14.8118996"><ele>807.0</ele><time>2026-05-03T08:00:39.957Z</time></trkpt><trkpt lat="40.7254311" lon="14.8119785"><ele>807.0</ele><time>2026-05-03T08:00:41.96Z</time></trkpt><trkpt lat="40.7253663" lon="14.8120634"><ele>807.0</ele><time>2026-05-03T08:00:43.965Z</time></trkpt><trkpt lat="40.7253055" lon="14.8121514"><ele>807.0</ele><time>2026-05-03T08:00:45.963Z</time></trkpt><trkpt lat="40.7252388" lon="14.8122283"><ele>807.0</ele><time>2026-05-03T08:00:47.959Z</time></trkpt><trkpt lat="40.7251701" lon="14.8122887"><ele>812.0</ele><time>2026-05-03T08:00:49.959Z</time></trkpt><trkpt lat="40.7250477" lon="14.8124264"><ele>817.0</ele><time>2026-05-03T08:00:55.959Z</time></trkpt><trkpt lat="40.7249511" lon="14.8125254"><ele>822.0</ele><time>2026-05-03T08:00:57.96Z</time></trkpt><trkpt lat="40.7248922" lon="14.8125843"><ele>827.0</ele><time>2026-05-03T08:00:58.956Z</time></trkpt><trkpt lat="40.7247877" lon="14.8126745"><ele>828.75</ele><time>2026-05-03T08:00:59.956Z</time></trkpt><trkpt lat="40.7247048" lon="14.8127434"><ele>830.5</ele><time>2026-05-03T08:01:00.965Z</time></trkpt><trkpt lat="40.7246206" lon="14.8128072"><ele>832.25</ele><time>2026-05-03T08:01:01.955Z</time></trkpt><trkpt lat="40.7245121" lon="14.8129007"><ele>834.0</ele><time>2026-05-03T08:01:02.961Z</time></trkpt><trkpt lat="40.7243945" lon="14.8130075"><ele>837.25</ele><time>2026-05-03T08:01:03.963Z</time></trkpt><trkpt lat="40.7242944" lon="14.8131031"><ele>840.5</ele><time>2026-05-03T08:01:04.96Z</time></trkpt><trkpt lat="40.7241962" lon="14.8132131"><ele>843.75</ele><time>2026-05-03T08:01:05.965Z</time></trkpt><trkpt lat="40.7241098" lon="14.8133215"><ele>847.0</ele><time>2026-05-03T08:01:06.961Z</time></trkpt><trkpt lat="40.7240304" lon="14.8134125"><ele>846.9999999999999</ele><time>2026-05-03T08:01:07.963Z</time></trkpt><trkpt lat="40.7239716" lon="14.8134542"><ele>847.0</ele><time>2026-05-03T08:01:08.956Z</time></trkpt><trkpt lat="40.7238742" lon="14.8134576"><ele>847.0</ele><time>2026-05-03T08:01:10.963Z</time></trkpt><trkpt lat="40.7238022" lon="14.813432"><ele>847.0</ele><time>2026-05-03T08:01:12.962Z</time></trkpt><trkpt lat="40.7237284" lon="14.8134059"><ele>846.9999999999999</ele><time>2026-05-03T08:01:14.957Z</time></trkpt><trkpt lat="40.7236381" lon="14.8133717"><ele>847.0</ele><time>2026-05-03T08:01:17.963Z</time></trkpt><trkpt lat="40.7235728" lon="14.813353"><ele>849.2</ele><time>2026-05-03T08:01:19.961Z</time></trkpt><trkpt lat="40.7234947" lon="14.8133371"><ele>851.4000000000001</ele><time>2026-05-03T08:01:21.968Z</time></trkpt><trkpt lat="40.7233914" lon="14.8132657"><ele>853.5999999999999</ele><time>2026-05-03T08:01:23.964Z</time></trkpt><trkpt lat="40.723294" lon="14.813213"><ele>855.8</ele><time>2026-05-03T08:01:25.953Z</time></trkpt><trkpt lat="40.723201" lon="14.8131827"><ele>858.0</ele><time>2026-05-03T08:01:27.956Z</time></trkpt><trkpt lat="40.7231254" lon="14.8131253"><ele>858.0</ele><time>2026-05-03T08:01:29.961Z</time></trkpt><trkpt lat="40.7230433" lon="14.8130743"><ele>858.0</ele><time>2026-05-03T08:01:31.964Z</time></trkpt><trkpt lat="40.72296" lon="14.8130053"><ele>858.0</ele><time>2026-05-03T08:01:33.957Z</time></trkpt><trkpt lat="40.7229004" lon="14.8129569"><ele>858.0</ele><time>2026-05-03T08:01:35.962Z</time></trkpt><trkpt lat="40.7228436" lon="14.8129096"><ele>858.0</ele><time>2026-05-03T08:01:37.965Z</time></trkpt><trkpt lat="40.7227736" lon="14.8128616"><ele>858.0</ele><time>2026-05-03T08:01:40.965Z</time></trkpt><trkpt lat="40.7227128" lon="14.8127919"><ele>857.3333333333334</ele><time>2026-05-03T08:01:44.971Z</time></trkpt><trkpt lat="40.7226679" lon="14.8127082"><ele>856.6666666666667</ele><time>2026-05-03T08:01:50.957Z</time></trkpt><trkpt lat="40.7226083" lon="14.8126679"><ele>856.0</ele><time>2026-05-03T08:01:54.965Z</time></trkpt><trkpt lat="40.7225396" lon="14.8125951"><ele>855.3333333333334</ele><time>2026-05-03T08:01:57.959Z</time></trkpt><trkpt lat="40.7224822" lon="14.8124985"><ele>854.6666666666667</ele><time>2026-05-03T08:02:00.963Z</time></trkpt><trkpt lat="40.7224406" lon="14.8124067"><ele>854.0</ele><time>2026-05-03T08:02:02.954Z</time></trkpt><trkpt lat="40.7224117" lon="14.8123275"><ele>860.6</ele><time>2026-05-03T08:02:04.957Z</time></trkpt><trkpt lat="40.7223697" lon="14.8122363"><ele>867.2</ele><time>2026-05-03T08:02:07.961Z</time></trkpt><trkpt lat="40.7223318" lon="14.8121638"><ele>873.8000000000001</ele><time>2026-05-03T08:02:13.961Z</time></trkpt><trkpt lat="40.7222701" lon="14.8120864"><ele>880.4000000000001</ele><time>2026-05-03T08:02:15.968Z</time></trkpt><trkpt lat="40.7222372" lon="14.8119985"><ele>887.0</ele><time>2026-05-03T08:02:17.965Z</time></trkpt><trkpt lat="40.7221746" lon="14.8118235"><ele>890.25</ele><time>2026-05-03T08:02:19.965Z</time></trkpt><trkpt lat="40.7221098" lon="14.8116549"><ele>893.5</ele><time>2026-05-03T08:02:20.966Z</time></trkpt><trkpt lat="40.7220619" lon="14.8114971"><ele>896.75</ele><time>2026-05-03T08:02:21.951Z</time></trkpt><trkpt lat="40.722037" lon="14.8113715"><ele>900.0</ele><time>2026-05-03T08:02:22.958Z</time></trkpt><trkpt lat="40.7220188" lon="14.8112572"><ele>900.0</ele><time>2026-05-03T08:02:23.959Z</time></trkpt><trkpt lat="40.7219929" lon="14.8111647"><ele>900.0</ele><time>2026-05-03T08:02:24.962Z</time></trkpt><trkpt lat="40.7219638" lon="14.8110789"><ele>900.0</ele><time>2026-05-03T08:02:25.961Z</time></trkpt><trkpt lat="40.7219419" lon="14.8109474"><ele>900.0</ele><time>2026-05-03T08:02:27.96Z</time></trkpt><trkpt lat="40.7219309" lon="14.8108381"><ele>900.0</ele><time>2026-05-03T08:02:30.954Z</time></trkpt><trkpt lat="40.7218677" lon="14.8108276"><ele>900.0</ele><time>2026-05-03T08:05:05.964Z</time></trkpt><trkpt lat="40.7218093" lon="14.8107504"><ele>901.1666666666666</ele><time>2026-05-03T08:05:10.968Z</time></trkpt><trkpt lat="40.7217717" lon="14.8106669"><ele>902.3333333333333</ele><time>2026-05-03T08:05:12.967Z</time></trkpt><trkpt lat="40.7218132" lon="14.8106011"><ele>903.5</ele><time>2026-05-03T08:05:15.958Z</time></trkpt><trkpt lat="40.7218843" lon="14.8105239"><ele>904.6666666666666</ele><time>2026-05-03T08:05:19.964Z</time></trkpt><trkpt lat="40.7218438" lon="14.8106098"><ele>905.8333333333333</ele><time>2026-05-03T08:05:27.963Z</time></trkpt><trkpt lat="40.7218702" lon="14.8107309"><ele>907.0</ele><time>2026-05-03T08:05:29.962Z</time></trkpt><trkpt lat="40.7218949" lon="14.8108462"><ele>905.8333333333333</ele><time>2026-05-03T08:05:32.028Z</time></trkpt><trkpt lat="40.7219249" lon="14.8109447"><ele>904.6666666666666</ele><time>2026-05-03T08:05:33.967Z</time></trkpt><trkpt lat="40.7219452" lon="14.8110506"><ele>903.5</ele><time>2026-05-03T08:05:35.961Z</time></trkpt><trkpt lat="40.7219723" lon="14.8111562"><ele>902.3333333333333</ele><time>2026-05-03T08:05:37.962Z</time></trkpt><trkpt lat="40.7220471" lon="14.8112268"><ele>901.1666666666666</ele><time>2026-05-03T08:05:40.962Z</time></trkpt><trkpt lat="40.7221206" lon="14.8112422"><ele>900.0</ele><time>2026-05-03T08:06:04.962Z</time></trkpt><trkpt lat="40.7220861" lon="14.8111673"><ele>900.0000000000001</ele><time>2026-05-03T08:06:07.969Z</time></trkpt><trkpt lat="40.7220484" lon="14.8110909"><ele>900.0</ele><time>2026-05-03T08:06:09.969Z</time></trkpt><trkpt lat="40.7220095" lon="14.8109946"><ele>900.0000000000001</ele><time>2026-05-03T08:06:13.039Z</time></trkpt><trkpt lat="40.7219468" lon="14.8109423"><ele>900.0000000000001</ele><time>2026-05-03T08:06:29.966Z</time></trkpt><trkpt lat="40.7220104" lon="14.8109215"><ele>900.0</ele><time>2026-05-03T08:06:32.969Z</time></trkpt><trkpt lat="40.7220755" lon="14.8108969"><ele>900.0000000000001</ele><time>2026-05-03T08:06:34.974Z</time></trkpt><trkpt lat="40.722137" lon="14.8108632"><ele>900.0000000000001</ele><time>2026-05-03T08:06:37.042Z</time></trkpt><trkpt lat="40.7221878" lon="14.8108071"><ele>902.7142857142858</ele><time>2026-05-03T08:06:39.974Z</time></trkpt><trkpt lat="40.7222364" lon="14.8107435"><ele>905.4285714285714</ele><time>2026-05-03T08:06:43.079Z</time></trkpt><trkpt lat="40.7222188" lon="14.8106473"><ele>908.1428571428571</ele><time>2026-05-03T08:08:29.96Z</time></trkpt><trkpt lat="40.7221432" lon="14.8106805"><ele>910.8571428571429</ele><time>2026-05-03T08:08:34.961Z</time></trkpt><trkpt lat="40.7220678" lon="14.8107028"><ele>913.5714285714284</ele><time>2026-05-03T08:08:38.959Z</time></trkpt><trkpt lat="40.7220045" lon="14.8107229"><ele>916.2857142857142</ele><time>2026-05-03T08:08:54.965Z</time></trkpt><trkpt lat="40.7220581" lon="14.8107808"><ele>919.0</ele><time>2026-05-03T08:09:27.966Z</time></trkpt><trkpt lat="40.7221442" lon="14.8107317"><ele>919.0</ele><time>2026-05-03T08:09:29.962Z</time></trkpt><trkpt lat="40.722211" lon="14.8106807"><ele>918.9999999999999</ele><time>2026-05-03T08:09:31.968Z</time></trkpt><trkpt lat="40.7222831" lon="14.8106515"><ele>919.0</ele><time>2026-05-03T08:09:33.963Z</time></trkpt><trkpt lat="40.7223488" lon="14.8106423"><ele>919.0</ele><time>2026-05-03T08:09:36.964Z</time></trkpt><trkpt lat="40.7223831" lon="14.8105621"><ele>918.9999999999999</ele><time>2026-05-03T08:09:39.972Z</time></trkpt><trkpt lat="40.7224047" lon="14.8104825"><ele>919.0</ele><time>2026-05-03T08:09:43.965Z</time></trkpt><trkpt lat="40.7224245" lon="14.8103791"><ele>919.0</ele><time>2026-05-03T08:09:53.975Z</time></trkpt><trkpt lat="40.7224054" lon="14.8102759"><ele>919.0</ele><time>2026-05-03T08:09:57.974Z</time></trkpt><trkpt lat="40.7223921" lon="14.8101819"><ele>919.0</ele><time>2026-05-03T08:10:00.97Z</time></trkpt><trkpt lat="40.7223726" lon="14.8100956"><ele>919.0</ele><time>2026-05-03T08:10:06.989Z</time></trkpt><trkpt lat="40.7223028" lon="14.8100544"><ele>919.0</ele><time>2026-05-03T08:10:09.965Z</time></trkpt><trkpt lat="40.7223488" lon="14.8106423"><ele>919.0</ele><time>2026-05-03T08:09:36.964Z</time></trkpt><trkpt lat="40.7223831" lon="14.8105621"><ele>918.9999999999999</ele><time>2026-05-03T08:09:39.972Z</time></trkpt><trkpt lat="40.7224047" lon="14.8104825"><ele>919.0</ele><time>2026-05-03T08:09:43.965Z</time></trkpt><trkpt lat="40.7224245" lon="14.8103791"><ele>919.0</ele><time>2026-05-03T08:09:53.975Z</time></trkpt><trkpt lat="40.7224054" lon="14.8102759"><ele>918.9999999999999</ele><time>2026-05-03T08:09:57.974Z</time></trkpt><trkpt lat="40.7223921" lon="14.8101819"><ele>919.0</ele><time>2026-05-03T08:10:00.97Z</time></trkpt><trkpt lat="40.7223726" lon="14.8100956"><ele>919.0</ele><time>2026-05-03T08:10:06.989Z</time></trkpt><trkpt lat="40.7223028" lon="14.8100544"><ele>920.9999999999999</ele><time>2026-05-03T08:10:09.965Z</time></trkpt><trkpt lat="40.7222168" lon="14.8100168"><ele>923.0</ele><time>2026-05-03T08:10:13.044Z</time></trkpt><trkpt lat="40.7221268" lon="14.8099827"><ele>925.0</ele><time>2026-05-03T08:10:15.958Z</time></trkpt><trkpt lat="40.7220378" lon="14.8099695"><ele>927.0</ele><time>2026-05-03T08:10:19.974Z</time></trkpt><trkpt lat="40.7219817" lon="14.8099282"><ele>928.9999999999999</ele><time>2026-05-03T08:10:22.96Z</time></trkpt><trkpt lat="40.7219353" lon="14.8098564"><ele>931.0</ele><time>2026-05-03T08:10:26.963Z</time></trkpt><trkpt lat="40.7219331" lon="14.8097669"><ele>931.0</ele><time>2026-05-03T08:10:29.968Z</time></trkpt><trkpt lat="40.7219283" lon="14.8096767"><ele>931.0</ele><time>2026-05-03T08:10:32.04Z</time></trkpt><trkpt lat="40.7219321" lon="14.8095919"><ele>931.0</ele><time>2026-05-03T08:10:34.025Z</time></trkpt><trkpt lat="40.7219254" lon="14.809501"><ele>931.0</ele><time>2026-05-03T08:10:35.955Z</time></trkpt><trkpt lat="40.7219197" lon="14.809394"><ele>931.0</ele><time>2026-05-03T08:10:37.962Z</time></trkpt><trkpt lat="40.7219148" lon="14.8093049"><ele>931.0</ele><time>2026-05-03T08:10:39.965Z</time></trkpt><trkpt lat="40.7219029" lon="14.8091926"><ele>931.0</ele><time>2026-05-03T08:10:42.965Z</time></trkpt><trkpt lat="40.7218841" lon="14.8092852"><ele>928.2857142857142</ele><time>2026-05-03T08:10:59.027Z</time></trkpt><trkpt lat="40.7218282" lon="14.8093293"><ele>925.5714285714286</ele><time>2026-05-03T08:11:02.968Z</time></trkpt><trkpt lat="40.7217742" lon="14.8092495"><ele>922.8571428571429</ele><time>2026-05-03T08:11:06.998Z</time></trkpt><trkpt lat="40.721689" lon="14.8092128"><ele>920.1428571428571</ele><time>2026-05-03T08:11:14.961Z</time></trkpt><trkpt lat="40.7216413" lon="14.8092746"><ele>917.4285714285713</ele><time>2026-05-03T08:11:17.966Z</time></trkpt><trkpt lat="40.7216001" lon="14.8093388"><ele>914.7142857142857</ele><time>2026-05-03T08:11:21.967Z</time></trkpt><trkpt lat="40.7215288" lon="14.8093152"><ele>912.0</ele><time>2026-05-03T08:11:24.964Z</time></trkpt><trkpt lat="40.7214631" lon="14.8092746"><ele>912.0</ele><time>2026-05-03T08:11:27.969Z</time></trkpt><trkpt lat="40.7214086" lon="14.8092063"><ele>912.0</ele><time>2026-05-03T08:11:31.042Z</time></trkpt><trkpt lat="40.7213608" lon="14.8091149"><ele>912.0</ele><time>2026-05-03T08:11:33.969Z</time></trkpt><trkpt lat="40.7213039" lon="14.8089891"><ele>912.0</ele><time>2026-05-03T08:11:40.961Z</time></trkpt><trkpt lat="40.7212624" lon="14.808905"><ele>912.0</ele><time>2026-05-03T08:11:42.947Z</time></trkpt><trkpt lat="40.7212112" lon="14.8088237"><ele>912.0</ele><time>2026-05-03T08:11:43.944Z</time></trkpt><trkpt lat="40.7211474" lon="14.8087532"><ele>912.0</ele><time>2026-05-03T08:11:45.952Z</time></trkpt><trkpt lat="40.7210842" lon="14.808705"><ele>912.0</ele><time>2026-05-03T08:11:47.947Z</time></trkpt><trkpt lat="40.7210235" lon="14.8087442"><ele>912.0</ele><time>2026-05-03T08:11:51.945Z</time></trkpt><trkpt lat="40.7210386" lon="14.808841"><ele>912.0</ele><time>2026-05-03T08:11:56.952Z</time></trkpt><trkpt lat="40.7210756" lon="14.8089316"><ele>912.0</ele><time>2026-05-03T08:12:00.956Z</time></trkpt><trkpt lat="40.7211203" lon="14.809033"><ele>912.0</ele><time>2026-05-03T08:12:04.018Z</time></trkpt><trkpt lat="40.7211495" lon="14.8091135"><ele>912.0</ele><time>2026-05-03T08:12:05.95Z</time></trkpt><trkpt lat="40.7211812" lon="14.8092091"><ele>912.0</ele><time>2026-05-03T08:12:07.954Z</time></trkpt><trkpt lat="40.7212062" lon="14.8093152"><ele>912.0</ele><time>2026-05-03T08:12:09.945Z</time></trkpt><trkpt lat="40.7212348" lon="14.8094163"><ele>912.0</ele><time>2026-05-03T08:12:12.024Z</time></trkpt><trkpt lat="40.7212582" lon="14.8095027"><ele>912.0</ele><time>2026-05-03T08:12:13.961Z</time></trkpt><trkpt lat="40.7212898" lon="14.8096043"><ele>912.0</ele><time>2026-05-03T08:12:16.959Z</time></trkpt><trkpt lat="40.7213105" lon="14.8096974"><ele>911.8333333333334</ele><time>2026-05-03T08:12:18.957Z</time></trkpt><trkpt lat="40.7213364" lon="14.8097866"><ele>911.6666666666667</ele><time>2026-05-03T08:12:20.957Z</time></trkpt><trkpt lat="40.7213534" lon="14.8098823"><ele>911.5</ele><time>2026-05-03T08:12:41.973Z</time></trkpt><trkpt lat="40.7213372" lon="14.8100211"><ele>911.3333333333334</ele><time>2026-05-03T08:12:45.968Z</time></trkpt><trkpt lat="40.7213087" lon="14.8101286"><ele>911.1666666666667</ele><time>2026-05-03T08:12:47.974Z</time></trkpt><trkpt lat="40.7212617" lon="14.8102415"><ele>911.0</ele><time>2026-05-03T08:12:49.978Z</time></trkpt><trkpt lat="40.7212455" lon="14.8103847"><ele>910.4285714285714</ele><time>2026-05-03T08:12:51.98Z</time></trkpt><trkpt lat="40.7212999" lon="14.8104634"><ele>909.8571428571429</ele><time>2026-05-03T08:12:53.974Z</time></trkpt><trkpt lat="40.7213448" lon="14.8105229"><ele>909.2857142857143</ele><time>2026-05-03T08:12:55.973Z</time></trkpt><trkpt lat="40.7213792" lon="14.8106129"><ele>908.7142857142858</ele><time>2026-05-03T08:13:02.979Z</time></trkpt><trkpt lat="40.7214571" lon="14.8106305"><ele>908.1428571428571</ele><time>2026-05-03T08:13:07.97Z</time></trkpt><trkpt lat="40.7215271" lon="14.810648"><ele>907.5714285714287</ele><time>2026-05-03T08:13:11.957Z</time></trkpt><trkpt lat="40.7215919" lon="14.810704"><ele>907.0000000000001</ele><time>2026-05-03T08:13:14.959Z</time></trkpt><trkpt lat="40.7216663" lon="14.8107221"><ele>907.0000000000001</ele><time>2026-05-03T08:13:17.956Z</time></trkpt><trkpt lat="40.7217229" lon="14.8107945"><ele>907.0</ele><time>2026-05-03T08:13:19.984Z</time></trkpt><trkpt lat="40.7217718" lon="14.8108987"><ele>907.0000000000001</ele><time>2026-05-03T08:13:21.973Z</time></trkpt><trkpt lat="40.7218153" lon="14.8108184"><ele>907.0000000000001</ele><time>2026-05-03T08:13:25.958Z</time></trkpt><trkpt lat="40.7218337" lon="14.8107286"><ele>907.0</ele><time>2026-05-03T08:16:40.961Z</time></trkpt><trkpt lat="40.7218686" lon="14.8106559"><ele>907.0000000000001</ele><time>2026-05-03T08:16:44.963Z</time></trkpt><trkpt lat="40.7219161" lon="14.8107175"><ele>907.0000000000001</ele><time>2026-05-03T08:17:23.961Z</time></trkpt><trkpt lat="40.7218985" lon="14.8108192"><ele>906.0000000000001</ele><time>2026-05-03T08:17:29.961Z</time></trkpt><trkpt lat="40.7219293" lon="14.8108983"><ele>905.0</ele><time>2026-05-03T08:17:33.956Z</time></trkpt><trkpt lat="40.7219482" lon="14.8110076"><ele>904.0000000000001</ele><time>2026-05-03T08:17:36.964Z</time></trkpt><trkpt lat="40.7219625" lon="14.8110921"><ele>903.0000000000001</ele><time>2026-05-03T08:17:38.96Z</time></trkpt><trkpt lat="40.7219813" lon="14.8111812"><ele>902.0</ele><time>2026-05-03T08:17:41.969Z</time></trkpt><trkpt lat="40.7220372" lon="14.8112533"><ele>901.0000000000001</ele><time>2026-05-03T08:17:49.954Z</time></trkpt><trkpt lat="40.7221078" lon="14.8112334"><ele>900.0000000000001</ele><time>2026-05-03T08:18:16.965Z</time></trkpt><trkpt lat="40.7220746" lon="14.8111552"><ele>900.0</ele><time>2026-05-03T08:18:20.959Z</time></trkpt><trkpt lat="40.7220386" lon="14.8110531"><ele>900.0</ele><time>2026-05-03T08:18:24.044Z</time></trkpt><trkpt lat="40.7219875" lon="14.8110024"><ele>900.0</ele><time>2026-05-03T08:18:27.953Z</time></trkpt><trkpt lat="40.72194" lon="14.8109031"><ele>900.0</ele><time>2026-05-03T08:19:39.971Z</time></trkpt><trkpt lat="40.7219666" lon="14.8108094"><ele>900.0</ele><time>2026-05-03T08:19:44.961Z</time></trkpt><trkpt lat="40.7219767" lon="14.810711"><ele>900.0</ele><time>2026-05-03T08:19:48.972Z</time></trkpt><trkpt lat="40.7219736" lon="14.8106182"><ele>901.5714285714287</ele><time>2026-05-03T08:19:51.967Z</time></trkpt><trkpt lat="40.7219708" lon="14.8105272"><ele>903.1428571428571</ele><time>2026-05-03T08:19:56.971Z</time></trkpt><trkpt lat="40.7219876" lon="14.8104353"><ele>904.7142857142858</ele><time>2026-05-03T08:20:00.966Z</time></trkpt><trkpt lat="40.7219725" lon="14.8103281"><ele>906.2857142857143</ele><time>2026-05-03T08:20:05.972Z</time></trkpt><trkpt lat="40.7219712" lon="14.8102245"><ele>907.8571428571429</ele><time>2026-05-03T08:20:10.975Z</time></trkpt><trkpt lat="40.7219657" lon="14.810137"><ele>909.4285714285714</ele><time>2026-05-03T08:20:38.972Z</time></trkpt><trkpt lat="40.7219134" lon="14.8100752"><ele>911.0</ele><time>2026-05-03T08:20:42.963Z</time></trkpt><trkpt lat="40.7218457" lon="14.8100338"><ele>911.0000000000001</ele><time>2026-05-03T08:20:46.97Z</time></trkpt><trkpt lat="40.7217538" lon="14.8100523"><ele>911.0</ele><time>2026-05-03T08:20:50.966Z</time></trkpt><trkpt lat="40.721692" lon="14.8100758"><ele>911.0</ele><time>2026-05-03T08:20:53.959Z</time></trkpt><trkpt lat="40.7216339" lon="14.8101258"><ele>911.0</ele><time>2026-05-03T08:20:55.973Z</time></trkpt><trkpt lat="40.7216144" lon="14.8102149"><ele>911.0000000000001</ele><time>2026-05-03T08:20:58.978Z</time></trkpt><trkpt lat="40.7216662" lon="14.8103057"><ele>911.0</ele><time>2026-05-03T08:21:02.045Z</time></trkpt><trkpt lat="40.7217121" lon="14.8104145"><ele>910.3333333333334</ele><time>2026-05-03T08:21:04.977Z</time></trkpt><trkpt lat="40.7217643" lon="14.8105396"><ele>909.6666666666667</ele><time>2026-05-03T08:21:06.973Z</time></trkpt><trkpt lat="40.7218247" lon="14.8106577"><ele>909.0</ele><time>2026-05-03T08:21:09.036Z</time></trkpt><trkpt lat="40.7218765" lon="14.8107206"><ele>908.3333333333333</ele><time>2026-05-03T08:21:10.976Z</time></trkpt><trkpt lat="40.7219588" lon="14.8107259"><ele>907.6666666666666</ele><time>2026-05-03T08:21:12.99Z</time></trkpt><trkpt lat="40.7220078" lon="14.8106655"><ele>907.0</ele><time>2026-05-03T08:21:52.971Z</time></trkpt><trkpt lat="40.7220091" lon="14.810568"><ele>908.7142857142858</ele><time>2026-05-03T08:22:19.965Z</time></trkpt><trkpt lat="40.7220118" lon="14.8104772"><ele>910.4285714285714</ele><time>2026-05-03T08:22:24.966Z</time></trkpt><trkpt lat="40.7220184" lon="14.8103583"><ele>912.1428571428571</ele><time>2026-05-03T08:22:31.95Z</time></trkpt><trkpt lat="40.7219902" lon="14.8102752"><ele>913.8571428571429</ele><time>2026-05-03T08:23:14.967Z</time></trkpt><trkpt lat="40.7219759" lon="14.8101931"><ele>915.5714285714284</ele><time>2026-05-03T08:23:17.96Z</time></trkpt><trkpt lat="40.7219576" lon="14.8101035"><ele>917.2857142857142</ele><time>2026-05-03T08:23:21.965Z</time></trkpt><trkpt lat="40.7219345" lon="14.8099965"><ele>919.0</ele><time>2026-05-03T08:23:35.967Z</time></trkpt><trkpt lat="40.721917" lon="14.8099094"><ele>920.9999999999999</ele><time>2026-05-03T08:23:38.965Z</time></trkpt><trkpt lat="40.7219388" lon="14.8097604"><ele>923.0</ele><time>2026-05-03T08:23:42.032Z</time></trkpt><trkpt lat="40.7219542" lon="14.8096526"><ele>925.0</ele><time>2026-05-03T08:23:42.973Z</time></trkpt><trkpt lat="40.7219627" lon="14.8095644"><ele>927.0</ele><time>2026-05-03T08:23:43.961Z</time></trkpt><trkpt lat="40.7219848" lon="14.8094525"><ele>928.9999999999999</ele><time>2026-05-03T08:23:45.966Z</time></trkpt><trkpt lat="40.7220009" lon="14.8093661"><ele>931.0</ele><time>2026-05-03T08:23:47.96Z</time></trkpt><trkpt lat="40.7220205" lon="14.8092065"><ele>932.1428571428571</ele><time>2026-05-03T08:23:54.974Z</time></trkpt><trkpt lat="40.7219947" lon="14.8091018"><ele>933.2857142857142</ele><time>2026-05-03T08:23:59.973Z</time></trkpt><trkpt lat="40.7219313" lon="14.8091106"><ele>934.4285714285714</ele><time>2026-05-03T08:24:04.981Z</time></trkpt><trkpt lat="40.7219125" lon="14.8091964"><ele>935.5714285714286</ele><time>2026-05-03T08:24:09.976Z</time></trkpt><trkpt lat="40.721898" lon="14.8092961"><ele>936.7142857142857</ele><time>2026-05-03T08:24:15.977Z</time></trkpt><trkpt lat="40.7218329" lon="14.8092697"><ele>937.8571428571429</ele><time>2026-05-03T08:24:21.041Z</time></trkpt><trkpt lat="40.7217507" lon="14.8092314"><ele>939.0</ele><time>2026-05-03T08:24:23.968Z</time></trkpt><trkpt lat="40.7216806" lon="14.8092417"><ele>934.5</ele><time>2026-05-03T08:24:25.968Z</time></trkpt><trkpt lat="40.7216126" lon="14.8092765"><ele>930.0</ele><time>2026-05-03T08:24:28.031Z</time></trkpt><trkpt lat="40.7215539" lon="14.809336"><ele>925.5</ele><time>2026-05-03T08:24:29.971Z</time></trkpt><trkpt lat="40.7215007" lon="14.8093965"><ele>921.0</ele><time>2026-05-03T08:24:31.97Z</time></trkpt><trkpt lat="40.7214384" lon="14.8093741"><ele>916.5</ele><time>2026-05-03T08:24:37.964Z</time></trkpt><trkpt lat="40.7213412" lon="14.8092766"><ele>912.0</ele><time>2026-05-03T08:25:01.97Z</time></trkpt><trkpt lat="40.7213238" lon="14.8091899"><ele>912.0</ele><time>2026-05-03T08:25:06.973Z</time></trkpt><trkpt lat="40.7213077" lon="14.8092727"><ele>912.0</ele><time>2026-05-03T08:25:13.026Z</time></trkpt><trkpt lat="40.7213898" lon="14.8093196"><ele>912.0</ele><time>2026-05-03T08:25:46.966Z</time></trkpt><trkpt lat="40.7214094" lon="14.8094318"><ele>912.0</ele><time>2026-05-03T08:25:52.967Z</time></trkpt><trkpt lat="40.7214389" lon="14.8095327"><ele>912.0</ele><time>2026-05-03T08:25:55.963Z</time></trkpt><trkpt lat="40.7214631" lon="14.8096359"><ele>912.0</ele><time>2026-05-03T08:25:57.964Z</time></trkpt><trkpt lat="40.7214639" lon="14.8097451"><ele>911.8333333333334</ele><time>2026-05-03T08:25:59.969Z</time></trkpt><trkpt lat="40.7214402" lon="14.8098312"><ele>911.6666666666667</ele><time>2026-05-03T08:26:01.952Z</time></trkpt><trkpt lat="40.7214123" lon="14.8099435"><ele>911.5</ele><time>2026-05-03T08:26:02.97Z</time></trkpt><trkpt lat="40.7213717" lon="14.8100488"><ele>911.3333333333334</ele><time>2026-05-03T08:26:03.963Z</time></trkpt><trkpt lat="40.7213396" lon="14.810136"><ele>911.1666666666667</ele><time>2026-05-03T08:26:04.966Z</time></trkpt><trkpt lat="40.7213067" lon="14.8102174"><ele>911.0</ele><time>2026-05-03T08:26:05.958Z</time></trkpt><trkpt lat="40.7212669" lon="14.810309"><ele>910.3333333333334</ele><time>2026-05-03T08:26:06.958Z</time></trkpt><trkpt lat="40.7212645" lon="14.8104042"><ele>909.6666666666667</ele><time>2026-05-03T08:26:08.969Z</time></trkpt><trkpt lat="40.7213348" lon="14.8104917"><ele>909.0</ele><time>2026-05-03T08:26:10.958Z</time></trkpt><trkpt lat="40.7214029" lon="14.8105565"><ele>908.3333333333333</ele><time>2026-05-03T08:26:12.962Z</time></trkpt><trkpt lat="40.7214732" lon="14.8106141"><ele>907.6666666666666</ele><time>2026-05-03T08:26:16.954Z</time></trkpt><trkpt lat="40.7215452" lon="14.8106562"><ele>907.0</ele><time>2026-05-03T08:26:20.959Z</time></trkpt><trkpt lat="40.7216236" lon="14.8107011"><ele>907.0</ele><time>2026-05-03T08:26:23.969Z</time></trkpt><trkpt lat="40.721711" lon="14.8108016"><ele>907.0</ele><time>2026-05-03T08:26:25.967Z</time></trkpt><trkpt lat="40.7217547" lon="14.8108745"><ele>907.0</ele><time>2026-05-03T08:26:26.961Z</time></trkpt><trkpt lat="40.7218383" lon="14.8109222"><ele>907.0</ele><time>2026-05-03T08:26:28.962Z</time></trkpt><trkpt lat="40.7218322" lon="14.8107707"><ele>907.0</ele><time>2026-05-03T08:26:32.029Z</time></trkpt><trkpt lat="40.7218123" lon="14.8106731"><ele>906.9999999999999</ele><time>2026-05-03T08:26:34.035Z</time></trkpt><trkpt lat="40.721885" lon="14.8105754"><ele>907.0</ele><time>2026-05-03T08:26:35.96Z</time></trkpt><trkpt lat="40.7219424" lon="14.8104861"><ele>907.0</ele><time>2026-05-03T08:26:37.959Z</time></trkpt><trkpt lat="40.72189" lon="14.8105916"><ele>907.0</ele><time>2026-05-03T08:26:42.993Z</time></trkpt><trkpt lat="40.7219023" lon="14.8106916"><ele>906.9999999999999</ele><time>2026-05-03T08:26:43.969Z</time></trkpt><trkpt lat="40.7219321" lon="14.8107943"><ele>907.0</ele><time>2026-05-03T08:26:44.961Z</time></trkpt><trkpt lat="40.7219591" lon="14.8108972"><ele>905.8333333333333</ele><time>2026-05-03T08:26:45.961Z</time></trkpt><trkpt lat="40.7219825" lon="14.8109966"><ele>904.6666666666666</ele><time>2026-05-03T08:26:46.962Z</time></trkpt><trkpt lat="40.7219961" lon="14.8110935"><ele>903.5</ele><time>2026-05-03T08:26:48.03Z</time></trkpt><trkpt lat="40.7220205" lon="14.811237"><ele>902.3333333333333</ele><time>2026-05-03T08:26:49.959Z</time></trkpt><trkpt lat="40.7220674" lon="14.8113101"><ele>901.1666666666666</ele><time>2026-05-03T08:26:51.96Z</time></trkpt><trkpt lat="40.7220558" lon="14.811213"><ele>900.0</ele><time>2026-05-03T08:26:56.959Z</time></trkpt><trkpt lat="40.7221228" lon="14.8112573"><ele>900.0</ele><time>2026-05-03T08:27:01.962Z</time></trkpt><trkpt lat="40.7220734" lon="14.8111304"><ele>900.0</ele><time>2026-05-03T08:27:06.956Z</time></trkpt><trkpt lat="40.7220156" lon="14.8110177"><ele>900.0</ele><time>2026-05-03T08:27:08.954Z</time></trkpt><trkpt lat="40.7219428" lon="14.8109599"><ele>900.0</ele><time>2026-05-03T08:27:11.958Z</time></trkpt><trkpt lat="40.7219557" lon="14.8108745"><ele>900.0</ele><time>2026-05-03T08:27:13.966Z</time></trkpt><trkpt lat="40.7219832" lon="14.8107978"><ele>900.0</ele><time>2026-05-03T08:27:14.962Z</time></trkpt><trkpt lat="40.7219967" lon="14.8107134"><ele>902.7142857142858</ele><time>2026-05-03T08:27:16.954Z</time></trkpt><trkpt lat="40.7220305" lon="14.8106361"><ele>905.4285714285714</ele><time>2026-05-03T08:27:20.954Z</time></trkpt><trkpt lat="40.7220525" lon="14.8105539"><ele>908.1428571428571</ele><time>2026-05-03T08:27:41.949Z</time></trkpt><trkpt lat="40.7220059" lon="14.810487"><ele>910.8571428571429</ele><time>2026-05-03T08:27:46.947Z</time></trkpt><trkpt lat="40.7219877" lon="14.8103909"><ele>913.5714285714284</ele><time>2026-05-03T08:27:49.949Z</time></trkpt><trkpt lat="40.7219588" lon="14.8103075"><ele>916.2857142857142</ele><time>2026-05-03T08:27:51.945Z</time></trkpt><trkpt lat="40.7219485" lon="14.8102144"><ele>919.0</ele><time>2026-05-03T08:27:53.959Z</time></trkpt><trkpt lat="40.7219438" lon="14.8100968"><ele>917.6666666666666</ele><time>2026-05-03T08:27:56.958Z</time></trkpt><trkpt lat="40.7219261" lon="14.8100077"><ele>916.3333333333333</ele><time>2026-05-03T08:27:58.962Z</time></trkpt><trkpt lat="40.721897" lon="14.809932"><ele>915.0</ele><time>2026-05-03T08:28:00.961Z</time></trkpt><trkpt lat="40.7219277" lon="14.8098163"><ele>913.6666666666667</ele><time>2026-05-03T08:28:02.956Z</time></trkpt><trkpt lat="40.7219531" lon="14.809648"><ele>912.3333333333334</ele><time>2026-05-03T08:28:04.954Z</time></trkpt><trkpt lat="40.7219727" lon="14.8095344"><ele>911.0</ele><time>2026-05-03T08:28:05.955Z</time></trkpt><trkpt lat="40.7219859" lon="14.8094312"><ele>911.1666666666667</ele><time>2026-05-03T08:28:06.952Z</time></trkpt><trkpt lat="40.7220082" lon="14.8093334"><ele>911.3333333333334</ele><time>2026-05-03T08:28:07.944Z</time></trkpt><trkpt lat="40.7220335" lon="14.8092158"><ele>911.5</ele><time>2026-05-03T08:28:09.96Z</time></trkpt><trkpt lat="40.7220398" lon="14.8091205"><ele>911.6666666666667</ele><time>2026-05-03T08:28:11.952Z</time></trkpt><trkpt lat="40.7219857" lon="14.8090103"><ele>911.8333333333334</ele><time>2026-05-03T08:28:15.96Z</time></trkpt><trkpt lat="40.7219228" lon="14.8090381"><ele>912.0</ele><time>2026-05-03T08:28:17.95Z</time></trkpt><trkpt lat="40.7218705" lon="14.8091325"><ele>912.0</ele><time>2026-05-03T08:28:20.958Z</time></trkpt><trkpt lat="40.7218956" lon="14.8092303"><ele>911.9999999999999</ele><time>2026-05-03T08:28:32.953Z</time></trkpt><trkpt lat="40.7218818" lon="14.8093189"><ele>912.0</ele><time>2026-05-03T08:28:39.946Z</time></trkpt><trkpt lat="40.721835" lon="14.8092575"><ele>912.0</ele><time>2026-05-03T08:28:43.955Z</time></trkpt><trkpt lat="40.7217897" lon="14.8091861"><ele>911.9999999999999</ele><time>2026-05-03T08:28:45.949Z</time></trkpt><trkpt lat="40.7217108" lon="14.80919"><ele>912.0</ele><time>2026-05-03T08:28:47.957Z</time></trkpt><trkpt lat="40.7216441" lon="14.8092114"><ele>912.0</ele><time>2026-05-03T08:28:49.958Z</time></trkpt><trkpt lat="40.7215882" lon="14.8092761"><ele>911.8333333333334</ele><time>2026-05-03T08:28:51.958Z</time></trkpt><trkpt lat="40.721512" lon="14.8093795"><ele>911.6666666666667</ele><time>2026-05-03T08:29:12.953Z</time></trkpt><trkpt lat="40.7214556" lon="14.8094448"><ele>911.5</ele><time>2026-05-03T08:29:25.981Z</time></trkpt><trkpt lat="40.7214494" lon="14.8096021"><ele>911.3333333333334</ele><time>2026-05-03T08:29:32.958Z</time></trkpt><trkpt lat="40.7214481" lon="14.8096883"><ele>911.1666666666667</ele><time>2026-05-03T08:29:34.955Z</time></trkpt><trkpt lat="40.7214431" lon="14.8097899"><ele>911.0</ele><time>2026-05-03T08:29:53.957Z</time></trkpt><trkpt lat="40.7214748" lon="14.8098773"><ele>911.0000000000001</ele><time>2026-05-03T08:29:56.958Z</time></trkpt><trkpt lat="40.7215354" lon="14.8099271"><ele>911.0</ele><time>2026-05-03T08:29:59.03Z</time></trkpt><trkpt lat="40.7216079" lon="14.8099572"><ele>911.0</ele><time>2026-05-03T08:30:00.954Z</time></trkpt><trkpt lat="40.7216973" lon="14.8099486"><ele>911.0</ele><time>2026-05-03T08:30:03.961Z</time></trkpt><trkpt lat="40.7217593" lon="14.8098973"><ele>911.0000000000001</ele><time>2026-05-03T08:30:07.027Z</time></trkpt><trkpt lat="40.7217872" lon="14.809799"><ele>911.0</ele><time>2026-05-03T08:30:09.957Z</time></trkpt><trkpt lat="40.721805" lon="14.8097183"><ele>911.0</ele><time>2026-05-03T08:30:12.043Z</time></trkpt><trkpt lat="40.7218415" lon="14.8096289"><ele>911.0</ele><time>2026-05-03T08:30:13.978Z</time></trkpt><trkpt lat="40.7218533" lon="14.8095287"><ele>911.0</ele><time>2026-05-03T08:30:15.967Z</time></trkpt><trkpt lat="40.7218521" lon="14.8094256"><ele>911.0</ele><time>2026-05-03T08:30:17.977Z</time></trkpt><trkpt lat="40.721837" lon="14.8093286"><ele>911.0</ele><time>2026-05-03T08:30:21.971Z</time></trkpt><trkpt lat="40.7218087" lon="14.8092465"><ele>911.0</ele><time>2026-05-03T08:30:24.969Z</time></trkpt><trkpt lat="40.7218368" lon="14.8093233"><ele>911.0</ele><time>2026-05-03T08:30:31.968Z</time></trkpt><trkpt lat="40.7217656" lon="14.8092625"><ele>911.0000000000001</ele><time>2026-05-03T08:30:39.967Z</time></trkpt><trkpt lat="40.7216811" lon="14.8092517"><ele>911.0</ele><time>2026-05-03T08:30:43.057Z</time></trkpt><trkpt lat="40.7215933" lon="14.8093215"><ele>911.0</ele><time>2026-05-03T08:30:45.966Z</time></trkpt><trkpt lat="40.7215424" lon="14.8093847"><ele>911.0</ele><time>2026-05-03T08:30:47.965Z</time></trkpt><trkpt lat="40.7215012" lon="14.8094591"><ele>911.0000000000001</ele><time>2026-05-03T08:30:50.973Z</time></trkpt><trkpt lat="40.7214591" lon="14.8093849"><ele>911.0</ele><time>2026-05-03T08:30:55.964Z</time></trkpt><trkpt lat="40.721404" lon="14.8093015"><ele>911.1666666666667</ele><time>2026-05-03T08:30:59.039Z</time></trkpt><trkpt lat="40.721356" lon="14.809221"><ele>911.3333333333334</ele><time>2026-05-03T08:31:00.97Z</time></trkpt><trkpt lat="40.7213403" lon="14.8091397"><ele>911.5</ele><time>2026-05-03T08:31:02.971Z</time></trkpt><trkpt lat="40.7213413" lon="14.809046"><ele>911.6666666666667</ele><time>2026-05-03T08:31:04.964Z</time></trkpt><trkpt lat="40.7213363" lon="14.8089408"><ele>911.8333333333334</ele><time>2026-05-03T08:31:07.964Z</time></trkpt><trkpt lat="40.7213161" lon="14.8088531"><ele>912.0</ele><time>2026-05-03T08:31:09.962Z</time></trkpt><trkpt lat="40.7212466" lon="14.8087562"><ele>912.0</ele><time>2026-05-03T08:31:14.025Z</time></trkpt><trkpt lat="40.7211443" lon="14.8087762"><ele>912.0</ele><time>2026-05-03T08:31:19.954Z</time></trkpt><trkpt lat="40.7211637" lon="14.8088864"><ele>912.0</ele><time>2026-05-03T08:31:26.965Z</time></trkpt><trkpt lat="40.7211947" lon="14.8089974"><ele>912.0</ele><time>2026-05-03T08:31:31.961Z</time></trkpt><trkpt lat="40.7211979" lon="14.8091065"><ele>912.0</ele><time>2026-05-03T08:31:35.964Z</time></trkpt><trkpt lat="40.7212295" lon="14.809191"><ele>912.0</ele><time>2026-05-03T08:31:39.035Z</time></trkpt><trkpt lat="40.7212587" lon="14.8092679"><ele>911.8333333333334</ele><time>2026-05-03T08:31:40.959Z</time></trkpt><trkpt lat="40.7212822" lon="14.8093571"><ele>911.6666666666667</ele><time>2026-05-03T08:31:43.964Z</time></trkpt><trkpt lat="40.7212971" lon="14.8094816"><ele>911.5</ele><time>2026-05-03T08:31:45.965Z</time></trkpt><trkpt lat="40.7213215" lon="14.8095837"><ele>911.3333333333334</ele><time>2026-05-03T08:31:47.964Z</time></trkpt><trkpt lat="40.721319" lon="14.8097148"><ele>911.1666666666667</ele><time>2026-05-03T08:31:49.971Z</time></trkpt><trkpt lat="40.721285" lon="14.809839"><ele>911.0</ele><time>2026-05-03T08:31:50.973Z</time></trkpt><trkpt lat="40.7212523" lon="14.809961"><ele>911.0</ele><time>2026-05-03T08:31:51.964Z</time></trkpt><trkpt lat="40.7212268" lon="14.8100931"><ele>911.0</ele><time>2026-05-03T08:31:52.966Z</time></trkpt><trkpt lat="40.7212201" lon="14.8102166"><ele>911.0</ele><time>2026-05-03T08:31:54.038Z</time></trkpt><trkpt lat="40.7212335" lon="14.8103913"><ele>911.0</ele><time>2026-05-03T08:31:55.963Z</time></trkpt><trkpt lat="40.7213178" lon="14.810519"><ele>910.3333333333334</ele><time>2026-05-03T08:31:57.958Z</time></trkpt><trkpt lat="40.7213767" lon="14.8105749"><ele>909.6666666666667</ele><time>2026-05-03T08:31:59.953Z</time></trkpt><trkpt lat="40.7214476" lon="14.8106129"><ele>909.0</ele><time>2026-05-03T08:32:03.959Z</time></trkpt><trkpt lat="40.7215317" lon="14.8106412"><ele>908.3333333333333</ele><time>2026-05-03T08:32:06.97Z</time></trkpt><trkpt lat="40.7216115" lon="14.8106672"><ele>907.6666666666666</ele><time>2026-05-03T08:32:08.959Z</time></trkpt><trkpt lat="40.7217108" lon="14.810765"><ele>907.0</ele><time>2026-05-03T08:32:10.969Z</time></trkpt><trkpt lat="40.7217558" lon="14.8108276"><ele>907.0000000000001</ele><time>2026-05-03T08:32:11.982Z</time></trkpt><trkpt lat="40.7218414" lon="14.8108553"><ele>907.0</ele><time>2026-05-03T08:32:14.024Z</time></trkpt><trkpt lat="40.7218694" lon="14.8107807"><ele>907.0000000000001</ele><time>2026-05-03T08:32:15.954Z</time></trkpt><trkpt lat="40.7218628" lon="14.8106898"><ele>907.0000000000001</ele><time>2026-05-03T08:32:16.965Z</time></trkpt><trkpt lat="40.7218429" lon="14.8106015"><ele>907.0</ele><time>2026-05-03T08:32:18.966Z</time></trkpt><trkpt lat="40.721899" lon="14.8105452"><ele>907.0000000000001</ele><time>2026-05-03T08:32:20.962Z</time></trkpt><trkpt lat="40.7219506" lon="14.8104699"><ele>907.0000000000001</ele><time>2026-05-03T08:32:22.976Z</time></trkpt><trkpt lat="40.7218788" lon="14.8105315"><ele>907.0</ele><time>2026-05-03T08:32:28.036Z</time></trkpt><trkpt lat="40.7218691" lon="14.8106727"><ele>907.0</ele><time>2026-05-03T08:32:29.967Z</time></trkpt><trkpt lat="40.7218995" lon="14.81081"><ele>907.0</ele><time>2026-05-03T08:32:30.962Z</time></trkpt><trkpt lat="40.7219327" lon="14.8109548"><ele>907.0</ele><time>2026-05-03T08:32:32.039Z</time></trkpt><trkpt lat="40.7219654" lon="14.8110756"><ele>907.0</ele><time>2026-05-03T08:32:33.032Z</time></trkpt><trkpt lat="40.7219849" lon="14.8111685"><ele>905.8333333333333</ele><time>2026-05-03T08:32:34.046Z</time></trkpt><trkpt lat="40.7220629" lon="14.811277"><ele>904.6666666666666</ele><time>2026-05-03T08:32:35.962Z</time></trkpt><trkpt lat="40.7221372" lon="14.8112151"><ele>903.5</ele><time>2026-05-03T08:32:57.045Z</time></trkpt><trkpt lat="40.7221213" lon="14.8111138"><ele>902.3333333333333</ele><time>2026-05-03T08:32:59.97Z</time></trkpt><trkpt lat="40.7221084" lon="14.8110247"><ele>901.1666666666666</ele><time>2026-05-03T08:33:01.973Z</time></trkpt><trkpt lat="40.7220722" lon="14.8109346"><ele>900.0</ele><time>2026-05-03T08:33:03.964Z</time></trkpt><trkpt lat="40.7220216" lon="14.8108637"><ele>901.1666666666666</ele><time>2026-05-03T08:38:58.959Z</time></trkpt><trkpt lat="40.7219687" lon="14.8108165"><ele>902.3333333333333</ele><time>2026-05-03T08:40:01.954Z</time></trkpt><trkpt lat="40.7219003" lon="14.8107846"><ele>903.5</ele><time>2026-05-03T08:43:12.028Z</time></trkpt><trkpt lat="40.7218487" lon="14.8106782"><ele>904.6666666666666</ele><time>2026-05-03T08:45:50.965Z</time></trkpt><trkpt lat="40.7218107" lon="14.8105678"><ele>905.8333333333333</ele><time>2026-05-03T08:45:52.965Z</time></trkpt><trkpt lat="40.7219042" lon="14.8105085"><ele>907.0</ele><time>2026-05-03T08:45:56.969Z</time></trkpt><trkpt lat="40.7219633" lon="14.8104497"><ele>907.0</ele><time>2026-05-03T08:45:58.963Z</time></trkpt><trkpt lat="40.7219262" lon="14.8105415"><ele>907.0</ele><time>2026-05-03T08:46:03.963Z</time></trkpt><trkpt lat="40.721876" lon="14.8106051"><ele>907.0</ele><time>2026-05-03T08:46:05.965Z</time></trkpt><trkpt lat="40.7219164" lon="14.8108049"><ele>907.0</ele><time>2026-05-03T08:46:07.961Z</time></trkpt><trkpt lat="40.7219505" lon="14.810946"><ele>907.0</ele><time>2026-05-03T08:46:08.96Z</time></trkpt><trkpt lat="40.721982" lon="14.8110349"><ele>905.8333333333333</ele><time>2026-05-03T08:46:09.951Z</time></trkpt><trkpt lat="40.7220022" lon="14.8111156"><ele>904.6666666666666</ele><time>2026-05-03T08:46:10.955Z</time></trkpt><trkpt lat="40.7220217" lon="14.8112169"><ele>903.5</ele><time>2026-05-03T08:46:12.95Z</time></trkpt><trkpt lat="40.7220873" lon="14.811208"><ele>902.3333333333333</ele><time>2026-05-03T08:46:22.963Z</time></trkpt><trkpt lat="40.722033" lon="14.8110695"><ele>901.1666666666666</ele><time>2026-05-03T08:46:26.961Z</time></trkpt><trkpt lat="40.7219625" lon="14.8109734"><ele>900.0</ele><time>2026-05-03T08:46:28.961Z</time></trkpt><trkpt lat="40.721953" lon="14.8108729"><ele>902.7142857142858</ele><time>2026-05-03T08:46:30.962Z</time></trkpt><trkpt lat="40.7219794" lon="14.8107674"><ele>905.4285714285714</ele><time>2026-05-03T08:46:32.963Z</time></trkpt><trkpt lat="40.7220112" lon="14.8106574"><ele>908.1428571428571</ele><time>2026-05-03T08:46:34.961Z</time></trkpt><trkpt lat="40.7220371" lon="14.8105678"><ele>910.8571428571429</ele><time>2026-05-03T08:46:37.965Z</time></trkpt><trkpt lat="40.7220469" lon="14.8104795"><ele>913.5714285714284</ele><time>2026-05-03T08:46:42.041Z</time></trkpt><trkpt lat="40.7220265" lon="14.8103989"><ele>916.2857142857142</ele><time>2026-05-03T08:46:51.962Z</time></trkpt><trkpt lat="40.7220161" lon="14.8103098"><ele>919.0</ele><time>2026-05-03T08:46:54.961Z</time></trkpt><trkpt lat="40.7220051" lon="14.8102144"><ele>917.6666666666666</ele><time>2026-05-03T08:46:56.991Z</time></trkpt><trkpt lat="40.7219842" lon="14.8101222"><ele>916.3333333333333</ele><time>2026-05-03T08:46:58.994Z</time></trkpt><trkpt lat="40.7219684" lon="14.810041"><ele>915.0</ele><time>2026-05-03T08:47:00.966Z</time></trkpt><trkpt lat="40.7219496" lon="14.8099438"><ele>913.6666666666667</ele><time>2026-05-03T08:47:04.027Z</time></trkpt><trkpt lat="40.7219052" lon="14.8098514"><ele>912.3333333333334</ele><time>2026-05-03T08:47:06.975Z</time></trkpt><trkpt lat="40.7218905" lon="14.8097635"><ele>911.0</ele><time>2026-05-03T08:47:08.966Z</time></trkpt><trkpt lat="40.7218742" lon="14.8096002"><ele>911.0</ele><time>2026-05-03T08:47:10.961Z</time></trkpt><trkpt lat="40.7218917" lon="14.8094598"><ele>910.9999999999999</ele><time>2026-05-03T08:47:12.037Z</time></trkpt><trkpt lat="40.7219158" lon="14.8093274"><ele>910.9999999999999</ele><time>2026-05-03T08:47:13.039Z</time></trkpt><trkpt lat="40.721963" lon="14.8092127"><ele>911.0</ele><time>2026-05-03T08:47:13.967Z</time></trkpt><trkpt lat="40.7219782" lon="14.8091129"><ele>911.0</ele><time>2026-05-03T08:47:15.968Z</time></trkpt><trkpt lat="40.72205" lon="14.8090044"><ele>911.1666666666667</ele><time>2026-05-03T08:47:30.959Z</time></trkpt><trkpt lat="40.7219904" lon="14.8089621"><ele>911.3333333333334</ele><time>2026-05-03T08:47:34.956Z</time></trkpt><trkpt lat="40.7219259" lon="14.8090272"><ele>911.5</ele><time>2026-05-03T08:47:39.962Z</time></trkpt><trkpt lat="40.7218951" lon="14.8091027"><ele>911.6666666666667</ele><time>2026-05-03T08:47:41.958Z</time></trkpt><trkpt lat="40.7219112" lon="14.8092073"><ele>911.8333333333334</ele><time>2026-05-03T08:47:44.982Z</time></trkpt><trkpt lat="40.7218671" lon="14.8092837"><ele>912.0</ele><time>2026-05-03T08:47:48.959Z</time></trkpt><trkpt lat="40.7217833" lon="14.8092992"><ele>912.0</ele><time>2026-05-03T08:47:51.957Z</time></trkpt><trkpt lat="40.7217179" lon="14.8092204"><ele>912.0</ele><time>2026-05-03T08:47:55.963Z</time></trkpt><trkpt lat="40.7216744" lon="14.8092975"><ele>912.0</ele><time>2026-05-03T08:47:59.96Z</time></trkpt><trkpt lat="40.721635" lon="14.8093904"><ele>912.0</ele><time>2026-05-03T08:48:02.036Z</time></trkpt><trkpt lat="40.7215816" lon="14.809452"><ele>912.0</ele><time>2026-05-03T08:48:03.96Z</time></trkpt><trkpt lat="40.7214955" lon="14.8094262"><ele>912.0</ele><time>2026-05-03T08:48:06.959Z</time></trkpt><trkpt lat="40.7214294" lon="14.8093614"><ele>912.0</ele><time>2026-05-03T08:48:08.958Z</time></trkpt><trkpt lat="40.7213653" lon="14.8092883"><ele>912.0</ele><time>2026-05-03T08:48:10.963Z</time></trkpt><trkpt lat="40.7213265" lon="14.8091811"><ele>912.0</ele><time>2026-05-03T08:48:12.961Z</time></trkpt><trkpt lat="40.7213243" lon="14.80909"><ele>912.0</ele><time>2026-05-03T08:48:14.973Z</time></trkpt><trkpt lat="40.721308" lon="14.8090088"><ele>912.0</ele><time>2026-05-03T08:48:16.968Z</time></trkpt><trkpt lat="40.7212634" lon="14.8089266"><ele>912.0</ele><time>2026-05-03T08:48:19.96Z</time></trkpt><trkpt lat="40.7212142" lon="14.8088247"><ele>912.0</ele><time>2026-05-03T08:48:22.009Z</time></trkpt><trkpt lat="40.7211304" lon="14.8087764"><ele>912.0</ele><time>2026-05-03T08:48:29.956Z</time></trkpt><trkpt lat="40.7211561" lon="14.8089164"><ele>912.0</ele><time>2026-05-03T08:48:36.958Z</time></trkpt><trkpt lat="40.7211949" lon="14.8090305"><ele>912.0</ele><time>2026-05-03T08:48:39.961Z</time></trkpt><trkpt lat="40.7212297" lon="14.8091244"><ele>912.0</ele><time>2026-05-03T08:48:41.962Z</time></trkpt><trkpt lat="40.7212622" lon="14.8092231"><ele>911.8</ele><time>2026-05-03T08:48:43.962Z</time></trkpt><trkpt lat="40.7212802" lon="14.8093408"><ele>911.6</ele><time>2026-05-03T08:48:45.959Z</time></trkpt><trkpt lat="40.7212908" lon="14.809477"><ele>911.3999999999999</ele><time>2026-05-03T08:48:48.016Z</time></trkpt><trkpt lat="40.7213296" lon="14.80964"><ele>911.1999999999999</ele><time>2026-05-03T08:48:49.96Z</time></trkpt><trkpt lat="40.7213342" lon="14.8097296"><ele>911.0</ele><time>2026-05-03T08:48:50.965Z</time></trkpt><trkpt lat="40.7213348" lon="14.8098285"><ele>911.0</ele><time>2026-05-03T08:48:51.963Z</time></trkpt><trkpt lat="40.7213256" lon="14.8099493"><ele>910.9999999999999</ele><time>2026-05-03T08:48:52.963Z</time></trkpt><trkpt lat="40.7212927" lon="14.8100811"><ele>910.9999999999999</ele><time>2026-05-03T08:48:53.96Z</time></trkpt><trkpt lat="40.7212613" lon="14.8102254"><ele>911.0</ele><time>2026-05-03T08:48:54.963Z</time></trkpt><trkpt lat="40.7212523" lon="14.8103343"><ele>911.0</ele><time>2026-05-03T08:48:55.957Z</time></trkpt><trkpt lat="40.7212562" lon="14.8104217"><ele>910.3333333333334</ele><time>2026-05-03T08:48:56.959Z</time></trkpt><trkpt lat="40.72129" lon="14.810545"><ele>909.6666666666667</ele><time>2026-05-03T08:48:58.957Z</time></trkpt><trkpt lat="40.7213598" lon="14.8106187"><ele>909.0</ele><time>2026-05-03T08:49:00.959Z</time></trkpt><trkpt lat="40.7214338" lon="14.8105795"><ele>908.3333333333333</ele><time>2026-05-03T08:49:03.959Z</time></trkpt><trkpt lat="40.7215058" lon="14.8105597"><ele>907.6666666666666</ele><time>2026-05-03T08:49:07.037Z</time></trkpt><trkpt lat="40.721595" lon="14.8106167"><ele>907.0</ele><time>2026-05-03T08:49:09.963Z</time></trkpt><trkpt lat="40.7217216" lon="14.8107032"><ele>907.0</ele><time>2026-05-03T08:49:11.968Z</time></trkpt><trkpt lat="40.7217756" lon="14.8107845"><ele>907.0</ele><time>2026-05-03T08:49:12.968Z</time></trkpt><trkpt lat="40.7218384" lon="14.8108941"><ele>907.0</ele><time>2026-05-03T08:49:14.97Z</time></trkpt><trkpt lat="40.7219189" lon="14.8108482"><ele>907.0</ele><time>2026-05-03T08:49:17.966Z</time></trkpt><trkpt lat="40.7218905" lon="14.8107264"><ele>907.0</ele><time>2026-05-03T08:49:18.992Z</time></trkpt><trkpt lat="40.7218303" lon="14.8106299"><ele>906.9999999999999</ele><time>2026-05-03T08:49:19.97Z</time></trkpt><trkpt lat="40.7218099" lon="14.8105497"><ele>907.0</ele><time>2026-05-03T08:49:21.969Z</time></trkpt><trkpt lat="40.7218941" lon="14.8104631"><ele>907.0</ele><time>2026-05-03T08:49:23.971Z</time></trkpt><trkpt lat="40.721942" lon="14.8103862"><ele>907.0</ele><time>2026-05-03T08:49:25.971Z</time></trkpt><trkpt lat="40.7219131" lon="14.8105063"><ele>906.9999999999999</ele><time>2026-05-03T08:49:28.969Z</time></trkpt><trkpt lat="40.7218778" lon="14.8106196"><ele>907.0</ele><time>2026-05-03T08:49:30.975Z</time></trkpt><trkpt lat="40.7218987" lon="14.8107549"><ele>905.6</ele><time>2026-05-03T08:49:31.968Z</time></trkpt><trkpt lat="40.7219505" lon="14.8109129"><ele>904.2</ele><time>2026-05-03T08:49:32.966Z</time></trkpt><trkpt lat="40.7219869" lon="14.811055"><ele>902.8</ele><time>2026-05-03T08:49:33.962Z</time></trkpt><trkpt lat="40.7220231" lon="14.8111973"><ele>901.4</ele><time>2026-05-03T08:49:35.968Z</time></trkpt><trkpt lat="40.7220766" lon="14.8112941"><ele>900.0</ele><time>2026-05-03T08:49:37.965Z</time></trkpt><trkpt lat="40.7221216" lon="14.8112317"><ele>900.0</ele><time>2026-05-03T08:49:46.969Z</time></trkpt><trkpt lat="40.7220529" lon="14.8111515"><ele>900.0</ele><time>2026-05-03T08:49:49.973Z</time></trkpt><trkpt lat="40.7220066" lon="14.8110708"><ele>900.0</ele><time>2026-05-03T08:49:50.968Z</time></trkpt><trkpt lat="40.7219754" lon="14.8109385"><ele>900.0</ele><time>2026-05-03T08:49:52.964Z</time></trkpt><trkpt lat="40.7219709" lon="14.8108353"><ele>900.0</ele><time>2026-05-03T08:49:54.967Z</time></trkpt><trkpt lat="40.7219869" lon="14.8107513"><ele>900.0</ele><time>2026-05-03T08:49:57.957Z</time></trkpt><trkpt lat="40.7219821" lon="14.8106159"><ele>903.1666666666666</ele><time>2026-05-03T08:50:00.971Z</time></trkpt><trkpt lat="40.7219626" lon="14.810505"><ele>906.3333333333333</ele><time>2026-05-03T08:50:02.974Z</time></trkpt><trkpt lat="40.7219777" lon="14.8103763"><ele>909.5</ele><time>2026-05-03T08:50:04.972Z</time></trkpt><trkpt lat="40.7219855" lon="14.8102597"><ele>912.6666666666666</ele><time>2026-05-03T08:50:06.974Z</time></trkpt><trkpt lat="40.7219553" lon="14.8101588"><ele>915.8333333333333</ele><time>2026-05-03T08:50:09.965Z</time></trkpt><trkpt lat="40.7219286" lon="14.8100466"><ele>919.0</ele><time>2026-05-03T08:50:13.957Z</time></trkpt><trkpt lat="40.7219088" lon="14.8099526"><ele>920.9999999999999</ele><time>2026-05-03T08:50:15.954Z</time></trkpt><trkpt lat="40.7219095" lon="14.809843"><ele>923.0</ele><time>2026-05-03T08:50:17.963Z</time></trkpt><trkpt lat="40.7219298" lon="14.8097546"><ele>925.0</ele><time>2026-05-03T08:50:18.969Z</time></trkpt><trkpt lat="40.7219529" lon="14.8096368"><ele>927.0</ele><time>2026-05-03T08:50:19.974Z</time></trkpt><trkpt lat="40.7219785" lon="14.8095122"><ele>928.9999999999999</ele><time>2026-05-03T08:50:20.968Z</time></trkpt><trkpt lat="40.721989" lon="14.8094025"><ele>931.0</ele><time>2026-05-03T08:50:21.966Z</time></trkpt><trkpt lat="40.7220141" lon="14.8092639"><ele>932.1428571428571</ele><time>2026-05-03T08:50:23.964Z</time></trkpt><trkpt lat="40.7220095" lon="14.8091579"><ele>933.2857142857142</ele><time>2026-05-03T08:50:25.96Z</time></trkpt><trkpt lat="40.7219616" lon="14.8090718"><ele>934.4285714285714</ele><time>2026-05-03T08:50:28.964Z</time></trkpt><trkpt lat="40.7218968" lon="14.8091027"><ele>935.5714285714286</ele><time>2026-05-03T08:50:34.971Z</time></trkpt><trkpt lat="40.7219108" lon="14.8091932"><ele>936.7142857142857</ele><time>2026-05-03T08:50:37.967Z</time></trkpt><trkpt lat="40.7218817" lon="14.8092764"><ele>937.8571428571429</ele><time>2026-05-03T08:50:40.975Z</time></trkpt><trkpt lat="40.7218171" lon="14.8093007"><ele>939.0</ele><time>2026-05-03T08:50:43.972Z</time></trkpt><trkpt lat="40.7217635" lon="14.8092229"><ele>934.5</ele><time>2026-05-03T08:50:46.982Z</time></trkpt><trkpt lat="40.7216916" lon="14.8092106"><ele>930.0</ele><time>2026-05-03T08:50:50.975Z</time></trkpt><trkpt lat="40.7216429" lon="14.8092862"><ele>925.5</ele><time>2026-05-03T08:50:53.969Z</time></trkpt><trkpt lat="40.7215913" lon="14.8093512"><ele>921.0</ele><time>2026-05-03T08:50:56.031Z</time></trkpt><trkpt lat="40.7215125" lon="14.8093567"><ele>916.5</ele><time>2026-05-03T08:50:58.957Z</time></trkpt><trkpt lat="40.7214401" lon="14.809271"><ele>912.0</ele><time>2026-05-03T08:51:00.964Z</time></trkpt><trkpt lat="40.7213699" lon="14.8091831"><ele>912.0</ele><time>2026-05-03T08:51:02.968Z</time></trkpt><trkpt lat="40.7213274" lon="14.8090372"><ele>912.0</ele><time>2026-05-03T08:51:04.971Z</time></trkpt><trkpt lat="40.721314" lon="14.8089273"><ele>912.0</ele><time>2026-05-03T08:51:07.03Z</time></trkpt><trkpt lat="40.7212904" lon="14.8088268"><ele>912.0</ele><time>2026-05-03T08:51:09.966Z</time></trkpt><trkpt lat="40.7212209" lon="14.8087366"><ele>912.0</ele><time>2026-05-03T08:51:12.977Z</time></trkpt><trkpt lat="40.7211641" lon="14.8086766"><ele>912.0</ele><time>2026-05-03T08:51:15.95Z</time></trkpt><trkpt lat="40.7210927" lon="14.808723"><ele>912.0</ele><time>2026-05-03T08:51:18.955Z</time></trkpt><trkpt lat="40.7211423" lon="14.8087838"><ele>912.0</ele><time>2026-05-03T08:51:21.954Z</time></trkpt><trkpt lat="40.721154" lon="14.8088995"><ele>912.0</ele><time>2026-05-03T08:51:24.953Z</time></trkpt><trkpt lat="40.7211873" lon="14.8090016"><ele>912.0</ele><time>2026-05-03T08:51:27.958Z</time></trkpt><trkpt lat="40.7212075" lon="14.8091188"><ele>912.0</ele><time>2026-05-03T08:51:29.952Z</time></trkpt><trkpt lat="40.7212335" lon="14.8092224"><ele>911.8333333333334</ele><time>2026-05-03T08:51:32.025Z</time></trkpt><trkpt lat="40.7212834" lon="14.8093318"><ele>911.6666666666667</ele><time>2026-05-03T08:51:33.952Z</time></trkpt><trkpt lat="40.7213424" lon="14.8094471"><ele>911.5</ele><time>2026-05-03T08:51:35.959Z</time></trkpt><trkpt lat="40.7213649" lon="14.8095289"><ele>911.3333333333334</ele><time>2026-05-03T08:51:36.961Z</time></trkpt><trkpt lat="40.7213754" lon="14.809623"><ele>911.1666666666667</ele><time>2026-05-03T08:51:37.958Z</time></trkpt><trkpt lat="40.7213971" lon="14.8097539"><ele>911.0</ele><time>2026-05-03T08:51:39.045Z</time></trkpt><trkpt lat="40.7214259" lon="14.8098959"><ele>911.0</ele><time>2026-05-03T08:51:39.961Z</time></trkpt><trkpt lat="40.7214238" lon="14.8100146"><ele>910.9999999999999</ele><time>2026-05-03T08:51:40.965Z</time></trkpt><trkpt lat="40.7213932" lon="14.810138"><ele>910.9999999999999</ele><time>2026-05-03T08:51:41.964Z</time></trkpt><trkpt lat="40.7213548" lon="14.8102955"><ele>911.0</ele><time>2026-05-03T08:51:42.96Z</time></trkpt><trkpt lat="40.7213143" lon="14.8104505"><ele>911.0</ele><time>2026-05-03T08:51:43.956Z</time></trkpt><trkpt lat="40.7212968" lon="14.810579"><ele>911.1666666666667</ele><time>2026-05-03T08:51:44.96Z</time></trkpt><trkpt lat="40.7212704" lon="14.8106593"><ele>911.3333333333334</ele><time>2026-05-03T08:51:45.966Z</time></trkpt><trkpt lat="40.7213303" lon="14.8107204"><ele>911.5</ele><time>2026-05-03T08:51:47.957Z</time></trkpt><trkpt lat="40.7214167" lon="14.8107078"><ele>911.6666666666667</ele><time>2026-05-03T08:51:49.954Z</time></trkpt><trkpt lat="40.7214654" lon="14.8106215"><ele>911.8333333333334</ele><time>2026-05-03T08:51:51.964Z</time></trkpt><trkpt lat="40.7215222" lon="14.81058"><ele>912.0</ele><time>2026-05-03T08:51:54.962Z</time></trkpt><trkpt lat="40.721154" lon="14.8088995"><ele>912.0</ele><time>2026-05-03T08:51:24.953Z</time></trkpt><trkpt lat="40.7211873" lon="14.8090016"><ele>912.0</ele><time>2026-05-03T08:51:27.958Z</time></trkpt><trkpt lat="40.7212075" lon="14.8091188"><ele>912.0</ele><time>2026-05-03T08:51:29.952Z</time></trkpt><trkpt lat="40.7212335" lon="14.8092224"><ele>912.0</ele><time>2026-05-03T08:51:32.025Z</time></trkpt><trkpt lat="40.7212834" lon="14.8093318"><ele>912.0</ele><time>2026-05-03T08:51:33.952Z</time></trkpt><trkpt lat="40.7213424" lon="14.8094471"><ele>911.8333333333334</ele><time>2026-05-03T08:51:35.959Z</time></trkpt><trkpt lat="40.7213649" lon="14.8095289"><ele>911.6666666666667</ele><time>2026-05-03T08:51:36.961Z</time></trkpt><trkpt lat="40.7213754" lon="14.809623"><ele>911.5</ele><time>2026-05-03T08:51:37.958Z</time></trkpt><trkpt lat="40.7213971" lon="14.8097539"><ele>911.3333333333334</ele><time>2026-05-03T08:51:39.045Z</time></trkpt><trkpt lat="40.7214259" lon="14.8098959"><ele>911.1666666666667</ele><time>2026-05-03T08:51:39.961Z</time></trkpt><trkpt lat="40.7214238" lon="14.8100146"><ele>911.0</ele><time>2026-05-03T08:51:40.965Z</time></trkpt><trkpt lat="40.7213932" lon="14.810138"><ele>910.1999999999999</ele><time>2026-05-03T08:51:41.964Z</time></trkpt><trkpt lat="40.7213548" lon="14.8102955"><ele>909.3999999999999</ele><time>2026-05-03T08:51:42.96Z</time></trkpt><trkpt lat="40.7213143" lon="14.8104505"><ele>908.6</ele><time>2026-05-03T08:51:43.956Z</time></trkpt><trkpt lat="40.7212968" lon="14.810579"><ele>907.8</ele><time>2026-05-03T08:51:44.96Z</time></trkpt><trkpt lat="40.7212704" lon="14.8106593"><ele>907.0</ele><time>2026-05-03T08:51:45.966Z</time></trkpt><trkpt lat="40.7213303" lon="14.8107204"><ele>906.9999999999999</ele><time>2026-05-03T08:51:47.957Z</time></trkpt><trkpt lat="40.7214167" lon="14.8107078"><ele>907.0</ele><time>2026-05-03T08:51:49.954Z</time></trkpt><trkpt lat="40.7214654" lon="14.8106215"><ele>907.0</ele><time>2026-05-03T08:51:51.964Z</time></trkpt><trkpt lat="40.7215222" lon="14.81058"><ele>907.0</ele><time>2026-05-03T08:51:54.962Z</time></trkpt><trkpt lat="40.7216084" lon="14.8105976"><ele>906.9999999999999</ele><time>2026-05-03T08:51:58.03Z</time></trkpt><trkpt lat="40.7216871" lon="14.810651"><ele>907.0</ele><time>2026-05-03T08:51:59.953Z</time></trkpt><trkpt lat="40.7217327" lon="14.8107253"><ele>907.0</ele><time>2026-05-03T08:52:00.952Z</time></trkpt><trkpt lat="40.7218038" lon="14.8108813"><ele>907.0</ele><time>2026-05-03T08:52:02.968Z</time></trkpt><trkpt lat="40.7218702" lon="14.8109053"><ele>907.0</ele><time>2026-05-03T08:52:04.961Z</time></trkpt><trkpt lat="40.7218497" lon="14.8107815"><ele>907.0</ele><time>2026-05-03T08:52:07.027Z</time></trkpt><trkpt lat="40.7218321" lon="14.8106956"><ele>907.0</ele><time>2026-05-03T08:52:07.958Z</time></trkpt><trkpt lat="40.7218623" lon="14.8105716"><ele>907.0</ele><time>2026-05-03T08:52:09.964Z</time></trkpt><trkpt lat="40.7219309" lon="14.8105067"><ele>907.0</ele><time>2026-05-03T08:52:10.959Z</time></trkpt><trkpt lat="40.7219731" lon="14.8104417"><ele>907.0</ele><time>2026-05-03T08:52:13.959Z</time></trkpt><trkpt lat="40.7219282" lon="14.8105235"><ele>907.0</ele><time>2026-05-03T08:52:17.023Z</time></trkpt><trkpt lat="40.721871" lon="14.8105734"><ele>907.0</ele><time>2026-05-03T08:52:18.974Z</time></trkpt><trkpt lat="40.7219334" lon="14.8107699"><ele>905.6</ele><time>2026-05-03T08:52:20.96Z</time></trkpt><trkpt lat="40.7219891" lon="14.810903"><ele>904.2</ele><time>2026-05-03T08:52:21.954Z</time></trkpt><trkpt lat="40.7220306" lon="14.8110306"><ele>902.8</ele><time>2026-05-03T08:52:22.961Z</time></trkpt><trkpt lat="40.7220488" lon="14.811132"><ele>901.4</ele><time>2026-05-03T08:52:23.957Z</time></trkpt><trkpt lat="40.722067" lon="14.8112395"><ele>900.0</ele><time>2026-05-03T08:52:25.96Z</time></trkpt><trkpt lat="40.7220332" lon="14.8111249"><ele>900.0</ele><time>2026-05-03T08:52:37.958Z</time></trkpt><trkpt lat="40.7219672" lon="14.8110131"><ele>900.0</ele><time>2026-05-03T08:52:39.957Z</time></trkpt><trkpt lat="40.7219438" lon="14.8108901"><ele>900.0</ele><time>2026-05-03T08:52:41.96Z</time></trkpt><trkpt lat="40.721967" lon="14.8107493"><ele>900.0</ele><time>2026-05-03T08:52:44.033Z</time></trkpt><trkpt lat="40.7219688" lon="14.8106527"><ele>900.0</ele><time>2026-05-03T08:52:45.98Z</time></trkpt><trkpt lat="40.7219628" lon="14.8105065"><ele>903.8</ele><time>2026-05-03T08:52:47.973Z</time></trkpt><trkpt lat="40.7219885" lon="14.810362"><ele>907.6</ele><time>2026-05-03T08:52:49.966Z</time></trkpt><trkpt lat="40.7220173" lon="14.8102793"><ele>911.4000000000001</ele><time>2026-05-03T08:52:50.971Z</time></trkpt><trkpt lat="40.7220287" lon="14.8101541"><ele>915.2</ele><time>2026-05-03T08:52:52.97Z</time></trkpt><trkpt lat="40.7220028" lon="14.8100588"><ele>919.0</ele><time>2026-05-03T08:52:54.969Z</time></trkpt><trkpt lat="40.7219654" lon="14.8099302"><ele>922.0</ele><time>2026-05-03T08:52:57.966Z</time></trkpt><trkpt lat="40.7219267" lon="14.8098346"><ele>925.0</ele><time>2026-05-03T08:52:59.967Z</time></trkpt><trkpt lat="40.7219331" lon="14.809624"><ele>928.0</ele><time>2026-05-03T08:53:01.968Z</time></trkpt><trkpt lat="40.7219575" lon="14.8094561"><ele>931.0</ele><time>2026-05-03T08:53:02.965Z</time></trkpt><trkpt lat="40.7219818" lon="14.8092707"><ele>932.3333333333333</ele><time>2026-05-03T08:53:03.965Z</time></trkpt><trkpt lat="40.7220174" lon="14.8091205"><ele>933.6666666666666</ele><time>2026-05-03T08:53:04.967Z</time></trkpt><trkpt lat="40.7220471" lon="14.8090217"><ele>935.0</ele><time>2026-05-03T08:53:05.968Z</time></trkpt><trkpt lat="40.7220679" lon="14.8089279"><ele>936.3333333333333</ele><time>2026-05-03T08:53:08.967Z</time></trkpt><trkpt lat="40.7219944" lon="14.8089415"><ele>937.6666666666666</ele><time>2026-05-03T08:53:12.965Z</time></trkpt><trkpt lat="40.7219367" lon="14.8090083"><ele>939.0</ele><time>2026-05-03T08:53:14.968Z</time></trkpt><trkpt lat="40.7219068" lon="14.8090865"><ele>935.1428571428571</ele><time>2026-05-03T08:53:16.968Z</time></trkpt><trkpt lat="40.7218945" lon="14.8091765"><ele>931.2857142857142</ele><time>2026-05-03T08:53:18.974Z</time></trkpt><trkpt lat="40.7218769" lon="14.8092629"><ele>927.4285714285713</ele><time>2026-05-03T08:53:20.969Z</time></trkpt><trkpt lat="40.7218345" lon="14.8093249"><ele>923.5714285714286</ele><time>2026-05-03T08:53:23.05Z</time></trkpt><trkpt lat="40.7217693" lon="14.8093275"><ele>919.7142857142856</ele><time>2026-05-03T08:53:24.967Z</time></trkpt><trkpt lat="40.7217213" lon="14.809267"><ele>915.8571428571428</ele><time>2026-05-03T08:53:26.971Z</time></trkpt><trkpt lat="40.721665" lon="14.8092094"><ele>912.0</ele><time>2026-05-03T08:53:30.97Z</time></trkpt><trkpt lat="40.7216225" lon="14.8092738"><ele>912.0</ele><time>2026-05-03T08:53:32.965Z</time></trkpt><trkpt lat="40.7215708" lon="14.8093644"><ele>912.0</ele><time>2026-05-03T08:53:34.972Z</time></trkpt><trkpt lat="40.7215111" lon="14.8094028"><ele>912.0</ele><time>2026-05-03T08:53:36.97Z</time></trkpt><trkpt lat="40.7214434" lon="14.8093792"><ele>912.0</ele><time>2026-05-03T08:53:38.97Z</time></trkpt><trkpt lat="40.7213843" lon="14.809326"><ele>912.0</ele><time>2026-05-03T08:53:40.968Z</time></trkpt><trkpt lat="40.7213501" lon="14.8092474"><ele>912.0</ele><time>2026-05-03T08:53:42.967Z</time></trkpt><trkpt lat="40.7213081" lon="14.8091205"><ele>912.0</ele><time>2026-05-03T08:53:44.976Z</time></trkpt><trkpt lat="40.7212827" lon="14.809004"><ele>911.9999999999999</ele><time>2026-05-03T08:53:46.966Z</time></trkpt><trkpt lat="40.7212541" lon="14.8089236"><ele>912.0</ele><time>2026-05-03T08:53:48.97Z</time></trkpt><trkpt lat="40.7212212" lon="14.8088419"><ele>912.0</ele><time>2026-05-03T08:53:50.968Z</time></trkpt><trkpt lat="40.7211792" lon="14.8087786"><ele>911.9999999999999</ele><time>2026-05-03T08:53:53.963Z</time></trkpt><trkpt lat="40.7211164" lon="14.8087487"><ele>912.0</ele><time>2026-05-03T08:53:56.964Z</time></trkpt><trkpt lat="40.7211456" lon="14.8088392"><ele>912.0</ele><time>2026-05-03T08:54:02.957Z</time></trkpt><trkpt lat="40.7211854" lon="14.8089445"><ele>912.0</ele><time>2026-05-03T08:54:05.962Z</time></trkpt><trkpt lat="40.72122" lon="14.8090324"><ele>912.0</ele><time>2026-05-03T08:54:08.027Z</time></trkpt><trkpt lat="40.7212526" lon="14.8091334"><ele>912.0</ele><time>2026-05-03T08:54:09.958Z</time></trkpt><trkpt lat="40.7212921" lon="14.8092224"><ele>912.0</ele><time>2026-05-03T08:54:11.956Z</time></trkpt><trkpt lat="40.7213227" lon="14.809345"><ele>912.0</ele><time>2026-05-03T08:54:13.962Z</time></trkpt><trkpt lat="40.7213536" lon="14.8094402"><ele>912.0</ele><time>2026-05-03T08:54:14.961Z</time></trkpt><trkpt lat="40.721394" lon="14.8095321"><ele>911.75</ele><time>2026-05-03T08:54:16.03Z</time></trkpt><trkpt lat="40.7214064" lon="14.8096428"><ele>911.5</ele><time>2026-05-03T08:54:16.96Z</time></trkpt><trkpt lat="40.7214074" lon="14.8097649"><ele>911.25</ele><time>2026-05-03T08:54:17.962Z</time></trkpt><trkpt lat="40.7213836" lon="14.8099263"><ele>911.0</ele><time>2026-05-03T08:54:18.955Z</time></trkpt><trkpt lat="40.7213442" lon="14.8101299"><ele>910.1999999999999</ele><time>2026-05-03T08:54:19.957Z</time></trkpt><trkpt lat="40.7213078" lon="14.8103037"><ele>909.3999999999999</ele><time>2026-05-03T08:54:20.955Z</time></trkpt><trkpt lat="40.7212855" lon="14.8104212"><ele>908.6</ele><time>2026-05-03T08:54:21.955Z</time></trkpt><trkpt lat="40.7213173" lon="14.8105527"><ele>907.8</ele><time>2026-05-03T08:54:23.956Z</time></trkpt><trkpt lat="40.7213834" lon="14.8106122"><ele>907.0</ele><time>2026-05-03T08:54:25.959Z</time></trkpt><trkpt lat="40.7214497" lon="14.8105639"><ele>907.0</ele><time>2026-05-03T08:54:28.954Z</time></trkpt><trkpt lat="40.7215369" lon="14.8105592"><ele>907.0</ele><time>2026-05-03T08:54:32.956Z</time></trkpt><trkpt lat="40.7216025" lon="14.8106139"><ele>907.0</ele><time>2026-05-03T08:54:34.953Z</time></trkpt><trkpt lat="40.7216934" lon="14.8107095"><ele>907.0</ele><time>2026-05-03T08:54:37.02Z</time></trkpt><trkpt lat="40.7217475" lon="14.810782"><ele>907.0</ele><time>2026-05-03T08:54:38.021Z</time></trkpt><trkpt lat="40.721813" lon="14.8108761"><ele>906.9999999999999</ele><time>2026-05-03T08:54:39.943Z</time></trkpt><trkpt lat="40.7218244" lon="14.8107858"><ele>907.0</ele><time>2026-05-03T08:54:41.962Z</time></trkpt><trkpt lat="40.7217731" lon="14.8106836"><ele>907.0</ele><time>2026-05-03T08:54:42.953Z</time></trkpt><trkpt lat="40.7217766" lon="14.8105843"><ele>907.0</ele><time>2026-05-03T08:54:44.969Z</time></trkpt><trkpt lat="40.7218729" lon="14.810497"><ele>906.9999999999999</ele><time>2026-05-03T08:54:46.974Z</time></trkpt><trkpt lat="40.7219309" lon="14.8104412"><ele>907.0</ele><time>2026-05-03T08:54:49.032Z</time></trkpt><trkpt lat="40.7219486" lon="14.8105308"><ele>907.0</ele><time>2026-05-03T08:54:50.962Z</time></trkpt><trkpt lat="40.7218773" lon="14.8105875"><ele>907.0</ele><time>2026-05-03T08:54:52.962Z</time></trkpt><trkpt lat="40.721907" lon="14.8107631"><ele>907.0</ele><time>2026-05-03T08:54:54.963Z</time></trkpt><trkpt lat="40.721962" lon="14.8109304"><ele>907.0</ele><time>2026-05-03T08:54:56.036Z</time></trkpt><trkpt lat="40.7220119" lon="14.8110564"><ele>905.8333333333333</ele><time>2026-05-03T08:54:57.021Z</time></trkpt><trkpt lat="40.7220499" lon="14.8111937"><ele>904.6666666666666</ele><time>2026-05-03T08:54:58.961Z</time></trkpt><trkpt lat="40.7220934" lon="14.8112601"><ele>903.5</ele><time>2026-05-03T08:55:00.964Z</time></trkpt><trkpt lat="40.7220891" lon="14.8111663"><ele>902.3333333333333</ele><time>2026-05-03T08:55:03.959Z</time></trkpt><trkpt lat="40.7220364" lon="14.8110515"><ele>901.1666666666666</ele><time>2026-05-03T08:55:05.957Z</time></trkpt><trkpt lat="40.7220029" lon="14.8109757"><ele>900.0</ele><time>2026-05-03T08:55:06.987Z</time></trkpt><trkpt lat="40.7219707" lon="14.8109035"><ele>901.4</ele><time>2026-05-03T08:55:07.956Z</time></trkpt><trkpt lat="40.7219075" lon="14.8107606"><ele>902.8</ele><time>2026-05-03T08:55:09.958Z</time></trkpt><trkpt lat="40.7218546" lon="14.8106447"><ele>904.2</ele><time>2026-05-03T08:55:11.955Z</time></trkpt><trkpt lat="40.7218145" lon="14.8105607"><ele>905.6</ele><time>2026-05-03T08:55:14.046Z</time></trkpt><trkpt lat="40.7217863" lon="14.8104672"><ele>907.0</ele><time>2026-05-03T08:57:09.954Z</time></trkpt><trkpt lat="40.7217235" lon="14.8103828"><ele>906.9999999999999</ele><time>2026-05-03T08:57:11.961Z</time></trkpt><trkpt lat="40.721668" lon="14.8103349"><ele>907.0</ele><time>2026-05-03T08:57:12.966Z</time></trkpt><trkpt lat="40.7216062" lon="14.8103012"><ele>907.0</ele><time>2026-05-03T08:57:13.964Z</time></trkpt><trkpt lat="40.721543" lon="14.8102479"><ele>907.0</ele><time>2026-05-03T08:57:22.963Z</time></trkpt><trkpt lat="40.7215213" lon="14.8101472"><ele>906.9999999999999</ele><time>2026-05-03T08:57:28.954Z</time></trkpt><trkpt lat="40.7215045" lon="14.8100272"><ele>907.0</ele><time>2026-05-03T08:57:35.959Z</time></trkpt><trkpt lat="40.7215027" lon="14.8099256"><ele>907.6666666666666</ele><time>2026-05-03T08:57:40.962Z</time></trkpt><trkpt lat="40.7215219" lon="14.8098353"><ele>908.3333333333333</ele><time>2026-05-03T08:57:44.961Z</time></trkpt><trkpt lat="40.7215159" lon="14.8097132"><ele>909.0</ele><time>2026-05-03T08:57:48.963Z</time></trkpt><trkpt lat="40.7214975" lon="14.8096048"><ele>909.6666666666667</ele><time>2026-05-03T08:57:52.96Z</time></trkpt><trkpt lat="40.7215266" lon="14.8095178"><ele>910.3333333333334</ele><time>2026-05-03T08:59:13.957Z</time></trkpt><trkpt lat="40.7215311" lon="14.8094194"><ele>911.0</ele><time>2026-05-03T08:59:18.948Z</time></trkpt><trkpt lat="40.7215895" lon="14.8093766"><ele>911.0</ele><time>2026-05-03T08:59:23.962Z</time></trkpt><trkpt lat="40.7216542" lon="14.8093257"><ele>911.0</ele><time>2026-05-03T08:59:34.956Z</time></trkpt><trkpt lat="40.721727" lon="14.8093477"><ele>911.0</ele><time>2026-05-03T09:00:12.956Z</time></trkpt><trkpt lat="40.7217932" lon="14.8093649"><ele>911.0</ele><time>2026-05-03T09:00:17.959Z</time></trkpt><trkpt lat="40.7218019" lon="14.8094511"><ele>911.0</ele><time>2026-05-03T09:00:19.963Z</time></trkpt><trkpt lat="40.7218076" lon="14.8095488"><ele>911.0</ele><time>2026-05-03T09:00:21.966Z</time></trkpt><trkpt lat="40.7218063" lon="14.8096447"><ele>911.0</ele><time>2026-05-03T09:00:23.963Z</time></trkpt><trkpt lat="40.7217951" lon="14.8097314"><ele>911.0000000000001</ele><time>2026-05-03T09:00:25.981Z</time></trkpt><trkpt lat="40.7217848" lon="14.8098255"><ele>911.0</ele><time>2026-05-03T09:00:27.976Z</time></trkpt><trkpt lat="40.7217693" lon="14.8099112"><ele>911.0</ele><time>2026-05-03T09:00:29.977Z</time></trkpt><trkpt lat="40.7217024" lon="14.8100329"><ele>911.0</ele><time>2026-05-03T09:00:34.977Z</time></trkpt><trkpt lat="40.7217205" lon="14.810121"><ele>911.0000000000001</ele><time>2026-05-03T09:00:36.967Z</time></trkpt><trkpt lat="40.7217276" lon="14.8102627"><ele>911.0</ele><time>2026-05-03T09:00:38.965Z</time></trkpt><trkpt lat="40.7217309" lon="14.8103485"><ele>910.3333333333334</ele><time>2026-05-03T09:00:39.969Z</time></trkpt><trkpt lat="40.7217752" lon="14.8104462"><ele>909.6666666666667</ele><time>2026-05-03T09:00:41.964Z</time></trkpt><trkpt lat="40.7218225" lon="14.8105714"><ele>909.0</ele><time>2026-05-03T09:00:44.039Z</time></trkpt><trkpt lat="40.7218773" lon="14.8106994"><ele>908.3333333333333</ele><time>2026-05-03T09:00:45.976Z</time></trkpt><trkpt lat="40.7219242" lon="14.8107846"><ele>907.6666666666666</ele><time>2026-05-03T09:00:47.981Z</time></trkpt><trkpt lat="40.7219593" lon="14.8108581"><ele>907.0</ele><time>2026-05-03T09:02:00.957Z</time></trkpt><trkpt lat="40.721922" lon="14.8107783"><ele>906.9999999999999</ele><time>2026-05-03T09:02:05.963Z</time></trkpt><trkpt lat="40.7218766" lon="14.8106921"><ele>907.0</ele><time>2026-05-03T09:02:07.038Z</time></trkpt><trkpt lat="40.7218313" lon="14.8106056"><ele>907.0</ele><time>2026-05-03T09:02:08.032Z</time></trkpt><trkpt lat="40.7217877" lon="14.8105307"><ele>907.0</ele><time>2026-05-03T09:02:09.038Z</time></trkpt><trkpt lat="40.7217454" lon="14.8104642"><ele>906.9999999999999</ele><time>2026-05-03T09:02:09.967Z</time></trkpt><trkpt lat="40.7216704" lon="14.8103285"><ele>907.0</ele><time>2026-05-03T09:02:11.964Z</time></trkpt><trkpt lat="40.7215887" lon="14.8102624"><ele>906.9999999999999</ele><time>2026-05-03T09:02:13.964Z</time></trkpt><trkpt lat="40.7215218" lon="14.8102311"><ele>907.0</ele><time>2026-05-03T09:02:21.953Z</time></trkpt><trkpt lat="40.7214583" lon="14.8102666"><ele>907.0</ele><time>2026-05-03T09:02:24.965Z</time></trkpt><trkpt lat="40.7214149" lon="14.810346"><ele>907.0</ele><time>2026-05-03T09:02:27.961Z</time></trkpt><trkpt lat="40.7214156" lon="14.810477"><ele>906.9999999999999</ele><time>2026-05-03T09:02:37.959Z</time></trkpt><trkpt lat="40.7214805" lon="14.8105505"><ele>907.0</ele><time>2026-05-03T09:04:04.966Z</time></trkpt><trkpt lat="40.7215523" lon="14.8105932"><ele>906.9999999999999</ele><time>2026-05-03T09:04:09.968Z</time></trkpt><trkpt lat="40.7216261" lon="14.8106381"><ele>907.0</ele><time>2026-05-03T09:04:12.965Z</time></trkpt><trkpt lat="40.7216927" lon="14.8106744"><ele>907.0</ele><time>2026-05-03T09:04:15.964Z</time></trkpt><trkpt lat="40.7217587" lon="14.8107603"><ele>907.0</ele><time>2026-05-03T09:12:27.958Z</time></trkpt><trkpt lat="40.72176" lon="14.8106489"><ele>906.9999999999999</ele><time>2026-05-03T09:12:34.958Z</time></trkpt><trkpt lat="40.7217919" lon="14.8105761"><ele>907.0</ele><time>2026-05-03T09:12:37.952Z</time></trkpt><trkpt lat="40.7218495" lon="14.8105245"><ele>907.0</ele><time>2026-05-03T09:12:46.954Z</time></trkpt><trkpt lat="40.7219175" lon="14.8104471"><ele>907.0</ele><time>2026-05-03T09:12:48.953Z</time></trkpt><trkpt lat="40.7218662" lon="14.8105549"><ele>907.0</ele><time>2026-05-03T09:12:53.035Z</time></trkpt><trkpt lat="40.7218692" lon="14.8106994"><ele>907.0</ele><time>2026-05-03T09:12:54.962Z</time></trkpt><trkpt lat="40.7219102" lon="14.8108164"><ele>907.0</ele><time>2026-05-03T09:12:55.953Z</time></trkpt><trkpt lat="40.7219422" lon="14.8109516"><ele>905.8333333333333</ele><time>2026-05-03T09:12:56.98Z</time></trkpt><trkpt lat="40.7219735" lon="14.8110652"><ele>904.6666666666666</ele><time>2026-05-03T09:12:58.048Z</time></trkpt><trkpt lat="40.7220124" lon="14.8112127"><ele>903.5</ele><time>2026-05-03T09:12:59.959Z</time></trkpt><trkpt lat="40.7220813" lon="14.8112597"><ele>902.3333333333333</ele><time>2026-05-03T09:13:01.964Z</time></trkpt><trkpt lat="40.7220648" lon="14.8111505"><ele>901.1666666666666</ele><time>2026-05-03T09:13:05.959Z</time></trkpt><trkpt lat="40.7221296" lon="14.8111759"><ele>900.0</ele><time>2026-05-03T09:13:09.955Z</time></trkpt><trkpt lat="40.7220483" lon="14.8110653"><ele>900.0</ele><time>2026-05-03T09:13:12.955Z</time></trkpt><trkpt lat="40.7220059" lon="14.8109992"><ele>900.0</ele><time>2026-05-03T09:13:14.065Z</time></trkpt><trkpt lat="40.7219776" lon="14.810862"><ele>900.0</ele><time>2026-05-03T09:13:16.036Z</time></trkpt><trkpt lat="40.7219992" lon="14.8107356"><ele>900.0</ele><time>2026-05-03T09:13:18.029Z</time></trkpt><trkpt lat="40.7220355" lon="14.8106206"><ele>900.0</ele><time>2026-05-03T09:13:19.957Z</time></trkpt><trkpt lat="40.7220262" lon="14.8105215"><ele>900.0</ele><time>2026-05-03T09:13:22.965Z</time></trkpt><trkpt lat="40.722006" lon="14.8104323"><ele>901.8333333333334</ele><time>2026-05-03T09:13:24.965Z</time></trkpt><trkpt lat="40.7220177" lon="14.810342"><ele>903.6666666666667</ele><time>2026-05-03T09:13:26.968Z</time></trkpt><trkpt lat="40.7219927" lon="14.8102241"><ele>905.5</ele><time>2026-05-03T09:13:29.96Z</time></trkpt><trkpt lat="40.7219639" lon="14.8101337"><ele>907.3333333333334</ele><time>2026-05-03T09:13:32.028Z</time></trkpt><trkpt lat="40.7219375" lon="14.8100396"><ele>909.1666666666667</ele><time>2026-05-03T09:13:34.051Z</time></trkpt><trkpt lat="40.7219012" lon="14.809956"><ele>911.0</ele><time>2026-05-03T09:13:35.966Z</time></trkpt><trkpt lat="40.721894" lon="14.8098475"><ele>916.0</ele><time>2026-05-03T09:13:37.969Z</time></trkpt><trkpt lat="40.7219138" lon="14.8097325"><ele>921.0</ele><time>2026-05-03T09:13:38.975Z</time></trkpt><trkpt lat="40.7219519" lon="14.8095577"><ele>926.0</ele><time>2026-05-03T09:13:39.965Z</time></trkpt><trkpt lat="40.7219813" lon="14.8093696"><ele>931.0</ele><time>2026-05-03T09:13:41.031Z</time></trkpt><trkpt lat="40.7220144" lon="14.8092037"><ele>932.1428571428571</ele><time>2026-05-03T09:13:42.033Z</time></trkpt><trkpt lat="40.7220499" lon="14.8091075"><ele>933.2857142857142</ele><time>2026-05-03T09:13:43.026Z</time></trkpt><trkpt lat="40.7220501" lon="14.8089941"><ele>934.4285714285714</ele><time>2026-05-03T09:13:44.974Z</time></trkpt><trkpt lat="40.7219873" lon="14.8089572"><ele>935.5714285714286</ele><time>2026-05-03T09:13:49.965Z</time></trkpt><trkpt lat="40.7219412" lon="14.8090329"><ele>936.7142857142857</ele><time>2026-05-03T09:13:52.971Z</time></trkpt><trkpt lat="40.7219341" lon="14.8091256"><ele>937.8571428571429</ele><time>2026-05-03T09:13:56.038Z</time></trkpt><trkpt lat="40.7219129" lon="14.8092125"><ele>939.0</ele><time>2026-05-03T09:13:58.971Z</time></trkpt><trkpt lat="40.721857" lon="14.8092882"><ele>934.5</ele><time>2026-05-03T09:14:01.968Z</time></trkpt><trkpt lat="40.7217939" lon="14.8092209"><ele>930.0</ele><time>2026-05-03T09:14:04.963Z</time></trkpt><trkpt lat="40.72174" lon="14.809168"><ele>925.5</ele><time>2026-05-03T09:14:06.964Z</time></trkpt><trkpt lat="40.7216576" lon="14.8091987"><ele>921.0</ele><time>2026-05-03T09:14:09.956Z</time></trkpt><trkpt lat="40.7216145" lon="14.8092826"><ele>916.5</ele><time>2026-05-03T09:14:11.955Z</time></trkpt><trkpt lat="40.7215786" lon="14.8093639"><ele>912.0</ele><time>2026-05-03T09:14:13.965Z</time></trkpt><trkpt lat="40.721484" lon="14.8093634"><ele>912.0</ele><time>2026-05-03T09:14:16.959Z</time></trkpt><trkpt lat="40.7213962" lon="14.8092987"><ele>912.0</ele><time>2026-05-03T09:14:18.963Z</time></trkpt><trkpt lat="40.7213517" lon="14.8092027"><ele>912.0</ele><time>2026-05-03T09:14:20.963Z</time></trkpt><trkpt lat="40.7213253" lon="14.8090808"><ele>912.0</ele><time>2026-05-03T09:14:22.965Z</time></trkpt><trkpt lat="40.7213161" lon="14.8089709"><ele>912.0</ele><time>2026-05-03T09:14:24.963Z</time></trkpt><trkpt lat="40.721292" lon="14.8088622"><ele>912.0</ele><time>2026-05-03T09:14:29.043Z</time></trkpt><trkpt lat="40.7211987" lon="14.8087978"><ele>912.0</ele><time>2026-05-03T09:14:30.964Z</time></trkpt><trkpt lat="40.7211379" lon="14.8087315"><ele>912.0</ele><time>2026-05-03T09:14:32.971Z</time></trkpt><trkpt lat="40.7210595" lon="14.8087376"><ele>912.0</ele><time>2026-05-03T09:14:34.968Z</time></trkpt><trkpt lat="40.7210645" lon="14.8088347"><ele>912.0</ele><time>2026-05-03T09:14:41.952Z</time></trkpt><trkpt lat="40.721107" lon="14.8089049"><ele>912.0</ele><time>2026-05-03T09:14:44.949Z</time></trkpt><trkpt lat="40.7211881" lon="14.8090408"><ele>912.0</ele><time>2026-05-03T09:14:50.955Z</time></trkpt><trkpt lat="40.7212244" lon="14.8091603"><ele>912.0</ele><time>2026-05-03T09:14:52.96Z</time></trkpt><trkpt lat="40.7212626" lon="14.8092723"><ele>912.0</ele><time>2026-05-03T09:14:54.964Z</time></trkpt><trkpt lat="40.7212792" lon="14.8093847"><ele>912.0</ele><time>2026-05-03T09:14:56.962Z</time></trkpt><trkpt lat="40.7212644" lon="14.8095775"><ele>912.0</ele><time>2026-05-03T09:14:58.962Z</time></trkpt><trkpt lat="40.7212765" lon="14.8096838"><ele>911.8</ele><time>2026-05-03T09:14:59.959Z</time></trkpt><trkpt lat="40.7212576" lon="14.8098543"><ele>911.6</ele><time>2026-05-03T09:15:02.026Z</time></trkpt><trkpt lat="40.7212314" lon="14.8099765"><ele>911.3999999999999</ele><time>2026-05-03T09:15:02.962Z</time></trkpt><trkpt lat="40.7211926" lon="14.8101068"><ele>911.1999999999999</ele><time>2026-05-03T09:15:03.963Z</time></trkpt><trkpt lat="40.7211697" lon="14.8102409"><ele>911.0</ele><time>2026-05-03T09:15:04.96Z</time></trkpt><trkpt lat="40.7211643" lon="14.8103711"><ele>910.1999999999999</ele><time>2026-05-03T09:15:05.959Z</time></trkpt><trkpt lat="40.7212125" lon="14.8105134"><ele>909.3999999999999</ele><time>2026-05-03T09:15:07.952Z</time></trkpt><trkpt lat="40.7213074" lon="14.8105828"><ele>908.6</ele><time>2026-05-03T09:15:09.952Z</time></trkpt><trkpt lat="40.7213946" lon="14.8105649"><ele>907.8</ele><time>2026-05-03T09:15:12.016Z</time></trkpt><trkpt lat="40.7214683" lon="14.810578"><ele>907.0</ele><time>2026-05-03T09:15:13.957Z</time></trkpt><trkpt lat="40.721553" lon="14.8105701"><ele>906.9999999999999</ele><time>2026-05-03T09:15:15.963Z</time></trkpt><trkpt lat="40.7216325" lon="14.8105865"><ele>907.0</ele><time>2026-05-03T09:15:18.027Z</time></trkpt><trkpt lat="40.7216833" lon="14.8106419"><ele>907.0</ele><time>2026-05-03T09:15:18.984Z</time></trkpt><trkpt lat="40.7217376" lon="14.8107417"><ele>907.0</ele><time>2026-05-03T09:15:19.958Z</time></trkpt><trkpt lat="40.7217947" lon="14.8108371"><ele>906.9999999999999</ele><time>2026-05-03T09:15:20.968Z</time></trkpt><trkpt lat="40.7218425" lon="14.8109308"><ele>907.0</ele><time>2026-05-03T09:15:21.962Z</time></trkpt><trkpt lat="40.7218987" lon="14.8109696"><ele>907.0</ele><time>2026-05-03T09:15:22.962Z</time></trkpt><trkpt lat="40.7218808" lon="14.8108148"><ele>907.0</ele><time>2026-05-03T09:15:25.957Z</time></trkpt><trkpt lat="40.7218471" lon="14.8106824"><ele>907.0</ele><time>2026-05-03T09:15:26.961Z</time></trkpt><trkpt lat="40.7218447" lon="14.8105989"><ele>907.0</ele><time>2026-05-03T09:15:28.022Z</time></trkpt><trkpt lat="40.7219117" lon="14.8104683"><ele>907.0</ele><time>2026-05-03T09:15:29.963Z</time></trkpt><trkpt lat="40.7219525" lon="14.8103929"><ele>905.6</ele><time>2026-05-03T09:15:31.961Z</time></trkpt><trkpt lat="40.7219567" lon="14.8105109"><ele>904.2</ele><time>2026-05-03T09:15:34.966Z</time></trkpt><trkpt lat="40.7219065" lon="14.8106123"><ele>902.8</ele><time>2026-05-03T09:15:36.959Z</time></trkpt><trkpt lat="40.7219161" lon="14.8107206"><ele>901.4</ele><time>2026-05-03T09:15:38.033Z</time></trkpt><trkpt lat="40.7219635" lon="14.8108724"><ele>900.0</ele><time>2026-05-03T09:15:38.952Z</time></trkpt><trkpt lat="40.721991" lon="14.8110116"><ele>900.0</ele><time>2026-05-03T09:15:39.954Z</time></trkpt><trkpt lat="40.7220092" lon="14.8111383"><ele>900.0</ele><time>2026-05-03T09:15:40.959Z</time></trkpt><trkpt lat="40.7220514" lon="14.8112609"><ele>900.0</ele><time>2026-05-03T09:15:42.952Z</time></trkpt><trkpt lat="40.7221108" lon="14.8113066"><ele>900.0</ele><time>2026-05-03T09:15:44.955Z</time></trkpt><trkpt lat="40.722081" lon="14.8112085"><ele>900.0</ele><time>2026-05-03T09:15:47.959Z</time></trkpt><trkpt lat="40.7221462" lon="14.8112055"><ele>900.0</ele><time>2026-05-03T09:15:51.954Z</time></trkpt><trkpt lat="40.7220984" lon="14.8111057"><ele>900.0</ele><time>2026-05-03T09:15:57.981Z</time></trkpt><trkpt lat="40.7220362" lon="14.8110165"><ele>900.0</ele><time>2026-05-03T09:15:59.034Z</time></trkpt><trkpt lat="40.7219992" lon="14.8109484"><ele>900.0</ele><time>2026-05-03T09:15:59.96Z</time></trkpt><trkpt lat="40.7219854" lon="14.810777"><ele>900.0</ele><time>2026-05-03T09:16:01.951Z</time></trkpt><trkpt lat="40.7220179" lon="14.8106926"><ele>900.0</ele><time>2026-05-03T09:16:02.957Z</time></trkpt><trkpt lat="40.7220323" lon="14.8106035"><ele>900.0</ele><time>2026-05-03T09:16:04.956Z</time></trkpt><trkpt lat="40.7220308" lon="14.810506"><ele>903.1666666666666</ele><time>2026-05-03T09:16:06.963Z</time></trkpt><trkpt lat="40.7220086" lon="14.8104002"><ele>906.3333333333333</ele><time>2026-05-03T09:16:08.984Z</time></trkpt><trkpt lat="40.7220125" lon="14.8102891"><ele>909.5</ele><time>2026-05-03T09:16:10.963Z</time></trkpt><trkpt lat="40.7219869" lon="14.810213"><ele>912.6666666666666</ele><time>2026-05-03T09:16:12.942Z</time></trkpt><trkpt lat="40.7219626" lon="14.8100956"><ele>915.8333333333333</ele><time>2026-05-03T09:16:16.959Z</time></trkpt><trkpt lat="40.7219361" lon="14.8099908"><ele>919.0</ele><time>2026-05-03T09:16:19.039Z</time></trkpt><trkpt lat="40.7219227" lon="14.8099055"><ele>922.0</ele><time>2026-05-03T09:16:20.957Z</time></trkpt><trkpt lat="40.7219327" lon="14.8096541"><ele>925.0</ele><time>2026-05-03T09:16:22.959Z</time></trkpt><trkpt lat="40.7219568" lon="14.8095134"><ele>928.0</ele><time>2026-05-03T09:16:23.954Z</time></trkpt><trkpt lat="40.7219786" lon="14.8093871"><ele>931.0</ele><time>2026-05-03T09:16:24.96Z</time></trkpt><trkpt lat="40.7219962" lon="14.8092783"><ele>932.3333333333333</ele><time>2026-05-03T09:16:25.956Z</time></trkpt><trkpt lat="40.7220227" lon="14.8091651"><ele>933.6666666666666</ele><time>2026-05-03T09:16:27.023Z</time></trkpt><trkpt lat="40.7220413" lon="14.8090491"><ele>935.0</ele><time>2026-05-03T09:16:28.962Z</time></trkpt><trkpt lat="40.7220066" lon="14.808977"><ele>936.3333333333333</ele><time>2026-05-03T09:16:32.029Z</time></trkpt><trkpt lat="40.721959" lon="14.8090453"><ele>937.6666666666666</ele><time>2026-05-03T09:16:38.945Z</time></trkpt><trkpt lat="40.7218972" lon="14.8090628"><ele>939.0</ele><time>2026-05-03T09:16:42.955Z</time></trkpt><trkpt lat="40.7218786" lon="14.8091635"><ele>935.1428571428571</ele><time>2026-05-03T09:16:43.949Z</time></trkpt><trkpt lat="40.7218708" lon="14.8092769"><ele>931.2857142857142</ele><time>2026-05-03T09:16:44.951Z</time></trkpt><trkpt lat="40.7218059" lon="14.8092771"><ele>927.4285714285713</ele><time>2026-05-03T09:16:48.045Z</time></trkpt><trkpt lat="40.7217501" lon="14.8092365"><ele>923.5714285714286</ele><time>2026-05-03T09:16:50.02Z</time></trkpt><trkpt lat="40.7216892" lon="14.8092592"><ele>919.7142857142856</ele><time>2026-05-03T09:16:54.965Z</time></trkpt><trkpt lat="40.7216761" lon="14.8093517"><ele>915.8571428571428</ele><time>2026-05-03T09:16:56.043Z</time></trkpt><trkpt lat="40.7216316" lon="14.8094116"><ele>912.0</ele><time>2026-05-03T09:16:58.032Z</time></trkpt><trkpt lat="40.7215684" lon="14.8093987"><ele>912.0</ele><time>2026-05-03T09:16:59.958Z</time></trkpt><trkpt lat="40.721484" lon="14.8092951"><ele>912.0</ele><time>2026-05-03T09:17:01.944Z</time></trkpt><trkpt lat="40.7214263" lon="14.8092057"><ele>912.0</ele><time>2026-05-03T09:17:03.961Z</time></trkpt><trkpt lat="40.7213697" lon="14.8090382"><ele>912.0</ele><time>2026-05-03T09:17:05.96Z</time></trkpt><trkpt lat="40.7213276" lon="14.808914"><ele>912.0</ele><time>2026-05-03T09:17:07.954Z</time></trkpt><trkpt lat="40.7212974" lon="14.80882"><ele>912.0</ele><time>2026-05-03T09:17:11.954Z</time></trkpt><trkpt lat="40.721238" lon="14.8087719"><ele>911.9999999999999</ele><time>2026-05-03T09:17:14.035Z</time></trkpt><trkpt lat="40.7211722" lon="14.8087403"><ele>912.0</ele><time>2026-05-03T09:17:15.956Z</time></trkpt><trkpt lat="40.7211104" lon="14.8087229"><ele>912.0</ele><time>2026-05-03T09:17:17.955Z</time></trkpt><trkpt lat="40.7210532" lon="14.8087675"><ele>911.9999999999999</ele><time>2026-05-03T09:17:20.959Z</time></trkpt><trkpt lat="40.7211111" lon="14.8088291"><ele>912.0</ele><time>2026-05-03T09:17:25.957Z</time></trkpt><trkpt lat="40.7211325" lon="14.8089129"><ele>912.0</ele><time>2026-05-03T09:17:28.959Z</time></trkpt><trkpt lat="40.7211606" lon="14.8089909"><ele>912.0</ele><time>2026-05-03T09:17:30.96Z</time></trkpt><trkpt lat="40.7211827" lon="14.8090691"><ele>912.0</ele><time>2026-05-03T09:17:33.036Z</time></trkpt><trkpt lat="40.7212194" lon="14.809163"><ele>912.0</ele><time>2026-05-03T09:17:34.96Z</time></trkpt><trkpt lat="40.7212339" lon="14.809294"><ele>912.0</ele><time>2026-05-03T09:17:36.965Z</time></trkpt><trkpt lat="40.7212615" lon="14.8095005"><ele>912.0</ele><time>2026-05-03T09:17:38.97Z</time></trkpt><trkpt lat="40.7212638" lon="14.809598"><ele>911.75</ele><time>2026-05-03T09:17:39.965Z</time></trkpt><trkpt lat="40.7212716" lon="14.8097501"><ele>911.5</ele><time>2026-05-03T09:17:41.041Z</time></trkpt><trkpt lat="40.7212709" lon="14.8098963"><ele>911.25</ele><time>2026-05-03T09:17:42.033Z</time></trkpt><trkpt lat="40.7212812" lon="14.8100605"><ele>911.0</ele><time>2026-05-03T09:17:42.974Z</time></trkpt><trkpt lat="40.7212812" lon="14.8102001"><ele>910.1999999999999</ele><time>2026-05-03T09:17:43.965Z</time></trkpt><trkpt lat="40.7212643" lon="14.8103409"><ele>909.3999999999999</ele><time>2026-05-03T09:17:44.97Z</time></trkpt><trkpt lat="40.7212434" lon="14.8104622"><ele>908.6</ele><time>2026-05-03T09:17:45.965Z</time></trkpt><trkpt lat="40.7212935" lon="14.8105944"><ele>907.8</ele><time>2026-05-03T09:17:47.97Z</time></trkpt><trkpt lat="40.7213821" lon="14.8106563"><ele>907.0</ele><time>2026-05-03T09:17:49.965Z</time></trkpt><trkpt lat="40.7214465" lon="14.8106029"><ele>907.0</ele><time>2026-05-03T09:17:52.975Z</time></trkpt><trkpt lat="40.7215213" lon="14.8105961"><ele>907.0</ele><time>2026-05-03T09:17:55.971Z</time></trkpt><trkpt lat="40.721604" lon="14.8106141"><ele>907.0</ele><time>2026-05-03T09:17:59.045Z</time></trkpt><trkpt lat="40.7217187" lon="14.8107149"><ele>907.0</ele><time>2026-05-03T09:18:00.97Z</time></trkpt><trkpt lat="40.7217694" lon="14.8108136"><ele>907.0</ele><time>2026-05-03T09:18:01.969Z</time></trkpt><trkpt lat="40.7218405" lon="14.81089"><ele>906.9999999999999</ele><time>2026-05-03T09:18:03.975Z</time></trkpt><trkpt lat="40.7218307" lon="14.8107577"><ele>907.0</ele><time>2026-05-03T09:18:07.049Z</time></trkpt><trkpt lat="40.721808" lon="14.8106801"><ele>907.0</ele><time>2026-05-03T09:18:08.027Z</time></trkpt><trkpt lat="40.7218129" lon="14.8105605"><ele>907.0</ele><time>2026-05-03T09:18:09.953Z</time></trkpt><trkpt lat="40.7218915" lon="14.8104561"><ele>906.9999999999999</ele><time>2026-05-03T09:18:11.984Z</time></trkpt><trkpt lat="40.7219001" lon="14.8105397"><ele>907.0</ele><time>2026-05-03T09:18:15.977Z</time></trkpt><trkpt lat="40.721898" lon="14.8107287"><ele>905.6</ele><time>2026-05-03T09:18:19.026Z</time></trkpt><trkpt lat="40.7219483" lon="14.8108924"><ele>904.2</ele><time>2026-05-03T09:18:19.957Z</time></trkpt><trkpt lat="40.721992" lon="14.8110469"><ele>902.8</ele><time>2026-05-03T09:18:20.949Z</time></trkpt><trkpt lat="40.7220126" lon="14.8111345"><ele>901.4</ele><time>2026-05-03T09:18:21.988Z</time></trkpt><trkpt lat="40.7220478" lon="14.8112589"><ele>900.0</ele><time>2026-05-03T09:18:24.034Z</time></trkpt><trkpt lat="40.7220766" lon="14.8111804"><ele>900.0</ele><time>2026-05-03T09:18:29.018Z</time></trkpt><trkpt lat="40.7220129" lon="14.8110208"><ele>900.0</ele><time>2026-05-03T09:18:35.953Z</time></trkpt><trkpt lat="40.7219704" lon="14.8109589"><ele>900.0</ele><time>2026-05-03T09:18:37.034Z</time></trkpt><trkpt lat="40.7219627" lon="14.8108232"><ele>900.0</ele><time>2026-05-03T09:18:38.976Z</time></trkpt><trkpt lat="40.7219808" lon="14.8107087"><ele>900.0</ele><time>2026-05-03T09:18:40.976Z</time></trkpt><trkpt lat="40.7219956" lon="14.8105932"><ele>903.1666666666666</ele><time>2026-05-03T09:18:42.976Z</time></trkpt><trkpt lat="40.7219933" lon="14.8104573"><ele>906.3333333333333</ele><time>2026-05-03T09:18:44.968Z</time></trkpt><trkpt lat="40.7220019" lon="14.8103712"><ele>909.5</ele><time>2026-05-03T09:18:47.045Z</time></trkpt><trkpt lat="40.7219931" lon="14.8102601"><ele>912.6666666666666</ele><time>2026-05-03T09:18:49.989Z</time></trkpt><trkpt lat="40.7219715" lon="14.8101744"><ele>915.8333333333333</ele><time>2026-05-03T09:18:52.04Z</time></trkpt><trkpt lat="40.7219562" lon="14.8100907"><ele>919.0</ele><time>2026-05-03T09:18:53.975Z</time></trkpt><trkpt lat="40.7219385" lon="14.8099979"><ele>921.4000000000001</ele><time>2026-05-03T09:18:55.965Z</time></trkpt><trkpt lat="40.7219122" lon="14.8099005"><ele>923.8000000000001</ele><time>2026-05-03T09:18:57.977Z</time></trkpt><trkpt lat="40.7219169" lon="14.809725"><ele>926.1999999999999</ele><time>2026-05-03T09:18:59.971Z</time></trkpt><trkpt lat="40.7219308" lon="14.8096166"><ele>928.5999999999999</ele><time>2026-05-03T09:19:00.972Z</time></trkpt><trkpt lat="40.7219418" lon="14.8094896"><ele>931.0</ele><time>2026-05-03T09:19:02.043Z</time></trkpt><trkpt lat="40.7219592" lon="14.8093463"><ele>932.3333333333333</ele><time>2026-05-03T09:19:03.031Z</time></trkpt><trkpt lat="40.7219892" lon="14.8092251"><ele>933.6666666666666</ele><time>2026-05-03T09:19:03.998Z</time></trkpt><trkpt lat="40.7220277" lon="14.8091488"><ele>935.0</ele><time>2026-05-03T09:19:04.974Z</time></trkpt><trkpt lat="40.7220588" lon="14.8090355"><ele>936.3333333333333</ele><time>2026-05-03T09:19:06.97Z</time></trkpt><trkpt lat="40.7220252" lon="14.8089639"><ele>937.6666666666666</ele><time>2026-05-03T09:19:09.972Z</time></trkpt><trkpt lat="40.7219568" lon="14.8090191"><ele>939.0</ele><time>2026-05-03T09:19:14.977Z</time></trkpt><trkpt lat="40.7219422" lon="14.8091225"><ele>939.0</ele><time>2026-05-03T09:19:18.036Z</time></trkpt><trkpt lat="40.7219239" lon="14.8092358"><ele>939.0</ele><time>2026-05-03T09:19:20.965Z</time></trkpt><trkpt lat="40.7218796" lon="14.809298"><ele>939.0</ele><time>2026-05-03T09:19:22.961Z</time></trkpt><trkpt lat="40.7218082" lon="14.8092723"><ele>939.0</ele><time>2026-05-03T09:19:26.042Z</time></trkpt><trkpt lat="40.7217475" lon="14.8091999"><ele>939.0</ele><time>2026-05-03T09:19:28.961Z</time></trkpt><trkpt lat="40.7216703" lon="14.8092741"><ele>939.0</ele><time>2026-05-03T09:19:32.964Z</time></trkpt><trkpt lat="40.7216177" lon="14.809359"><ele>934.5</ele><time>2026-05-03T09:19:34.964Z</time></trkpt><trkpt lat="40.7215598" lon="14.8094059"><ele>930.0</ele><time>2026-05-03T09:19:37.009Z</time></trkpt><trkpt lat="40.7214895" lon="14.8093567"><ele>925.5</ele><time>2026-05-03T09:19:39.963Z</time></trkpt><trkpt lat="40.7214109" lon="14.809279"><ele>921.0</ele><time>2026-05-03T09:19:41.961Z</time></trkpt><trkpt lat="40.7213317" lon="14.8091516"><ele>916.5</ele><time>2026-05-03T09:19:43.961Z</time></trkpt><trkpt lat="40.7212871" lon="14.8090718"><ele>912.0</ele><time>2026-05-03T09:19:44.954Z</time></trkpt><trkpt lat="40.7212668" lon="14.8089733"><ele>912.0</ele><time>2026-05-03T09:19:46.959Z</time></trkpt><trkpt lat="40.7212487" lon="14.8088763"><ele>912.0</ele><time>2026-05-03T09:19:49.972Z</time></trkpt><trkpt lat="40.7212054" lon="14.8087947"><ele>912.0</ele><time>2026-05-03T09:19:52.962Z</time></trkpt><trkpt lat="40.721152" lon="14.8087277"><ele>912.0</ele><time>2026-05-03T09:19:55.966Z</time></trkpt><trkpt lat="40.7211334" lon="14.808834"><ele>912.0</ele><time>2026-05-03T09:20:02.962Z</time></trkpt><trkpt lat="40.7211621" lon="14.8089405"><ele>912.0</ele><time>2026-05-03T09:20:05.95Z</time></trkpt><trkpt lat="40.7211987" lon="14.8090419"><ele>912.0</ele><time>2026-05-03T09:20:08.961Z</time></trkpt><trkpt lat="40.7212166" lon="14.8091284"><ele>912.0</ele><time>2026-05-03T09:20:11.959Z</time></trkpt><trkpt lat="40.7212524" lon="14.8092241"><ele>912.0</ele><time>2026-05-03T09:20:13.954Z</time></trkpt><trkpt lat="40.7212623" lon="14.8093443"><ele>912.0</ele><time>2026-05-03T09:20:15.958Z</time></trkpt><trkpt lat="40.7212669" lon="14.8095129"><ele>912.0</ele><time>2026-05-03T09:20:17.959Z</time></trkpt><trkpt lat="40.7212624" lon="14.8096193"><ele>912.0</ele><time>2026-05-03T09:20:18.958Z</time></trkpt><trkpt lat="40.7212487" lon="14.8097568"><ele>911.8</ele><time>2026-05-03T09:20:19.946Z</time></trkpt><trkpt lat="40.7212164" lon="14.8099086"><ele>911.6</ele><time>2026-05-03T09:20:20.96Z</time></trkpt><trkpt lat="40.7211933" lon="14.8100433"><ele>911.3999999999999</ele><time>2026-05-03T09:20:22.033Z</time></trkpt><trkpt lat="40.7211847" lon="14.8101908"><ele>911.1999999999999</ele><time>2026-05-03T09:20:23.038Z</time></trkpt><trkpt lat="40.7212033" lon="14.8103018"><ele>911.0</ele><time>2026-05-03T09:20:23.957Z</time></trkpt><trkpt lat="40.7212393" lon="14.8103864"><ele>910.3333333333334</ele><time>2026-05-03T09:20:24.963Z</time></trkpt><trkpt lat="40.7212832" lon="14.8104474"><ele>909.6666666666667</ele><time>2026-05-03T09:20:25.958Z</time></trkpt><trkpt lat="40.7213332" lon="14.8105084"><ele>909.0</ele><time>2026-05-03T09:20:26.959Z</time></trkpt><trkpt lat="40.7214118" lon="14.8105341"><ele>908.3333333333333</ele><time>2026-05-03T09:20:29.03Z</time></trkpt><trkpt lat="40.721503" lon="14.8105609"><ele>907.6666666666666</ele><time>2026-05-03T09:20:31.977Z</time></trkpt><trkpt lat="40.721591" lon="14.810612"><ele>907.0</ele><time>2026-05-03T09:20:33.972Z</time></trkpt><trkpt lat="40.7217101" lon="14.8106802"><ele>907.0</ele><time>2026-05-03T09:20:36.06Z</time></trkpt><trkpt lat="40.7217995" lon="14.8107715"><ele>907.0</ele><time>2026-05-03T09:20:37.983Z</time></trkpt><trkpt lat="40.7218838" lon="14.8108183"><ele>907.0</ele><time>2026-05-03T09:20:39.991Z</time></trkpt><trkpt lat="40.7218385" lon="14.8106995"><ele>907.0</ele><time>2026-05-03T09:20:42.043Z</time></trkpt><trkpt lat="40.7217945" lon="14.810619"><ele>907.0</ele><time>2026-05-03T09:20:42.954Z</time></trkpt><trkpt lat="40.721859" lon="14.8105299"><ele>906.9999999999999</ele><time>2026-05-03T09:20:44.955Z</time></trkpt><trkpt lat="40.721914" lon="14.8104687"><ele>907.0</ele><time>2026-05-03T09:20:45.951Z</time></trkpt><trkpt lat="40.7219738" lon="14.8104155"><ele>907.0</ele><time>2026-05-03T09:20:46.952Z</time></trkpt><trkpt lat="40.7219492" lon="14.8105265"><ele>907.0</ele><time>2026-05-03T09:20:52.055Z</time></trkpt><trkpt lat="40.7219002" lon="14.8106155"><ele>906.9999999999999</ele><time>2026-05-03T09:20:54.05Z</time></trkpt><trkpt lat="40.7218949" lon="14.8107098"><ele>907.0</ele><time>2026-05-03T09:20:55.958Z</time></trkpt><trkpt lat="40.7218992" lon="14.8107961"><ele>906.9999999999999</ele><time>2026-05-03T09:23:13.956Z</time></trkpt><trkpt lat="40.7218902" lon="14.8108822"><ele>907.0</ele><time>2026-05-03T09:24:44.969Z</time></trkpt><trkpt lat="40.7218381" lon="14.810955"><ele>907.0</ele><time>2026-05-03T09:25:17.039Z</time></trkpt><trkpt lat="40.721885" lon="14.8108988"><ele>907.0</ele><time>2026-05-03T09:31:18.972Z</time></trkpt><trkpt lat="40.7219239" lon="14.8110092"><ele>906.9999999999999</ele><time>2026-05-03T09:31:21.967Z</time></trkpt><trkpt lat="40.7219649" lon="14.811138"><ele>907.0</ele><time>2026-05-03T09:31:23.971Z</time></trkpt><trkpt lat="40.721999" lon="14.8112665"><ele>905.8333333333333</ele><time>2026-05-03T09:31:25.983Z</time></trkpt><trkpt lat="40.722057" lon="14.8113867"><ele>904.6666666666666</ele><time>2026-05-03T09:31:28.031Z</time></trkpt><trkpt lat="40.7221141" lon="14.8114919"><ele>903.5</ele><time>2026-05-03T09:31:29.952Z</time></trkpt><trkpt lat="40.722151" lon="14.8115822"><ele>902.3333333333333</ele><time>2026-05-03T09:31:31.955Z</time></trkpt><trkpt lat="40.7221764" lon="14.8116723"><ele>901.1666666666666</ele><time>2026-05-03T09:31:33.955Z</time></trkpt><trkpt lat="40.7222082" lon="14.8117798"><ele>900.0</ele><time>2026-05-03T09:31:36.957Z</time></trkpt><trkpt lat="40.7222448" lon="14.8118832"><ele>897.8333333333334</ele><time>2026-05-03T09:31:39.95Z</time></trkpt><trkpt lat="40.722288" lon="14.8119568"><ele>895.6666666666667</ele><time>2026-05-03T09:31:43.959Z</time></trkpt><trkpt lat="40.7223355" lon="14.812042"><ele>893.5</ele><time>2026-05-03T09:31:50.961Z</time></trkpt><trkpt lat="40.7224004" lon="14.8121364"><ele>891.3333333333334</ele><time>2026-05-03T09:31:54.991Z</time></trkpt><trkpt lat="40.7224586" lon="14.8122018"><ele>889.1666666666667</ele><time>2026-05-03T09:31:56.95Z</time></trkpt><trkpt lat="40.7225132" lon="14.8123453"><ele>887.0</ele><time>2026-05-03T09:31:58.946Z</time></trkpt><trkpt lat="40.7225544" lon="14.8124547"><ele>886.9999999999999</ele><time>2026-05-03T09:32:00.941Z</time></trkpt><trkpt lat="40.7226074" lon="14.8125351"><ele>887.0</ele><time>2026-05-03T09:32:02.978Z</time></trkpt><trkpt lat="40.7226556" lon="14.8125972"><ele>887.0</ele><time>2026-05-03T09:32:05.946Z</time></trkpt><trkpt lat="40.7227095" lon="14.8126694"><ele>887.0</ele><time>2026-05-03T09:32:08.949Z</time></trkpt><trkpt lat="40.7227502" lon="14.812749"><ele>887.0</ele><time>2026-05-03T09:32:12.993Z</time></trkpt><trkpt lat="40.7228024" lon="14.8128309"><ele>886.9999999999999</ele><time>2026-05-03T09:32:16.948Z</time></trkpt><trkpt lat="40.7228336" lon="14.8129112"><ele>887.0</ele><time>2026-05-03T09:32:18.954Z</time></trkpt><trkpt lat="40.7228891" lon="14.8129609"><ele>882.1666666666667</ele><time>2026-05-03T09:32:21.954Z</time></trkpt><trkpt lat="40.7229435" lon="14.8130076"><ele>877.3333333333334</ele><time>2026-05-03T09:32:25.962Z</time></trkpt><trkpt lat="40.7229926" lon="14.8130931"><ele>872.5</ele><time>2026-05-03T09:32:29.957Z</time></trkpt><trkpt lat="40.7230529" lon="14.8131434"><ele>867.6666666666667</ele><time>2026-05-03T09:32:32.969Z</time></trkpt><trkpt lat="40.7231095" lon="14.8131931"><ele>862.8333333333334</ele><time>2026-05-03T09:32:34.967Z</time></trkpt><trkpt lat="40.723194" lon="14.8132431"><ele>858.0</ele><time>2026-05-03T09:32:38.012Z</time></trkpt><trkpt lat="40.7232691" lon="14.8132478"><ele>858.0</ele><time>2026-05-03T09:32:39.968Z</time></trkpt><trkpt lat="40.7233424" lon="14.8132744"><ele>858.0</ele><time>2026-05-03T09:32:41.963Z</time></trkpt><trkpt lat="40.7234386" lon="14.8133149"><ele>858.0</ele><time>2026-05-03T09:32:43.971Z</time></trkpt><trkpt lat="40.72353" lon="14.8133903"><ele>858.0</ele><time>2026-05-03T09:32:45.968Z</time></trkpt><trkpt lat="40.7236258" lon="14.8134737"><ele>858.0</ele><time>2026-05-03T09:32:48.033Z</time></trkpt><trkpt lat="40.7237298" lon="14.813507"><ele>857.0</ele><time>2026-05-03T09:32:49.951Z</time></trkpt><trkpt lat="40.7238221" lon="14.8135577"><ele>856.0</ele><time>2026-05-03T09:32:51.959Z</time></trkpt><trkpt lat="40.723912" lon="14.8135286"><ele>855.0</ele><time>2026-05-03T09:32:54.961Z</time></trkpt><trkpt lat="40.7239907" lon="14.8134494"><ele>854.0</ele><time>2026-05-03T09:32:56.948Z</time></trkpt><trkpt lat="40.7240726" lon="14.8133427"><ele>853.0</ele><time>2026-05-03T09:32:58.959Z</time></trkpt><trkpt lat="40.7241623" lon="14.8132266"><ele>851.8</ele><time>2026-05-03T09:33:00.958Z</time></trkpt><trkpt lat="40.7242551" lon="14.8131444"><ele>850.5999999999999</ele><time>2026-05-03T09:33:02.957Z</time></trkpt><trkpt lat="40.7243361" lon="14.8130625"><ele>849.4000000000001</ele><time>2026-05-03T09:33:04.959Z</time></trkpt><trkpt lat="40.724443" lon="14.8130237"><ele>848.2</ele><time>2026-05-03T09:33:06.95Z</time></trkpt><trkpt lat="40.7245118" lon="14.8129884"><ele>847.0</ele><time>2026-05-03T09:33:08.955Z</time></trkpt><trkpt lat="40.7245857" lon="14.812942"><ele>844.8333333333333</ele><time>2026-05-03T09:33:11.959Z</time></trkpt><trkpt lat="40.7246571" lon="14.812892"><ele>842.6666666666666</ele><time>2026-05-03T09:33:14.962Z</time></trkpt><trkpt lat="40.7247088" lon="14.8128211"><ele>840.5</ele><time>2026-05-03T09:33:17.949Z</time></trkpt><trkpt lat="40.7247325" lon="14.8127113"><ele>838.3333333333333</ele><time>2026-05-03T09:33:20.957Z</time></trkpt><trkpt lat="40.72476" lon="14.8126124"><ele>836.1666666666666</ele><time>2026-05-03T09:33:22.954Z</time></trkpt><trkpt lat="40.7248221" lon="14.812524"><ele>834.0</ele><time>2026-05-03T09:33:25.958Z</time></trkpt><trkpt lat="40.7248857" lon="14.812444"><ele>832.8333333333334</ele><time>2026-05-03T09:33:29.03Z</time></trkpt><trkpt lat="40.7249279" lon="14.812373"><ele>831.6666666666667</ele><time>2026-05-03T09:33:31.951Z</time></trkpt><trkpt lat="40.7249986" lon="14.8122919"><ele>830.5</ele><time>2026-05-03T09:33:34.956Z</time></trkpt><trkpt lat="40.725056" lon="14.8122368"><ele>829.3333333333334</ele><time>2026-05-03T09:33:36.955Z</time></trkpt><trkpt lat="40.725134" lon="14.8121736"><ele>828.1666666666667</ele><time>2026-05-03T09:33:38.949Z</time></trkpt><trkpt lat="40.7251928" lon="14.8121124"><ele>827.0</ele><time>2026-05-03T09:33:41.024Z</time></trkpt><trkpt lat="40.7252626" lon="14.8120262"><ele>824.6</ele><time>2026-05-03T09:33:42.955Z</time></trkpt><trkpt lat="40.72534" lon="14.8119451"><ele>822.2</ele><time>2026-05-03T09:33:44.956Z</time></trkpt><trkpt lat="40.7254258" lon="14.8118751"><ele>819.8</ele><time>2026-05-03T09:33:46.953Z</time></trkpt><trkpt lat="40.7255307" lon="14.8118152"><ele>817.4</ele><time>2026-05-03T09:33:49.029Z</time></trkpt><trkpt lat="40.7256447" lon="14.811778"><ele>815.0</ele><time>2026-05-03T09:33:50.971Z</time></trkpt><trkpt lat="40.7257599" lon="14.8118013"><ele>813.4</ele><time>2026-05-03T09:33:52.968Z</time></trkpt><trkpt lat="40.7258336" lon="14.8118527"><ele>811.8</ele><time>2026-05-03T09:33:53.965Z</time></trkpt><trkpt lat="40.725959" lon="14.8119145"><ele>810.2</ele><time>2026-05-03T09:33:55.968Z</time></trkpt><trkpt lat="40.7260241" lon="14.8120138"><ele>808.6</ele><time>2026-05-03T09:33:57.971Z</time></trkpt><trkpt lat="40.7260483" lon="14.8121047"><ele>807.0</ele><time>2026-05-03T09:33:59.964Z</time></trkpt><trkpt lat="40.7260735" lon="14.8121835"><ele>806.6666666666666</ele><time>2026-05-03T09:34:01.039Z</time></trkpt><trkpt lat="40.7261279" lon="14.8123283"><ele>806.3333333333333</ele><time>2026-05-03T09:34:03.031Z</time></trkpt><trkpt lat="40.7261719" lon="14.8123881"><ele>806.0</ele><time>2026-05-03T09:34:03.955Z</time></trkpt><trkpt lat="40.7262147" lon="14.8124557"><ele>805.6666666666666</ele><time>2026-05-03T09:34:04.959Z</time></trkpt><trkpt lat="40.7262639" lon="14.8125194"><ele>805.3333333333333</ele><time>2026-05-03T09:34:05.961Z</time></trkpt><trkpt lat="40.7263125" lon="14.8125805"><ele>805.0</ele><time>2026-05-03T09:34:06.958Z</time></trkpt><trkpt lat="40.726356" lon="14.812655"><ele>799.4999999999999</ele><time>2026-05-03T09:34:07.957Z</time></trkpt><trkpt lat="40.7264143" lon="14.8127347"><ele>794.0</ele><time>2026-05-03T09:34:09.959Z</time></trkpt><trkpt lat="40.7264828" lon="14.8127707"><ele>788.5</ele><time>2026-05-03T09:34:11.958Z</time></trkpt><trkpt lat="40.7265612" lon="14.8127841"><ele>783.0</ele><time>2026-05-03T09:34:14.017Z</time></trkpt><trkpt lat="40.7266448" lon="14.812822"><ele>777.4999999999999</ele><time>2026-05-03T09:34:15.958Z</time></trkpt><trkpt lat="40.7267372" lon="14.8128792"><ele>772.0</ele><time>2026-05-03T09:34:18.035Z</time></trkpt><trkpt lat="40.7268377" lon="14.8129267"><ele>768.1666666666666</ele><time>2026-05-03T09:34:19.959Z</time></trkpt><trkpt lat="40.7269404" lon="14.8129357"><ele>764.3333333333333</ele><time>2026-05-03T09:34:21.956Z</time></trkpt><trkpt lat="40.7270039" lon="14.812926"><ele>760.5</ele><time>2026-05-03T09:34:22.957Z</time></trkpt><trkpt lat="40.7271083" lon="14.8129378"><ele>756.6666666666666</ele><time>2026-05-03T09:34:24.95Z</time></trkpt><trkpt lat="40.7271934" lon="14.8129615"><ele>752.8333333333333</ele><time>2026-05-03T09:34:26.96Z</time></trkpt><trkpt lat="40.7272617" lon="14.8129744"><ele>749.0</ele><time>2026-05-03T09:34:28.957Z</time></trkpt><trkpt lat="40.727336" lon="14.8129693"><ele>749.0</ele><time>2026-05-03T09:34:30.959Z</time></trkpt><trkpt lat="40.7274083" lon="14.8129304"><ele>749.0</ele><time>2026-05-03T09:34:33.035Z</time></trkpt><trkpt lat="40.7274675" lon="14.8128872"><ele>749.0</ele><time>2026-05-03T09:34:34.947Z</time></trkpt><trkpt lat="40.7275264" lon="14.8128503"><ele>749.0</ele><time>2026-05-03T09:34:36.958Z</time></trkpt><trkpt lat="40.7275967" lon="14.8128158"><ele>749.0</ele><time>2026-05-03T09:34:38.956Z</time></trkpt><trkpt lat="40.7276591" lon="14.8127622"><ele>749.0</ele><time>2026-05-03T09:34:41.951Z</time></trkpt><trkpt lat="40.7276986" lon="14.8126898"><ele>749.0</ele><time>2026-05-03T09:34:44.957Z</time></trkpt><trkpt lat="40.7277723" lon="14.8126074"><ele>746.8333333333333</ele><time>2026-05-03T09:34:48.023Z</time></trkpt><trkpt lat="40.7278353" lon="14.812524"><ele>744.6666666666666</ele><time>2026-05-03T09:34:50.951Z</time></trkpt><trkpt lat="40.7279072" lon="14.8124327"><ele>742.5</ele><time>2026-05-03T09:34:53.955Z</time></trkpt><trkpt lat="40.7279682" lon="14.812377"><ele>740.3333333333334</ele><time>2026-05-03T09:34:55.957Z</time></trkpt><trkpt lat="40.7279862" lon="14.8122937"><ele>738.1666666666667</ele><time>2026-05-03T09:34:58.955Z</time></trkpt><trkpt lat="40.7279578" lon="14.8122154"><ele>736.0</ele><time>2026-05-03T09:35:02.955Z</time></trkpt><trkpt lat="40.7278982" lon="14.8121339"><ele>736.0</ele><time>2026-05-03T09:35:05.956Z</time></trkpt><trkpt lat="40.7278619" lon="14.8120403"><ele>736.0</ele><time>2026-05-03T09:35:08.941Z</time></trkpt><trkpt lat="40.7278494" lon="14.8119533"><ele>736.0</ele><time>2026-05-03T09:35:11.966Z</time></trkpt><trkpt lat="40.7278118" lon="14.8118774"><ele>736.0</ele><time>2026-05-03T09:35:14.955Z</time></trkpt><trkpt lat="40.7277421" lon="14.8118007"><ele>736.0</ele><time>2026-05-03T09:35:17.951Z</time></trkpt><trkpt lat="40.7276987" lon="14.8117272"><ele>736.0</ele><time>2026-05-03T09:35:19.944Z</time></trkpt><trkpt lat="40.727652" lon="14.8116256"><ele>738.0</ele><time>2026-05-03T09:35:21.956Z</time></trkpt><trkpt lat="40.7275943" lon="14.811475"><ele>740.0</ele><time>2026-05-03T09:35:23.956Z</time></trkpt><trkpt lat="40.727585" lon="14.8113842"><ele>742.0</ele><time>2026-05-03T09:35:24.954Z</time></trkpt><trkpt lat="40.7275917" lon="14.8113006"><ele>744.0</ele><time>2026-05-03T09:35:25.956Z</time></trkpt><trkpt lat="40.7276356" lon="14.8111802"><ele>746.0</ele><time>2026-05-03T09:35:27.953Z</time></trkpt><trkpt lat="40.7276703" lon="14.8110952"><ele>748.0</ele><time>2026-05-03T09:35:29.953Z</time></trkpt><trkpt lat="40.7277017" lon="14.8109698"><ele>748.0</ele><time>2026-05-03T09:35:31.956Z</time></trkpt><trkpt lat="40.727722" lon="14.8108651"><ele>748.0</ele><time>2026-05-03T09:35:33.953Z</time></trkpt><trkpt lat="40.7277281" lon="14.81076"><ele>748.0</ele><time>2026-05-03T09:35:35.951Z</time></trkpt><trkpt lat="40.7277001" lon="14.8106382"><ele>748.0</ele><time>2026-05-03T09:35:38.954Z</time></trkpt><trkpt lat="40.7276207" lon="14.8105777"><ele>748.0</ele><time>2026-05-03T09:35:41.949Z</time></trkpt><trkpt lat="40.7276755" lon="14.8105127"><ele>748.0</ele><time>2026-05-03T09:35:47.952Z</time></trkpt><trkpt lat="40.7277451" lon="14.810566"><ele>743.0</ele><time>2026-05-03T09:35:49.958Z</time></trkpt><trkpt lat="40.7277789" lon="14.8106704"><ele>738.0</ele><time>2026-05-03T09:35:51.951Z</time></trkpt><trkpt lat="40.7277934" lon="14.8108441"><ele>733.0</ele><time>2026-05-03T09:35:53.953Z</time></trkpt><trkpt lat="40.7278045" lon="14.8109745"><ele>728.0</ele><time>2026-05-03T09:35:54.951Z</time></trkpt><trkpt lat="40.7278248" lon="14.8110874"><ele>723.0</ele><time>2026-05-03T09:35:55.954Z</time></trkpt><trkpt lat="40.7278593" lon="14.8111705"><ele>723.0</ele><time>2026-05-03T09:35:57.042Z</time></trkpt><trkpt lat="40.72791" lon="14.8112342"><ele>723.0</ele><time>2026-05-03T09:35:58.031Z</time></trkpt><trkpt lat="40.7279826" lon="14.8112982"><ele>723.0</ele><time>2026-05-03T09:35:59.031Z</time></trkpt><trkpt lat="40.7280529" lon="14.8113338"><ele>723.0</ele><time>2026-05-03T09:35:59.947Z</time></trkpt><trkpt lat="40.7281653" lon="14.8113388"><ele>723.0</ele><time>2026-05-03T09:36:01.999Z</time></trkpt><trkpt lat="40.7282279" lon="14.811353"><ele>723.0</ele><time>2026-05-03T09:36:02.953Z</time></trkpt><trkpt lat="40.7283082" lon="14.8113994"><ele>723.0</ele><time>2026-05-03T09:36:04.038Z</time></trkpt><trkpt lat="40.7283916" lon="14.8114588"><ele>723.0</ele><time>2026-05-03T09:36:04.962Z</time></trkpt><trkpt lat="40.7284759" lon="14.8115096"><ele>723.0</ele><time>2026-05-03T09:36:06.035Z</time></trkpt><trkpt lat="40.7285564" lon="14.8115529"><ele>723.0</ele><time>2026-05-03T09:36:07.029Z</time></trkpt><trkpt lat="40.7286417" lon="14.8115712"><ele>723.0</ele><time>2026-05-03T09:36:08.033Z</time></trkpt><trkpt lat="40.7287309" lon="14.8115853"><ele>717.8333333333334</ele><time>2026-05-03T09:36:09.023Z</time></trkpt><trkpt lat="40.7288115" lon="14.8115964"><ele>712.6666666666666</ele><time>2026-05-03T09:36:09.96Z</time></trkpt><trkpt lat="40.728886" lon="14.8116089"><ele>707.5</ele><time>2026-05-03T09:36:11.033Z</time></trkpt><trkpt lat="40.728964" lon="14.811637"><ele>702.3333333333333</ele><time>2026-05-03T09:36:12.038Z</time></trkpt><trkpt lat="40.7290346" lon="14.8116869"><ele>697.1666666666666</ele><time>2026-05-03T09:36:12.964Z</time></trkpt><trkpt lat="40.7291444" lon="14.8117592"><ele>692.0</ele><time>2026-05-03T09:36:14.961Z</time></trkpt><trkpt lat="40.7292191" lon="14.8117833"><ele>692.0</ele><time>2026-05-03T09:36:15.962Z</time></trkpt><trkpt lat="40.7292915" lon="14.8117991"><ele>692.0</ele><time>2026-05-03T09:36:17.029Z</time></trkpt><trkpt lat="40.7293559" lon="14.8118188"><ele>692.0</ele><time>2026-05-03T09:36:18.022Z</time></trkpt><trkpt lat="40.7294759" lon="14.8118309"><ele>692.0</ele><time>2026-05-03T09:36:19.962Z</time></trkpt><trkpt lat="40.7295851" lon="14.8118139"><ele>692.0</ele><time>2026-05-03T09:36:21.984Z</time></trkpt><trkpt lat="40.7296917" lon="14.8116962"><ele>689.0</ele><time>2026-05-03T09:36:23.961Z</time></trkpt><trkpt lat="40.7297499" lon="14.8115932"><ele>686.0</ele><time>2026-05-03T09:36:24.965Z</time></trkpt><trkpt lat="40.7298315" lon="14.8114844"><ele>683.0</ele><time>2026-05-03T09:36:25.964Z</time></trkpt><trkpt lat="40.7299056" lon="14.8114041"><ele>680.0</ele><time>2026-05-03T09:36:26.966Z</time></trkpt><trkpt lat="40.7299987" lon="14.8113364"><ele>677.0</ele><time>2026-05-03T09:36:27.965Z</time></trkpt><trkpt lat="40.7300955" lon="14.8112692"><ele>677.0</ele><time>2026-05-03T09:36:28.961Z</time></trkpt><trkpt lat="40.7302166" lon="14.8112274"><ele>677.0</ele><time>2026-05-03T09:36:29.966Z</time></trkpt><trkpt lat="40.7303516" lon="14.8111976"><ele>677.0</ele><time>2026-05-03T09:36:30.959Z</time></trkpt><trkpt lat="40.7304756" lon="14.8111595"><ele>677.0</ele><time>2026-05-03T09:36:31.965Z</time></trkpt><trkpt lat="40.7305987" lon="14.8111236"><ele>676.5</ele><time>2026-05-03T09:36:32.974Z</time></trkpt><trkpt lat="40.7307184" lon="14.81109"><ele>676.0</ele><time>2026-05-03T09:36:33.968Z</time></trkpt><trkpt lat="40.7308388" lon="14.8110713"><ele>675.5</ele><time>2026-05-03T09:36:34.963Z</time></trkpt><trkpt lat="40.7309488" lon="14.8110521"><ele>675.0</ele><time>2026-05-03T09:36:35.967Z</time></trkpt><trkpt lat="40.7310534" lon="14.8110226"><ele>676.0</ele><time>2026-05-03T09:36:36.97Z</time></trkpt><trkpt lat="40.7311429" lon="14.8109822"><ele>677.0</ele><time>2026-05-03T09:36:37.964Z</time></trkpt><trkpt lat="40.7312135" lon="14.8109322"><ele>678.0</ele><time>2026-05-03T09:36:38.963Z</time></trkpt><trkpt lat="40.7312751" lon="14.8109015"><ele>679.0</ele><time>2026-05-03T09:36:39.968Z</time></trkpt><trkpt lat="40.7313457" lon="14.8109013"><ele>680.0</ele><time>2026-05-03T09:36:41.045Z</time></trkpt><trkpt lat="40.7314298" lon="14.8109194"><ele>681.0</ele><time>2026-05-03T09:36:41.961Z</time></trkpt><trkpt lat="40.731529" lon="14.8109451"><ele>681.0</ele><time>2026-05-03T09:36:42.96Z</time></trkpt><trkpt lat="40.7316117" lon="14.8109593"><ele>681.0</ele><time>2026-05-03T09:36:43.956Z</time></trkpt><trkpt lat="40.7316754" lon="14.8109394"><ele>681.0</ele><time>2026-05-03T09:36:44.957Z</time></trkpt><trkpt lat="40.7317399" lon="14.8109079"><ele>681.0</ele><time>2026-05-03T09:36:45.955Z</time></trkpt><trkpt lat="40.73184" lon="14.8108558"><ele>681.0</ele><time>2026-05-03T09:36:48.038Z</time></trkpt><trkpt lat="40.7319043" lon="14.8108408"><ele>681.0</ele><time>2026-05-03T09:36:49.035Z</time></trkpt><trkpt lat="40.7319732" lon="14.8108336"><ele>679.5</ele><time>2026-05-03T09:36:49.96Z</time></trkpt><trkpt lat="40.7320571" lon="14.8108113"><ele>678.0</ele><time>2026-05-03T09:36:50.967Z</time></trkpt><trkpt lat="40.7321287" lon="14.8107802"><ele>676.5</ele><time>2026-05-03T09:36:51.964Z</time></trkpt><trkpt lat="40.732211" lon="14.8107474"><ele>675.0</ele><time>2026-05-03T09:36:53.042Z</time></trkpt><trkpt lat="40.732292" lon="14.8107061"><ele>673.5</ele><time>2026-05-03T09:36:53.958Z</time></trkpt><trkpt lat="40.7323587" lon="14.8106822"><ele>672.0</ele><time>2026-05-03T09:36:54.953Z</time></trkpt><trkpt lat="40.7324278" lon="14.8106589"><ele>672.0</ele><time>2026-05-03T09:36:55.949Z</time></trkpt><trkpt lat="40.732563" lon="14.8106657"><ele>672.0</ele><time>2026-05-03T09:36:58.034Z</time></trkpt><trkpt lat="40.7326575" lon="14.8106657"><ele>672.0</ele><time>2026-05-03T09:36:58.962Z</time></trkpt><trkpt lat="40.7327579" lon="14.8106511"><ele>672.0</ele><time>2026-05-03T09:36:59.954Z</time></trkpt><trkpt lat="40.7328569" lon="14.8106242"><ele>672.0</ele><time>2026-05-03T09:37:01.039Z</time></trkpt><trkpt lat="40.7329502" lon="14.8106084"><ele>671.0</ele><time>2026-05-03T09:37:01.959Z</time></trkpt><trkpt lat="40.7330487" lon="14.810616"><ele>670.0</ele><time>2026-05-03T09:37:03.019Z</time></trkpt><trkpt lat="40.7331553" lon="14.8106331"><ele>669.0</ele><time>2026-05-03T09:37:04.028Z</time></trkpt><trkpt lat="40.7332437" lon="14.8106351"><ele>668.0</ele><time>2026-05-03T09:37:04.968Z</time></trkpt><trkpt lat="40.73332" lon="14.8106475"><ele>667.0</ele><time>2026-05-03T09:37:05.979Z</time></trkpt><trkpt lat="40.7333905" lon="14.8106388"><ele>666.0</ele><time>2026-05-03T09:37:06.984Z</time></trkpt><trkpt lat="40.7334685" lon="14.8106124"><ele>666.0</ele><time>2026-05-03T09:37:07.977Z</time></trkpt><trkpt lat="40.7335407" lon="14.8105726"><ele>666.0</ele><time>2026-05-03T09:37:09.043Z</time></trkpt><trkpt lat="40.7335964" lon="14.810531"><ele>666.0</ele><time>2026-05-03T09:37:09.973Z</time></trkpt><trkpt lat="40.7337148" lon="14.8104751"><ele>666.0</ele><time>2026-05-03T09:37:11.988Z</time></trkpt><trkpt lat="40.7337983" lon="14.8104585"><ele>666.0</ele><time>2026-05-03T09:37:13.03Z</time></trkpt><trkpt lat="40.7338819" lon="14.8104458"><ele>666.0</ele><time>2026-05-03T09:37:13.97Z</time></trkpt><trkpt lat="40.73397" lon="14.8104501"><ele>664.1666666666666</ele><time>2026-05-03T09:37:14.976Z</time></trkpt><trkpt lat="40.734066" lon="14.8104429"><ele>662.3333333333334</ele><time>2026-05-03T09:37:15.969Z</time></trkpt><trkpt lat="40.7341579" lon="14.8104467"><ele>660.5</ele><time>2026-05-03T09:37:16.97Z</time></trkpt><trkpt lat="40.7342352" lon="14.8104535"><ele>658.6666666666667</ele><time>2026-05-03T09:37:17.982Z</time></trkpt><trkpt lat="40.7343066" lon="14.8104643"><ele>656.8333333333334</ele><time>2026-05-03T09:37:18.968Z</time></trkpt><trkpt lat="40.7343845" lon="14.8104903"><ele>655.0</ele><time>2026-05-03T09:37:19.972Z</time></trkpt><trkpt lat="40.7344552" lon="14.8105165"><ele>653.0</ele><time>2026-05-03T09:37:21.041Z</time></trkpt><trkpt lat="40.7345333" lon="14.8105253"><ele>651.0</ele><time>2026-05-03T09:37:22Z</time></trkpt><trkpt lat="40.7346157" lon="14.8105176"><ele>649.0</ele><time>2026-05-03T09:37:22.963Z</time></trkpt><trkpt lat="40.734711" lon="14.8104248"><ele>647.0</ele><time>2026-05-03T09:37:24.971Z</time></trkpt><trkpt lat="40.7347517" lon="14.8103314"><ele>645.0</ele><time>2026-05-03T09:37:26.032Z</time></trkpt><trkpt lat="40.7347908" lon="14.8102136"><ele>645.0</ele><time>2026-05-03T09:37:27.047Z</time></trkpt><trkpt lat="40.7348214" lon="14.8101083"><ele>645.0</ele><time>2026-05-03T09:37:27.969Z</time></trkpt><trkpt lat="40.7349309" lon="14.8100379"><ele>645.0</ele><time>2026-05-03T09:37:29.978Z</time></trkpt><trkpt lat="40.7350063" lon="14.8100832"><ele>645.0</ele><time>2026-05-03T09:37:30.971Z</time></trkpt><trkpt lat="40.7350822" lon="14.8101499"><ele>645.0</ele><time>2026-05-03T09:37:31.966Z</time></trkpt><trkpt lat="40.7351502" lon="14.8102264"><ele>644.4</ele><time>2026-05-03T09:37:32.968Z</time></trkpt><trkpt lat="40.7352247" lon="14.8102996"><ele>643.8</ele><time>2026-05-03T09:37:33.959Z</time></trkpt><trkpt lat="40.7352988" lon="14.8103633"><ele>643.2</ele><time>2026-05-03T09:37:34.968Z</time></trkpt><trkpt lat="40.7353693" lon="14.8104401"><ele>642.6</ele><time>2026-05-03T09:37:35.972Z</time></trkpt><trkpt lat="40.7354419" lon="14.8105237"><ele>642.0</ele><time>2026-05-03T09:37:37.031Z</time></trkpt><trkpt lat="40.7355074" lon="14.8105968"><ele>642.0</ele><time>2026-05-03T09:37:37.962Z</time></trkpt><trkpt lat="40.7355572" lon="14.8106559"><ele>642.0</ele><time>2026-05-03T09:37:38.984Z</time></trkpt><trkpt lat="40.7356172" lon="14.8107053"><ele>642.0</ele><time>2026-05-03T09:37:39.971Z</time></trkpt><trkpt lat="40.7356749" lon="14.8107472"><ele>642.0</ele><time>2026-05-03T09:37:40.972Z</time></trkpt><trkpt lat="40.7358182" lon="14.8107854"><ele>642.0</ele><time>2026-05-03T09:37:42.974Z</time></trkpt><trkpt lat="40.7359012" lon="14.8107934"><ele>642.0</ele><time>2026-05-03T09:37:43.973Z</time></trkpt><trkpt lat="40.7359847" lon="14.8108069"><ele>640.2</ele><time>2026-05-03T09:37:44.975Z</time></trkpt><trkpt lat="40.7360667" lon="14.8108154"><ele>638.4000000000001</ele><time>2026-05-03T09:37:45.969Z</time></trkpt><trkpt lat="40.7361507" lon="14.8108106"><ele>636.5999999999999</ele><time>2026-05-03T09:37:46.969Z</time></trkpt><trkpt lat="40.736243" lon="14.8107864"><ele>634.8</ele><time>2026-05-03T09:37:47.972Z</time></trkpt><trkpt lat="40.7363498" lon="14.8107435"><ele>633.0</ele><time>2026-05-03T09:37:48.973Z</time></trkpt><trkpt lat="40.7364559" lon="14.8107062"><ele>633.0</ele><time>2026-05-03T09:37:49.968Z</time></trkpt><trkpt lat="40.7365629" lon="14.810677"><ele>633.0</ele><time>2026-05-03T09:37:50.975Z</time></trkpt><trkpt lat="40.736685" lon="14.8106709"><ele>633.0</ele><time>2026-05-03T09:37:51.977Z</time></trkpt><trkpt lat="40.7367954" lon="14.8106578"><ele>633.0</ele><time>2026-05-03T09:37:52.975Z</time></trkpt><trkpt lat="40.7368884" lon="14.810644"><ele>633.0</ele><time>2026-05-03T09:37:53.971Z</time></trkpt><trkpt lat="40.736967" lon="14.8106361"><ele>633.6666666666666</ele><time>2026-05-03T09:37:54.978Z</time></trkpt><trkpt lat="40.7370313" lon="14.810672"><ele>634.3333333333334</ele><time>2026-05-03T09:37:55.974Z</time></trkpt><trkpt lat="40.7370963" lon="14.8107114"><ele>635.0</ele><time>2026-05-03T09:37:56.974Z</time></trkpt><trkpt lat="40.7371577" lon="14.8107798"><ele>635.6666666666667</ele><time>2026-05-03T09:37:57.97Z</time></trkpt><trkpt lat="40.7372197" lon="14.810856"><ele>636.3333333333334</ele><time>2026-05-03T09:37:58.969Z</time></trkpt><trkpt lat="40.7372869" lon="14.8109207"><ele>637.0</ele><time>2026-05-03T09:37:59.973Z</time></trkpt><trkpt lat="40.7373624" lon="14.8109724"><ele>631.2</ele><time>2026-05-03T09:38:00.973Z</time></trkpt><trkpt lat="40.7374402" lon="14.8110187"><ele>625.4000000000001</ele><time>2026-05-03T09:38:01.965Z</time></trkpt><trkpt lat="40.737515" lon="14.8110483"><ele>619.5999999999999</ele><time>2026-05-03T09:38:02.976Z</time></trkpt><trkpt lat="40.7376046" lon="14.8110842"><ele>613.8</ele><time>2026-05-03T09:38:04.056Z</time></trkpt><trkpt lat="40.7377134" lon="14.8111309"><ele>608.0</ele><time>2026-05-03T09:38:04.975Z</time></trkpt><trkpt lat="40.7378137" lon="14.81117"><ele>608.0</ele><time>2026-05-03T09:38:05.973Z</time></trkpt><trkpt lat="40.7379178" lon="14.8112047"><ele>608.0</ele><time>2026-05-03T09:38:06.995Z</time></trkpt><trkpt lat="40.7380094" lon="14.8112209"><ele>608.0</ele><time>2026-05-03T09:38:08.034Z</time></trkpt><trkpt lat="40.7381081" lon="14.8112203"><ele>608.0</ele><time>2026-05-03T09:38:08.973Z</time></trkpt><trkpt lat="40.7381885" lon="14.8112262"><ele>608.0</ele><time>2026-05-03T09:38:09.973Z</time></trkpt><trkpt lat="40.738254" lon="14.8112395"><ele>608.0</ele><time>2026-05-03T09:38:10.97Z</time></trkpt><trkpt lat="40.7383906" lon="14.8112447"><ele>608.0</ele><time>2026-05-03T09:38:13.034Z</time></trkpt><trkpt lat="40.7384644" lon="14.8112561"><ele>608.0</ele><time>2026-05-03T09:38:14.041Z</time></trkpt><trkpt lat="40.7385449" lon="14.8112906"><ele>608.0</ele><time>2026-05-03T09:38:14.969Z</time></trkpt><trkpt lat="40.7386478" lon="14.81134"><ele>608.0</ele><time>2026-05-03T09:38:15.977Z</time></trkpt><trkpt lat="40.7387592" lon="14.8113837"><ele>608.0</ele><time>2026-05-03T09:38:16.993Z</time></trkpt><trkpt lat="40.7388523" lon="14.8114222"><ele>610.1999999999999</ele><time>2026-05-03T09:38:18.03Z</time></trkpt><trkpt lat="40.7389515" lon="14.8114559"><ele>612.4</ele><time>2026-05-03T09:38:19.032Z</time></trkpt><trkpt lat="40.7390403" lon="14.8114929"><ele>614.5999999999999</ele><time>2026-05-03T09:38:19.968Z</time></trkpt><trkpt lat="40.7390997" lon="14.8115245"><ele>616.8</ele><time>2026-05-03T09:38:20.971Z</time></trkpt><trkpt lat="40.7392305" lon="14.8115596"><ele>619.0</ele><time>2026-05-03T09:38:22.996Z</time></trkpt><trkpt lat="40.7393149" lon="14.8115701"><ele>619.0</ele><time>2026-05-03T09:38:23.973Z</time></trkpt><trkpt lat="40.7393803" lon="14.8115798"><ele>619.0</ele><time>2026-05-03T09:38:24.974Z</time></trkpt><trkpt lat="40.73948" lon="14.8115252"><ele>619.0</ele><time>2026-05-03T09:38:27.034Z</time></trkpt><trkpt lat="40.7395839" lon="14.8114378"><ele>619.0</ele><time>2026-05-03T09:38:28.966Z</time></trkpt><trkpt lat="40.7397001" lon="14.8113655"><ele>619.0</ele><time>2026-05-03T09:38:31.024Z</time></trkpt><trkpt lat="40.7398139" lon="14.8113496"><ele>619.3333333333334</ele><time>2026-05-03T09:38:32.961Z</time></trkpt><trkpt lat="40.739883" lon="14.8112811"><ele>619.6666666666667</ele><time>2026-05-03T09:38:34.968Z</time></trkpt><trkpt lat="40.7399563" lon="14.8111925"><ele>620.0</ele><time>2026-05-03T09:38:36.972Z</time></trkpt><trkpt lat="40.740014" lon="14.8111489"><ele>620.3333333333334</ele><time>2026-05-03T09:38:38.046Z</time></trkpt><trkpt lat="40.7400961" lon="14.8111197"><ele>620.6666666666666</ele><time>2026-05-03T09:38:39.039Z</time></trkpt><trkpt lat="40.740169" lon="14.8110985"><ele>621.0</ele><time>2026-05-03T09:38:39.969Z</time></trkpt><trkpt lat="40.7402369" lon="14.811081"><ele>621.0</ele><time>2026-05-03T09:38:40.964Z</time></trkpt><trkpt lat="40.7403057" lon="14.8110353"><ele>621.0</ele><time>2026-05-03T09:38:41.964Z</time></trkpt><trkpt lat="40.7404041" lon="14.8109698"><ele>621.0</ele><time>2026-05-03T09:38:43.03Z</time></trkpt><trkpt lat="40.7405122" lon="14.8109078"><ele>621.0</ele><time>2026-05-03T09:38:44.024Z</time></trkpt><trkpt lat="40.7406038" lon="14.8108444"><ele>621.0</ele><time>2026-05-03T09:38:44.96Z</time></trkpt><trkpt lat="40.7406775" lon="14.8107689"><ele>615.6666666666666</ele><time>2026-05-03T09:38:45.965Z</time></trkpt><trkpt lat="40.7407394" lon="14.8106951"><ele>610.3333333333334</ele><time>2026-05-03T09:38:46.963Z</time></trkpt><trkpt lat="40.7408202" lon="14.8106206"><ele>605.0</ele><time>2026-05-03T09:38:48.034Z</time></trkpt><trkpt lat="40.7409082" lon="14.8105644"><ele>599.6666666666667</ele><time>2026-05-03T09:38:49.026Z</time></trkpt><trkpt lat="40.7409822" lon="14.8105191"><ele>594.3333333333334</ele><time>2026-05-03T09:38:49.97Z</time></trkpt><trkpt lat="40.7410523" lon="14.8104881"><ele>589.0</ele><time>2026-05-03T09:38:50.97Z</time></trkpt><trkpt lat="40.7411506" lon="14.810474"><ele>587.0</ele><time>2026-05-03T09:38:51.989Z</time></trkpt><trkpt lat="40.7412369" lon="14.8104608"><ele>585.0</ele><time>2026-05-03T09:38:53.022Z</time></trkpt><trkpt lat="40.7413068" lon="14.8104413"><ele>583.0</ele><time>2026-05-03T09:38:53.986Z</time></trkpt><trkpt lat="40.7413688" lon="14.8104142"><ele>581.0</ele><time>2026-05-03T09:38:56.048Z</time></trkpt><trkpt lat="40.7413662" lon="14.8105244"><ele>579.0</ele><time>2026-05-03T09:39:01.947Z</time></trkpt><trkpt lat="40.7413189" lon="14.8105837"><ele>577.0</ele><time>2026-05-03T09:39:03.954Z</time></trkpt><trkpt lat="40.74126" lon="14.8106821"><ele>577.0</ele><time>2026-05-03T09:39:05.955Z</time></trkpt><trkpt lat="40.7411994" lon="14.8107743"><ele>577.0</ele><time>2026-05-03T09:39:08.019Z</time></trkpt><trkpt lat="40.7411325" lon="14.8108807"><ele>577.0</ele><time>2026-05-03T09:39:09.955Z</time></trkpt><trkpt lat="40.741094" lon="14.8109946"><ele>577.0</ele><time>2026-05-03T09:39:11.957Z</time></trkpt><trkpt lat="40.7410743" lon="14.8110969"><ele>577.0</ele><time>2026-05-03T09:39:13.954Z</time></trkpt><trkpt lat="40.7410625" lon="14.8112112"><ele>579.8333333333334</ele><time>2026-05-03T09:39:15.954Z</time></trkpt><trkpt lat="40.7410666" lon="14.8113374"><ele>582.6666666666667</ele><time>2026-05-03T09:39:17.958Z</time></trkpt><trkpt lat="40.7410776" lon="14.8114289"><ele>585.5</ele><time>2026-05-03T09:39:19.954Z</time></trkpt><trkpt lat="40.7411399" lon="14.811499"><ele>588.3333333333334</ele><time>2026-05-03T09:39:22.951Z</time></trkpt><trkpt lat="40.7412082" lon="14.8115327"><ele>591.1666666666666</ele><time>2026-05-03T09:39:24.955Z</time></trkpt><trkpt lat="40.7412953" lon="14.8115821"><ele>594.0</ele><time>2026-05-03T09:39:26.954Z</time></trkpt><trkpt lat="40.7413651" lon="14.8116468"><ele>594.0</ele><time>2026-05-03T09:39:27.948Z</time></trkpt><trkpt lat="40.7414394" lon="14.8117058"><ele>594.0</ele><time>2026-05-03T09:39:28.944Z</time></trkpt><trkpt lat="40.7415062" lon="14.811768"><ele>594.0</ele><time>2026-05-03T09:39:29.96Z</time></trkpt><trkpt lat="40.7415638" lon="14.8118528"><ele>594.0</ele><time>2026-05-03T09:39:30.948Z</time></trkpt><trkpt lat="40.7416251" lon="14.8119275"><ele>594.0</ele><time>2026-05-03T09:39:32.947Z</time></trkpt><trkpt lat="40.7416378" lon="14.8120754"><ele>597.0</ele><time>2026-05-03T09:39:35.949Z</time></trkpt><trkpt lat="40.741635" lon="14.8121633"><ele>600.0</ele><time>2026-05-03T09:39:37.957Z</time></trkpt><trkpt lat="40.7417154" lon="14.812133"><ele>603.0</ele><time>2026-05-03T09:39:40.952Z</time></trkpt><trkpt lat="40.7418404" lon="14.8121653"><ele>606.0</ele><time>2026-05-03T09:39:42.959Z</time></trkpt><trkpt lat="40.7419011" lon="14.8121987"><ele>609.0</ele><time>2026-05-03T09:39:43.951Z</time></trkpt><trkpt lat="40.741976" lon="14.8122359"><ele>612.0</ele><time>2026-05-03T09:39:44.953Z</time></trkpt><trkpt lat="40.7420627" lon="14.8122816"><ele>612.0</ele><time>2026-05-03T09:39:45.95Z</time></trkpt><trkpt lat="40.7421459" lon="14.8123335"><ele>612.0</ele><time>2026-05-03T09:39:46.95Z</time></trkpt><trkpt lat="40.7422058" lon="14.8123796"><ele>612.0</ele><time>2026-05-03T09:39:47.955Z</time></trkpt><trkpt lat="40.7422553" lon="14.8124398"><ele>612.0</ele><time>2026-05-03T09:39:48.953Z</time></trkpt><trkpt lat="40.7423393" lon="14.8125459"><ele>612.0</ele><time>2026-05-03T09:39:50.955Z</time></trkpt><trkpt lat="40.7423784" lon="14.8126159"><ele>612.0</ele><time>2026-05-03T09:39:51.945Z</time></trkpt><trkpt lat="40.7423919" lon="14.812706"><ele>609.3333333333334</ele><time>2026-05-03T09:39:52.961Z</time></trkpt><trkpt lat="40.7424434" lon="14.8128066"><ele>606.6666666666666</ele><time>2026-05-03T09:39:54.952Z</time></trkpt><trkpt lat="40.7425363" lon="14.8128184"><ele>604.0</ele><time>2026-05-03T09:39:56.955Z</time></trkpt><trkpt lat="40.742607" lon="14.812824"><ele>601.3333333333333</ele><time>2026-05-03T09:39:57.956Z</time></trkpt><trkpt lat="40.7426891" lon="14.8128953"><ele>598.6666666666666</ele><time>2026-05-03T09:39:59.962Z</time></trkpt><trkpt lat="40.7427331" lon="14.8129921"><ele>596.0</ele><time>2026-05-03T09:40:01.96Z</time></trkpt><trkpt lat="40.7426997" lon="14.8130688"><ele>603.2</ele><time>2026-05-03T09:40:05.96Z</time></trkpt><trkpt lat="40.7426299" lon="14.8130781"><ele>610.4000000000001</ele><time>2026-05-03T09:40:07.963Z</time></trkpt><trkpt lat="40.7425262" lon="14.8130405"><ele>617.6</ele><time>2026-05-03T09:40:09.959Z</time></trkpt><trkpt lat="40.7424501" lon="14.8130143"><ele>624.8000000000001</ele><time>2026-05-03T09:40:10.967Z</time></trkpt><trkpt lat="40.7423507" lon="14.8129192"><ele>632.0</ele><time>2026-05-03T09:40:13.045Z</time></trkpt><trkpt lat="40.7422601" lon="14.8128659"><ele>632.0</ele><time>2026-05-03T09:40:14.965Z</time></trkpt><trkpt lat="40.7421843" lon="14.812827"><ele>632.0</ele><time>2026-05-03T09:40:15.964Z</time></trkpt><trkpt lat="40.7421102" lon="14.8128191"><ele>632.0</ele><time>2026-05-03T09:40:16.961Z</time></trkpt><trkpt lat="40.7420384" lon="14.8128242"><ele>632.0</ele><time>2026-05-03T09:40:17.961Z</time></trkpt><trkpt lat="40.7419651" lon="14.8128575"><ele>632.0</ele><time>2026-05-03T09:40:18.959Z</time></trkpt><trkpt lat="40.7418978" lon="14.8129036"><ele>632.0</ele><time>2026-05-03T09:40:19.953Z</time></trkpt><trkpt lat="40.7418229" lon="14.8129619"><ele>636.6</ele><time>2026-05-03T09:40:20.964Z</time></trkpt><trkpt lat="40.7417427" lon="14.8130241"><ele>641.2</ele><time>2026-05-03T09:40:21.971Z</time></trkpt><trkpt lat="40.7416529" lon="14.8131013"><ele>645.8</ele><time>2026-05-03T09:40:22.953Z</time></trkpt><trkpt lat="40.7415634" lon="14.8131621"><ele>650.4</ele><time>2026-05-03T09:40:23.952Z</time></trkpt><trkpt lat="40.7414924" lon="14.8131935"><ele>655.0</ele><time>2026-05-03T09:40:24.96Z</time></trkpt><trkpt lat="40.7414131" lon="14.8132098"><ele>655.0</ele><time>2026-05-03T09:40:25.952Z</time></trkpt><trkpt lat="40.7413327" lon="14.8132262"><ele>655.0</ele><time>2026-05-03T09:40:26.954Z</time></trkpt><trkpt lat="40.7412591" lon="14.8132303"><ele>655.0</ele><time>2026-05-03T09:40:27.958Z</time></trkpt><trkpt lat="40.7411954" lon="14.8132273"><ele>655.0</ele><time>2026-05-03T09:40:28.963Z</time></trkpt><trkpt lat="40.7411227" lon="14.8132111"><ele>655.0</ele><time>2026-05-03T09:40:29.956Z</time></trkpt><trkpt lat="40.7410326" lon="14.8131144"><ele>655.0</ele><time>2026-05-03T09:40:31.957Z</time></trkpt><trkpt lat="40.7409635" lon="14.8130109"><ele>654.6</ele><time>2026-05-03T09:40:33.956Z</time></trkpt><trkpt lat="40.7409443" lon="14.8128921"><ele>654.2</ele><time>2026-05-03T09:40:36.96Z</time></trkpt><trkpt lat="40.7408982" lon="14.8128051"><ele>653.8</ele><time>2026-05-03T09:40:38.991Z</time></trkpt><trkpt lat="40.7408298" lon="14.8127313"><ele>653.4</ele><time>2026-05-03T09:40:40.958Z</time></trkpt><trkpt lat="40.7407349" lon="14.8126601"><ele>653.0</ele><time>2026-05-03T09:40:42.96Z</time></trkpt><trkpt lat="40.7406257" lon="14.812617"><ele>653.0</ele><time>2026-05-03T09:40:44.962Z</time></trkpt><trkpt lat="40.7405493" lon="14.8126281"><ele>653.0</ele><time>2026-05-03T09:40:46.966Z</time></trkpt><trkpt lat="40.7406096" lon="14.8127322"><ele>653.0</ele><time>2026-05-03T09:40:50.958Z</time></trkpt><trkpt lat="40.7406935" lon="14.8128298"><ele>653.0</ele><time>2026-05-03T09:40:52.963Z</time></trkpt><trkpt lat="40.7407092" lon="14.8129916"><ele>653.0</ele><time>2026-05-03T09:40:54.961Z</time></trkpt><trkpt lat="40.7407112" lon="14.8131711"><ele>657.0</ele><time>2026-05-03T09:40:56.988Z</time></trkpt><trkpt lat="40.7407209" lon="14.813276"><ele>661.0</ele><time>2026-05-03T09:40:57.97Z</time></trkpt><trkpt lat="40.7407345" lon="14.8133842"><ele>665.0</ele><time>2026-05-03T09:40:59.037Z</time></trkpt><trkpt lat="40.7407539" lon="14.8134847"><ele>669.0</ele><time>2026-05-03T09:40:59.959Z</time></trkpt><trkpt lat="40.7407637" lon="14.8135705"><ele>673.0</ele><time>2026-05-03T09:41:00.963Z</time></trkpt><trkpt lat="40.7407494" lon="14.8136551"><ele>677.0</ele><time>2026-05-03T09:41:01.959Z</time></trkpt><trkpt lat="40.7406652" lon="14.8137749"><ele>679.2857142857142</ele><time>2026-05-03T09:41:03.969Z</time></trkpt><trkpt lat="40.7406024" lon="14.8138103"><ele>681.5714285714286</ele><time>2026-05-03T09:41:04.961Z</time></trkpt><trkpt lat="40.740538" lon="14.8138592"><ele>683.8571428571429</ele><time>2026-05-03T09:41:05.959Z</time></trkpt><trkpt lat="40.7404777" lon="14.8139255"><ele>686.1428571428571</ele><time>2026-05-03T09:41:06.952Z</time></trkpt><trkpt lat="40.7404182" lon="14.8139636"><ele>688.4285714285714</ele><time>2026-05-03T09:41:08.035Z</time></trkpt><trkpt lat="40.7403601" lon="14.8139962"><ele>690.7142857142857</ele><time>2026-05-03T09:41:09.055Z</time></trkpt><trkpt lat="40.7402784" lon="14.8140297"><ele>693.0</ele><time>2026-05-03T09:41:09.974Z</time></trkpt><trkpt lat="40.7402083" lon="14.8140759"><ele>693.0</ele><time>2026-05-03T09:41:10.98Z</time></trkpt><trkpt lat="40.7401589" lon="14.8141303"><ele>693.0</ele><time>2026-05-03T09:41:11.969Z</time></trkpt><trkpt lat="40.7402016" lon="14.8142481"><ele>693.0</ele><time>2026-05-03T09:41:14.017Z</time></trkpt><trkpt lat="40.7402694" lon="14.8142871"><ele>693.0</ele><time>2026-05-03T09:41:14.957Z</time></trkpt><trkpt lat="40.7403334" lon="14.8143195"><ele>693.0</ele><time>2026-05-03T09:41:16.015Z</time></trkpt><trkpt lat="40.740399" lon="14.8143224"><ele>693.0</ele><time>2026-05-03T09:41:17.016Z</time></trkpt><trkpt lat="40.7404673" lon="14.8143161"><ele>693.0</ele><time>2026-05-03T09:41:18.025Z</time></trkpt><trkpt lat="40.7405549" lon="14.8143039"><ele>693.1666666666666</ele><time>2026-05-03T09:41:18.973Z</time></trkpt><trkpt lat="40.7406436" lon="14.8142771"><ele>693.3333333333334</ele><time>2026-05-03T09:41:19.952Z</time></trkpt><trkpt lat="40.7407239" lon="14.8142609"><ele>693.5</ele><time>2026-05-03T09:41:20.958Z</time></trkpt><trkpt lat="40.7407942" lon="14.8142882"><ele>693.6666666666667</ele><time>2026-05-03T09:41:21.952Z</time></trkpt><trkpt lat="40.7408504" lon="14.8143666"><ele>693.8333333333334</ele><time>2026-05-03T09:41:22.954Z</time></trkpt><trkpt lat="40.7409012" lon="14.8144651"><ele>694.0</ele><time>2026-05-03T09:41:23.967Z</time></trkpt><trkpt lat="40.7409505" lon="14.8145592"><ele>691.2</ele><time>2026-05-03T09:41:24.956Z</time></trkpt><trkpt lat="40.7410084" lon="14.8146524"><ele>688.4000000000001</ele><time>2026-05-03T09:41:25.956Z</time></trkpt><trkpt lat="40.7410579" lon="14.8147647"><ele>685.6</ele><time>2026-05-03T09:41:26.956Z</time></trkpt><trkpt lat="40.7410837" lon="14.8148981"><ele>682.8</ele><time>2026-05-03T09:41:28.041Z</time></trkpt><trkpt lat="40.7410955" lon="14.8150198"><ele>680.0</ele><time>2026-05-03T09:41:29.017Z</time></trkpt><trkpt lat="40.7411192" lon="14.8151227"><ele>677.6666666666666</ele><time>2026-05-03T09:41:29.95Z</time></trkpt><trkpt lat="40.7411576" lon="14.8152353"><ele>675.3333333333333</ele><time>2026-05-03T09:41:30.969Z</time></trkpt><trkpt lat="40.7411875" lon="14.8153341"><ele>673.0</ele><time>2026-05-03T09:41:31.96Z</time></trkpt><trkpt lat="40.7412343" lon="14.81541"><ele>670.6666666666666</ele><time>2026-05-03T09:41:32.96Z</time></trkpt><trkpt lat="40.7412656" lon="14.8155091"><ele>668.3333333333334</ele><time>2026-05-03T09:41:33.96Z</time></trkpt><trkpt lat="40.7412774" lon="14.8156146"><ele>666.0</ele><time>2026-05-03T09:41:34.96Z</time></trkpt><trkpt lat="40.7412754" lon="14.8157306"><ele>666.0</ele><time>2026-05-03T09:41:35.962Z</time></trkpt><trkpt lat="40.7412731" lon="14.8158428"><ele>666.0</ele><time>2026-05-03T09:41:37.048Z</time></trkpt><trkpt lat="40.7412791" lon="14.8159475"><ele>666.0</ele><time>2026-05-03T09:41:38.033Z</time></trkpt><trkpt lat="40.7413225" lon="14.8160302"><ele>666.0</ele><time>2026-05-03T09:41:38.957Z</time></trkpt><trkpt lat="40.7413779" lon="14.8161164"><ele>666.0</ele><time>2026-05-03T09:41:39.96Z</time></trkpt><trkpt lat="40.7414409" lon="14.8161901"><ele>666.0</ele><time>2026-05-03T09:41:40.951Z</time></trkpt><trkpt lat="40.7415054" lon="14.8162623"><ele>664.5999999999999</ele><time>2026-05-03T09:41:41.959Z</time></trkpt><trkpt lat="40.7415883" lon="14.8163285"><ele>663.2</ele><time>2026-05-03T09:41:42.961Z</time></trkpt><trkpt lat="40.7416957" lon="14.8164066"><ele>661.8</ele><time>2026-05-03T09:41:43.956Z</time></trkpt><trkpt lat="40.7417979" lon="14.8164801"><ele>660.4000000000001</ele><time>2026-05-03T09:41:44.97Z</time></trkpt><trkpt lat="40.7419045" lon="14.8165232"><ele>659.0</ele><time>2026-05-03T09:41:45.955Z</time></trkpt><trkpt lat="40.7420066" lon="14.8165679"><ele>659.0</ele><time>2026-05-03T09:41:47.045Z</time></trkpt><trkpt lat="40.7420897" lon="14.8166368"><ele>659.0</ele><time>2026-05-03T09:41:48.018Z</time></trkpt><trkpt lat="40.7421612" lon="14.8167405"><ele>659.0</ele><time>2026-05-03T09:41:49.025Z</time></trkpt><trkpt lat="40.7422275" lon="14.8168796"><ele>659.0</ele><time>2026-05-03T09:41:49.981Z</time></trkpt><trkpt lat="40.7422803" lon="14.8170124"><ele>659.0</ele><time>2026-05-03T09:41:51.016Z</time></trkpt><trkpt lat="40.7423164" lon="14.8171016"><ele>661.8333333333333</ele><time>2026-05-03T09:41:52.016Z</time></trkpt><trkpt lat="40.742359" lon="14.8171678"><ele>664.6666666666666</ele><time>2026-05-03T09:41:53.028Z</time></trkpt><trkpt lat="40.7424004" lon="14.8172326"><ele>667.5</ele><time>2026-05-03T09:41:54.031Z</time></trkpt><trkpt lat="40.7424597" lon="14.8173185"><ele>670.3333333333334</ele><time>2026-05-03T09:41:55.965Z</time></trkpt><trkpt lat="40.742534" lon="14.8173622"><ele>673.1666666666667</ele><time>2026-05-03T09:42:13.964Z</time></trkpt><trkpt lat="40.7425992" lon="14.817394"><ele>676.0</ele><time>2026-05-03T09:42:15.95Z</time></trkpt><trkpt lat="40.7426844" lon="14.8173619"><ele>675.4</ele><time>2026-05-03T09:42:17.957Z</time></trkpt><trkpt lat="40.7427809" lon="14.8173219"><ele>674.8</ele><time>2026-05-03T09:42:19.956Z</time></trkpt><trkpt lat="40.7428642" lon="14.8173561"><ele>674.1999999999999</ele><time>2026-05-03T09:42:22.003Z</time></trkpt><trkpt lat="40.7429237" lon="14.8173969"><ele>673.5999999999999</ele><time>2026-05-03T09:42:22.956Z</time></trkpt><trkpt lat="40.7430341" lon="14.8174693"><ele>673.0</ele><time>2026-05-03T09:42:24.96Z</time></trkpt><trkpt lat="40.7431363" lon="14.8175582"><ele>673.0</ele><time>2026-05-03T09:42:26.964Z</time></trkpt><trkpt lat="40.7432255" lon="14.8176512"><ele>673.0</ele><time>2026-05-03T09:42:29.031Z</time></trkpt><trkpt lat="40.7433148" lon="14.8177377"><ele>673.0</ele><time>2026-05-03T09:42:30.958Z</time></trkpt><trkpt lat="40.7433899" lon="14.8177666"><ele>673.0</ele><time>2026-05-03T09:42:32.963Z</time></trkpt><trkpt lat="40.7434636" lon="14.8178196"><ele>673.0</ele><time>2026-05-03T09:42:34.95Z</time></trkpt><trkpt lat="40.7435598" lon="14.8179562"><ele>675.1666666666667</ele><time>2026-05-03T09:42:36.969Z</time></trkpt><trkpt lat="40.743608" lon="14.8180466"><ele>677.3333333333334</ele><time>2026-05-03T09:42:37.956Z</time></trkpt><trkpt lat="40.7437072" lon="14.8180883"><ele>679.5</ele><time>2026-05-03T09:42:39.959Z</time></trkpt><trkpt lat="40.7437735" lon="14.8180697"><ele>681.6666666666666</ele><time>2026-05-03T09:42:40.964Z</time></trkpt><trkpt lat="40.7438394" lon="14.8180549"><ele>683.8333333333333</ele><time>2026-05-03T09:42:41.957Z</time></trkpt><trkpt lat="40.7439023" lon="14.8180505"><ele>686.0</ele><time>2026-05-03T09:42:42.959Z</time></trkpt><trkpt lat="40.7439691" lon="14.8180541"><ele>686.0</ele><time>2026-05-03T09:42:44.026Z</time></trkpt><trkpt lat="40.7440319" lon="14.8180878"><ele>686.0</ele><time>2026-05-03T09:42:44.968Z</time></trkpt><trkpt lat="40.7441242" lon="14.8181276"><ele>686.0</ele><time>2026-05-03T09:42:46.975Z</time></trkpt><trkpt lat="40.7442192" lon="14.8181635"><ele>686.0</ele><time>2026-05-03T09:42:49.031Z</time></trkpt><trkpt lat="40.7443142" lon="14.8182624"><ele>686.0</ele><time>2026-05-03T09:42:50.97Z</time></trkpt><trkpt lat="40.7444425" lon="14.8182959"><ele>680.3333333333333</ele><time>2026-05-03T09:42:52.982Z</time></trkpt><trkpt lat="40.7445442" lon="14.8183234"><ele>674.6666666666666</ele><time>2026-05-03T09:42:55.002Z</time></trkpt><trkpt lat="40.7446297" lon="14.8183281"><ele>669.0</ele><time>2026-05-03T09:42:56.958Z</time></trkpt><trkpt lat="40.7447293" lon="14.8183122"><ele>663.3333333333334</ele><time>2026-05-03T09:42:58.959Z</time></trkpt><trkpt lat="40.7448071" lon="14.818314"><ele>657.6666666666667</ele><time>2026-05-03T09:43:01.061Z</time></trkpt><trkpt lat="40.7448865" lon="14.818339"><ele>652.0</ele><time>2026-05-03T09:43:03.045Z</time></trkpt><trkpt lat="40.7449494" lon="14.8183698"><ele>652.0</ele><time>2026-05-03T09:43:04.959Z</time></trkpt><trkpt lat="40.7449721" lon="14.8184612"><ele>652.0</ele><time>2026-05-03T09:43:06.962Z</time></trkpt><trkpt lat="40.7449826" lon="14.8185764"><ele>652.0</ele><time>2026-05-03T09:43:08.963Z</time></trkpt><trkpt lat="40.7449793" lon="14.8187082"><ele>652.0</ele><time>2026-05-03T09:43:10.964Z</time></trkpt><trkpt lat="40.7449647" lon="14.8188265"><ele>652.0</ele><time>2026-05-03T09:43:13.039Z</time></trkpt><trkpt lat="40.7449297" lon="14.8189264"><ele>652.0</ele><time>2026-05-03T09:43:14.955Z</time></trkpt><trkpt lat="40.7449144" lon="14.8190336"><ele>650.6</ele><time>2026-05-03T09:43:16.954Z</time></trkpt><trkpt lat="40.7448699" lon="14.8191569"><ele>649.2</ele><time>2026-05-03T09:43:18.965Z</time></trkpt><trkpt lat="40.7448043" lon="14.8192963"><ele>647.8</ele><time>2026-05-03T09:43:20.976Z</time></trkpt><trkpt lat="40.7447796" lon="14.8194054"><ele>646.4</ele><time>2026-05-03T09:43:22.955Z</time></trkpt><trkpt lat="40.7448235" lon="14.8194781"><ele>645.0</ele><time>2026-05-03T09:43:26.958Z</time></trkpt><trkpt lat="40.7448643" lon="14.8195812"><ele>642.8</ele><time>2026-05-03T09:43:28.963Z</time></trkpt><trkpt lat="40.7448767" lon="14.8197061"><ele>640.6</ele><time>2026-05-03T09:43:30.956Z</time></trkpt><trkpt lat="40.7448806" lon="14.8198893"><ele>638.4</ele><time>2026-05-03T09:43:32.954Z</time></trkpt><trkpt lat="40.7448798" lon="14.8200124"><ele>636.2</ele><time>2026-05-03T09:43:33.951Z</time></trkpt><trkpt lat="40.744872" lon="14.8201322"><ele>634.0</ele><time>2026-05-03T09:43:34.951Z</time></trkpt><trkpt lat="40.7448601" lon="14.8202356"><ele>634.0</ele><time>2026-05-03T09:43:35.955Z</time></trkpt><trkpt lat="40.7448885" lon="14.8203458"><ele>634.0</ele><time>2026-05-03T09:43:37.955Z</time></trkpt><trkpt lat="40.7449059" lon="14.8204331"><ele>634.0</ele><time>2026-05-03T09:43:39.959Z</time></trkpt><trkpt lat="40.7448827" lon="14.820526"><ele>634.0</ele><time>2026-05-03T09:43:42.053Z</time></trkpt><trkpt lat="40.7448418" lon="14.8205978"><ele>634.0</ele><time>2026-05-03T09:43:45.957Z</time></trkpt><trkpt lat="40.7448824" lon="14.820669"><ele>634.0</ele><time>2026-05-03T09:43:52.028Z</time></trkpt><trkpt lat="40.7449201" lon="14.8207586"><ele>634.0</ele><time>2026-05-03T09:43:55.957Z</time></trkpt><trkpt lat="40.7449485" lon="14.8208474"><ele>634.0</ele><time>2026-05-03T09:43:57.968Z</time></trkpt><trkpt lat="40.744943" lon="14.8209666"><ele>634.0</ele><time>2026-05-03T09:43:59.967Z</time></trkpt><trkpt lat="40.7449365" lon="14.8210772"><ele>634.0</ele><time>2026-05-03T09:44:01.968Z</time></trkpt><trkpt lat="40.7449101" lon="14.8212074"><ele>634.0</ele><time>2026-05-03T09:44:03.966Z</time></trkpt><trkpt lat="40.7448992" lon="14.8212953"><ele>634.0</ele><time>2026-05-03T09:44:05.965Z</time></trkpt><trkpt lat="40.7449246" lon="14.8213725"><ele>634.0</ele><time>2026-05-03T09:44:08.974Z</time></trkpt><trkpt lat="40.7449277" lon="14.8214835"><ele>634.0</ele><time>2026-05-03T09:44:11.964Z</time></trkpt><trkpt lat="40.7449752" lon="14.8215609"><ele>634.0</ele><time>2026-05-03T09:44:16.967Z</time></trkpt><trkpt lat="40.7450455" lon="14.821562"><ele>634.0</ele><time>2026-05-03T09:44:19.038Z</time></trkpt><trkpt lat="40.7451284" lon="14.8215672"><ele>634.0</ele><time>2026-05-03T09:44:20.987Z</time></trkpt><trkpt lat="40.7452234" lon="14.8215653"><ele>634.0</ele><time>2026-05-03T09:44:23.953Z</time></trkpt><trkpt lat="40.7452981" lon="14.8215754"><ele>634.0</ele><time>2026-05-03T09:44:26.063Z</time></trkpt><trkpt lat="40.7453915" lon="14.8215996"><ele>634.0</ele><time>2026-05-03T09:44:28.034Z</time></trkpt><trkpt lat="40.7454631" lon="14.8216145"><ele>634.0</ele><time>2026-05-03T09:44:29.965Z</time></trkpt><trkpt lat="40.7455375" lon="14.8215671"><ele>634.0</ele><time>2026-05-03T09:44:31.962Z</time></trkpt><trkpt lat="40.7456574" lon="14.8215414"><ele>634.0</ele><time>2026-05-03T09:44:33.964Z</time></trkpt><trkpt lat="40.7457269" lon="14.8215348"><ele>634.0</ele><time>2026-05-03T09:44:34.964Z</time></trkpt><trkpt lat="40.7457897" lon="14.8215284"><ele>634.0</ele><time>2026-05-03T09:44:35.964Z</time></trkpt><trkpt lat="40.7458583" lon="14.8215196"><ele>634.0</ele><time>2026-05-03T09:44:37.028Z</time></trkpt><trkpt lat="40.7459223" lon="14.8215179"><ele>634.0</ele><time>2026-05-03T09:44:37.964Z</time></trkpt><trkpt lat="40.7459864" lon="14.8215062"><ele>634.0</ele><time>2026-05-03T09:44:39.022Z</time></trkpt><trkpt lat="40.7460733" lon="14.8214963"><ele>634.0</ele><time>2026-05-03T09:44:39.958Z</time></trkpt><trkpt lat="40.74616" lon="14.8215022"><ele>634.0</ele><time>2026-05-03T09:44:40.961Z</time></trkpt><trkpt lat="40.7462229" lon="14.821526"><ele>634.0</ele><time>2026-05-03T09:44:41.993Z</time></trkpt><trkpt lat="40.7463128" lon="14.8215914"><ele>633.3333333333334</ele><time>2026-05-03T09:44:43.987Z</time></trkpt><trkpt lat="40.7463495" lon="14.8216822"><ele>632.6666666666667</ele><time>2026-05-03T09:44:45.965Z</time></trkpt><trkpt lat="40.7464046" lon="14.8218055"><ele>632.0</ele><time>2026-05-03T09:44:48.039Z</time></trkpt><trkpt lat="40.7464328" lon="14.8218996"><ele>631.3333333333334</ele><time>2026-05-03T09:44:50.954Z</time></trkpt><trkpt lat="40.7464702" lon="14.8219987"><ele>630.6666666666666</ele><time>2026-05-03T09:44:53.956Z</time></trkpt><trkpt lat="40.7464992" lon="14.822103"><ele>630.0</ele><time>2026-05-03T09:44:56.955Z</time></trkpt><trkpt lat="40.7465326" lon="14.822197"><ele>630.0</ele><time>2026-05-03T09:44:58.957Z</time></trkpt><trkpt lat="40.7465656" lon="14.8223126"><ele>630.0</ele><time>2026-05-03T09:45:01.043Z</time></trkpt><trkpt lat="40.7466317" lon="14.8223069"><ele>630.0</ele><time>2026-05-03T09:45:03.956Z</time></trkpt><trkpt lat="40.7467101" lon="14.822324"><ele>630.0</ele><time>2026-05-03T09:45:05.958Z</time></trkpt><trkpt lat="40.7468266" lon="14.8223595"><ele>630.0</ele><time>2026-05-03T09:45:07.966Z</time></trkpt><trkpt lat="40.7469014" lon="14.822401"><ele>630.0</ele><time>2026-05-03T09:45:09.957Z</time></trkpt><trkpt lat="40.7469466" lon="14.8224947"><ele>628.6666666666666</ele><time>2026-05-03T09:45:11.956Z</time></trkpt><trkpt lat="40.74695" lon="14.8226552"><ele>627.3333333333334</ele><time>2026-05-03T09:45:13.945Z</time></trkpt><trkpt lat="40.7469436" lon="14.8227628"><ele>626.0</ele><time>2026-05-03T09:45:14.956Z</time></trkpt><trkpt lat="40.7469435" lon="14.8228638"><ele>624.6666666666667</ele><time>2026-05-03T09:45:15.96Z</time></trkpt><trkpt lat="40.7469566" lon="14.8229481"><ele>623.3333333333334</ele><time>2026-05-03T09:45:17.03Z</time></trkpt><trkpt lat="40.7469732" lon="14.8230323"><ele>622.0</ele><time>2026-05-03T09:45:18.029Z</time></trkpt><trkpt lat="40.7469833" lon="14.8231385"><ele>622.0</ele><time>2026-05-03T09:45:19.954Z</time></trkpt><trkpt lat="40.7470788" lon="14.8231379"><ele>622.0</ele><time>2026-05-03T09:45:23.955Z</time></trkpt><trkpt lat="40.7471974" lon="14.823066"><ele>622.0</ele><time>2026-05-03T09:45:25.977Z</time></trkpt><trkpt lat="40.7472832" lon="14.8230369"><ele>622.0</ele><time>2026-05-03T09:45:26.95Z</time></trkpt><trkpt lat="40.7473684" lon="14.8230169"><ele>622.0</ele><time>2026-05-03T09:45:27.957Z</time></trkpt><trkpt lat="40.7474608" lon="14.8230006"><ele>622.0</ele><time>2026-05-03T09:45:28.95Z</time></trkpt><trkpt lat="40.7475547" lon="14.8229809"><ele>622.0</ele><time>2026-05-03T09:45:29.99Z</time></trkpt><trkpt lat="40.7476349" lon="14.8229608"><ele>622.0</ele><time>2026-05-03T09:45:30.959Z</time></trkpt><trkpt lat="40.7477036" lon="14.8229534"><ele>622.0</ele><time>2026-05-03T09:45:32.031Z</time></trkpt><trkpt lat="40.7477714" lon="14.8229563"><ele>622.0</ele><time>2026-05-03T09:45:33.031Z</time></trkpt><trkpt lat="40.7478694" lon="14.8230192"><ele>622.0</ele><time>2026-05-03T09:45:34.959Z</time></trkpt><trkpt lat="40.7479491" lon="14.8231284"><ele>617.8333333333334</ele><time>2026-05-03T09:45:36.954Z</time></trkpt><trkpt lat="40.7479887" lon="14.8232145"><ele>613.6666666666667</ele><time>2026-05-03T09:45:37.956Z</time></trkpt><trkpt lat="40.7480463" lon="14.8233187"><ele>609.5</ele><time>2026-05-03T09:45:39.956Z</time></trkpt><trkpt lat="40.7481439" lon="14.8233077"><ele>605.3333333333334</ele><time>2026-05-03T09:45:41.952Z</time></trkpt><trkpt lat="40.7482043" lon="14.8233419"><ele>601.1666666666666</ele><time>2026-05-03T09:45:43.079Z</time></trkpt><trkpt lat="40.7482872" lon="14.8233507"><ele>597.0</ele><time>2026-05-03T09:45:44.958Z</time></trkpt><trkpt lat="40.7483517" lon="14.8233326"><ele>597.0</ele><time>2026-05-03T09:45:46.956Z</time></trkpt><trkpt lat="40.7484141" lon="14.8233819"><ele>597.0</ele><time>2026-05-03T09:45:49.95Z</time></trkpt><trkpt lat="40.7484286" lon="14.823497"><ele>597.0</ele><time>2026-05-03T09:45:52.957Z</time></trkpt><trkpt lat="40.7485079" lon="14.8235862"><ele>597.0</ele><time>2026-05-03T09:45:55.955Z</time></trkpt><trkpt lat="40.748577" lon="14.8235968"><ele>597.0</ele><time>2026-05-03T09:45:57.982Z</time></trkpt><trkpt lat="40.7486614" lon="14.8235891"><ele>597.0</ele><time>2026-05-03T09:45:59.949Z</time></trkpt><trkpt lat="40.7487327" lon="14.8235901"><ele>592.8333333333334</ele><time>2026-05-03T09:46:01.948Z</time></trkpt><trkpt lat="40.7487922" lon="14.8235217"><ele>588.6666666666666</ele><time>2026-05-03T09:46:04.955Z</time></trkpt><trkpt lat="40.7488555" lon="14.8234908"><ele>584.5</ele><time>2026-05-03T09:46:06.958Z</time></trkpt><trkpt lat="40.7489424" lon="14.8234338"><ele>580.3333333333333</ele><time>2026-05-03T09:46:09.955Z</time></trkpt><trkpt lat="40.7490028" lon="14.8233832"><ele>576.1666666666666</ele><time>2026-05-03T09:46:11.956Z</time></trkpt><trkpt lat="40.7490665" lon="14.8233679"><ele>572.0</ele><time>2026-05-03T09:46:13.959Z</time></trkpt><trkpt lat="40.7491663" lon="14.8233875"><ele>572.0</ele><time>2026-05-03T09:46:16.944Z</time></trkpt><trkpt lat="40.7492471" lon="14.823396"><ele>572.0</ele><time>2026-05-03T09:46:18.962Z</time></trkpt><trkpt lat="40.7493474" lon="14.8233884"><ele>572.0</ele><time>2026-05-03T09:46:20.951Z</time></trkpt><trkpt lat="40.7494494" lon="14.8233352"><ele>572.0</ele><time>2026-05-03T09:46:22.946Z</time></trkpt><trkpt lat="40.7495473" lon="14.8232758"><ele>572.0</ele><time>2026-05-03T09:46:24.963Z</time></trkpt><trkpt lat="40.7496175" lon="14.8231925"><ele>567.0</ele><time>2026-05-03T09:46:26.953Z</time></trkpt><trkpt lat="40.7496576" lon="14.8231104"><ele>562.0</ele><time>2026-05-03T09:46:29.954Z</time></trkpt><trkpt lat="40.749722" lon="14.8230493"><ele>557.0</ele><time>2026-05-03T09:46:34.96Z</time></trkpt><trkpt lat="40.7497903" lon="14.8229969"><ele>552.0</ele><time>2026-05-03T09:46:37.025Z</time></trkpt><trkpt lat="40.7498678" lon="14.8229425"><ele>547.0</ele><time>2026-05-03T09:46:38.954Z</time></trkpt><trkpt lat="40.7499439" lon="14.8228869"><ele>542.0</ele><time>2026-05-03T09:46:40.96Z</time></trkpt><trkpt lat="40.7499995" lon="14.8228148"><ele>542.0</ele><time>2026-05-03T09:46:42.952Z</time></trkpt><trkpt lat="40.7500741" lon="14.8227839"><ele>542.0</ele><time>2026-05-03T09:46:45.958Z</time></trkpt><trkpt lat="40.7501514" lon="14.8227959"><ele>542.0</ele><time>2026-05-03T09:46:49.956Z</time></trkpt><trkpt lat="40.7502057" lon="14.8227348"><ele>542.0</ele><time>2026-05-03T09:46:52.951Z</time></trkpt><trkpt lat="40.7502458" lon="14.8226575"><ele>542.0</ele><time>2026-05-03T09:46:54.955Z</time></trkpt><trkpt lat="40.750282" lon="14.8225736"><ele>542.0</ele><time>2026-05-03T09:46:56.952Z</time></trkpt><trkpt lat="40.7503339" lon="14.8224886"><ele>538.2</ele><time>2026-05-03T09:46:59.043Z</time></trkpt><trkpt lat="40.7503762" lon="14.8223652"><ele>534.4000000000001</ele><time>2026-05-03T09:47:00.963Z</time></trkpt><trkpt lat="40.7504199" lon="14.8222629"><ele>530.5999999999999</ele><time>2026-05-03T09:47:02.949Z</time></trkpt><trkpt lat="40.7504452" lon="14.8221833"><ele>526.8</ele><time>2026-05-03T09:47:04.96Z</time></trkpt><trkpt lat="40.7504926" lon="14.8220336"><ele>523.0</ele><time>2026-05-03T09:47:06.961Z</time></trkpt><trkpt lat="40.7505834" lon="14.8219272"><ele>523.0</ele><time>2026-05-03T09:47:09.051Z</time></trkpt><trkpt lat="40.7507013" lon="14.8218757"><ele>523.0</ele><time>2026-05-03T09:47:10.972Z</time></trkpt><trkpt lat="40.7507797" lon="14.8218798"><ele>523.0</ele><time>2026-05-03T09:47:11.965Z</time></trkpt><trkpt lat="40.7508518" lon="14.8219072"><ele>523.0</ele><time>2026-05-03T09:47:12.969Z</time></trkpt><trkpt lat="40.7509214" lon="14.821911"><ele>523.0</ele><time>2026-05-03T09:47:13.967Z</time></trkpt><trkpt lat="40.7509796" lon="14.8218684"><ele>523.0</ele><time>2026-05-03T09:47:14.966Z</time></trkpt><trkpt lat="40.7510497" lon="14.8217366"><ele>520.0</ele><time>2026-05-03T09:47:17.038Z</time></trkpt><trkpt lat="40.7510793" lon="14.8216602"><ele>517.0</ele><time>2026-05-03T09:47:18.035Z</time></trkpt><trkpt lat="40.7511187" lon="14.8215915"><ele>514.0</ele><time>2026-05-03T09:47:19.031Z</time></trkpt><trkpt lat="40.7511656" lon="14.8215336"><ele>511.0</ele><time>2026-05-03T09:47:19.979Z</time></trkpt><trkpt lat="40.7512571" lon="14.821473"><ele>508.00000000000006</ele><time>2026-05-03T09:47:21.955Z</time></trkpt><trkpt lat="40.75136" lon="14.8213935"><ele>505.0</ele><time>2026-05-03T09:47:23.946Z</time></trkpt><trkpt lat="40.7514611" lon="14.8213235"><ele>505.0</ele><time>2026-05-03T09:47:25.944Z</time></trkpt><trkpt lat="40.7515546" lon="14.8212675"><ele>505.0</ele><time>2026-05-03T09:47:28.954Z</time></trkpt><trkpt lat="40.751644" lon="14.8211935"><ele>505.0</ele><time>2026-05-03T09:47:30.96Z</time></trkpt><trkpt lat="40.7517219" lon="14.8211166"><ele>505.0</ele><time>2026-05-03T09:47:32.952Z</time></trkpt><trkpt lat="40.7517941" lon="14.8210383"><ele>505.0</ele><time>2026-05-03T09:47:34.962Z</time></trkpt><trkpt lat="40.7518541" lon="14.8209634"><ele>501.33333333333337</ele><time>2026-05-03T09:47:36.959Z</time></trkpt><trkpt lat="40.7519204" lon="14.8208633"><ele>497.6666666666667</ele><time>2026-05-03T09:47:38.958Z</time></trkpt><trkpt lat="40.7519665" lon="14.8208011"><ele>494.0</ele><time>2026-05-03T09:47:39.956Z</time></trkpt><trkpt lat="40.7520143" lon="14.820744"><ele>490.33333333333337</ele><time>2026-05-03T09:47:40.958Z</time></trkpt><trkpt lat="40.7520669" lon="14.8206892"><ele>486.6666666666667</ele><time>2026-05-03T09:47:41.953Z</time></trkpt><trkpt lat="40.7521704" lon="14.8205958"><ele>483.0</ele><time>2026-05-03T09:47:43.956Z</time></trkpt><trkpt lat="40.7522611" lon="14.8205218"><ele>483.0</ele><time>2026-05-03T09:47:45.955Z</time></trkpt><trkpt lat="40.7523277" lon="14.8204609"><ele>483.0</ele><time>2026-05-03T09:47:47.963Z</time></trkpt><trkpt lat="40.7523502" lon="14.8203395"><ele>483.0</ele><time>2026-05-03T09:47:50.966Z</time></trkpt><trkpt lat="40.7523647" lon="14.8201687"><ele>483.0</ele><time>2026-05-03T09:47:52.955Z</time></trkpt><trkpt lat="40.7523821" lon="14.8200771"><ele>483.0</ele><time>2026-05-03T09:47:53.955Z</time></trkpt><trkpt lat="40.7524106" lon="14.8199903"><ele>483.0</ele><time>2026-05-03T09:47:54.954Z</time></trkpt><trkpt lat="40.7524562" lon="14.8199045"><ele>481.0</ele><time>2026-05-03T09:47:55.946Z</time></trkpt><trkpt lat="40.7525071" lon="14.8198203"><ele>479.0</ele><time>2026-05-03T09:47:56.953Z</time></trkpt><trkpt lat="40.7525552" lon="14.8197359"><ele>477.0</ele><time>2026-05-03T09:47:57.961Z</time></trkpt><trkpt lat="40.7525986" lon="14.8196519"><ele>475.0</ele><time>2026-05-03T09:47:58.98Z</time></trkpt><trkpt lat="40.75265" lon="14.8195643"><ele>473.0</ele><time>2026-05-03T09:47:59.952Z</time></trkpt><trkpt lat="40.7527083" lon="14.8194762"><ele>471.0</ele><time>2026-05-03T09:48:00.955Z</time></trkpt><trkpt lat="40.7527717" lon="14.8193896"><ele>469.0</ele><time>2026-05-03T09:48:01.949Z</time></trkpt><trkpt lat="40.752828" lon="14.8192947"><ele>467.0</ele><time>2026-05-03T09:48:02.962Z</time></trkpt><trkpt lat="40.7528788" lon="14.8191968"><ele>465.0</ele><time>2026-05-03T09:48:03.955Z</time></trkpt><trkpt lat="40.7529273" lon="14.8190959"><ele>463.0</ele><time>2026-05-03T09:48:04.951Z</time></trkpt><trkpt lat="40.7529741" lon="14.8190039"><ele>461.0</ele><time>2026-05-03T09:48:05.952Z</time></trkpt><trkpt lat="40.753016" lon="14.8189152"><ele>459.0</ele><time>2026-05-03T09:48:06.958Z</time></trkpt><trkpt lat="40.7530525" lon="14.8188374"><ele>459.0</ele><time>2026-05-03T09:48:07.956Z</time></trkpt><trkpt lat="40.7530951" lon="14.8187446"><ele>459.0</ele><time>2026-05-03T09:48:08.956Z</time></trkpt><trkpt lat="40.7531419" lon="14.8186517"><ele>459.0</ele><time>2026-05-03T09:48:09.963Z</time></trkpt><trkpt lat="40.7531912" lon="14.8185746"><ele>459.0</ele><time>2026-05-03T09:48:10.964Z</time></trkpt><trkpt lat="40.7532437" lon="14.8185197"><ele>459.0</ele><time>2026-05-03T09:48:11.956Z</time></trkpt><trkpt lat="40.7533346" lon="14.8184142"><ele>459.0</ele><time>2026-05-03T09:48:13.954Z</time></trkpt><trkpt lat="40.7534103" lon="14.8184035"><ele>459.0</ele><time>2026-05-03T09:48:15.963Z</time></trkpt><trkpt lat="40.7534979" lon="14.8185168"><ele>459.0</ele><time>2026-05-03T09:48:17.955Z</time></trkpt><trkpt lat="40.7535569" lon="14.8186172"><ele>459.0</ele><time>2026-05-03T09:48:18.961Z</time></trkpt><trkpt lat="40.7536199" lon="14.8187313"><ele>459.0</ele><time>2026-05-03T09:48:19.949Z</time></trkpt><trkpt lat="40.753678" lon="14.8188443"><ele>459.0</ele><time>2026-05-03T09:48:20.958Z</time></trkpt><trkpt lat="40.7537284" lon="14.8189621"><ele>457.6</ele><time>2026-05-03T09:48:21.953Z</time></trkpt><trkpt lat="40.7537737" lon="14.8190798"><ele>456.2</ele><time>2026-05-03T09:48:22.969Z</time></trkpt><trkpt lat="40.7538043" lon="14.8191869"><ele>454.80000000000007</ele><time>2026-05-03T09:48:23.957Z</time></trkpt><trkpt lat="40.7538159" lon="14.8193018"><ele>453.40000000000003</ele><time>2026-05-03T09:48:24.957Z</time></trkpt><trkpt lat="40.7538063" lon="14.8194285"><ele>452.0</ele><time>2026-05-03T09:48:25.953Z</time></trkpt><trkpt lat="40.7538009" lon="14.8195491"><ele>452.0</ele><time>2026-05-03T09:48:26.951Z</time></trkpt><trkpt lat="40.7538063" lon="14.8196681"><ele>452.00000000000006</ele><time>2026-05-03T09:48:27.957Z</time></trkpt><trkpt lat="40.7538227" lon="14.8198021"><ele>452.00000000000006</ele><time>2026-05-03T09:48:28.963Z</time></trkpt><trkpt lat="40.7538447" lon="14.8199231"><ele>452.0</ele><time>2026-05-03T09:48:29.957Z</time></trkpt><trkpt lat="40.7538774" lon="14.8200277"><ele>452.0</ele><time>2026-05-03T09:48:30.954Z</time></trkpt><trkpt lat="40.7539211" lon="14.8201178"><ele>452.6</ele><time>2026-05-03T09:48:31.95Z</time></trkpt><trkpt lat="40.7539858" lon="14.820181"><ele>453.20000000000005</ele><time>2026-05-03T09:48:32.956Z</time></trkpt><trkpt lat="40.7540845" lon="14.8202431"><ele>453.8</ele><time>2026-05-03T09:48:33.949Z</time></trkpt><trkpt lat="40.7541816" lon="14.8203047"><ele>454.4</ele><time>2026-05-03T09:48:34.955Z</time></trkpt><trkpt lat="40.7542765" lon="14.8203367"><ele>455.0</ele><time>2026-05-03T09:48:35.939Z</time></trkpt><trkpt lat="40.7543758" lon="14.8203499"><ele>455.0</ele><time>2026-05-03T09:48:36.941Z</time></trkpt><trkpt lat="40.7544618" lon="14.8203608"><ele>455.0</ele><time>2026-05-03T09:48:37.942Z</time></trkpt><trkpt lat="40.7545435" lon="14.8204277"><ele>455.0</ele><time>2026-05-03T09:48:38.943Z</time></trkpt><trkpt lat="40.7546137" lon="14.8205042"><ele>455.0</ele><time>2026-05-03T09:48:39.947Z</time></trkpt><trkpt lat="40.7546898" lon="14.8205902"><ele>455.0</ele><time>2026-05-03T09:48:40.944Z</time></trkpt><trkpt lat="40.7547715" lon="14.8206742"><ele>455.0</ele><time>2026-05-03T09:48:41.958Z</time></trkpt><trkpt lat="40.7548381" lon="14.8207762"><ele>455.0</ele><time>2026-05-03T09:48:42.949Z</time></trkpt><trkpt lat="40.7548998" lon="14.8209096"><ele>455.0</ele><time>2026-05-03T09:48:43.948Z</time></trkpt><trkpt lat="40.7549476" lon="14.8210368"><ele>455.0</ele><time>2026-05-03T09:48:44.946Z</time></trkpt><trkpt lat="40.7549885" lon="14.8211508"><ele>455.0</ele><time>2026-05-03T09:48:45.949Z</time></trkpt><trkpt lat="40.7550176" lon="14.821268"><ele>454.3333333333333</ele><time>2026-05-03T09:48:46.946Z</time></trkpt><trkpt lat="40.7550424" lon="14.8213829"><ele>453.66666666666663</ele><time>2026-05-03T09:48:47.947Z</time></trkpt><trkpt lat="40.7550785" lon="14.8214846"><ele>453.0</ele><time>2026-05-03T09:48:48.942Z</time></trkpt><trkpt lat="40.7551253" lon="14.8215649"><ele>452.33333333333337</ele><time>2026-05-03T09:48:49.953Z</time></trkpt><trkpt lat="40.7551928" lon="14.8216351"><ele>451.6666666666667</ele><time>2026-05-03T09:48:51.96Z</time></trkpt><trkpt lat="40.7552702" lon="14.8216146"><ele>451.0</ele><time>2026-05-03T09:48:53.947Z</time></trkpt><trkpt lat="40.7553399" lon="14.821521"><ele>451.0</ele><time>2026-05-03T09:48:55.951Z</time></trkpt><trkpt lat="40.7554309" lon="14.8214517"><ele>451.0</ele><time>2026-05-03T09:48:57.955Z</time></trkpt><trkpt lat="40.7555151" lon="14.8213804"><ele>451.0</ele><time>2026-05-03T09:48:59.958Z</time></trkpt><trkpt lat="40.7555094" lon="14.8214688"><ele>451.0</ele><time>2026-05-03T09:49:05.959Z</time></trkpt><trkpt lat="40.7554445" lon="14.8216361"><ele>451.0</ele><time>2026-05-03T09:49:07.948Z</time></trkpt><trkpt lat="40.7554165" lon="14.8217444"><ele>452.6666666666667</ele><time>2026-05-03T09:49:08.956Z</time></trkpt><trkpt lat="40.755392" lon="14.8218483"><ele>454.33333333333337</ele><time>2026-05-03T09:49:09.96Z</time></trkpt><trkpt lat="40.7553839" lon="14.8219469"><ele>456.0</ele><time>2026-05-03T09:49:10.957Z</time></trkpt><trkpt lat="40.755394" lon="14.8220478"><ele>457.66666666666663</ele><time>2026-05-03T09:49:11.952Z</time></trkpt><trkpt lat="40.7554139" lon="14.8221646"><ele>459.3333333333333</ele><time>2026-05-03T09:49:12.964Z</time></trkpt><trkpt lat="40.7554597" lon="14.8222987"><ele>461.0</ele><time>2026-05-03T09:49:13.955Z</time></trkpt><trkpt lat="40.755505" lon="14.8224434"><ele>461.0</ele><time>2026-05-03T09:49:14.958Z</time></trkpt><trkpt lat="40.755539" lon="14.822582"><ele>461.0</ele><time>2026-05-03T09:49:15.953Z</time></trkpt><trkpt lat="40.7555627" lon="14.8227057"><ele>461.0</ele><time>2026-05-03T09:49:16.958Z</time></trkpt><trkpt lat="40.7555553" lon="14.8228328"><ele>461.0</ele><time>2026-05-03T09:49:17.961Z</time></trkpt><trkpt lat="40.7555222" lon="14.8229643"><ele>461.0</ele><time>2026-05-03T09:49:19.019Z</time></trkpt><trkpt lat="40.7554819" lon="14.8230891"><ele>462.16666666666663</ele><time>2026-05-03T09:49:19.958Z</time></trkpt><trkpt lat="40.7554557" lon="14.8231973"><ele>463.3333333333333</ele><time>2026-05-03T09:49:20.953Z</time></trkpt><trkpt lat="40.7554433" lon="14.8232975"><ele>464.5</ele><time>2026-05-03T09:49:21.982Z</time></trkpt><trkpt lat="40.7554535" lon="14.823386"><ele>465.66666666666663</ele><time>2026-05-03T09:49:23.023Z</time></trkpt><trkpt lat="40.7554943" lon="14.823501"><ele>466.8333333333333</ele><time>2026-05-03T09:49:24.015Z</time></trkpt><trkpt lat="40.755564" lon="14.8236146"><ele>468.0</ele><time>2026-05-03T09:49:24.955Z</time></trkpt><trkpt lat="40.7556437" lon="14.8237289"><ele>470.25</ele><time>2026-05-03T09:49:25.953Z</time></trkpt><trkpt lat="40.7557305" lon="14.8238362"><ele>472.5</ele><time>2026-05-03T09:49:27.042Z</time></trkpt><trkpt lat="40.7558268" lon="14.8239616"><ele>474.75</ele><time>2026-05-03T09:49:28.027Z</time></trkpt><trkpt lat="40.7559233" lon="14.8241023"><ele>477.0</ele><time>2026-05-03T09:49:29.021Z</time></trkpt><trkpt lat="40.7560179" lon="14.8242395"><ele>480.0</ele><time>2026-05-03T09:49:29.956Z</time></trkpt><trkpt lat="40.7561069" lon="14.8243574"><ele>483.0</ele><time>2026-05-03T09:49:30.955Z</time></trkpt><trkpt lat="40.7561893" lon="14.8244826"><ele>486.0</ele><time>2026-05-03T09:49:32.073Z</time></trkpt><trkpt lat="40.7562659" lon="14.8246018"><ele>489.0</ele><time>2026-05-03T09:49:33.028Z</time></trkpt><trkpt lat="40.7563363" lon="14.8247037"><ele>489.0</ele><time>2026-05-03T09:49:34.018Z</time></trkpt><trkpt lat="40.756417" lon="14.8247817"><ele>489.0</ele><time>2026-05-03T09:49:34.954Z</time></trkpt><trkpt lat="40.7565097" lon="14.8248496"><ele>489.0</ele><time>2026-05-03T09:49:35.959Z</time></trkpt><trkpt lat="40.7566221" lon="14.8249299"><ele>489.0</ele><time>2026-05-03T09:49:37.041Z</time></trkpt><trkpt lat="40.7567167" lon="14.8250183"><ele>489.0</ele><time>2026-05-03T09:49:38.028Z</time></trkpt><trkpt lat="40.7567963" lon="14.825125"><ele>489.0</ele><time>2026-05-03T09:49:39.026Z</time></trkpt><trkpt lat="40.7568699" lon="14.8252228"><ele>489.0</ele><time>2026-05-03T09:49:39.955Z</time></trkpt><trkpt lat="40.7569357" lon="14.825327"><ele>489.0</ele><time>2026-05-03T09:49:40.963Z</time></trkpt><trkpt lat="40.7569968" lon="14.8254419"><ele>489.0</ele><time>2026-05-03T09:49:41.956Z</time></trkpt><trkpt lat="40.7570552" lon="14.8255559"><ele>490.6</ele><time>2026-05-03T09:49:42.955Z</time></trkpt><trkpt lat="40.7570994" lon="14.8256761"><ele>492.2</ele><time>2026-05-03T09:49:43.951Z</time></trkpt><trkpt lat="40.7571196" lon="14.8257926"><ele>493.80000000000007</ele><time>2026-05-03T09:49:44.955Z</time></trkpt><trkpt lat="40.757121" lon="14.825937"><ele>495.40000000000003</ele><time>2026-05-03T09:49:45.965Z</time></trkpt><trkpt lat="40.7571106" lon="14.8260869"><ele>497.0</ele><time>2026-05-03T09:49:46.954Z</time></trkpt><trkpt lat="40.7571113" lon="14.8262401"><ele>499.40000000000003</ele><time>2026-05-03T09:49:47.958Z</time></trkpt><trkpt lat="40.757115" lon="14.8263918"><ele>501.80000000000007</ele><time>2026-05-03T09:49:48.96Z</time></trkpt><trkpt lat="40.7571277" lon="14.826528"><ele>504.2</ele><time>2026-05-03T09:49:49.954Z</time></trkpt><trkpt lat="40.7571394" lon="14.8266403"><ele>506.6</ele><time>2026-05-03T09:49:50.956Z</time></trkpt><trkpt lat="40.7571855" lon="14.8267286"><ele>509.0</ele><time>2026-05-03T09:49:51.957Z</time></trkpt><trkpt lat="40.7572594" lon="14.8267567"><ele>509.0</ele><time>2026-05-03T09:49:52.982Z</time></trkpt><trkpt lat="40.7573633" lon="14.8267714"><ele>509.0</ele><time>2026-05-03T09:49:53.954Z</time></trkpt><trkpt lat="40.7574698" lon="14.8267933"><ele>509.0</ele><time>2026-05-03T09:49:54.953Z</time></trkpt><trkpt lat="40.7575721" lon="14.8267894"><ele>509.0</ele><time>2026-05-03T09:49:55.95Z</time></trkpt><trkpt lat="40.7576657" lon="14.8267399"><ele>509.0</ele><time>2026-05-03T09:49:57.022Z</time></trkpt><trkpt lat="40.7577469" lon="14.8266496"><ele>509.16666666666663</ele><time>2026-05-03T09:49:57.956Z</time></trkpt><trkpt lat="40.7578034" lon="14.8265874"><ele>509.3333333333333</ele><time>2026-05-03T09:49:58.948Z</time></trkpt><trkpt lat="40.757866" lon="14.8265579"><ele>509.5</ele><time>2026-05-03T09:50:00.96Z</time></trkpt><trkpt lat="40.7579228" lon="14.8266028"><ele>509.66666666666663</ele><time>2026-05-03T09:50:02.95Z</time></trkpt><trkpt lat="40.7579621" lon="14.8267054"><ele>509.8333333333333</ele><time>2026-05-03T09:50:04.956Z</time></trkpt><trkpt lat="40.7579796" lon="14.8268293"><ele>510.0</ele><time>2026-05-03T09:50:06.961Z</time></trkpt><trkpt lat="40.7579839" lon="14.8269257"><ele>511.5</ele><time>2026-05-03T09:50:08.957Z</time></trkpt><trkpt lat="40.7579973" lon="14.8270561"><ele>513.0</ele><time>2026-05-03T09:50:12.037Z</time></trkpt><trkpt lat="40.7579949" lon="14.8271728"><ele>514.5</ele><time>2026-05-03T09:50:14.027Z</time></trkpt><trkpt lat="40.7579528" lon="14.8272637"><ele>516.0</ele><time>2026-05-03T09:50:16.962Z</time></trkpt><trkpt lat="40.7579368" lon="14.8273629"><ele>517.5</ele><time>2026-05-03T09:50:19.962Z</time></trkpt><trkpt lat="40.7579255" lon="14.8274561"><ele>519.0</ele><time>2026-05-03T09:50:21.959Z</time></trkpt><trkpt lat="40.7579054" lon="14.8275553"><ele>521.0</ele><time>2026-05-03T09:50:23.98Z</time></trkpt><trkpt lat="40.7578881" lon="14.8276625"><ele>523.0</ele><time>2026-05-03T09:50:25.958Z</time></trkpt><trkpt lat="40.757846" lon="14.827751"><ele>525.0</ele><time>2026-05-03T09:50:28.963Z</time></trkpt><trkpt lat="40.7578238" lon="14.8278628"><ele>527.0</ele><time>2026-05-03T09:50:40.956Z</time></trkpt><trkpt lat="40.7577764" lon="14.8279377"><ele>529.0</ele><time>2026-05-03T09:50:43.036Z</time></trkpt><trkpt lat="40.7577363" lon="14.8280113"><ele>531.0</ele><time>2026-05-03T09:50:44.955Z</time></trkpt><trkpt lat="40.7577111" lon="14.8281034"><ele>531.3333333333334</ele><time>2026-05-03T09:50:46.957Z</time></trkpt><trkpt lat="40.7576942" lon="14.8282547"><ele>531.6666666666666</ele><time>2026-05-03T09:50:49.039Z</time></trkpt><trkpt lat="40.7576825" lon="14.8283589"><ele>532.0</ele><time>2026-05-03T09:50:49.966Z</time></trkpt><trkpt lat="40.7576748" lon="14.8284521"><ele>532.3333333333333</ele><time>2026-05-03T09:50:50.972Z</time></trkpt><trkpt lat="40.7576606" lon="14.8285392"><ele>532.6666666666666</ele><time>2026-05-03T09:50:51.976Z</time></trkpt><trkpt lat="40.7576448" lon="14.8286209"><ele>533.0</ele><time>2026-05-03T09:50:52.969Z</time></trkpt><trkpt lat="40.7576211" lon="14.8287691"><ele>535.5</ele><time>2026-05-03T09:50:54.973Z</time></trkpt><trkpt lat="40.7576009" lon="14.8288564"><ele>538.0</ele><time>2026-05-03T09:50:55.965Z</time></trkpt><trkpt lat="40.7575774" lon="14.8289611"><ele>540.5</ele><time>2026-05-03T09:50:57.034Z</time></trkpt><trkpt lat="40.7575533" lon="14.8290688"><ele>543.0</ele><time>2026-05-03T09:50:58.036Z</time></trkpt><trkpt lat="40.7575266" lon="14.8291721"><ele>545.5</ele><time>2026-05-03T09:50:58.959Z</time></trkpt><trkpt lat="40.7575037" lon="14.8292709"><ele>548.0</ele><time>2026-05-03T09:50:59.957Z</time></trkpt><trkpt lat="40.7574784" lon="14.8293589"><ele>551.1999999999999</ele><time>2026-05-03T09:51:00.957Z</time></trkpt><trkpt lat="40.7574615" lon="14.8294405"><ele>554.4</ele><time>2026-05-03T09:51:01.961Z</time></trkpt><trkpt lat="40.7574363" lon="14.8295882"><ele>557.5999999999999</ele><time>2026-05-03T09:51:03.958Z</time></trkpt><trkpt lat="40.7574179" lon="14.829747"><ele>560.8</ele><time>2026-05-03T09:51:06.036Z</time></trkpt><trkpt lat="40.7574208" lon="14.8299228"><ele>564.0</ele><time>2026-05-03T09:51:08.03Z</time></trkpt><trkpt lat="40.7574325" lon="14.8300132"><ele>564.0</ele><time>2026-05-03T09:51:08.968Z</time></trkpt><trkpt lat="40.7574403" lon="14.8301247"><ele>564.0</ele><time>2026-05-03T09:51:10.956Z</time></trkpt><trkpt lat="40.7574728" lon="14.8302214"><ele>564.0</ele><time>2026-05-03T09:51:14.067Z</time></trkpt><trkpt lat="40.7574913" lon="14.8303399"><ele>564.0</ele><time>2026-05-03T09:51:16.968Z</time></trkpt><trkpt lat="40.757513" lon="14.830419"><ele>564.0</ele><time>2026-05-03T09:51:18.967Z</time></trkpt><trkpt lat="40.7575394" lon="14.8304976"><ele>564.0</ele><time>2026-05-03T09:51:21.009Z</time></trkpt><trkpt lat="40.7575596" lon="14.8306062"><ele>567.3333333333334</ele><time>2026-05-03T09:51:23.961Z</time></trkpt><trkpt lat="40.757586" lon="14.8307098"><ele>570.6666666666666</ele><time>2026-05-03T09:51:25.968Z</time></trkpt><trkpt lat="40.7576197" lon="14.8307976"><ele>574.0</ele><time>2026-05-03T09:51:27.966Z</time></trkpt><trkpt lat="40.7576479" lon="14.8308867"><ele>577.3333333333333</ele><time>2026-05-03T09:51:29.964Z</time></trkpt><trkpt lat="40.7576637" lon="14.8309992"><ele>580.6666666666666</ele><time>2026-05-03T09:51:32.997Z</time></trkpt><trkpt lat="40.7576829" lon="14.8311002"><ele>584.0</ele><time>2026-05-03T09:51:34.961Z</time></trkpt><trkpt lat="40.7576746" lon="14.8312053"><ele>587.6666666666666</ele><time>2026-05-03T09:51:36.947Z</time></trkpt><trkpt lat="40.7576628" lon="14.8313019"><ele>591.3333333333333</ele><time>2026-05-03T09:51:38.961Z</time></trkpt><trkpt lat="40.7576471" lon="14.8314198"><ele>595.0</ele><time>2026-05-03T09:51:40.982Z</time></trkpt><trkpt lat="40.7576363" lon="14.8315412"><ele>598.6666666666666</ele><time>2026-05-03T09:51:42.943Z</time></trkpt><trkpt lat="40.7576163" lon="14.8316475"><ele>602.3333333333334</ele><time>2026-05-03T09:51:44.955Z</time></trkpt><trkpt lat="40.7576146" lon="14.831754"><ele>606.0</ele><time>2026-05-03T09:51:46.958Z</time></trkpt><trkpt lat="40.7575842" lon="14.8318507"><ele>609.6666666666666</ele><time>2026-05-03T09:51:48.953Z</time></trkpt><trkpt lat="40.757527" lon="14.8319533"><ele>613.3333333333334</ele><time>2026-05-03T09:51:50.959Z</time></trkpt><trkpt lat="40.7574832" lon="14.8320334"><ele>617.0</ele><time>2026-05-03T09:51:52.96Z</time></trkpt><trkpt lat="40.7574429" lon="14.83211"><ele>620.6666666666667</ele><time>2026-05-03T09:51:54.957Z</time></trkpt><trkpt lat="40.7574064" lon="14.8321945"><ele>624.3333333333334</ele><time>2026-05-03T09:51:57.956Z</time></trkpt><trkpt lat="40.7573825" lon="14.8322913"><ele>628.0</ele><time>2026-05-03T09:52:00.955Z</time></trkpt><trkpt lat="40.7573182" lon="14.8323736"><ele>628.0</ele><time>2026-05-03T09:52:04.05Z</time></trkpt><trkpt lat="40.7572912" lon="14.8324537"><ele>628.0</ele><time>2026-05-03T09:52:05.96Z</time></trkpt><trkpt lat="40.7572609" lon="14.8325777"><ele>628.0</ele><time>2026-05-03T09:52:08.96Z</time></trkpt><trkpt lat="40.757244" lon="14.8326844"><ele>628.0</ele><time>2026-05-03T09:52:11.953Z</time></trkpt><trkpt lat="40.7572189" lon="14.8327838"><ele>628.0</ele><time>2026-05-03T09:52:14.953Z</time></trkpt><trkpt lat="40.7571759" lon="14.8328638"><ele>628.0</ele><time>2026-05-03T09:52:17.963Z</time></trkpt><trkpt lat="40.7572369" lon="14.8329195"><ele>632.6666666666667</ele><time>2026-05-03T09:52:29.953Z</time></trkpt><trkpt lat="40.7573069" lon="14.8329065"><ele>637.3333333333334</ele><time>2026-05-03T09:52:33.022Z</time></trkpt><trkpt lat="40.7573787" lon="14.8328862"><ele>642.0</ele><time>2026-05-03T09:52:35.958Z</time></trkpt><trkpt lat="40.7574417" lon="14.832862"><ele>646.6666666666666</ele><time>2026-05-03T09:52:37.95Z</time></trkpt><trkpt lat="40.7575311" lon="14.8328359"><ele>651.3333333333333</ele><time>2026-05-03T09:52:39.95Z</time></trkpt><trkpt lat="40.7576044" lon="14.8328137"><ele>656.0</ele><time>2026-05-03T09:52:41.965Z</time></trkpt><trkpt lat="40.757692" lon="14.832807"><ele>660.1999999999999</ele><time>2026-05-03T09:52:43.97Z</time></trkpt><trkpt lat="40.7577906" lon="14.8328215"><ele>664.4</ele><time>2026-05-03T09:52:45.972Z</time></trkpt><trkpt lat="40.7578762" lon="14.8328187"><ele>668.6</ele><time>2026-05-03T09:52:47.948Z</time></trkpt><trkpt lat="40.7579842" lon="14.8327943"><ele>672.8</ele><time>2026-05-03T09:52:49.956Z</time></trkpt><trkpt lat="40.7580662" lon="14.8327941"><ele>677.0</ele><time>2026-05-03T09:52:50.959Z</time></trkpt><trkpt lat="40.7581445" lon="14.8328175"><ele>677.0</ele><time>2026-05-03T09:52:51.953Z</time></trkpt><trkpt lat="40.7582665" lon="14.8328636"><ele>677.0</ele><time>2026-05-03T09:52:53.958Z</time></trkpt><trkpt lat="40.7583395" lon="14.8329006"><ele>677.0</ele><time>2026-05-03T09:52:54.958Z</time></trkpt><trkpt lat="40.7583979" lon="14.8329334"><ele>677.0</ele><time>2026-05-03T09:52:56.031Z</time></trkpt><trkpt lat="40.7584567" lon="14.8329912"><ele>677.0</ele><time>2026-05-03T09:52:57.015Z</time></trkpt><trkpt lat="40.7585083" lon="14.833042"><ele>677.0</ele><time>2026-05-03T09:52:58.034Z</time></trkpt><trkpt lat="40.7586192" lon="14.8331154"><ele>679.3333333333333</ele><time>2026-05-03T09:52:59.947Z</time></trkpt><trkpt lat="40.7586647" lon="14.8331939"><ele>681.6666666666666</ele><time>2026-05-03T09:53:01.946Z</time></trkpt><trkpt lat="40.7586509" lon="14.8332875"><ele>684.0</ele><time>2026-05-03T09:53:10.968Z</time></trkpt><trkpt lat="40.7587147" lon="14.8333075"><ele>686.3333333333334</ele><time>2026-05-03T09:53:13.968Z</time></trkpt><trkpt lat="40.7588104" lon="14.8332952"><ele>688.6666666666667</ele><time>2026-05-03T09:53:15.965Z</time></trkpt><trkpt lat="40.7589327" lon="14.8332644"><ele>691.0</ele><time>2026-05-03T09:53:17.96Z</time></trkpt><trkpt lat="40.7590033" lon="14.8332213"><ele>691.0</ele><time>2026-05-03T09:53:18.962Z</time></trkpt><trkpt lat="40.7590733" lon="14.8331684"><ele>691.0</ele><time>2026-05-03T09:53:19.96Z</time></trkpt><trkpt lat="40.7591355" lon="14.8330999"><ele>691.0</ele><time>2026-05-03T09:53:20.964Z</time></trkpt><trkpt lat="40.7591859" lon="14.8330148"><ele>691.0</ele><time>2026-05-03T09:53:21.958Z</time></trkpt><trkpt lat="40.7592384" lon="14.8329192"><ele>691.0</ele><time>2026-05-03T09:53:22.964Z</time></trkpt><trkpt lat="40.7593122" lon="14.8328397"><ele>691.0</ele><time>2026-05-03T09:53:24.037Z</time></trkpt><trkpt lat="40.759395" lon="14.8327596"><ele>693.4</ele><time>2026-05-03T09:53:24.949Z</time></trkpt><trkpt lat="40.7594616" lon="14.8326912"><ele>695.8</ele><time>2026-05-03T09:53:25.957Z</time></trkpt><trkpt lat="40.7595242" lon="14.8326342"><ele>698.1999999999999</ele><time>2026-05-03T09:53:26.955Z</time></trkpt><trkpt lat="40.7595966" lon="14.8325883"><ele>700.5999999999999</ele><time>2026-05-03T09:53:27.963Z</time></trkpt><trkpt lat="40.7596937" lon="14.8325655"><ele>703.0</ele><time>2026-05-03T09:53:29.954Z</time></trkpt><trkpt lat="40.7598013" lon="14.8324895"><ele>697.8333333333334</ele><time>2026-05-03T09:53:31.954Z</time></trkpt><trkpt lat="40.7598618" lon="14.8324341"><ele>692.6666666666667</ele><time>2026-05-03T09:53:32.94Z</time></trkpt><trkpt lat="40.7599448" lon="14.8323926"><ele>687.5</ele><time>2026-05-03T09:53:33.978Z</time></trkpt><trkpt lat="40.7600243" lon="14.8323476"><ele>682.3333333333334</ele><time>2026-05-03T09:53:34.947Z</time></trkpt><trkpt lat="40.7601006" lon="14.8323145"><ele>677.1666666666666</ele><time>2026-05-03T09:53:35.948Z</time></trkpt><trkpt lat="40.7601688" lon="14.8322919"><ele>672.0</ele><time>2026-05-03T09:53:36.956Z</time></trkpt><trkpt lat="40.7602438" lon="14.8322851"><ele>669.8</ele><time>2026-05-03T09:53:37.956Z</time></trkpt><trkpt lat="40.760329" lon="14.8322823"><ele>667.6</ele><time>2026-05-03T09:53:38.955Z</time></trkpt><trkpt lat="40.7604446" lon="14.8322828"><ele>665.4</ele><time>2026-05-03T09:53:39.963Z</time></trkpt><trkpt lat="40.7605488" lon="14.8322738"><ele>663.1999999999999</ele><time>2026-05-03T09:53:41.034Z</time></trkpt><trkpt lat="40.7606484" lon="14.8322512"><ele>661.0</ele><time>2026-05-03T09:53:42.033Z</time></trkpt><trkpt lat="40.7607505" lon="14.8322324"><ele>661.0</ele><time>2026-05-03T09:53:42.957Z</time></trkpt><trkpt lat="40.7608541" lon="14.8322285"><ele>661.0</ele><time>2026-05-03T09:53:44.021Z</time></trkpt><trkpt lat="40.7609638" lon="14.8322296"><ele>661.0</ele><time>2026-05-03T09:53:44.96Z</time></trkpt><trkpt lat="40.7610723" lon="14.8322161"><ele>661.0</ele><time>2026-05-03T09:53:45.963Z</time></trkpt><trkpt lat="40.7611939" lon="14.832207"><ele>661.0</ele><time>2026-05-03T09:53:46.967Z</time></trkpt><trkpt lat="40.7613042" lon="14.832175"><ele>655.5999999999999</ele><time>2026-05-03T09:53:47.968Z</time></trkpt><trkpt lat="40.7614112" lon="14.8321364"><ele>650.1999999999999</ele><time>2026-05-03T09:53:48.961Z</time></trkpt><trkpt lat="40.7615138" lon="14.8320829"><ele>644.8</ele><time>2026-05-03T09:53:49.969Z</time></trkpt><trkpt lat="40.7615965" lon="14.8320105"><ele>639.4</ele><time>2026-05-03T09:53:50.962Z</time></trkpt><trkpt lat="40.7616601" lon="14.8319046"><ele>634.0</ele><time>2026-05-03T09:53:52.035Z</time></trkpt><trkpt lat="40.7617132" lon="14.8317793"><ele>632.8</ele><time>2026-05-03T09:53:53.037Z</time></trkpt><trkpt lat="40.761756" lon="14.8316582"><ele>631.5999999999999</ele><time>2026-05-03T09:53:54.032Z</time></trkpt><trkpt lat="40.7617981" lon="14.8315316"><ele>630.4</ele><time>2026-05-03T09:53:54.964Z</time></trkpt><trkpt lat="40.7618399" lon="14.8314019"><ele>629.1999999999999</ele><time>2026-05-03T09:53:55.961Z</time></trkpt><trkpt lat="40.7618772" lon="14.831269"><ele>628.0</ele><time>2026-05-03T09:53:56.981Z</time></trkpt><trkpt lat="40.7619111" lon="14.8311344"><ele>625.5</ele><time>2026-05-03T09:53:57.957Z</time></trkpt><trkpt lat="40.7619471" lon="14.8310104"><ele>623.0</ele><time>2026-05-03T09:53:59.052Z</time></trkpt><trkpt lat="40.7619981" lon="14.8309135"><ele>620.5</ele><time>2026-05-03T09:53:59.955Z</time></trkpt><trkpt lat="40.7620611" lon="14.8308364"><ele>618.0</ele><time>2026-05-03T09:54:00.962Z</time></trkpt><trkpt lat="40.7621233" lon="14.8307488"><ele>615.5</ele><time>2026-05-03T09:54:01.953Z</time></trkpt><trkpt lat="40.7621748" lon="14.8306698"><ele>613.0</ele><time>2026-05-03T09:54:02.951Z</time></trkpt><trkpt lat="40.7622103" lon="14.8305987"><ele>613.0</ele><time>2026-05-03T09:54:03.951Z</time></trkpt><trkpt lat="40.7622475" lon="14.8305055"><ele>613.0</ele><time>2026-05-03T09:54:06.04Z</time></trkpt><trkpt lat="40.7622491" lon="14.8304146"><ele>613.0</ele><time>2026-05-03T09:55:01.961Z</time></trkpt><trkpt lat="40.7622426" lon="14.8303006"><ele>613.0</ele><time>2026-05-03T09:55:04.961Z</time></trkpt><trkpt lat="40.7622377" lon="14.8301545"><ele>613.0</ele><time>2026-05-03T09:55:06.956Z</time></trkpt><trkpt lat="40.762246" lon="14.8300376"><ele>613.0</ele><time>2026-05-03T09:55:08.048Z</time></trkpt><trkpt lat="40.7622594" lon="14.8299195"><ele>614.1666666666667</ele><time>2026-05-03T09:55:09.053Z</time></trkpt><trkpt lat="40.7622756" lon="14.8298189"><ele>615.3333333333334</ele><time>2026-05-03T09:55:09.96Z</time></trkpt><trkpt lat="40.7622886" lon="14.8297116"><ele>616.5</ele><time>2026-05-03T09:55:10.961Z</time></trkpt><trkpt lat="40.7623015" lon="14.829606"><ele>617.6666666666666</ele><time>2026-05-03T09:55:11.956Z</time></trkpt><trkpt lat="40.7623157" lon="14.8294995"><ele>618.8333333333333</ele><time>2026-05-03T09:55:12.956Z</time></trkpt><trkpt lat="40.7623169" lon="14.8293971"><ele>620.0</ele><time>2026-05-03T09:55:13.958Z</time></trkpt><trkpt lat="40.7623205" lon="14.8293099"><ele>620.0</ele><time>2026-05-03T09:55:14.959Z</time></trkpt><trkpt lat="40.7623153" lon="14.8291488"><ele>620.0</ele><time>2026-05-03T09:55:17.032Z</time></trkpt><trkpt lat="40.7622924" lon="14.8290297"><ele>620.0</ele><time>2026-05-03T09:55:19.035Z</time></trkpt><trkpt lat="40.7622041" lon="14.8290701"><ele>620.0</ele><time>2026-05-03T09:55:21.952Z</time></trkpt><trkpt lat="40.7621738" lon="14.8291462"><ele>620.0</ele><time>2026-05-03T09:55:22.968Z</time></trkpt><trkpt lat="40.7621611" lon="14.8292376"><ele>620.0</ele><time>2026-05-03T09:55:24.033Z</time></trkpt><trkpt lat="40.7621463" lon="14.8293286"><ele>620.0</ele><time>2026-05-03T09:55:24.965Z</time></trkpt><trkpt lat="40.7621125" lon="14.8294094"><ele>620.0</ele><time>2026-05-03T09:55:25.963Z</time></trkpt><trkpt lat="40.762073" lon="14.8294785"><ele>620.0</ele><time>2026-05-03T09:55:26.961Z</time></trkpt><trkpt lat="40.7620372" lon="14.8295483"><ele>620.0</ele><time>2026-05-03T09:55:27.962Z</time></trkpt><trkpt lat="40.7619552" lon="14.8296656"><ele>620.0</ele><time>2026-05-03T09:55:29.97Z</time></trkpt><trkpt lat="40.7618746" lon="14.829783"><ele>620.0</ele><time>2026-05-03T09:55:31.976Z</time></trkpt><trkpt lat="40.7618323" lon="14.8298519"><ele>618.3333333333333</ele><time>2026-05-03T09:55:32.996Z</time></trkpt><trkpt lat="40.7617527" lon="14.8299805"><ele>616.6666666666666</ele><time>2026-05-03T09:55:34.96Z</time></trkpt><trkpt lat="40.7616988" lon="14.8300266"><ele>615.0</ele><time>2026-05-03T09:55:35.962Z</time></trkpt><trkpt lat="40.761646" lon="14.8300766"><ele>613.3333333333334</ele><time>2026-05-03T09:55:36.956Z</time></trkpt><trkpt lat="40.7615814" lon="14.8301259"><ele>611.6666666666667</ele><time>2026-05-03T09:55:37.96Z</time></trkpt><trkpt lat="40.7615174" lon="14.8301823"><ele>610.0</ele><time>2026-05-03T09:55:38.958Z</time></trkpt><trkpt lat="40.7614599" lon="14.8302387"><ele>610.0</ele><time>2026-05-03T09:55:39.966Z</time></trkpt><trkpt lat="40.7614038" lon="14.8303096"><ele>610.0</ele><time>2026-05-03T09:55:40.964Z</time></trkpt><trkpt lat="40.7613478" lon="14.8303746"><ele>610.0</ele><time>2026-05-03T09:55:41.958Z</time></trkpt><trkpt lat="40.7612758" lon="14.830416"><ele>610.0</ele><time>2026-05-03T09:55:42.969Z</time></trkpt><trkpt lat="40.7612002" lon="14.8304036"><ele>610.0</ele><time>2026-05-03T09:55:43.963Z</time></trkpt><trkpt lat="40.7611335" lon="14.8303884"><ele>610.0</ele><time>2026-05-03T09:55:44.962Z</time></trkpt><trkpt lat="40.7610675" lon="14.8303691"><ele>610.0</ele><time>2026-05-03T09:55:46.057Z</time></trkpt><trkpt lat="40.7609942" lon="14.8303699"><ele>607.4</ele><time>2026-05-03T09:55:47.029Z</time></trkpt><trkpt lat="40.7609315" lon="14.8303865"><ele>604.8</ele><time>2026-05-03T09:55:48.034Z</time></trkpt><trkpt lat="40.7608158" lon="14.8304569"><ele>602.2</ele><time>2026-05-03T09:55:49.948Z</time></trkpt><trkpt lat="40.7606961" lon="14.8304537"><ele>599.6</ele><time>2026-05-03T09:55:51.95Z</time></trkpt><trkpt lat="40.7606243" lon="14.8304164"><ele>597.0</ele><time>2026-05-03T09:55:53.043Z</time></trkpt><trkpt lat="40.760571" lon="14.8303653"><ele>597.0</ele><time>2026-05-03T09:55:54.032Z</time></trkpt><trkpt lat="40.7605161" lon="14.8303083"><ele>597.0</ele><time>2026-05-03T09:55:54.946Z</time></trkpt><trkpt lat="40.7604622" lon="14.8302487"><ele>597.0</ele><time>2026-05-03T09:55:55.954Z</time></trkpt><trkpt lat="40.7603928" lon="14.8301829"><ele>597.0</ele><time>2026-05-03T09:55:56.963Z</time></trkpt><trkpt lat="40.7603229" lon="14.8301171"><ele>597.0</ele><time>2026-05-03T09:55:58.025Z</time></trkpt><trkpt lat="40.7602499" lon="14.8300462"><ele>597.0</ele><time>2026-05-03T09:55:59.035Z</time></trkpt><trkpt lat="40.7601591" lon="14.8299641"><ele>591.4</ele><time>2026-05-03T09:55:59.943Z</time></trkpt><trkpt lat="40.7600666" lon="14.8298891"><ele>585.8000000000001</ele><time>2026-05-03T09:56:00.94Z</time></trkpt><trkpt lat="40.7599664" lon="14.8298295"><ele>580.2</ele><time>2026-05-03T09:56:01.948Z</time></trkpt><trkpt lat="40.759875" lon="14.8297624"><ele>574.6</ele><time>2026-05-03T09:56:02.945Z</time></trkpt><trkpt lat="40.7597905" lon="14.8296898"><ele>569.0</ele><time>2026-05-03T09:56:03.942Z</time></trkpt><trkpt lat="40.7597052" lon="14.8296075"><ele>569.0</ele><time>2026-05-03T09:56:04.949Z</time></trkpt><trkpt lat="40.7596125" lon="14.8295265"><ele>569.0</ele><time>2026-05-03T09:56:06.011Z</time></trkpt><trkpt lat="40.7595098" lon="14.8294514"><ele>569.0</ele><time>2026-05-03T09:56:07.028Z</time></trkpt><trkpt lat="40.7594256" lon="14.8293834"><ele>569.0</ele><time>2026-05-03T09:56:07.963Z</time></trkpt><trkpt lat="40.7593389" lon="14.8293147"><ele>569.0</ele><time>2026-05-03T09:56:08.956Z</time></trkpt><trkpt lat="40.7592483" lon="14.8292356"><ele>566.0</ele><time>2026-05-03T09:56:09.968Z</time></trkpt><trkpt lat="40.7591662" lon="14.8291574"><ele>563.0</ele><time>2026-05-03T09:56:10.969Z</time></trkpt><trkpt lat="40.7590844" lon="14.8290812"><ele>560.0</ele><time>2026-05-03T09:56:11.964Z</time></trkpt><trkpt lat="40.7590096" lon="14.8290027"><ele>557.0</ele><time>2026-05-03T09:56:12.967Z</time></trkpt><trkpt lat="40.7589467" lon="14.8289073"><ele>554.0</ele><time>2026-05-03T09:56:14.045Z</time></trkpt><trkpt lat="40.7588928" lon="14.8288258"><ele>554.0</ele><time>2026-05-03T09:56:14.947Z</time></trkpt><trkpt lat="40.7588524" lon="14.8287337"><ele>554.0</ele><time>2026-05-03T09:56:15.95Z</time></trkpt><trkpt lat="40.758808" lon="14.8286534"><ele>554.0</ele><time>2026-05-03T09:56:17.081Z</time></trkpt><trkpt lat="40.7586576" lon="14.8285942"><ele>554.0</ele><time>2026-05-03T09:56:19.023Z</time></trkpt><trkpt lat="40.7585575" lon="14.8286306"><ele>554.0</ele><time>2026-05-03T09:56:19.961Z</time></trkpt><trkpt lat="40.7584627" lon="14.8286912"><ele>552.4</ele><time>2026-05-03T09:56:20.961Z</time></trkpt><trkpt lat="40.7583951" lon="14.8287547"><ele>550.8</ele><time>2026-05-03T09:56:21.974Z</time></trkpt><trkpt lat="40.7583312" lon="14.8288293"><ele>549.2</ele><time>2026-05-03T09:56:23.05Z</time></trkpt><trkpt lat="40.7582732" lon="14.8289276"><ele>547.6</ele><time>2026-05-03T09:56:24.037Z</time></trkpt><trkpt lat="40.7582208" lon="14.8290277"><ele>546.0</ele><time>2026-05-03T09:56:24.954Z</time></trkpt><trkpt lat="40.7581905" lon="14.8291476"><ele>547.3333333333334</ele><time>2026-05-03T09:56:26.07Z</time></trkpt><trkpt lat="40.7581606" lon="14.8293474"><ele>548.6666666666666</ele><time>2026-05-03T09:56:28.028Z</time></trkpt><trkpt lat="40.7581174" lon="14.82941"><ele>550.0</ele><time>2026-05-03T09:56:29.022Z</time></trkpt><trkpt lat="40.7580508" lon="14.8294398"><ele>551.3333333333333</ele><time>2026-05-03T09:56:29.964Z</time></trkpt><trkpt lat="40.7579849" lon="14.8294368"><ele>552.6666666666666</ele><time>2026-05-03T09:56:30.961Z</time></trkpt><trkpt lat="40.7579248" lon="14.8293954"><ele>554.0</ele><time>2026-05-03T09:56:32.06Z</time></trkpt><trkpt lat="40.757885" lon="14.8293171"><ele>552.6666666666666</ele><time>2026-05-03T09:56:33.032Z</time></trkpt><trkpt lat="40.7578553" lon="14.8292262"><ele>551.3333333333333</ele><time>2026-05-03T09:56:34.034Z</time></trkpt><trkpt lat="40.7578527" lon="14.8291203"><ele>550.0</ele><time>2026-05-03T09:56:34.957Z</time></trkpt><trkpt lat="40.757862" lon="14.8290105"><ele>548.6666666666666</ele><time>2026-05-03T09:56:35.961Z</time></trkpt><trkpt lat="40.7578826" lon="14.8289048"><ele>547.3333333333334</ele><time>2026-05-03T09:56:37.064Z</time></trkpt><trkpt lat="40.7578947" lon="14.8288023"><ele>546.0</ele><time>2026-05-03T09:56:38.026Z</time></trkpt><trkpt lat="40.7579101" lon="14.8286986"><ele>546.0</ele><time>2026-05-03T09:56:38.961Z</time></trkpt><trkpt lat="40.7579291" lon="14.8285983"><ele>546.0</ele><time>2026-05-03T09:56:39.964Z</time></trkpt><trkpt lat="40.7579522" lon="14.8284834"><ele>546.0</ele><time>2026-05-03T09:56:40.963Z</time></trkpt><trkpt lat="40.7579666" lon="14.8283653"><ele>546.0</ele><time>2026-05-03T09:56:41.958Z</time></trkpt><trkpt lat="40.7579841" lon="14.8282459"><ele>546.0</ele><time>2026-05-03T09:56:42.963Z</time></trkpt><trkpt lat="40.7579962" lon="14.828126"><ele>546.0</ele><time>2026-05-03T09:56:43.957Z</time></trkpt><trkpt lat="40.7579893" lon="14.8280128"><ele>543.5</ele><time>2026-05-03T09:56:44.957Z</time></trkpt><trkpt lat="40.7579857" lon="14.8279068"><ele>541.0</ele><time>2026-05-03T09:56:46.032Z</time></trkpt><trkpt lat="40.7579877" lon="14.8277906"><ele>538.5</ele><time>2026-05-03T09:56:47.017Z</time></trkpt><trkpt lat="40.7579958" lon="14.8276885"><ele>536.0</ele><time>2026-05-03T09:56:48.028Z</time></trkpt><trkpt lat="40.7580011" lon="14.8275899"><ele>533.5</ele><time>2026-05-03T09:56:48.991Z</time></trkpt><trkpt lat="40.7580029" lon="14.8274429"><ele>531.0</ele><time>2026-05-03T09:56:50.959Z</time></trkpt><trkpt lat="40.7579899" lon="14.827346"><ele>531.0</ele><time>2026-05-03T09:56:54.962Z</time></trkpt><trkpt lat="40.7579512" lon="14.8274126"><ele>531.0</ele><time>2026-05-03T09:57:04.041Z</time></trkpt><trkpt lat="40.7579173" lon="14.8275332"><ele>531.0</ele><time>2026-05-03T09:57:06.958Z</time></trkpt><trkpt lat="40.7578986" lon="14.8276129"><ele>531.0</ele><time>2026-05-03T09:57:08.951Z</time></trkpt><trkpt lat="40.7578706" lon="14.8276924"><ele>531.0</ele><time>2026-05-03T09:57:29.947Z</time></trkpt><trkpt lat="40.7578534" lon="14.8277755"><ele>531.0</ele><time>2026-05-03T09:57:32.96Z</time></trkpt><trkpt lat="40.7578426" lon="14.8278597"><ele>531.0</ele><time>2026-05-03T09:57:35.061Z</time></trkpt><trkpt lat="40.7577958" lon="14.8279445"><ele>531.0</ele><time>2026-05-03T09:57:37.963Z</time></trkpt><trkpt lat="40.7577572" lon="14.8280436"><ele>531.0</ele><time>2026-05-03T09:57:40.956Z</time></trkpt><trkpt lat="40.7577386" lon="14.8281667"><ele>531.0</ele><time>2026-05-03T09:57:43.952Z</time></trkpt><trkpt lat="40.7577313" lon="14.8282691"><ele>531.0</ele><time>2026-05-03T09:57:45.955Z</time></trkpt><trkpt lat="40.757725" lon="14.8283749"><ele>531.0</ele><time>2026-05-03T09:57:47.958Z</time></trkpt><trkpt lat="40.7576987" lon="14.8284931"><ele>531.0</ele><time>2026-05-03T09:57:49.948Z</time></trkpt><trkpt lat="40.757662" lon="14.8286008"><ele>533.8333333333334</ele><time>2026-05-03T09:57:51.951Z</time></trkpt><trkpt lat="40.7576137" lon="14.8287687"><ele>536.6666666666666</ele><time>2026-05-03T09:57:53.952Z</time></trkpt><trkpt lat="40.7575978" lon="14.8288655"><ele>539.5</ele><time>2026-05-03T09:57:55.04Z</time></trkpt><trkpt lat="40.7575853" lon="14.8289588"><ele>542.3333333333333</ele><time>2026-05-03T09:57:56.027Z</time></trkpt><trkpt lat="40.7575688" lon="14.8290509"><ele>545.1666666666666</ele><time>2026-05-03T09:57:57.032Z</time></trkpt><trkpt lat="40.7575362" lon="14.8291597"><ele>548.0</ele><time>2026-05-03T09:57:57.949Z</time></trkpt><trkpt lat="40.7575038" lon="14.8292658"><ele>551.1999999999999</ele><time>2026-05-03T09:57:58.946Z</time></trkpt><trkpt lat="40.7574842" lon="14.8293519"><ele>554.4</ele><time>2026-05-03T09:57:59.954Z</time></trkpt><trkpt lat="40.7574787" lon="14.8294408"><ele>557.5999999999999</ele><time>2026-05-03T09:58:00.954Z</time></trkpt><trkpt lat="40.7574676" lon="14.8296032"><ele>560.8</ele><time>2026-05-03T09:58:02.95Z</time></trkpt><trkpt lat="40.7574631" lon="14.8297642"><ele>564.0</ele><time>2026-05-03T09:58:05.035Z</time></trkpt><trkpt lat="40.7574669" lon="14.8299372"><ele>564.0</ele><time>2026-05-03T09:58:06.949Z</time></trkpt><trkpt lat="40.7574763" lon="14.8300911"><ele>564.0</ele><time>2026-05-03T09:58:08.955Z</time></trkpt><trkpt lat="40.7574874" lon="14.8302154"><ele>564.0</ele><time>2026-05-03T09:58:10.959Z</time></trkpt><trkpt lat="40.7575016" lon="14.830304"><ele>564.0</ele><time>2026-05-03T09:58:12.955Z</time></trkpt><trkpt lat="40.7575301" lon="14.83042"><ele>564.0</ele><time>2026-05-03T09:58:15.946Z</time></trkpt><trkpt lat="40.7575547" lon="14.8305292"><ele>567.3333333333334</ele><time>2026-05-03T09:58:17.945Z</time></trkpt><trkpt lat="40.7575959" lon="14.830634"><ele>570.6666666666666</ele><time>2026-05-03T09:58:20.04Z</time></trkpt><trkpt lat="40.7576165" lon="14.8307351"><ele>574.0</ele><time>2026-05-03T09:58:22.035Z</time></trkpt><trkpt lat="40.7576347" lon="14.8308203"><ele>577.3333333333333</ele><time>2026-05-03T09:58:23.949Z</time></trkpt><trkpt lat="40.7576531" lon="14.8309325"><ele>580.6666666666666</ele><time>2026-05-03T09:58:26.956Z</time></trkpt><trkpt lat="40.7576594" lon="14.831019"><ele>584.0</ele><time>2026-05-03T09:58:28.971Z</time></trkpt><trkpt lat="40.7576809" lon="14.8311475"><ele>587.6666666666666</ele><time>2026-05-03T09:58:31.953Z</time></trkpt><trkpt lat="40.7577019" lon="14.8312504"><ele>591.3333333333333</ele><time>2026-05-03T09:58:33.954Z</time></trkpt><trkpt lat="40.7577181" lon="14.8313527"><ele>595.0</ele><time>2026-05-03T09:58:35.957Z</time></trkpt><trkpt lat="40.7577114" lon="14.8314755"><ele>598.6666666666666</ele><time>2026-05-03T09:58:37.962Z</time></trkpt><trkpt lat="40.7576875" lon="14.8315929"><ele>602.3333333333334</ele><time>2026-05-03T09:58:39.944Z</time></trkpt><trkpt lat="40.7576532" lon="14.8316783"><ele>606.0</ele><time>2026-05-03T09:58:41.953Z</time></trkpt><trkpt lat="40.7576181" lon="14.831777"><ele>609.6666666666666</ele><time>2026-05-03T09:58:44.956Z</time></trkpt><trkpt lat="40.7575726" lon="14.8318654"><ele>613.3333333333334</ele><time>2026-05-03T09:58:47.952Z</time></trkpt><trkpt lat="40.7575249" lon="14.8319207"><ele>617.0</ele><time>2026-05-03T09:58:57.951Z</time></trkpt><trkpt lat="40.7574661" lon="14.832016"><ele>620.6666666666667</ele><time>2026-05-03T09:59:00.953Z</time></trkpt><trkpt lat="40.7574198" lon="14.8321048"><ele>624.3333333333334</ele><time>2026-05-03T09:59:02.953Z</time></trkpt><trkpt lat="40.7573864" lon="14.8321839"><ele>628.0</ele><time>2026-05-03T09:59:04.95Z</time></trkpt><trkpt lat="40.757363" lon="14.8323061"><ele>628.0</ele><time>2026-05-03T09:59:07.954Z</time></trkpt><trkpt lat="40.7573421" lon="14.8323936"><ele>628.0</ele><time>2026-05-03T09:59:09.956Z</time></trkpt><trkpt lat="40.757322" lon="14.8325117"><ele>628.0</ele><time>2026-05-03T09:59:12.953Z</time></trkpt><trkpt lat="40.7573024" lon="14.8326102"><ele>628.0</ele><time>2026-05-03T09:59:16.025Z</time></trkpt><trkpt lat="40.7572948" lon="14.8327093"><ele>628.0</ele><time>2026-05-03T09:59:18.946Z</time></trkpt><trkpt lat="40.7572518" lon="14.8327755"><ele>628.0</ele><time>2026-05-03T09:59:22.034Z</time></trkpt><trkpt lat="40.7572013" lon="14.8328543"><ele>632.6666666666667</ele><time>2026-05-03T09:59:24.954Z</time></trkpt><trkpt lat="40.757258" lon="14.832907"><ele>637.3333333333334</ele><time>2026-05-03T09:59:31.958Z</time></trkpt><trkpt lat="40.7573313" lon="14.8329023"><ele>642.0</ele><time>2026-05-03T09:59:34.959Z</time></trkpt><trkpt lat="40.7574125" lon="14.8329211"><ele>646.6666666666666</ele><time>2026-05-03T09:59:38.053Z</time></trkpt><trkpt lat="40.7575049" lon="14.8329185"><ele>651.3333333333333</ele><time>2026-05-03T09:59:40.961Z</time></trkpt><trkpt lat="40.7575823" lon="14.8329023"><ele>656.0</ele><time>2026-05-03T09:59:42.961Z</time></trkpt><trkpt lat="40.7576666" lon="14.8329168"><ele>659.5</ele><time>2026-05-03T09:59:44.949Z</time></trkpt><trkpt lat="40.7577335" lon="14.8329511"><ele>663.0</ele><time>2026-05-03T09:59:48.048Z</time></trkpt><trkpt lat="40.7578026" lon="14.8329509"><ele>666.5</ele><time>2026-05-03T10:00:11.966Z</time></trkpt><trkpt lat="40.7578647" lon="14.8329225"><ele>670.0</ele><time>2026-05-03T10:00:14.947Z</time></trkpt><trkpt lat="40.7579235" lon="14.8328892"><ele>673.5</ele><time>2026-05-03T10:00:16.953Z</time></trkpt><trkpt lat="40.7579958" lon="14.8328444"><ele>677.0</ele><time>2026-05-03T10:00:18.954Z</time></trkpt><trkpt lat="40.7581061" lon="14.8327993"><ele>677.0</ele><time>2026-05-03T10:00:20.993Z</time></trkpt><trkpt lat="40.7582281" lon="14.8328011"><ele>677.0</ele><time>2026-05-03T10:00:22.945Z</time></trkpt><trkpt lat="40.7582907" lon="14.8328238"><ele>677.0</ele><time>2026-05-03T10:00:23.95Z</time></trkpt><trkpt lat="40.758354" lon="14.8328589"><ele>677.0</ele><time>2026-05-03T10:00:24.956Z</time></trkpt><trkpt lat="40.7584096" lon="14.832903"><ele>677.0</ele><time>2026-05-03T10:00:25.957Z</time></trkpt><trkpt lat="40.7584658" lon="14.8329584"><ele>677.0</ele><time>2026-05-03T10:00:26.961Z</time></trkpt><trkpt lat="40.7585185" lon="14.8330222"><ele>679.8</ele><time>2026-05-03T10:00:27.962Z</time></trkpt><trkpt lat="40.7586251" lon="14.8331161"><ele>682.6</ele><time>2026-05-03T10:00:29.952Z</time></trkpt><trkpt lat="40.7586816" lon="14.8332034"><ele>685.4</ele><time>2026-05-03T10:00:31.959Z</time></trkpt><trkpt lat="40.7586704" lon="14.8332969"><ele>688.1999999999999</ele><time>2026-05-03T10:00:37.947Z</time></trkpt><trkpt lat="40.7586933" lon="14.8333851"><ele>691.0</ele><time>2026-05-03T10:00:41.955Z</time></trkpt><trkpt lat="40.7587971" lon="14.8333861"><ele>691.0</ele><time>2026-05-03T10:00:44.951Z</time></trkpt><trkpt lat="40.7589122" lon="14.833356"><ele>691.0</ele><time>2026-05-03T10:00:46.954Z</time></trkpt><trkpt lat="40.7589703" lon="14.8333219"><ele>691.0</ele><time>2026-05-03T10:00:47.947Z</time></trkpt><trkpt lat="40.7590367" lon="14.8332677"><ele>691.0</ele><time>2026-05-03T10:00:48.953Z</time></trkpt><trkpt lat="40.7591072" lon="14.833192"><ele>691.0</ele><time>2026-05-03T10:00:49.947Z</time></trkpt><trkpt lat="40.7591685" lon="14.8331194"><ele>691.0</ele><time>2026-05-03T10:00:50.945Z</time></trkpt><trkpt lat="40.7592107" lon="14.8330528"><ele>691.0</ele><time>2026-05-03T10:00:51.951Z</time></trkpt><trkpt lat="40.7592642" lon="14.8329811"><ele>691.0</ele><time>2026-05-03T10:00:52.954Z</time></trkpt><trkpt lat="40.7593309" lon="14.8328914"><ele>691.0</ele><time>2026-05-03T10:00:53.946Z</time></trkpt><trkpt lat="40.7594169" lon="14.8327967"><ele>691.0</ele><time>2026-05-03T10:00:54.951Z</time></trkpt><trkpt lat="40.7594977" lon="14.8327143"><ele>691.0</ele><time>2026-05-03T10:00:55.944Z</time></trkpt><trkpt lat="40.7595667" lon="14.8326532"><ele>687.1999999999999</ele><time>2026-05-03T10:00:56.95Z</time></trkpt><trkpt lat="40.7596292" lon="14.832615"><ele>683.4</ele><time>2026-05-03T10:00:57.951Z</time></trkpt><trkpt lat="40.75973" lon="14.8325524"><ele>679.6</ele><time>2026-05-03T10:00:59.959Z</time></trkpt><trkpt lat="40.7598464" lon="14.8324825"><ele>675.8</ele><time>2026-05-03T10:01:01.954Z</time></trkpt><trkpt lat="40.7599266" lon="14.8324317"><ele>672.0</ele><time>2026-05-03T10:01:02.961Z</time></trkpt><trkpt lat="40.7600011" lon="14.8323852"><ele>672.0</ele><time>2026-05-03T10:01:03.956Z</time></trkpt><trkpt lat="40.760066" lon="14.8323472"><ele>672.0</ele><time>2026-05-03T10:01:04.951Z</time></trkpt><trkpt lat="40.7601519" lon="14.8323372"><ele>672.0</ele><time>2026-05-03T10:01:05.952Z</time></trkpt><trkpt lat="40.7602324" lon="14.832352"><ele>672.0</ele><time>2026-05-03T10:01:06.953Z</time></trkpt><trkpt lat="40.7603023" lon="14.8323692"><ele>672.0</ele><time>2026-05-03T10:01:07.954Z</time></trkpt><trkpt lat="40.7603778" lon="14.8323817"><ele>672.0</ele><time>2026-05-03T10:01:08.958Z</time></trkpt><trkpt lat="40.7604768" lon="14.8323862"><ele>669.8</ele><time>2026-05-03T10:01:09.954Z</time></trkpt><trkpt lat="40.7605641" lon="14.8323795"><ele>667.6</ele><time>2026-05-03T10:01:10.951Z</time></trkpt><trkpt lat="40.760656" lon="14.8323876"><ele>665.4</ele><time>2026-05-03T10:01:11.949Z</time></trkpt><trkpt lat="40.7607432" lon="14.8323858"><ele>663.1999999999999</ele><time>2026-05-03T10:01:12.956Z</time></trkpt><trkpt lat="40.7608325" lon="14.8323643"><ele>661.0</ele><time>2026-05-03T10:01:13.962Z</time></trkpt><trkpt lat="40.760923" lon="14.8323349"><ele>661.0</ele><time>2026-05-03T10:01:14.955Z</time></trkpt><trkpt lat="40.7610177" lon="14.8323079"><ele>661.0</ele><time>2026-05-03T10:01:15.958Z</time></trkpt><trkpt lat="40.7611205" lon="14.832289"><ele>661.0</ele><time>2026-05-03T10:01:16.954Z</time></trkpt><trkpt lat="40.761225" lon="14.8322553"><ele>661.0</ele><time>2026-05-03T10:01:17.958Z</time></trkpt><trkpt lat="40.7613245" lon="14.8322268"><ele>661.0</ele><time>2026-05-03T10:01:18.956Z</time></trkpt><trkpt lat="40.7614227" lon="14.8321936"><ele>655.5999999999999</ele><time>2026-05-03T10:01:19.959Z</time></trkpt><trkpt lat="40.7615091" lon="14.8321439"><ele>650.1999999999999</ele><time>2026-05-03T10:01:20.956Z</time></trkpt><trkpt lat="40.7615843" lon="14.832073"><ele>644.8</ele><time>2026-05-03T10:01:21.955Z</time></trkpt><trkpt lat="40.7616441" lon="14.8319843"><ele>639.4</ele><time>2026-05-03T10:01:22.962Z</time></trkpt><trkpt lat="40.7616902" lon="14.8318736"><ele>634.0</ele><time>2026-05-03T10:01:23.952Z</time></trkpt><trkpt lat="40.7617337" lon="14.8317586"><ele>632.8</ele><time>2026-05-03T10:01:24.956Z</time></trkpt><trkpt lat="40.7617766" lon="14.8316439"><ele>631.5999999999999</ele><time>2026-05-03T10:01:25.953Z</time></trkpt><trkpt lat="40.7618119" lon="14.8315327"><ele>630.4</ele><time>2026-05-03T10:01:26.955Z</time></trkpt><trkpt lat="40.7618458" lon="14.8314236"><ele>629.1999999999999</ele><time>2026-05-03T10:01:27.958Z</time></trkpt><trkpt lat="40.7618733" lon="14.8313116"><ele>628.0</ele><time>2026-05-03T10:01:28.959Z</time></trkpt><trkpt lat="40.7618991" lon="14.8311945"><ele>625.5</ele><time>2026-05-03T10:01:29.959Z</time></trkpt><trkpt lat="40.7619244" lon="14.831078"><ele>623.0</ele><time>2026-05-03T10:01:30.96Z</time></trkpt><trkpt lat="40.7619518" lon="14.8309738"><ele>620.5</ele><time>2026-05-03T10:01:31.957Z</time></trkpt><trkpt lat="40.7619969" lon="14.8308952"><ele>618.0</ele><time>2026-05-03T10:01:32.954Z</time></trkpt><trkpt lat="40.7620572" lon="14.8308345"><ele>615.5</ele><time>2026-05-03T10:01:33.956Z</time></trkpt><trkpt lat="40.7621228" lon="14.8307574"><ele>613.0</ele><time>2026-05-03T10:01:34.956Z</time></trkpt><trkpt lat="40.7621813" lon="14.8306867"><ele>613.0</ele><time>2026-05-03T10:01:36.048Z</time></trkpt><trkpt lat="40.7622281" lon="14.8306075"><ele>613.0</ele><time>2026-05-03T10:01:37.032Z</time></trkpt><trkpt lat="40.7622825" lon="14.8305384"><ele>613.0</ele><time>2026-05-03T10:01:37.951Z</time></trkpt><trkpt lat="40.7623739" lon="14.8304852"><ele>613.0</ele><time>2026-05-03T10:01:39.948Z</time></trkpt><trkpt lat="40.762452" lon="14.83048"><ele>613.0</ele><time>2026-05-03T10:01:42.967Z</time></trkpt><trkpt lat="40.762577" lon="14.8304615"><ele>613.0</ele><time>2026-05-03T10:01:44.954Z</time></trkpt><trkpt lat="40.7626495" lon="14.8304607"><ele>613.0</ele><time>2026-05-03T10:01:46.011Z</time></trkpt><trkpt lat="40.7627322" lon="14.8304796"><ele>613.0</ele><time>2026-05-03T10:01:46.951Z</time></trkpt><trkpt lat="40.7628318" lon="14.8305153"><ele>613.0</ele><time>2026-05-03T10:01:47.951Z</time></trkpt><trkpt lat="40.7629388" lon="14.830552"><ele>613.0</ele><time>2026-05-03T10:01:48.954Z</time></trkpt><trkpt lat="40.7630443" lon="14.830596"><ele>661.0</ele><time>2026-05-03T10:01:49.954Z</time></trkpt><trkpt lat="40.760923" lon="14.8323349"><ele>661.0</ele><time>2026-05-03T10:01:14.955Z</time></trkpt><trkpt lat="40.7610177" lon="14.8323079"><ele>661.0</ele><time>2026-05-03T10:01:15.958Z</time></trkpt><trkpt lat="40.7611205" lon="14.832289"><ele>661.0</ele><time>2026-05-03T10:01:16.954Z</time></trkpt><trkpt lat="40.761225" lon="14.8322553"><ele>661.0</ele><time>2026-05-03T10:01:17.958Z</time></trkpt><trkpt lat="40.7613245" lon="14.8322268"><ele>661.0</ele><time>2026-05-03T10:01:18.956Z</time></trkpt><trkpt lat="40.7614227" lon="14.8321936"><ele>655.5999999999999</ele><time>2026-05-03T10:01:19.959Z</time></trkpt><trkpt lat="40.7615091" lon="14.8321439"><ele>650.1999999999999</ele><time>2026-05-03T10:01:20.956Z</time></trkpt><trkpt lat="40.7615843" lon="14.832073"><ele>644.8</ele><time>2026-05-03T10:01:21.955Z</time></trkpt><trkpt lat="40.7616441" lon="14.8319843"><ele>639.4</ele><time>2026-05-03T10:01:22.962Z</time></trkpt><trkpt lat="40.7616902" lon="14.8318736"><ele>634.0</ele><time>2026-05-03T10:01:23.952Z</time></trkpt><trkpt lat="40.7617337" lon="14.8317586"><ele>632.8</ele><time>2026-05-03T10:01:24.956Z</time></trkpt><trkpt lat="40.7617766" lon="14.8316439"><ele>631.5999999999999</ele><time>2026-05-03T10:01:25.953Z</time></trkpt><trkpt lat="40.7618119" lon="14.8315327"><ele>630.4</ele><time>2026-05-03T10:01:26.955Z</time></trkpt><trkpt lat="40.7618458" lon="14.8314236"><ele>629.1999999999999</ele><time>2026-05-03T10:01:27.958Z</time></trkpt><trkpt lat="40.7618733" lon="14.8313116"><ele>628.0</ele><time>2026-05-03T10:01:28.959Z</time></trkpt><trkpt lat="40.7618991" lon="14.8311945"><ele>625.5</ele><time>2026-05-03T10:01:29.959Z</time></trkpt><trkpt lat="40.7619244" lon="14.831078"><ele>623.0</ele><time>2026-05-03T10:01:30.96Z</time></trkpt><trkpt lat="40.7619518" lon="14.8309738"><ele>620.5</ele><time>2026-05-03T10:01:31.957Z</time></trkpt><trkpt lat="40.7619969" lon="14.8308952"><ele>618.0</ele><time>2026-05-03T10:01:32.954Z</time></trkpt><trkpt lat="40.7620572" lon="14.8308345"><ele>615.5</ele><time>2026-05-03T10:01:33.956Z</time></trkpt><trkpt lat="40.7621228" lon="14.8307574"><ele>613.0</ele><time>2026-05-03T10:01:34.956Z</time></trkpt><trkpt lat="40.7621813" lon="14.8306867"><ele>613.0</ele><time>2026-05-03T10:01:36.048Z</time></trkpt><trkpt lat="40.7622281" lon="14.8306075"><ele>613.0</ele><time>2026-05-03T10:01:37.032Z</time></trkpt><trkpt lat="40.7622825" lon="14.8305384"><ele>613.0</ele><time>2026-05-03T10:01:37.951Z</time></trkpt><trkpt lat="40.7623739" lon="14.8304852"><ele>613.0</ele><time>2026-05-03T10:01:39.948Z</time></trkpt><trkpt lat="40.762452" lon="14.83048"><ele>613.0</ele><time>2026-05-03T10:01:42.967Z</time></trkpt><trkpt lat="40.762577" lon="14.8304615"><ele>613.0</ele><time>2026-05-03T10:01:44.954Z</time></trkpt><trkpt lat="40.7626495" lon="14.8304607"><ele>613.0</ele><time>2026-05-03T10:01:46.011Z</time></trkpt><trkpt lat="40.7627322" lon="14.8304796"><ele>613.0</ele><time>2026-05-03T10:01:46.951Z</time></trkpt><trkpt lat="40.7628318" lon="14.8305153"><ele>613.0</ele><time>2026-05-03T10:01:47.951Z</time></trkpt><trkpt lat="40.7629388" lon="14.830552"><ele>613.0</ele><time>2026-05-03T10:01:48.954Z</time></trkpt><trkpt lat="40.7630443" lon="14.830596"><ele>612.4</ele><time>2026-05-03T10:01:49.954Z</time></trkpt><trkpt lat="40.7631443" lon="14.8306354"><ele>611.8</ele><time>2026-05-03T10:01:50.953Z</time></trkpt><trkpt lat="40.7632509" lon="14.8306866"><ele>611.2</ele><time>2026-05-03T10:01:52.005Z</time></trkpt><trkpt lat="40.7633359" lon="14.8307346"><ele>610.6</ele><time>2026-05-03T10:01:53.006Z</time></trkpt><trkpt lat="40.7634118" lon="14.8307779"><ele>610.0</ele><time>2026-05-03T10:01:53.954Z</time></trkpt><trkpt lat="40.7634812" lon="14.8308146"><ele>606.6</ele><time>2026-05-03T10:01:54.954Z</time></trkpt><trkpt lat="40.7635451" lon="14.8308583"><ele>603.2</ele><time>2026-05-03T10:01:56.048Z</time></trkpt><trkpt lat="40.763671" lon="14.8308793"><ele>599.8</ele><time>2026-05-03T10:01:58.013Z</time></trkpt><trkpt lat="40.7637283" lon="14.8307513"><ele>596.4</ele><time>2026-05-03T10:01:59.955Z</time></trkpt><trkpt lat="40.7637461" lon="14.8305925"><ele>593.0</ele><time>2026-05-03T10:02:01.949Z</time></trkpt><trkpt lat="40.7638362" lon="14.8305005"><ele>593.0</ele><time>2026-05-03T10:02:03.953Z</time></trkpt><trkpt lat="40.7639172" lon="14.8304644"><ele>593.0</ele><time>2026-05-03T10:02:04.955Z</time></trkpt><trkpt lat="40.7639915" lon="14.830444"><ele>593.0</ele><time>2026-05-03T10:02:05.954Z</time></trkpt><trkpt lat="40.764065" lon="14.8304124"><ele>593.0</ele><time>2026-05-03T10:02:06.954Z</time></trkpt><trkpt lat="40.7641417" lon="14.8303668"><ele>593.0</ele><time>2026-05-03T10:02:07.953Z</time></trkpt><trkpt lat="40.7642346" lon="14.8303223"><ele>593.0</ele><time>2026-05-03T10:02:08.958Z</time></trkpt><trkpt lat="40.7643271" lon="14.830285"><ele>594.0</ele><time>2026-05-03T10:02:09.954Z</time></trkpt><trkpt lat="40.7644191" lon="14.8302216"><ele>595.0</ele><time>2026-05-03T10:02:10.975Z</time></trkpt><trkpt lat="40.7644907" lon="14.8301799"><ele>596.0</ele><time>2026-05-03T10:02:11.953Z</time></trkpt><trkpt lat="40.7645613" lon="14.8301211"><ele>597.0</ele><time>2026-05-03T10:02:13.023Z</time></trkpt><trkpt lat="40.7646234" lon="14.8300549"><ele>598.0</ele><time>2026-05-03T10:02:13.955Z</time></trkpt><trkpt lat="40.7646793" lon="14.8299774"><ele>599.0</ele><time>2026-05-03T10:02:14.968Z</time></trkpt><trkpt lat="40.764719" lon="14.8298848"><ele>599.0</ele><time>2026-05-03T10:02:15.938Z</time></trkpt><trkpt lat="40.7647492" lon="14.8297865"><ele>599.0</ele><time>2026-05-03T10:02:16.95Z</time></trkpt><trkpt lat="40.764783" lon="14.8296992"><ele>599.0</ele><time>2026-05-03T10:02:17.953Z</time></trkpt><trkpt lat="40.7648317" lon="14.8296426"><ele>599.0</ele><time>2026-05-03T10:02:18.969Z</time></trkpt><trkpt lat="40.764885" lon="14.8295953"><ele>599.0</ele><time>2026-05-03T10:02:20.065Z</time></trkpt><trkpt lat="40.765022" lon="14.8295326"><ele>599.0</ele><time>2026-05-03T10:02:21.956Z</time></trkpt><trkpt lat="40.7651099" lon="14.8295512"><ele>596.6666666666666</ele><time>2026-05-03T10:02:22.952Z</time></trkpt><trkpt lat="40.7652026" lon="14.829594"><ele>594.3333333333333</ele><time>2026-05-03T10:02:23.975Z</time></trkpt><trkpt lat="40.7652914" lon="14.8296467"><ele>592.0</ele><time>2026-05-03T10:02:24.978Z</time></trkpt><trkpt lat="40.7653738" lon="14.8296999"><ele>589.6666666666666</ele><time>2026-05-03T10:02:26.028Z</time></trkpt><trkpt lat="40.7654457" lon="14.8297398"><ele>587.3333333333334</ele><time>2026-05-03T10:02:26.957Z</time></trkpt><trkpt lat="40.7655167" lon="14.8297818"><ele>585.0</ele><time>2026-05-03T10:02:27.952Z</time></trkpt><trkpt lat="40.7656087" lon="14.8298295"><ele>585.0</ele><time>2026-05-03T10:02:28.95Z</time></trkpt><trkpt lat="40.7657123" lon="14.8298877"><ele>585.0</ele><time>2026-05-03T10:02:29.956Z</time></trkpt><trkpt lat="40.7658118" lon="14.8299395"><ele>585.0</ele><time>2026-05-03T10:02:30.953Z</time></trkpt><trkpt lat="40.765898" lon="14.8299846"><ele>585.0</ele><time>2026-05-03T10:02:31.961Z</time></trkpt><trkpt lat="40.7659839" lon="14.8300328"><ele>585.0</ele><time>2026-05-03T10:02:32.976Z</time></trkpt><trkpt lat="40.7660669" lon="14.830073"><ele>583.8333333333334</ele><time>2026-05-03T10:02:33.952Z</time></trkpt><trkpt lat="40.7661536" lon="14.8301076"><ele>582.6666666666666</ele><time>2026-05-03T10:02:34.954Z</time></trkpt><trkpt lat="40.7662171" lon="14.8301273"><ele>581.5</ele><time>2026-05-03T10:02:35.948Z</time></trkpt><trkpt lat="40.7663339" lon="14.8300868"><ele>580.3333333333333</ele><time>2026-05-03T10:02:37.958Z</time></trkpt><trkpt lat="40.766415" lon="14.8300522"><ele>579.1666666666666</ele><time>2026-05-03T10:02:38.952Z</time></trkpt><trkpt lat="40.7664883" lon="14.8300217"><ele>578.0</ele><time>2026-05-03T10:02:39.957Z</time></trkpt><trkpt lat="40.7665515" lon="14.8300045"><ele>578.0</ele><time>2026-05-03T10:02:40.967Z</time></trkpt><trkpt lat="40.7666173" lon="14.8300383"><ele>578.0</ele><time>2026-05-03T10:02:42.954Z</time></trkpt><trkpt lat="40.7665955" lon="14.8301968"><ele>578.0</ele><time>2026-05-03T10:02:45.049Z</time></trkpt><trkpt lat="40.76651" lon="14.8303071"><ele>578.0</ele><time>2026-05-03T10:02:46.966Z</time></trkpt><trkpt lat="40.7663967" lon="14.8303516"><ele>578.0</ele><time>2026-05-03T10:02:48.959Z</time></trkpt><trkpt lat="40.7662724" lon="14.8303677"><ele>575.4285714285714</ele><time>2026-05-03T10:02:50.965Z</time></trkpt><trkpt lat="40.7662039" lon="14.830379"><ele>572.8571428571429</ele><time>2026-05-03T10:02:51.963Z</time></trkpt><trkpt lat="40.766138" lon="14.8303926"><ele>570.2857142857142</ele><time>2026-05-03T10:02:52.963Z</time></trkpt><trkpt lat="40.7660689" lon="14.8304211"><ele>567.7142857142858</ele><time>2026-05-03T10:02:53.966Z</time></trkpt><trkpt lat="40.7659965" lon="14.8304409"><ele>565.1428571428571</ele><time>2026-05-03T10:02:54.962Z</time></trkpt><trkpt lat="40.7659195" lon="14.8304575"><ele>562.5714285714286</ele><time>2026-05-03T10:02:55.963Z</time></trkpt><trkpt lat="40.7658369" lon="14.8304837"><ele>560.0</ele><time>2026-05-03T10:02:56.967Z</time></trkpt><trkpt lat="40.7657429" lon="14.8305047"><ele>560.0</ele><time>2026-05-03T10:02:57.961Z</time></trkpt><trkpt lat="40.7656442" lon="14.8305008"><ele>560.0</ele><time>2026-05-03T10:02:58.966Z</time></trkpt><trkpt lat="40.7655536" lon="14.8304799"><ele>560.0</ele><time>2026-05-03T10:02:59.963Z</time></trkpt><trkpt lat="40.7654605" lon="14.8304413"><ele>560.0</ele><time>2026-05-03T10:03:00.964Z</time></trkpt><trkpt lat="40.7653734" lon="14.830399"><ele>560.0</ele><time>2026-05-03T10:03:02.031Z</time></trkpt><trkpt lat="40.7653061" lon="14.8303744"><ele>560.0</ele><time>2026-05-03T10:03:02.968Z</time></trkpt><trkpt lat="40.7652536" lon="14.8304477"><ele>560.0</ele><time>2026-05-03T10:03:06.962Z</time></trkpt><trkpt lat="40.7652211" lon="14.8305572"><ele>560.0</ele><time>2026-05-03T10:03:08.055Z</time></trkpt><trkpt lat="40.7652019" lon="14.830657"><ele>560.0</ele><time>2026-05-03T10:03:08.966Z</time></trkpt><trkpt lat="40.7651521" lon="14.8307487"><ele>560.0</ele><time>2026-05-03T10:03:10.995Z</time></trkpt><trkpt lat="40.765025" lon="14.830828"><ele>561.6</ele><time>2026-05-03T10:03:12.967Z</time></trkpt><trkpt lat="40.7649363" lon="14.8308852"><ele>563.2</ele><time>2026-05-03T10:03:13.961Z</time></trkpt><trkpt lat="40.764849" lon="14.8309482"><ele>564.8</ele><time>2026-05-03T10:03:14.967Z</time></trkpt><trkpt lat="40.7647603" lon="14.8310177"><ele>566.4</ele><time>2026-05-03T10:03:15.989Z</time></trkpt><trkpt lat="40.7646863" lon="14.8310743"><ele>568.0</ele><time>2026-05-03T10:03:16.962Z</time></trkpt><trkpt lat="40.7646043" lon="14.8311296"><ele>564.8</ele><time>2026-05-03T10:03:18.017Z</time></trkpt><trkpt lat="40.7645469" lon="14.8311774"><ele>561.5999999999999</ele><time>2026-05-03T10:03:18.965Z</time></trkpt><trkpt lat="40.7645087" lon="14.8312578"><ele>558.4000000000001</ele><time>2026-05-03T10:03:20.959Z</time></trkpt><trkpt lat="40.764558" lon="14.8313701"><ele>555.2</ele><time>2026-05-03T10:03:22.965Z</time></trkpt><trkpt lat="40.7646225" lon="14.8315061"><ele>552.0</ele><time>2026-05-03T10:03:25.031Z</time></trkpt><trkpt lat="40.7646476" lon="14.8316384"><ele>552.0</ele><time>2026-05-03T10:03:26.963Z</time></trkpt><trkpt lat="40.764646" lon="14.8317948"><ele>552.0</ele><time>2026-05-03T10:03:28.961Z</time></trkpt><trkpt lat="40.7646286" lon="14.8318817"><ele>552.0</ele><time>2026-05-03T10:03:29.955Z</time></trkpt><trkpt lat="40.7645406" lon="14.832004"><ele>552.0</ele><time>2026-05-03T10:03:31.963Z</time></trkpt><trkpt lat="40.7644816" lon="14.8320462"><ele>552.0</ele><time>2026-05-03T10:03:32.994Z</time></trkpt><trkpt lat="40.7643458" lon="14.8320607"><ele>552.6</ele><time>2026-05-03T10:03:35.028Z</time></trkpt><trkpt lat="40.7642608" lon="14.832063"><ele>553.2</ele><time>2026-05-03T10:03:35.961Z</time></trkpt><trkpt lat="40.7641689" lon="14.8320656"><ele>553.8</ele><time>2026-05-03T10:03:36.96Z</time></trkpt><trkpt lat="40.7640804" lon="14.8320582"><ele>554.4</ele><time>2026-05-03T10:03:37.964Z</time></trkpt><trkpt lat="40.7639916" lon="14.8320551"><ele>555.0</ele><time>2026-05-03T10:03:38.965Z</time></trkpt><trkpt lat="40.7638969" lon="14.8320243"><ele>555.0</ele><time>2026-05-03T10:03:39.956Z</time></trkpt><trkpt lat="40.7637943" lon="14.8319922"><ele>555.0</ele><time>2026-05-03T10:03:40.961Z</time></trkpt><trkpt lat="40.7636974" lon="14.8319642"><ele>555.0</ele><time>2026-05-03T10:03:42.026Z</time></trkpt><trkpt lat="40.7636154" lon="14.8319399"><ele>555.0</ele><time>2026-05-03T10:03:43.025Z</time></trkpt><trkpt lat="40.7635457" lon="14.8318979"><ele>555.0</ele><time>2026-05-03T10:03:43.96Z</time></trkpt><trkpt lat="40.7634788" lon="14.8318663"><ele>555.0</ele><time>2026-05-03T10:03:44.963Z</time></trkpt><trkpt lat="40.7633822" lon="14.8318475"><ele>557.5</ele><time>2026-05-03T10:03:46.964Z</time></trkpt><trkpt lat="40.7633592" lon="14.831947"><ele>560.0</ele><time>2026-05-03T10:03:51.016Z</time></trkpt><trkpt lat="40.7633856" lon="14.8320227"><ele>562.5</ele><time>2026-05-03T10:03:53.962Z</time></trkpt><trkpt lat="40.7633097" lon="14.831977"><ele>565.0</ele><time>2026-05-03T10:04:07.027Z</time></trkpt><trkpt lat="40.7632899" lon="14.8318917"><ele>567.5</ele><time>2026-05-03T10:04:08.966Z</time></trkpt><trkpt lat="40.7632008" lon="14.8319625"><ele>570.0</ele><time>2026-05-03T10:04:12.964Z</time></trkpt><trkpt lat="40.763175" lon="14.8320596"><ele>570.0</ele><time>2026-05-03T10:04:13.961Z</time></trkpt><trkpt lat="40.7631604" lon="14.8321658"><ele>570.0</ele><time>2026-05-03T10:04:14.998Z</time></trkpt><trkpt lat="40.7631586" lon="14.8322657"><ele>570.0</ele><time>2026-05-03T10:04:16.034Z</time></trkpt><trkpt lat="40.763148" lon="14.8323479"><ele>570.0</ele><time>2026-05-03T10:04:17.025Z</time></trkpt><trkpt lat="40.7631184" lon="14.8324221"><ele>570.0</ele><time>2026-05-03T10:04:17.961Z</time></trkpt><trkpt lat="40.763073" lon="14.8324931"><ele>570.0</ele><time>2026-05-03T10:04:18.964Z</time></trkpt><trkpt lat="40.7630179" lon="14.8325547"><ele>570.0</ele><time>2026-05-03T10:04:19.962Z</time></trkpt><trkpt lat="40.7629363" lon="14.8325959"><ele>570.0</ele><time>2026-05-03T10:04:20.955Z</time></trkpt><trkpt lat="40.7628544" lon="14.8326334"><ele>570.0</ele><time>2026-05-03T10:04:21.962Z</time></trkpt><trkpt lat="40.7627874" lon="14.8326673"><ele>570.0</ele><time>2026-05-03T10:04:23.015Z</time></trkpt><trkpt lat="40.7627881" lon="14.8327909"><ele>570.0</ele><time>2026-05-03T10:04:25.957Z</time></trkpt><trkpt lat="40.762821" lon="14.8328795"><ele>570.0</ele><time>2026-05-03T10:04:26.956Z</time></trkpt><trkpt lat="40.7628663" lon="14.8329626"><ele>570.0</ele><time>2026-05-03T10:04:27.959Z</time></trkpt><trkpt lat="40.7629159" lon="14.8330268"><ele>570.5</ele><time>2026-05-03T10:04:28.961Z</time></trkpt><trkpt lat="40.7629635" lon="14.8330841"><ele>571.0</ele><time>2026-05-03T10:04:29.962Z</time></trkpt><trkpt lat="40.7630075" lon="14.8331591"><ele>571.5</ele><time>2026-05-03T10:04:30.964Z</time></trkpt><trkpt lat="40.7630484" lon="14.8332288"><ele>572.0</ele><time>2026-05-03T10:04:32.048Z</time></trkpt><trkpt lat="40.7631292" lon="14.8333434"><ele>572.5</ele><time>2026-05-03T10:04:33.961Z</time></trkpt><trkpt lat="40.7631834" lon="14.8333895"><ele>573.0</ele><time>2026-05-03T10:04:34.962Z</time></trkpt><trkpt lat="40.7632484" lon="14.8334431"><ele>572.5</ele><time>2026-05-03T10:04:35.954Z</time></trkpt><trkpt lat="40.7633142" lon="14.8334986"><ele>572.0</ele><time>2026-05-03T10:04:36.963Z</time></trkpt><trkpt lat="40.76338" lon="14.8335543"><ele>571.5</ele><time>2026-05-03T10:04:37.963Z</time></trkpt><trkpt lat="40.7634515" lon="14.8336106"><ele>571.0</ele><time>2026-05-03T10:04:38.967Z</time></trkpt><trkpt lat="40.7635131" lon="14.833667"><ele>570.5</ele><time>2026-05-03T10:04:40.037Z</time></trkpt><trkpt lat="40.7635723" lon="14.8337192"><ele>570.0</ele><time>2026-05-03T10:04:40.974Z</time></trkpt><trkpt lat="40.7636267" lon="14.8337748"><ele>570.0</ele><time>2026-05-03T10:04:41.956Z</time></trkpt><trkpt lat="40.763696" lon="14.8338937"><ele>570.0</ele><time>2026-05-03T10:04:43.963Z</time></trkpt><trkpt lat="40.7637493" lon="14.8339527"><ele>570.0</ele><time>2026-05-03T10:04:45.965Z</time></trkpt><trkpt lat="40.7638403" lon="14.833977"><ele>570.0</ele><time>2026-05-03T10:04:47.966Z</time></trkpt><trkpt lat="40.7639503" lon="14.8339905"><ele>570.0</ele><time>2026-05-03T10:04:49.958Z</time></trkpt><trkpt lat="40.7640575" lon="14.834031"><ele>570.0</ele><time>2026-05-03T10:04:51.955Z</time></trkpt><trkpt lat="40.7641676" lon="14.8340624"><ele>570.0</ele><time>2026-05-03T10:04:53.964Z</time></trkpt><trkpt lat="40.7642855" lon="14.8341294"><ele>570.0</ele><time>2026-05-03T10:04:55.962Z</time></trkpt><trkpt lat="40.7643362" lon="14.8341804"><ele>570.0</ele><time>2026-05-03T10:04:56.963Z</time></trkpt><trkpt lat="40.764386" lon="14.8342614"><ele>570.0</ele><time>2026-05-03T10:04:57.968Z</time></trkpt><trkpt lat="40.7644105" lon="14.8343551"><ele>566.3333333333334</ele><time>2026-05-03T10:04:58.995Z</time></trkpt><trkpt lat="40.764425" lon="14.8344569"><ele>562.6666666666666</ele><time>2026-05-03T10:04:59.966Z</time></trkpt><trkpt lat="40.7644414" lon="14.8345558"><ele>559.0</ele><time>2026-05-03T10:05:00.962Z</time></trkpt><trkpt lat="40.7644611" lon="14.8346516"><ele>555.3333333333333</ele><time>2026-05-03T10:05:01.964Z</time></trkpt><trkpt lat="40.7644866" lon="14.8347505"><ele>551.6666666666666</ele><time>2026-05-03T10:05:02.962Z</time></trkpt><trkpt lat="40.7645172" lon="14.8348505"><ele>548.0</ele><time>2026-05-03T10:05:03.961Z</time></trkpt><trkpt lat="40.7645458" lon="14.8349386"><ele>548.0</ele><time>2026-05-03T10:05:04.964Z</time></trkpt><trkpt lat="40.7645585" lon="14.8350305"><ele>548.0</ele><time>2026-05-03T10:05:05.973Z</time></trkpt><trkpt lat="40.7645582" lon="14.8351189"><ele>548.0</ele><time>2026-05-03T10:05:06.961Z</time></trkpt><trkpt lat="40.7645855" lon="14.8352242"><ele>548.0</ele><time>2026-05-03T10:05:09.957Z</time></trkpt><trkpt lat="40.7646899" lon="14.8352275"><ele>548.0</ele><time>2026-05-03T10:05:12.048Z</time></trkpt><trkpt lat="40.7647908" lon="14.8352933"><ele>548.0</ele><time>2026-05-03T10:05:13.958Z</time></trkpt><trkpt lat="40.764842" lon="14.8353573"><ele>548.1666666666666</ele><time>2026-05-03T10:05:14.951Z</time></trkpt><trkpt lat="40.7648819" lon="14.8354579"><ele>548.3333333333333</ele><time>2026-05-03T10:05:15.952Z</time></trkpt><trkpt lat="40.7649224" lon="14.835573"><ele>548.5</ele><time>2026-05-03T10:05:16.953Z</time></trkpt><trkpt lat="40.7649659" lon="14.8356638"><ele>548.6666666666666</ele><time>2026-05-03T10:05:17.954Z</time></trkpt><trkpt lat="40.7650065" lon="14.8357355"><ele>548.8333333333334</ele><time>2026-05-03T10:05:18.961Z</time></trkpt><trkpt lat="40.7650477" lon="14.8358187"><ele>549.0</ele><time>2026-05-03T10:05:20.007Z</time></trkpt><trkpt lat="40.7650762" lon="14.8359396"><ele>547.7142857142857</ele><time>2026-05-03T10:05:21.949Z</time></trkpt><trkpt lat="40.7650885" lon="14.8360227"><ele>546.4285714285714</ele><time>2026-05-03T10:05:22.958Z</time></trkpt><trkpt lat="40.7650939" lon="14.8361064"><ele>545.1428571428571</ele><time>2026-05-03T10:05:23.943Z</time></trkpt><trkpt lat="40.7651097" lon="14.8362026"><ele>543.8571428571429</ele><time>2026-05-03T10:05:24.958Z</time></trkpt><trkpt lat="40.7651173" lon="14.8362885"><ele>542.5714285714286</ele><time>2026-05-03T10:05:25.955Z</time></trkpt><trkpt lat="40.7651123" lon="14.8363867"><ele>541.2857142857142</ele><time>2026-05-03T10:05:27.011Z</time></trkpt><trkpt lat="40.7650993" lon="14.836473"><ele>540.0</ele><time>2026-05-03T10:05:28.017Z</time></trkpt><trkpt lat="40.7650628" lon="14.8365553"><ele>540.0</ele><time>2026-05-03T10:05:28.949Z</time></trkpt><trkpt lat="40.765034" lon="14.8366514"><ele>540.0</ele><time>2026-05-03T10:05:30.026Z</time></trkpt><trkpt lat="40.7650047" lon="14.8367504"><ele>540.0</ele><time>2026-05-03T10:05:31.026Z</time></trkpt><trkpt lat="40.7649701" lon="14.8368558"><ele>540.0</ele><time>2026-05-03T10:05:32.018Z</time></trkpt><trkpt lat="40.7649365" lon="14.8369552"><ele>540.0</ele><time>2026-05-03T10:05:33.015Z</time></trkpt><trkpt lat="40.7649106" lon="14.8370494"><ele>540.0</ele><time>2026-05-03T10:05:33.952Z</time></trkpt><trkpt lat="40.7649226" lon="14.8371339"><ele>537.6666666666666</ele><time>2026-05-03T10:05:34.961Z</time></trkpt><trkpt lat="40.7649953" lon="14.8372516"><ele>535.3333333333334</ele><time>2026-05-03T10:05:37.039Z</time></trkpt><trkpt lat="40.7650643" lon="14.8373685"><ele>533.0</ele><time>2026-05-03T10:05:38.958Z</time></trkpt><trkpt lat="40.7650728" lon="14.837457"><ele>530.6666666666667</ele><time>2026-05-03T10:05:39.96Z</time></trkpt><trkpt lat="40.7650814" lon="14.8375507"><ele>528.3333333333334</ele><time>2026-05-03T10:05:40.957Z</time></trkpt><trkpt lat="40.7650882" lon="14.8376524"><ele>526.0</ele><time>2026-05-03T10:05:41.989Z</time></trkpt><trkpt lat="40.7650857" lon="14.8377653"><ele>524.5</ele><time>2026-05-03T10:05:43.03Z</time></trkpt><trkpt lat="40.7650777" lon="14.837863"><ele>523.0</ele><time>2026-05-03T10:05:43.957Z</time></trkpt><trkpt lat="40.7650182" lon="14.8379964"><ele>521.5</ele><time>2026-05-03T10:05:45.951Z</time></trkpt><trkpt lat="40.764957" lon="14.838041"><ele>520.0</ele><time>2026-05-03T10:05:46.959Z</time></trkpt><trkpt lat="40.7648982" lon="14.8380835"><ele>518.5</ele><time>2026-05-03T10:05:47.958Z</time></trkpt><trkpt lat="40.7648243" lon="14.8381279"><ele>517.0</ele><time>2026-05-03T10:05:48.96Z</time></trkpt><trkpt lat="40.7647462" lon="14.8381645"><ele>517.0</ele><time>2026-05-03T10:05:49.964Z</time></trkpt><trkpt lat="40.7646718" lon="14.8381887"><ele>517.0</ele><time>2026-05-03T10:05:50.997Z</time></trkpt><trkpt lat="40.7645442" lon="14.8381624"><ele>517.0</ele><time>2026-05-03T10:05:52.946Z</time></trkpt><trkpt lat="40.7644722" lon="14.8381601"><ele>517.0</ele><time>2026-05-03T10:05:53.96Z</time></trkpt><trkpt lat="40.7643949" lon="14.8381718"><ele>517.0</ele><time>2026-05-03T10:05:54.957Z</time></trkpt><trkpt lat="40.7643264" lon="14.8381732"><ele>517.0</ele><time>2026-05-03T10:05:55.954Z</time></trkpt><trkpt lat="40.7642578" lon="14.8381533"><ele>518.0</ele><time>2026-05-03T10:05:56.963Z</time></trkpt><trkpt lat="40.7641793" lon="14.8381835"><ele>519.0</ele><time>2026-05-03T10:05:58.96Z</time></trkpt><trkpt lat="40.7641389" lon="14.8383008"><ele>520.0</ele><time>2026-05-03T10:06:00.955Z</time></trkpt><trkpt lat="40.7641801" lon="14.838374"><ele>521.0</ele><time>2026-05-03T10:06:04.96Z</time></trkpt><trkpt lat="40.7642613" lon="14.838434"><ele>522.0</ele><time>2026-05-03T10:06:06.961Z</time></trkpt><trkpt lat="40.764333" lon="14.8385239"><ele>523.0</ele><time>2026-05-03T10:06:08.957Z</time></trkpt><trkpt lat="40.7644046" lon="14.8385887"><ele>524.4</ele><time>2026-05-03T10:06:10.961Z</time></trkpt><trkpt lat="40.764525" lon="14.8386067"><ele>525.8</ele><time>2026-05-03T10:06:12.959Z</time></trkpt><trkpt lat="40.7646127" lon="14.8386208"><ele>527.2</ele><time>2026-05-03T10:06:13.958Z</time></trkpt><trkpt lat="40.7646967" lon="14.838618"><ele>528.6</ele><time>2026-05-03T10:06:15.964Z</time></trkpt><trkpt lat="40.7648134" lon="14.8386027"><ele>530.0</ele><time>2026-05-03T10:06:17.961Z</time></trkpt><trkpt lat="40.7649205" lon="14.838622"><ele>530.0</ele><time>2026-05-03T10:06:19.963Z</time></trkpt><trkpt lat="40.7650334" lon="14.8385922"><ele>530.0</ele><time>2026-05-03T10:06:21.955Z</time></trkpt><trkpt lat="40.7650958" lon="14.8385616"><ele>530.0</ele><time>2026-05-03T10:06:23.03Z</time></trkpt><trkpt lat="40.7651719" lon="14.8385403"><ele>530.0</ele><time>2026-05-03T10:06:23.962Z</time></trkpt><trkpt lat="40.765246" lon="14.8385499"><ele>530.0</ele><time>2026-05-03T10:06:24.953Z</time></trkpt><trkpt lat="40.7653372" lon="14.8385492"><ele>530.0</ele><time>2026-05-03T10:06:26.961Z</time></trkpt><trkpt lat="40.7654002" lon="14.8384765"><ele>529.6</ele><time>2026-05-03T10:06:28.962Z</time></trkpt><trkpt lat="40.7654886" lon="14.8384239"><ele>529.2</ele><time>2026-05-03T10:06:31.041Z</time></trkpt><trkpt lat="40.7655518" lon="14.8384081"><ele>528.8</ele><time>2026-05-03T10:06:31.959Z</time></trkpt><trkpt lat="40.7656637" lon="14.8383994"><ele>528.4</ele><time>2026-05-03T10:06:33.953Z</time></trkpt><trkpt lat="40.7657439" lon="14.8383097"><ele>528.0</ele><time>2026-05-03T10:06:35.96Z</time></trkpt><trkpt lat="40.7657868" lon="14.8381532"><ele>528.0</ele><time>2026-05-03T10:06:37.958Z</time></trkpt><trkpt lat="40.7658714" lon="14.8380232"><ele>528.0</ele><time>2026-05-03T10:06:39.963Z</time></trkpt><trkpt lat="40.7659785" lon="14.837925"><ele>528.0</ele><time>2026-05-03T10:06:41.964Z</time></trkpt><trkpt lat="40.7660466" lon="14.8378751"><ele>528.0</ele><time>2026-05-03T10:06:42.963Z</time></trkpt><trkpt lat="40.7661209" lon="14.8378322"><ele>528.0</ele><time>2026-05-03T10:06:43.959Z</time></trkpt><trkpt lat="40.766208" lon="14.8378293"><ele>531.4</ele><time>2026-05-03T10:06:45.96Z</time></trkpt><trkpt lat="40.7662164" lon="14.8379187"><ele>534.8</ele><time>2026-05-03T10:06:47.963Z</time></trkpt><trkpt lat="40.7661615" lon="14.8380502"><ele>538.2</ele><time>2026-05-03T10:06:49.964Z</time></trkpt><trkpt lat="40.7661186" lon="14.8381184"><ele>541.6</ele><time>2026-05-03T10:06:51.046Z</time></trkpt><trkpt lat="40.7660751" lon="14.838195"><ele>545.0</ele><time>2026-05-03T10:06:52.042Z</time></trkpt><trkpt lat="40.766034" lon="14.8383728"><ele>545.6</ele><time>2026-05-03T10:06:53.956Z</time></trkpt><trkpt lat="40.7660294" lon="14.838487"><ele>546.2</ele><time>2026-05-03T10:06:54.953Z</time></trkpt><trkpt lat="40.7660085" lon="14.8385854"><ele>546.8</ele><time>2026-05-03T10:06:55.953Z</time></trkpt><trkpt lat="40.7659499" lon="14.8386826"><ele>547.4</ele><time>2026-05-03T10:06:57.958Z</time></trkpt><trkpt lat="40.76584" lon="14.8386934"><ele>548.0</ele><time>2026-05-03T10:06:59.952Z</time></trkpt><trkpt lat="40.7657307" lon="14.8387402"><ele>548.0</ele><time>2026-05-03T10:07:02.044Z</time></trkpt><trkpt lat="40.7656842" lon="14.8388066"><ele>548.0</ele><time>2026-05-03T10:07:02.957Z</time></trkpt><trkpt lat="40.7655993" lon="14.8389363"><ele>548.0</ele><time>2026-05-03T10:07:04.959Z</time></trkpt><trkpt lat="40.7655392" lon="14.8390266"><ele>548.0</ele><time>2026-05-03T10:07:05.958Z</time></trkpt><trkpt lat="40.7654809" lon="14.8391096"><ele>548.0</ele><time>2026-05-03T10:07:06.955Z</time></trkpt><trkpt lat="40.7653992" lon="14.8391718"><ele>548.0</ele><time>2026-05-03T10:07:08.025Z</time></trkpt><trkpt lat="40.7653059" lon="14.8392296"><ele>548.0</ele><time>2026-05-03T10:07:08.953Z</time></trkpt><trkpt lat="40.7652133" lon="14.8392842"><ele>548.0</ele><time>2026-05-03T10:07:09.963Z</time></trkpt><trkpt lat="40.7651316" lon="14.8393391"><ele>548.0</ele><time>2026-05-03T10:07:11.059Z</time></trkpt><trkpt lat="40.7650461" lon="14.8394052"><ele>548.0</ele><time>2026-05-03T10:07:11.966Z</time></trkpt><trkpt lat="40.7649812" lon="14.8394765"><ele>548.8333333333333</ele><time>2026-05-03T10:07:12.961Z</time></trkpt><trkpt lat="40.7649289" lon="14.8395479"><ele>549.6666666666666</ele><time>2026-05-03T10:07:13.961Z</time></trkpt><trkpt lat="40.7648716" lon="14.8396628"><ele>550.5</ele><time>2026-05-03T10:07:15.957Z</time></trkpt><trkpt lat="40.7648773" lon="14.8397561"><ele>551.3333333333334</ele><time>2026-05-03T10:07:16.973Z</time></trkpt><trkpt lat="40.7648555" lon="14.8399136"><ele>552.1666666666667</ele><time>2026-05-03T10:07:18.967Z</time></trkpt><trkpt lat="40.7648339" lon="14.8400033"><ele>553.0</ele><time>2026-05-03T10:07:19.961Z</time></trkpt><trkpt lat="40.7648146" lon="14.8401198"><ele>554.6666666666667</ele><time>2026-05-03T10:07:20.959Z</time></trkpt><trkpt lat="40.7647946" lon="14.8402348"><ele>556.3333333333334</ele><time>2026-05-03T10:07:21.967Z</time></trkpt><trkpt lat="40.7647752" lon="14.8403299"><ele>558.0</ele><time>2026-05-03T10:07:22.965Z</time></trkpt><trkpt lat="40.7647615" lon="14.8404282"><ele>559.6666666666666</ele><time>2026-05-03T10:07:23.96Z</time></trkpt><trkpt lat="40.7647461" lon="14.8405269"><ele>561.3333333333333</ele><time>2026-05-03T10:07:24.965Z</time></trkpt><trkpt lat="40.7647123" lon="14.8406039"><ele>563.0</ele><time>2026-05-03T10:07:26.026Z</time></trkpt><trkpt lat="40.7646478" lon="14.8407168"><ele>563.0</ele><time>2026-05-03T10:07:27.965Z</time></trkpt><trkpt lat="40.764611" lon="14.8406275"><ele>563.0</ele><time>2026-05-03T10:07:32.034Z</time></trkpt><trkpt lat="40.7645413" lon="14.8406447"><ele>563.0</ele><time>2026-05-03T10:07:36.965Z</time></trkpt><trkpt lat="40.7644649" lon="14.8406696"><ele>563.0</ele><time>2026-05-03T10:07:38.963Z</time></trkpt><trkpt lat="40.7644021" lon="14.8407072"><ele>563.0</ele><time>2026-05-03T10:07:39.964Z</time></trkpt><trkpt lat="40.764304" lon="14.8407718"><ele>563.0</ele><time>2026-05-03T10:07:40.966Z</time></trkpt><trkpt lat="40.7642158" lon="14.8408243"><ele>561.5</ele><time>2026-05-03T10:07:41.97Z</time></trkpt><trkpt lat="40.7641259" lon="14.840854"><ele>560.0</ele><time>2026-05-03T10:07:42.964Z</time></trkpt><trkpt lat="40.7640474" lon="14.8409096"><ele>558.5</ele><time>2026-05-03T10:07:43.956Z</time></trkpt><trkpt lat="40.7639749" lon="14.8409593"><ele>557.0</ele><time>2026-05-03T10:07:44.962Z</time></trkpt><trkpt lat="40.7638637" lon="14.840976"><ele>555.5</ele><time>2026-05-03T10:07:46.966Z</time></trkpt><trkpt lat="40.7638105" lon="14.8410264"><ele>554.0</ele><time>2026-05-03T10:07:48.041Z</time></trkpt><trkpt lat="40.7637476" lon="14.8411784"><ele>554.0</ele><time>2026-05-03T10:07:49.966Z</time></trkpt><trkpt lat="40.7637083" lon="14.8412827"><ele>554.0</ele><time>2026-05-03T10:07:50.975Z</time></trkpt><trkpt lat="40.7636637" lon="14.8413721"><ele>554.0</ele><time>2026-05-03T10:07:51.96Z</time></trkpt><trkpt lat="40.76364" lon="14.8414744"><ele>554.0</ele><time>2026-05-03T10:07:52.968Z</time></trkpt><trkpt lat="40.7636263" lon="14.8415887"><ele>554.0</ele><time>2026-05-03T10:07:53.965Z</time></trkpt><trkpt lat="40.7636136" lon="14.8416949"><ele>554.0</ele><time>2026-05-03T10:07:54.966Z</time></trkpt><trkpt lat="40.7635877" lon="14.8417888"><ele>555.8333333333333</ele><time>2026-05-03T10:07:55.967Z</time></trkpt><trkpt lat="40.7635453" lon="14.841884"><ele>557.6666666666666</ele><time>2026-05-03T10:07:56.966Z</time></trkpt><trkpt lat="40.7635094" lon="14.8419855"><ele>559.5</ele><time>2026-05-03T10:07:58.053Z</time></trkpt><trkpt lat="40.7634576" lon="14.8420934"><ele>561.3333333333334</ele><time>2026-05-03T10:07:58.958Z</time></trkpt><trkpt lat="40.763409" lon="14.8421895"><ele>563.1666666666667</ele><time>2026-05-03T10:07:59.958Z</time></trkpt><trkpt lat="40.7633627" lon="14.8422797"><ele>565.0</ele><time>2026-05-03T10:08:00.957Z</time></trkpt><trkpt lat="40.7633233" lon="14.8423539"><ele>565.4</ele><time>2026-05-03T10:08:01.957Z</time></trkpt><trkpt lat="40.7632579" lon="14.8424538"><ele>565.8</ele><time>2026-05-03T10:08:03.958Z</time></trkpt><trkpt lat="40.7631848" lon="14.8425793"><ele>566.2</ele><time>2026-05-03T10:08:05.962Z</time></trkpt><trkpt lat="40.763144" lon="14.8426447"><ele>566.6</ele><time>2026-05-03T10:08:07.078Z</time></trkpt><trkpt lat="40.76306" lon="14.8427696"><ele>567.0</ele><time>2026-05-03T10:08:08.958Z</time></trkpt><trkpt lat="40.7630016" lon="14.8429197"><ele>567.0</ele><time>2026-05-03T10:08:10.961Z</time></trkpt><trkpt lat="40.7629409" lon="14.8430563"><ele>567.0</ele><time>2026-05-03T10:08:13.071Z</time></trkpt><trkpt lat="40.7628878" lon="14.8432533"><ele>567.0</ele><time>2026-05-03T10:08:14.958Z</time></trkpt><trkpt lat="40.7628529" lon="14.8433505"><ele>567.0</ele><time>2026-05-03T10:08:15.957Z</time></trkpt><trkpt lat="40.7627988" lon="14.8434925"><ele>567.7142857142857</ele><time>2026-05-03T10:08:17.956Z</time></trkpt><trkpt lat="40.7627792" lon="14.8435767"><ele>568.4285714285714</ele><time>2026-05-03T10:08:18.963Z</time></trkpt><trkpt lat="40.7627514" lon="14.843675"><ele>569.1428571428571</ele><time>2026-05-03T10:08:19.959Z</time></trkpt><trkpt lat="40.7627205" lon="14.8437554"><ele>569.8571428571429</ele><time>2026-05-03T10:08:20.959Z</time></trkpt><trkpt lat="40.7626825" lon="14.8438266"><ele>570.5714285714286</ele><time>2026-05-03T10:08:21.976Z</time></trkpt><trkpt lat="40.7626467" lon="14.8438954"><ele>571.2857142857142</ele><time>2026-05-03T10:08:22.974Z</time></trkpt><trkpt lat="40.7626011" lon="14.8439588"><ele>572.0</ele><time>2026-05-03T10:08:23.953Z</time></trkpt><trkpt lat="40.7625565" lon="14.8440256"><ele>574.5714285714286</ele><time>2026-05-03T10:08:24.961Z</time></trkpt><trkpt lat="40.7625092" lon="14.844106"><ele>577.1428571428571</ele><time>2026-05-03T10:08:25.958Z</time></trkpt><trkpt lat="40.7624598" lon="14.8441825"><ele>579.7142857142858</ele><time>2026-05-03T10:08:26.954Z</time></trkpt><trkpt lat="40.7623891" lon="14.8442421"><ele>582.2857142857142</ele><time>2026-05-03T10:08:28.956Z</time></trkpt><trkpt lat="40.7623245" lon="14.8442935"><ele>584.8571428571429</ele><time>2026-05-03T10:09:25.035Z</time></trkpt><trkpt lat="40.7622992" lon="14.8443707"><ele>587.4285714285714</ele><time>2026-05-03T10:09:28.962Z</time></trkpt><trkpt lat="40.7622436" lon="14.8443146"><ele>590.0</ele><time>2026-05-03T10:09:31.952Z</time></trkpt><trkpt lat="40.7622144" lon="14.8442186"><ele>590.0</ele><time>2026-05-03T10:09:34.961Z</time></trkpt><trkpt lat="40.7622411" lon="14.8441123"><ele>590.0</ele><time>2026-05-03T10:09:36.962Z</time></trkpt><trkpt lat="40.7622426" lon="14.8440146"><ele>590.0</ele><time>2026-05-03T10:09:38.964Z</time></trkpt><trkpt lat="40.762178" lon="14.8441115"><ele>590.0</ele><time>2026-05-03T10:09:47.964Z</time></trkpt><trkpt lat="40.7621331" lon="14.8442032"><ele>590.0</ele><time>2026-05-03T10:09:49.956Z</time></trkpt><trkpt lat="40.7620784" lon="14.8443002"><ele>590.0</ele><time>2026-05-03T10:09:51.987Z</time></trkpt><trkpt lat="40.7620033" lon="14.8444011"><ele>590.0</ele><time>2026-05-03T10:09:53.957Z</time></trkpt><trkpt lat="40.7619468" lon="14.8444884"><ele>590.0</ele><time>2026-05-03T10:09:55.978Z</time></trkpt><trkpt lat="40.7619199" lon="14.8445726"><ele>590.0</ele><time>2026-05-03T10:09:57.959Z</time></trkpt><trkpt lat="40.7618855" lon="14.844668"><ele>590.0</ele><time>2026-05-03T10:09:59.955Z</time></trkpt><trkpt lat="40.7618444" lon="14.8447545"><ele>590.0</ele><time>2026-05-03T10:10:01.96Z</time></trkpt><trkpt lat="40.7617697" lon="14.8448357"><ele>590.0</ele><time>2026-05-03T10:10:04.95Z</time></trkpt><trkpt lat="40.76171" lon="14.8448823"><ele>593.8571428571429</ele><time>2026-05-03T10:10:06.95Z</time></trkpt><trkpt lat="40.7616515" lon="14.8449522"><ele>597.7142857142858</ele><time>2026-05-03T10:10:08.961Z</time></trkpt><trkpt lat="40.7615863" lon="14.8450142"><ele>601.5714285714287</ele><time>2026-05-03T10:10:11.953Z</time></trkpt><trkpt lat="40.7615353" lon="14.8450642"><ele>605.4285714285714</ele><time>2026-05-03T10:10:13.956Z</time></trkpt><trkpt lat="40.7614724" lon="14.8451191"><ele>609.2857142857142</ele><time>2026-05-03T10:10:16.957Z</time></trkpt><trkpt lat="40.7614168" lon="14.8451608"><ele>613.1428571428572</ele><time>2026-05-03T10:10:21.968Z</time></trkpt><trkpt lat="40.7613572" lon="14.8452026"><ele>617.0</ele><time>2026-05-03T10:10:26.963Z</time></trkpt><trkpt lat="40.7613261" lon="14.8452966"><ele>618.0</ele><time>2026-05-03T10:10:31.969Z</time></trkpt><trkpt lat="40.7613005" lon="14.8454184"><ele>619.0</ele><time>2026-05-03T10:10:34.965Z</time></trkpt><trkpt lat="40.7613123" lon="14.845611"><ele>620.0</ele><time>2026-05-03T10:10:37.961Z</time></trkpt><trkpt lat="40.7613281" lon="14.8456966"><ele>621.0</ele><time>2026-05-03T10:10:38.968Z</time></trkpt><trkpt lat="40.7613477" lon="14.8458107"><ele>622.0</ele><time>2026-05-03T10:10:40.962Z</time></trkpt><trkpt lat="40.761321" lon="14.8458894"><ele>625.2</ele><time>2026-05-03T10:10:42.962Z</time></trkpt><trkpt lat="40.7613092" lon="14.8460766"><ele>628.4000000000001</ele><time>2026-05-03T10:10:43.964Z</time></trkpt><trkpt lat="40.7612866" lon="14.8462399"><ele>631.5999999999999</ele><time>2026-05-03T10:10:44.968Z</time></trkpt><trkpt lat="40.7612556" lon="14.8463577"><ele>634.8</ele><time>2026-05-03T10:10:45.961Z</time></trkpt><trkpt lat="40.7612365" lon="14.8464447"><ele>638.0</ele><time>2026-05-03T10:10:46.965Z</time></trkpt><trkpt lat="40.7612168" lon="14.8465772"><ele>638.0</ele><time>2026-05-03T10:10:48.967Z</time></trkpt><trkpt lat="40.7612398" lon="14.8466576"><ele>638.0</ele><time>2026-05-03T10:10:50.967Z</time></trkpt><trkpt lat="40.7612997" lon="14.8467355"><ele>638.0</ele><time>2026-05-03T10:10:52.971Z</time></trkpt><trkpt lat="40.7614069" lon="14.8468106"><ele>638.0</ele><time>2026-05-03T10:10:54.974Z</time></trkpt><trkpt lat="40.7614753" lon="14.8468677"><ele>638.0</ele><time>2026-05-03T10:10:55.965Z</time></trkpt><trkpt lat="40.7615483" lon="14.8469736"><ele>639.6666666666666</ele><time>2026-05-03T10:10:57.965Z</time></trkpt><trkpt lat="40.7615637" lon="14.8470784"><ele>641.3333333333333</ele><time>2026-05-03T10:10:59.964Z</time></trkpt><trkpt lat="40.7615022" lon="14.8470521"><ele>643.0</ele><time>2026-05-03T10:11:04.969Z</time></trkpt><trkpt lat="40.7614228" lon="14.847056"><ele>644.6666666666666</ele><time>2026-05-03T10:11:06.965Z</time></trkpt><trkpt lat="40.7613211" lon="14.8470953"><ele>646.3333333333334</ele><time>2026-05-03T10:11:08.967Z</time></trkpt><trkpt lat="40.7612429" lon="14.8471375"><ele>648.0</ele><time>2026-05-03T10:11:10.971Z</time></trkpt><trkpt lat="40.7611718" lon="14.8471464"><ele>648.0</ele><time>2026-05-03T10:11:12.959Z</time></trkpt><trkpt lat="40.761105" lon="14.8471306"><ele>648.0</ele><time>2026-05-03T10:11:14.964Z</time></trkpt><trkpt lat="40.7610493" lon="14.8470522"><ele>648.0</ele><time>2026-05-03T10:11:17.964Z</time></trkpt><trkpt lat="40.7610109" lon="14.8469781"><ele>648.0</ele><time>2026-05-03T10:11:19.964Z</time></trkpt><trkpt lat="40.7609829" lon="14.846882"><ele>648.0</ele><time>2026-05-03T10:11:21.971Z</time></trkpt><trkpt lat="40.7609579" lon="14.8467639"><ele>648.0</ele><time>2026-05-03T10:11:23.964Z</time></trkpt><trkpt lat="40.7609365" lon="14.8466432"><ele>650.3333333333334</ele><time>2026-05-03T10:11:25.967Z</time></trkpt><trkpt lat="40.7608991" lon="14.8465574"><ele>652.6666666666666</ele><time>2026-05-03T10:11:27.969Z</time></trkpt><trkpt lat="40.7608327" lon="14.8465469"><ele>655.0</ele><time>2026-05-03T10:11:30.964Z</time></trkpt><trkpt lat="40.7607825" lon="14.8466239"><ele>657.3333333333333</ele><time>2026-05-03T10:11:33.971Z</time></trkpt><trkpt lat="40.760732" lon="14.8467316"><ele>659.6666666666666</ele><time>2026-05-03T10:11:36.961Z</time></trkpt><trkpt lat="40.7606901" lon="14.846831"><ele>662.0</ele><time>2026-05-03T10:11:38.973Z</time></trkpt><trkpt lat="40.7606506" lon="14.8469484"><ele>664.1666666666666</ele><time>2026-05-03T10:11:40.964Z</time></trkpt><trkpt lat="40.7606277" lon="14.8470551"><ele>666.3333333333333</ele><time>2026-05-03T10:11:42.967Z</time></trkpt><trkpt lat="40.760589" lon="14.8471378"><ele>668.5</ele><time>2026-05-03T10:11:44.963Z</time></trkpt><trkpt lat="40.7605485" lon="14.8472249"><ele>670.6666666666666</ele><time>2026-05-03T10:11:46.966Z</time></trkpt><trkpt lat="40.7605153" lon="14.8473288"><ele>672.8333333333334</ele><time>2026-05-03T10:11:49.969Z</time></trkpt><trkpt lat="40.7604734" lon="14.8474234"><ele>675.0</ele><time>2026-05-03T10:11:51.965Z</time></trkpt><trkpt lat="40.760438" lon="14.8475312"><ele>677.6</ele><time>2026-05-03T10:11:53.959Z</time></trkpt><trkpt lat="40.7604023" lon="14.8476617"><ele>680.2</ele><time>2026-05-03T10:11:55.964Z</time></trkpt><trkpt lat="40.7603746" lon="14.8477912"><ele>682.8</ele><time>2026-05-03T10:11:57.968Z</time></trkpt><trkpt lat="40.760374" lon="14.847918"><ele>685.4</ele><time>2026-05-03T10:11:59.971Z</time></trkpt><trkpt lat="40.7603965" lon="14.8480435"><ele>688.0</ele><time>2026-05-03T10:12:01.967Z</time></trkpt><trkpt lat="40.7604112" lon="14.8481694"><ele>688.0</ele><time>2026-05-03T10:12:03.966Z</time></trkpt><trkpt lat="40.7604254" lon="14.8483037"><ele>688.0</ele><time>2026-05-03T10:12:05.966Z</time></trkpt><trkpt lat="40.7604302" lon="14.8484393"><ele>688.0</ele><time>2026-05-03T10:12:07.963Z</time></trkpt><trkpt lat="40.7604123" lon="14.8486154"><ele>688.0</ele><time>2026-05-03T10:12:09.967Z</time></trkpt><trkpt lat="40.7603996" lon="14.8487162"><ele>688.0</ele><time>2026-05-03T10:12:10.969Z</time></trkpt><trkpt lat="40.7603821" lon="14.848815"><ele>688.0</ele><time>2026-05-03T10:12:11.962Z</time></trkpt><trkpt lat="40.7603542" lon="14.8489109"><ele>688.0</ele><time>2026-05-03T10:12:12.962Z</time></trkpt><trkpt lat="40.7603114" lon="14.849017"><ele>688.0</ele><time>2026-05-03T10:12:13.955Z</time></trkpt><trkpt lat="40.7602711" lon="14.8490984"><ele>688.0</ele><time>2026-05-03T10:12:14.965Z</time></trkpt><trkpt lat="40.7602206" lon="14.8491528"><ele>688.0</ele><time>2026-05-03T10:12:15.965Z</time></trkpt><trkpt lat="40.7601292" lon="14.849226"><ele>688.0</ele><time>2026-05-03T10:12:17.962Z</time></trkpt><trkpt lat="40.7600614" lon="14.84927"><ele>691.4285714285714</ele><time>2026-05-03T10:12:18.965Z</time></trkpt><trkpt lat="40.760001" lon="14.8493146"><ele>694.8571428571429</ele><time>2026-05-03T10:12:19.97Z</time></trkpt><trkpt lat="40.759937" lon="14.8493691"><ele>698.2857142857142</ele><time>2026-05-03T10:12:20.968Z</time></trkpt><trkpt lat="40.7598751" lon="14.8494193"><ele>701.7142857142858</ele><time>2026-05-03T10:12:21.969Z</time></trkpt><trkpt lat="40.7598105" lon="14.849465"><ele>705.1428571428571</ele><time>2026-05-03T10:12:22.962Z</time></trkpt><trkpt lat="40.759741" lon="14.8495002"><ele>708.5714285714286</ele><time>2026-05-03T10:12:23.965Z</time></trkpt><trkpt lat="40.7596759" lon="14.8495292"><ele>712.0</ele><time>2026-05-03T10:12:24.964Z</time></trkpt><trkpt lat="40.7596165" lon="14.8495617"><ele>712.0</ele><time>2026-05-03T10:12:25.968Z</time></trkpt><trkpt lat="40.759542" lon="14.8496401"><ele>712.0</ele><time>2026-05-03T10:12:27.964Z</time></trkpt><trkpt lat="40.7595186" lon="14.8497336"><ele>712.0</ele><time>2026-05-03T10:12:29.965Z</time></trkpt><trkpt lat="40.759504" lon="14.8498469"><ele>712.0</ele><time>2026-05-03T10:12:31.964Z</time></trkpt><trkpt lat="40.759487" lon="14.8499822"><ele>712.0</ele><time>2026-05-03T10:12:33.969Z</time></trkpt><trkpt lat="40.7595127" lon="14.8501252"><ele>713.8333333333334</ele><time>2026-05-03T10:12:35.97Z</time></trkpt><trkpt lat="40.7595274" lon="14.8502199"><ele>715.6666666666667</ele><time>2026-05-03T10:12:37.97Z</time></trkpt><trkpt lat="40.7595181" lon="14.8503196"><ele>717.5</ele><time>2026-05-03T10:12:40.967Z</time></trkpt><trkpt lat="40.7595134" lon="14.8504284"><ele>719.3333333333334</ele><time>2026-05-03T10:12:43.971Z</time></trkpt><trkpt lat="40.7594434" lon="14.8504575"><ele>721.1666666666666</ele><time>2026-05-03T10:12:46.967Z</time></trkpt><trkpt lat="40.7593819" lon="14.8504153"><ele>723.0</ele><time>2026-05-03T10:12:47.968Z</time></trkpt><trkpt lat="40.7592914" lon="14.8503691"><ele>723.0</ele><time>2026-05-03T10:12:48.953Z</time></trkpt><trkpt lat="40.7591784" lon="14.8503318"><ele>723.0</ele><time>2026-05-03T10:12:49.974Z</time></trkpt><trkpt lat="40.7590539" lon="14.8502978"><ele>723.0</ele><time>2026-05-03T10:12:50.952Z</time></trkpt><trkpt lat="40.7589293" lon="14.8502588"><ele>723.0</ele><time>2026-05-03T10:12:51.964Z</time></trkpt><trkpt lat="40.7588161" lon="14.8502054"><ele>723.0</ele><time>2026-05-03T10:12:52.967Z</time></trkpt><trkpt lat="40.7587034" lon="14.8501349"><ele>723.0</ele><time>2026-05-03T10:12:53.971Z</time></trkpt><trkpt lat="40.7585885" lon="14.8500627"><ele>723.0</ele><time>2026-05-03T10:12:54.973Z</time></trkpt><trkpt lat="40.7584887" lon="14.8499759"><ele>723.0</ele><time>2026-05-03T10:12:55.965Z</time></trkpt><trkpt lat="40.7583973" lon="14.8498725"><ele>726.25</ele><time>2026-05-03T10:12:56.966Z</time></trkpt><trkpt lat="40.7583174" lon="14.8497522"><ele>729.5</ele><time>2026-05-03T10:12:57.969Z</time></trkpt><trkpt lat="40.7582457" lon="14.8496391"><ele>732.75</ele><time>2026-05-03T10:12:58.963Z</time></trkpt><trkpt lat="40.7581647" lon="14.8495372"><ele>736.0</ele><time>2026-05-03T10:12:59.968Z</time></trkpt><trkpt lat="40.7580594" lon="14.8494634"><ele>736.0</ele><time>2026-05-03T10:13:00.968Z</time></trkpt><trkpt lat="40.7579404" lon="14.8494104"><ele>736.0</ele><time>2026-05-03T10:13:01.964Z</time></trkpt><trkpt lat="40.7578043" lon="14.8493647"><ele>736.0</ele><time>2026-05-03T10:13:02.964Z</time></trkpt><trkpt lat="40.7576767" lon="14.8493049"><ele>736.0</ele><time>2026-05-03T10:13:03.969Z</time></trkpt><trkpt lat="40.7575561" lon="14.8492565"><ele>739.25</ele><time>2026-05-03T10:13:04.96Z</time></trkpt><trkpt lat="40.7574342" lon="14.8492038"><ele>742.5</ele><time>2026-05-03T10:13:05.966Z</time></trkpt><trkpt lat="40.7573065" lon="14.8491576"><ele>745.75</ele><time>2026-05-03T10:13:06.967Z</time></trkpt><trkpt lat="40.7571782" lon="14.8491334"><ele>749.0</ele><time>2026-05-03T10:13:07.968Z</time></trkpt><trkpt lat="40.7570423" lon="14.8491285"><ele>749.0</ele><time>2026-05-03T10:13:08.963Z</time></trkpt><trkpt lat="40.756904" lon="14.8491368"><ele>749.0</ele><time>2026-05-03T10:13:09.966Z</time></trkpt><trkpt lat="40.7567645" lon="14.8491456"><ele>749.0</ele><time>2026-05-03T10:13:10.969Z</time></trkpt><trkpt lat="40.7566152" lon="14.8491663"><ele>749.0</ele><time>2026-05-03T10:13:11.959Z</time></trkpt><trkpt lat="40.7564725" lon="14.8491977"><ele>750.75</ele><time>2026-05-03T10:13:12.967Z</time></trkpt><trkpt lat="40.7563393" lon="14.849234"><ele>752.5</ele><time>2026-05-03T10:13:13.971Z</time></trkpt><trkpt lat="40.7561982" lon="14.8492684"><ele>754.25</ele><time>2026-05-03T10:13:14.951Z</time></trkpt><trkpt lat="40.7560631" lon="14.8493169"><ele>756.0</ele><time>2026-05-03T10:13:15.963Z</time></trkpt><trkpt lat="40.7559349" lon="14.8493732"><ele>752.0</ele><time>2026-05-03T10:13:16.969Z</time></trkpt><trkpt lat="40.7558204" lon="14.8494543"><ele>748.0</ele><time>2026-05-03T10:13:17.949Z</time></trkpt><trkpt lat="40.755709" lon="14.8495487"><ele>744.0</ele><time>2026-05-03T10:13:18.966Z</time></trkpt><trkpt lat="40.7556029" lon="14.8496164"><ele>740.0</ele><time>2026-05-03T10:13:19.969Z</time></trkpt><trkpt lat="40.7555002" lon="14.8496639"><ele>740.0</ele><time>2026-05-03T10:13:20.965Z</time></trkpt><trkpt lat="40.7554102" lon="14.8496398"><ele>740.0</ele><time>2026-05-03T10:13:21.965Z</time></trkpt><trkpt lat="40.75533" lon="14.8495661"><ele>740.0</ele><time>2026-05-03T10:13:22.971Z</time></trkpt><trkpt lat="40.7552533" lon="14.8494538"><ele>740.0</ele><time>2026-05-03T10:13:23.966Z</time></trkpt><trkpt lat="40.755147" lon="14.8493358"><ele>740.0</ele><time>2026-05-03T10:13:24.964Z</time></trkpt><trkpt lat="40.755026" lon="14.8492235"><ele>743.25</ele><time>2026-05-03T10:13:25.961Z</time></trkpt><trkpt lat="40.7549029" lon="14.8491209"><ele>746.5</ele><time>2026-05-03T10:13:26.971Z</time></trkpt><trkpt lat="40.7547736" lon="14.8490398"><ele>749.75</ele><time>2026-05-03T10:13:27.963Z</time></trkpt><trkpt lat="40.7546431" lon="14.8489625"><ele>753.0</ele><time>2026-05-03T10:13:28.966Z</time></trkpt><trkpt lat="40.7545059" lon="14.8488795"><ele>748.5</ele><time>2026-05-03T10:13:29.969Z</time></trkpt><trkpt lat="40.7543658" lon="14.8487855"><ele>744.0</ele><time>2026-05-03T10:13:30.965Z</time></trkpt><trkpt lat="40.7542489" lon="14.8486869"><ele>739.5</ele><time>2026-05-03T10:13:31.968Z</time></trkpt><trkpt lat="40.75414" lon="14.8485783"><ele>735.0</ele><time>2026-05-03T10:13:32.97Z</time></trkpt><trkpt lat="40.7540366" lon="14.8484727"><ele>737.75</ele><time>2026-05-03T10:13:33.966Z</time></trkpt><trkpt lat="40.753939" lon="14.8483701"><ele>740.5</ele><time>2026-05-03T10:13:34.963Z</time></trkpt><trkpt lat="40.7538392" lon="14.8482858"><ele>743.25</ele><time>2026-05-03T10:13:35.963Z</time></trkpt><trkpt lat="40.7537317" lon="14.848245"><ele>746.0</ele><time>2026-05-03T10:13:36.971Z</time></trkpt><trkpt lat="40.7536251" lon="14.8482299"><ele>746.1999999999999</ele><time>2026-05-03T10:13:37.965Z</time></trkpt><trkpt lat="40.7535194" lon="14.8482583"><ele>746.4</ele><time>2026-05-03T10:13:38.967Z</time></trkpt><trkpt lat="40.7534117" lon="14.8483219"><ele>746.6</ele><time>2026-05-03T10:13:39.956Z</time></trkpt><trkpt lat="40.753314" lon="14.8483951"><ele>746.8</ele><time>2026-05-03T10:13:40.965Z</time></trkpt><trkpt lat="40.7532156" lon="14.8484343"><ele>747.0</ele><time>2026-05-03T10:13:41.961Z</time></trkpt><trkpt lat="40.7531244" lon="14.8484358"><ele>747.0</ele><time>2026-05-03T10:13:42.972Z</time></trkpt><trkpt lat="40.7530223" lon="14.8483944"><ele>747.0</ele><time>2026-05-03T10:13:43.96Z</time></trkpt><trkpt lat="40.7529212" lon="14.8483292"><ele>747.0</ele><time>2026-05-03T10:13:44.96Z</time></trkpt><trkpt lat="40.7528133" lon="14.8482448"><ele>747.0</ele><time>2026-05-03T10:13:45.958Z</time></trkpt><trkpt lat="40.7527015" lon="14.8481769"><ele>748.5</ele><time>2026-05-03T10:13:46.967Z</time></trkpt><trkpt lat="40.7525873" lon="14.8481448"><ele>750.0</ele><time>2026-05-03T10:13:47.969Z</time></trkpt><trkpt lat="40.7524603" lon="14.8481448"><ele>751.5</ele><time>2026-05-03T10:13:48.963Z</time></trkpt><trkpt lat="40.7523264" lon="14.8481873"><ele>753.0</ele><time>2026-05-03T10:13:49.963Z</time></trkpt><trkpt lat="40.7522063" lon="14.8482444"><ele>753.0</ele><time>2026-05-03T10:13:50.963Z</time></trkpt><trkpt lat="40.7520768" lon="14.8483197"><ele>753.0</ele><time>2026-05-03T10:13:51.963Z</time></trkpt><trkpt lat="40.7519475" lon="14.8483821"><ele>753.0</ele><time>2026-05-03T10:13:52.962Z</time></trkpt><trkpt lat="40.7518137" lon="14.8484358"><ele>753.0</ele><time>2026-05-03T10:13:53.962Z</time></trkpt><trkpt lat="40.7516704" lon="14.848485"><ele>750.25</ele><time>2026-05-03T10:13:54.962Z</time></trkpt><trkpt lat="40.7515325" lon="14.8485248"><ele>747.5</ele><time>2026-05-03T10:13:55.965Z</time></trkpt><trkpt lat="40.7513894" lon="14.848553"><ele>744.75</ele><time>2026-05-03T10:13:56.959Z</time></trkpt><trkpt lat="40.7512535" lon="14.8485612"><ele>742.0</ele><time>2026-05-03T10:13:57.964Z</time></trkpt><trkpt lat="40.7511235" lon="14.8485581"><ele>743.0</ele><time>2026-05-03T10:13:58.961Z</time></trkpt><trkpt lat="40.7510038" lon="14.8485433"><ele>744.0</ele><time>2026-05-03T10:13:59.967Z</time></trkpt><trkpt lat="40.750897" lon="14.8485129"><ele>745.0</ele><time>2026-05-03T10:14:00.959Z</time></trkpt><trkpt lat="40.7508017" lon="14.848479"><ele>746.0</ele><time>2026-05-03T10:14:01.964Z</time></trkpt><trkpt lat="40.7507068" lon="14.848464"><ele>747.0</ele><time>2026-05-03T10:14:02.963Z</time></trkpt><trkpt lat="40.7506263" lon="14.8484711"><ele>746.9999999999999</ele><time>2026-05-03T10:14:03.963Z</time></trkpt><trkpt lat="40.7505512" lon="14.8484901"><ele>747.0</ele><time>2026-05-03T10:14:04.961Z</time></trkpt><trkpt lat="40.7504823" lon="14.8485278"><ele>747.0</ele><time>2026-05-03T10:14:05.975Z</time></trkpt><trkpt lat="40.7504198" lon="14.8485573"><ele>747.0</ele><time>2026-05-03T10:14:06.964Z</time></trkpt><trkpt lat="40.7503525" lon="14.8485949"><ele>747.0</ele><time>2026-05-03T10:14:07.966Z</time></trkpt><trkpt lat="40.7502823" lon="14.848627"><ele>746.9999999999999</ele><time>2026-05-03T10:14:08.961Z</time></trkpt><trkpt lat="40.7502142" lon="14.8486649"><ele>747.0</ele><time>2026-05-03T10:14:09.963Z</time></trkpt><trkpt lat="40.7501423" lon="14.848703"><ele>751.2857142857142</ele><time>2026-05-03T10:14:10.981Z</time></trkpt><trkpt lat="40.7500728" lon="14.8487346"><ele>755.5714285714286</ele><time>2026-05-03T10:14:11.981Z</time></trkpt><trkpt lat="40.7500088" lon="14.848774"><ele>759.8571428571429</ele><time>2026-05-03T10:14:12.96Z</time></trkpt><trkpt lat="40.7499564" lon="14.8488265"><ele>764.1428571428571</ele><time>2026-05-03T10:14:13.964Z</time></trkpt><trkpt lat="40.7498972" lon="14.8488682"><ele>768.4285714285714</ele><time>2026-05-03T10:14:14.959Z</time></trkpt><trkpt lat="40.7498438" lon="14.8489153"><ele>772.7142857142857</ele><time>2026-05-03T10:14:15.965Z</time></trkpt><trkpt lat="40.7497809" lon="14.8489631"><ele>777.0</ele><time>2026-05-03T10:14:16.963Z</time></trkpt><trkpt lat="40.7497161" lon="14.8490021"><ele>777.0</ele><time>2026-05-03T10:14:17.955Z</time></trkpt><trkpt lat="40.7496208" lon="14.8491122"><ele>777.0</ele><time>2026-05-03T10:14:19.967Z</time></trkpt><trkpt lat="40.7495764" lon="14.8492577"><ele>777.0</ele><time>2026-05-03T10:14:21.961Z</time></trkpt><trkpt lat="40.7495455" lon="14.8493473"><ele>777.0</ele><time>2026-05-03T10:14:22.964Z</time></trkpt><trkpt lat="40.7495278" lon="14.8494432"><ele>777.0</ele><time>2026-05-03T10:14:23.963Z</time></trkpt><trkpt lat="40.7495115" lon="14.8495282"><ele>777.1666666666666</ele><time>2026-05-03T10:14:24.964Z</time></trkpt><trkpt lat="40.7494757" lon="14.8496428"><ele>777.3333333333333</ele><time>2026-05-03T10:14:26.967Z</time></trkpt><trkpt lat="40.7494688" lon="14.8497393"><ele>777.5</ele><time>2026-05-03T10:14:29.965Z</time></trkpt><trkpt lat="40.7494078" lon="14.8496876"><ele>777.6666666666666</ele><time>2026-05-03T10:14:32.974Z</time></trkpt><trkpt lat="40.7493371" lon="14.8496122"><ele>777.8333333333333</ele><time>2026-05-03T10:14:34.967Z</time></trkpt><trkpt lat="40.7492666" lon="14.8496118"><ele>778.0</ele><time>2026-05-03T10:14:36.967Z</time></trkpt><trkpt lat="40.7492124" lon="14.8496724"><ele>775.4</ele><time>2026-05-03T10:14:38.965Z</time></trkpt><trkpt lat="40.7491178" lon="14.8497321"><ele>772.8</ele><time>2026-05-03T10:14:40.967Z</time></trkpt><trkpt lat="40.7490077" lon="14.849732"><ele>770.2</ele><time>2026-05-03T10:14:42.963Z</time></trkpt><trkpt lat="40.7489396" lon="14.8498165"><ele>767.6</ele><time>2026-05-03T10:14:44.96Z</time></trkpt><trkpt lat="40.748902" lon="14.8498835"><ele>765.0</ele><time>2026-05-03T10:14:45.965Z</time></trkpt><trkpt lat="40.7488576" lon="14.8500264"><ele>765.0000000000001</ele><time>2026-05-03T10:14:47.961Z</time></trkpt><trkpt lat="40.748855" lon="14.8501195"><ele>765.0</ele><time>2026-05-03T10:14:48.964Z</time></trkpt><trkpt lat="40.7488508" lon="14.8502223"><ele>765.0</ele><time>2026-05-03T10:14:49.964Z</time></trkpt><trkpt lat="40.7488392" lon="14.8503166"><ele>765.0</ele><time>2026-05-03T10:14:50.963Z</time></trkpt><trkpt lat="40.7488149" lon="14.8504077"><ele>765.0</ele><time>2026-05-03T10:14:51.96Z</time></trkpt><trkpt lat="40.7487682" lon="14.8504733"><ele>765.0000000000001</ele><time>2026-05-03T10:14:52.962Z</time></trkpt><trkpt lat="40.7487149" lon="14.8505321"><ele>765.0</ele><time>2026-05-03T10:14:53.962Z</time></trkpt><trkpt lat="40.7485837" lon="14.8506213"><ele>762.3333333333334</ele><time>2026-05-03T10:14:55.954Z</time></trkpt><trkpt lat="40.748511" lon="14.8506647"><ele>759.6666666666666</ele><time>2026-05-03T10:14:56.961Z</time></trkpt><trkpt lat="40.7484414" lon="14.8507156"><ele>757.0</ele><time>2026-05-03T10:14:57.964Z</time></trkpt><trkpt lat="40.7483787" lon="14.8507833"><ele>754.3333333333333</ele><time>2026-05-03T10:14:58.961Z</time></trkpt><trkpt lat="40.7483412" lon="14.8508609"><ele>751.6666666666666</ele><time>2026-05-03T10:14:59.96Z</time></trkpt><trkpt lat="40.7483108" lon="14.8509338"><ele>749.0</ele><time>2026-05-03T10:15:00.96Z</time></trkpt><trkpt lat="40.748292" lon="14.8510787"><ele>745.6666666666666</ele><time>2026-05-03T10:15:02.96Z</time></trkpt><trkpt lat="40.7482758" lon="14.8512134"><ele>742.3333333333333</ele><time>2026-05-03T10:15:04.96Z</time></trkpt><trkpt lat="40.7482613" lon="14.8513209"><ele>739.0</ele><time>2026-05-03T10:15:06.959Z</time></trkpt><trkpt lat="40.748249" lon="14.8514248"><ele>735.6666666666666</ele><time>2026-05-03T10:15:08.954Z</time></trkpt><trkpt lat="40.7482509" lon="14.851534"><ele>732.3333333333334</ele><time>2026-05-03T10:15:10.955Z</time></trkpt><trkpt lat="40.7482688" lon="14.8516579"><ele>729.0</ele><time>2026-05-03T10:15:12.958Z</time></trkpt><trkpt lat="40.7482955" lon="14.851745"><ele>728.3333333333334</ele><time>2026-05-03T10:15:13.96Z</time></trkpt><trkpt lat="40.7483172" lon="14.8518291"><ele>727.6666666666666</ele><time>2026-05-03T10:15:14.968Z</time></trkpt><trkpt lat="40.7483309" lon="14.8519257"><ele>727.0</ele><time>2026-05-03T10:15:15.963Z</time></trkpt><trkpt lat="40.7483342" lon="14.8520367"><ele>726.3333333333333</ele><time>2026-05-03T10:15:16.959Z</time></trkpt><trkpt lat="40.7483428" lon="14.8521453"><ele>725.6666666666666</ele><time>2026-05-03T10:15:17.959Z</time></trkpt><trkpt lat="40.7483501" lon="14.8522686"><ele>725.0</ele><time>2026-05-03T10:15:18.958Z</time></trkpt><trkpt lat="40.7483435" lon="14.8524038"><ele>725.0</ele><time>2026-05-03T10:15:19.957Z</time></trkpt><trkpt lat="40.7483362" lon="14.8525365"><ele>725.0</ele><time>2026-05-03T10:15:20.954Z</time></trkpt><trkpt lat="40.7483257" lon="14.8526606"><ele>725.0</ele><time>2026-05-03T10:15:21.956Z</time></trkpt><trkpt lat="40.7482816" lon="14.8527842"><ele>725.0</ele><time>2026-05-03T10:15:22.958Z</time></trkpt><trkpt lat="40.7482186" lon="14.8528905"><ele>725.0</ele><time>2026-05-03T10:15:23.955Z</time></trkpt><trkpt lat="40.748152" lon="14.8529684"><ele>722.8</ele><time>2026-05-03T10:15:24.952Z</time></trkpt><trkpt lat="40.7480667" lon="14.8530346"><ele>720.6</ele><time>2026-05-03T10:15:26.014Z</time></trkpt><trkpt lat="40.7479741" lon="14.8531032"><ele>718.4000000000001</ele><time>2026-05-03T10:15:27.023Z</time></trkpt><trkpt lat="40.747886" lon="14.8531619"><ele>716.2</ele><time>2026-05-03T10:15:27.954Z</time></trkpt><trkpt lat="40.7478004" lon="14.8532047"><ele>714.0</ele><time>2026-05-03T10:15:28.954Z</time></trkpt><trkpt lat="40.7477193" lon="14.8532301"><ele>718.4000000000001</ele><time>2026-05-03T10:15:29.954Z</time></trkpt><trkpt lat="40.7476324" lon="14.8532419"><ele>722.8</ele><time>2026-05-03T10:15:30.96Z</time></trkpt><trkpt lat="40.7475497" lon="14.8532478"><ele>727.2</ele><time>2026-05-03T10:15:31.95Z</time></trkpt><trkpt lat="40.7474466" lon="14.8532301"><ele>731.5999999999999</ele><time>2026-05-03T10:15:32.953Z</time></trkpt><trkpt lat="40.7473306" lon="14.8532038"><ele>736.0</ele><time>2026-05-03T10:15:33.955Z</time></trkpt><trkpt lat="40.7472409" lon="14.853189"><ele>736.0</ele><time>2026-05-03T10:15:34.953Z</time></trkpt><trkpt lat="40.7471611" lon="14.8532855"><ele>736.0</ele><time>2026-05-03T10:15:37.033Z</time></trkpt><trkpt lat="40.7471266" lon="14.8533578"><ele>736.0</ele><time>2026-05-03T10:15:38.065Z</time></trkpt><trkpt lat="40.7470066" lon="14.8534655"><ele>736.0</ele><time>2026-05-03T10:15:40.042Z</time></trkpt><trkpt lat="40.7469065" lon="14.853482"><ele>736.0</ele><time>2026-05-03T10:15:41.028Z</time></trkpt><trkpt lat="40.746799" lon="14.8534975"><ele>735.0</ele><time>2026-05-03T10:15:42.04Z</time></trkpt><trkpt lat="40.746708" lon="14.8534972"><ele>734.0</ele><time>2026-05-03T10:15:42.986Z</time></trkpt><trkpt lat="40.7466451" lon="14.853493"><ele>733.0</ele><time>2026-05-03T10:15:43.958Z</time></trkpt><trkpt lat="40.7465969" lon="14.8535619"><ele>732.0</ele><time>2026-05-03T10:15:45.957Z</time></trkpt><trkpt lat="40.7465771" lon="14.8536459"><ele>731.0</ele><time>2026-05-03T10:15:46.954Z</time></trkpt><trkpt lat="40.7465615" lon="14.8537314"><ele>730.0</ele><time>2026-05-03T10:15:47.956Z</time></trkpt><trkpt lat="40.7465348" lon="14.8538276"><ele>729.0</ele><time>2026-05-03T10:15:48.969Z</time></trkpt><trkpt lat="40.7464985" lon="14.8539304"><ele>729.0</ele><time>2026-05-03T10:15:49.957Z</time></trkpt><trkpt lat="40.7464605" lon="14.8540368"><ele>729.0</ele><time>2026-05-03T10:15:50.96Z</time></trkpt><trkpt lat="40.7464241" lon="14.8541341"><ele>729.0</ele><time>2026-05-03T10:15:51.959Z</time></trkpt><trkpt lat="40.7463825" lon="14.854213"><ele>729.0</ele><time>2026-05-03T10:15:52.96Z</time></trkpt><trkpt lat="40.7463291" lon="14.8542735"><ele>729.0</ele><time>2026-05-03T10:15:53.953Z</time></trkpt><trkpt lat="40.7462166" lon="14.8543259"><ele>729.0</ele><time>2026-05-03T10:15:55.945Z</time></trkpt><trkpt lat="40.7460939" lon="14.8542916"><ele>729.0</ele><time>2026-05-03T10:15:57.957Z</time></trkpt><trkpt lat="40.7460231" lon="14.8542584"><ele>729.0</ele><time>2026-05-03T10:15:59.017Z</time></trkpt><trkpt lat="40.7459455" lon="14.8542214"><ele>729.0</ele><time>2026-05-03T10:15:59.961Z</time></trkpt><trkpt lat="40.7458562" lon="14.8541679"><ele>729.0</ele><time>2026-05-03T10:16:00.96Z</time></trkpt><trkpt lat="40.7457621" lon="14.8540986"><ele>729.0</ele><time>2026-05-03T10:16:01.957Z</time></trkpt><trkpt lat="40.7456849" lon="14.8540467"><ele>729.0</ele><time>2026-05-03T10:16:03.035Z</time></trkpt><trkpt lat="40.7456102" lon="14.8540353"><ele>729.0</ele><time>2026-05-03T10:16:03.955Z</time></trkpt><trkpt lat="40.7455256" lon="14.8540431"><ele>729.0</ele><time>2026-05-03T10:16:05.032Z</time></trkpt><trkpt lat="40.7454412" lon="14.8540516"><ele>729.0</ele><time>2026-05-03T10:16:06.046Z</time></trkpt><trkpt lat="40.7453775" lon="14.8541402"><ele>729.0</ele><time>2026-05-03T10:16:07.98Z</time></trkpt><trkpt lat="40.7453669" lon="14.8542427"><ele>729.0</ele><time>2026-05-03T10:16:08.956Z</time></trkpt><trkpt lat="40.745354" lon="14.8543361"><ele>724.2</ele><time>2026-05-03T10:16:09.96Z</time></trkpt><trkpt lat="40.7453338" lon="14.8544651"><ele>719.4000000000001</ele><time>2026-05-03T10:16:12.035Z</time></trkpt><trkpt lat="40.7452568" lon="14.8545468"><ele>714.6</ele><time>2026-05-03T10:16:13.956Z</time></trkpt><trkpt lat="40.7451852" lon="14.8545464"><ele>709.8</ele><time>2026-05-03T10:16:14.967Z</time></trkpt><trkpt lat="40.7450921" lon="14.854532"><ele>705.0</ele><time>2026-05-03T10:16:16.032Z</time></trkpt><trkpt lat="40.7450003" lon="14.8544997"><ele>705.0</ele><time>2026-05-03T10:16:17.032Z</time></trkpt><trkpt lat="40.7449399" lon="14.8544599"><ele>705.0</ele><time>2026-05-03T10:16:17.953Z</time></trkpt><trkpt lat="40.7448711" lon="14.8545884"><ele>705.0</ele><time>2026-05-03T10:16:20.949Z</time></trkpt><trkpt lat="40.7448205" lon="14.8546613"><ele>705.0</ele><time>2026-05-03T10:16:21.959Z</time></trkpt><trkpt lat="40.7447582" lon="14.8547254"><ele>705.0</ele><time>2026-05-03T10:16:22.957Z</time></trkpt><trkpt lat="40.7446917" lon="14.8547914"><ele>705.0</ele><time>2026-05-03T10:16:23.954Z</time></trkpt><trkpt lat="40.7446225" lon="14.8548648"><ele>705.0</ele><time>2026-05-03T10:16:24.96Z</time></trkpt><trkpt lat="40.7445587" lon="14.8549506"><ele>705.0</ele><time>2026-05-03T10:16:25.99Z</time></trkpt><trkpt lat="40.7444843" lon="14.8550368"><ele>705.0</ele><time>2026-05-03T10:16:26.956Z</time></trkpt><trkpt lat="40.7444021" lon="14.8550965"><ele>705.0</ele><time>2026-05-03T10:16:27.954Z</time></trkpt><trkpt lat="40.7443243" lon="14.8551384"><ele>705.0</ele><time>2026-05-03T10:16:28.956Z</time></trkpt><trkpt lat="40.7442577" lon="14.8551778"><ele>705.0</ele><time>2026-05-03T10:16:29.955Z</time></trkpt><trkpt lat="40.7441651" lon="14.8552398"><ele>707.6</ele><time>2026-05-03T10:16:31.954Z</time></trkpt><trkpt lat="40.7441194" lon="14.8553238"><ele>710.2</ele><time>2026-05-03T10:16:33.953Z</time></trkpt><trkpt lat="40.7440957" lon="14.8554206"><ele>712.8</ele><time>2026-05-03T10:16:35.956Z</time></trkpt><trkpt lat="40.7441172" lon="14.8555429"><ele>715.4</ele><time>2026-05-03T10:16:37.993Z</time></trkpt><trkpt lat="40.7441559" lon="14.8556798"><ele>718.0</ele><time>2026-05-03T10:16:38.949Z</time></trkpt><trkpt lat="40.7441806" lon="14.8558267"><ele>715.4</ele><time>2026-05-03T10:16:39.956Z</time></trkpt><trkpt lat="40.7441959" lon="14.8559837"><ele>712.8</ele><time>2026-05-03T10:16:40.96Z</time></trkpt><trkpt lat="40.7441803" lon="14.8561158"><ele>710.2</ele><time>2026-05-03T10:16:41.96Z</time></trkpt><trkpt lat="40.7441302" lon="14.8561667"><ele>707.6</ele><time>2026-05-03T10:16:42.956Z</time></trkpt><trkpt lat="40.7440457" lon="14.8561966"><ele>705.0</ele><time>2026-05-03T10:16:43.956Z</time></trkpt><trkpt lat="40.743949" lon="14.8561702"><ele>705.0</ele><time>2026-05-03T10:16:44.951Z</time></trkpt><trkpt lat="40.7438624" lon="14.8561155"><ele>705.0</ele><time>2026-05-03T10:16:45.953Z</time></trkpt><trkpt lat="40.7437733" lon="14.8560595"><ele>705.0</ele><time>2026-05-03T10:16:46.955Z</time></trkpt><trkpt lat="40.7436954" lon="14.8559947"><ele>705.0</ele><time>2026-05-03T10:16:47.961Z</time></trkpt><trkpt lat="40.7436259" lon="14.8559455"><ele>705.0</ele><time>2026-05-03T10:16:48.955Z</time></trkpt><trkpt lat="40.7435604" lon="14.8559228"><ele>705.0</ele><time>2026-05-03T10:16:49.954Z</time></trkpt><trkpt lat="40.7434929" lon="14.8559841"><ele>706.8333333333334</ele><time>2026-05-03T10:16:51.954Z</time></trkpt><trkpt lat="40.7434912" lon="14.8561335"><ele>708.6666666666666</ele><time>2026-05-03T10:16:53.953Z</time></trkpt><trkpt lat="40.7434816" lon="14.8562388"><ele>710.5</ele><time>2026-05-03T10:16:54.954Z</time></trkpt><trkpt lat="40.7434477" lon="14.8563442"><ele>712.3333333333333</ele><time>2026-05-03T10:16:55.955Z</time></trkpt><trkpt lat="40.7434147" lon="14.856437"><ele>714.1666666666666</ele><time>2026-05-03T10:16:56.962Z</time></trkpt><trkpt lat="40.7433629" lon="14.8565262"><ele>716.0</ele><time>2026-05-03T10:16:58.037Z</time></trkpt><trkpt lat="40.7433132" lon="14.8566065"><ele>716.0</ele><time>2026-05-03T10:16:58.961Z</time></trkpt><trkpt lat="40.7432924" lon="14.8566954"><ele>716.0</ele><time>2026-05-03T10:16:59.955Z</time></trkpt><trkpt lat="40.7432819" lon="14.856793"><ele>716.0</ele><time>2026-05-03T10:17:00.954Z</time></trkpt><trkpt lat="40.7432744" lon="14.8568913"><ele>716.0</ele><time>2026-05-03T10:17:02.035Z</time></trkpt><trkpt lat="40.7432544" lon="14.856981"><ele>716.0</ele><time>2026-05-03T10:17:03.04Z</time></trkpt><trkpt lat="40.7432091" lon="14.857083"><ele>716.0</ele><time>2026-05-03T10:17:03.961Z</time></trkpt><trkpt lat="40.7431492" lon="14.8571903"><ele>711.4</ele><time>2026-05-03T10:17:04.964Z</time></trkpt><trkpt lat="40.7430944" lon="14.8573008"><ele>706.8</ele><time>2026-05-03T10:17:05.958Z</time></trkpt><trkpt lat="40.7430384" lon="14.8574153"><ele>702.1999999999999</ele><time>2026-05-03T10:17:06.956Z</time></trkpt><trkpt lat="40.7429859" lon="14.857525"><ele>697.5999999999999</ele><time>2026-05-03T10:17:07.956Z</time></trkpt><trkpt lat="40.7429687" lon="14.8576184"><ele>693.0</ele><time>2026-05-03T10:17:08.963Z</time></trkpt><trkpt lat="40.7429737" lon="14.8577381"><ele>690.0</ele><time>2026-05-03T10:17:11.05Z</time></trkpt><trkpt lat="40.7429893" lon="14.857821"><ele>687.0</ele><time>2026-05-03T10:17:12.028Z</time></trkpt><trkpt lat="40.7429919" lon="14.8579827"><ele>684.0</ele><time>2026-05-03T10:17:13.955Z</time></trkpt><trkpt lat="40.7429222" lon="14.8580797"><ele>681.0</ele><time>2026-05-03T10:17:15.948Z</time></trkpt><trkpt lat="40.742808" lon="14.8580804"><ele>678.0</ele><time>2026-05-03T10:17:17.948Z</time></trkpt><trkpt lat="40.7427195" lon="14.8580849"><ele>683.5</ele><time>2026-05-03T10:17:18.953Z</time></trkpt><trkpt lat="40.7426346" lon="14.8581135"><ele>689.0</ele><time>2026-05-03T10:17:19.949Z</time></trkpt><trkpt lat="40.742537" lon="14.8581495"><ele>694.5</ele><time>2026-05-03T10:17:21.035Z</time></trkpt><trkpt lat="40.7424593" lon="14.8581665"><ele>700.0</ele><time>2026-05-03T10:17:21.956Z</time></trkpt><trkpt lat="40.7423789" lon="14.8581966"><ele>705.5</ele><time>2026-05-03T10:17:23.956Z</time></trkpt><trkpt lat="40.742371" lon="14.8582886"><ele>711.0</ele><time>2026-05-03T10:17:25.951Z</time></trkpt><trkpt lat="40.7423955" lon="14.8584002"><ele>711.8333333333334</ele><time>2026-05-03T10:17:28.022Z</time></trkpt><trkpt lat="40.7424562" lon="14.8584987"><ele>712.6666666666666</ele><time>2026-05-03T10:17:29.958Z</time></trkpt><trkpt lat="40.742544" lon="14.8585959"><ele>713.5</ele><time>2026-05-03T10:17:31.956Z</time></trkpt><trkpt lat="40.7425931" lon="14.8586505"><ele>714.3333333333333</ele><time>2026-05-03T10:17:32.957Z</time></trkpt><trkpt lat="40.7426448" lon="14.8587027"><ele>715.1666666666666</ele><time>2026-05-03T10:17:33.956Z</time></trkpt><trkpt lat="40.7426864" lon="14.8587698"><ele>716.0</ele><time>2026-05-03T10:17:34.999Z</time></trkpt><trkpt lat="40.7427283" lon="14.8588417"><ele>709.6666666666666</ele><time>2026-05-03T10:17:35.976Z</time></trkpt><trkpt lat="40.7427706" lon="14.8589165"><ele>703.3333333333333</ele><time>2026-05-03T10:17:36.953Z</time></trkpt><trkpt lat="40.742801" lon="14.8589982"><ele>697.0</ele><time>2026-05-03T10:17:38.026Z</time></trkpt><trkpt lat="40.742894" lon="14.8591275"><ele>690.6666666666666</ele><time>2026-05-03T10:17:39.957Z</time></trkpt><trkpt lat="40.7429591" lon="14.8591881"><ele>684.3333333333334</ele><time>2026-05-03T10:17:40.955Z</time></trkpt><trkpt lat="40.7430286" lon="14.859255"><ele>678.0</ele><time>2026-05-03T10:17:41.954Z</time></trkpt><trkpt lat="40.7430908" lon="14.8593212"><ele>678.0</ele><time>2026-05-03T10:17:42.952Z</time></trkpt><trkpt lat="40.7431369" lon="14.8593782"><ele>678.0</ele><time>2026-05-03T10:17:43.949Z</time></trkpt><trkpt lat="40.743186" lon="14.8594552"><ele>678.0</ele><time>2026-05-03T10:17:44.955Z</time></trkpt><trkpt lat="40.7432359" lon="14.859559"><ele>678.0</ele><time>2026-05-03T10:17:46.056Z</time></trkpt><trkpt lat="40.743288" lon="14.8596656"><ele>678.0</ele><time>2026-05-03T10:17:47.015Z</time></trkpt><trkpt lat="40.7433349" lon="14.8597733"><ele>678.0</ele><time>2026-05-03T10:17:48.018Z</time></trkpt><trkpt lat="40.7433816" lon="14.8598807"><ele>678.0</ele><time>2026-05-03T10:17:48.953Z</time></trkpt><trkpt lat="40.7434015" lon="14.8599677"><ele>678.0</ele><time>2026-05-03T10:17:49.956Z</time></trkpt><trkpt lat="40.7433994" lon="14.8600803"><ele>678.0</ele><time>2026-05-03T10:17:50.98Z</time></trkpt><trkpt lat="40.7433736" lon="14.8602147"><ele>678.0</ele><time>2026-05-03T10:17:52.031Z</time></trkpt><trkpt lat="40.7433304" lon="14.8603397"><ele>678.0</ele><time>2026-05-03T10:17:53.017Z</time></trkpt><trkpt lat="40.7432825" lon="14.860475"><ele>676.8</ele><time>2026-05-03T10:17:53.956Z</time></trkpt><trkpt lat="40.7432531" lon="14.8606104"><ele>675.5999999999999</ele><time>2026-05-03T10:17:54.957Z</time></trkpt><trkpt lat="40.7432099" lon="14.8607197"><ele>674.4000000000001</ele><time>2026-05-03T10:17:56.034Z</time></trkpt><trkpt lat="40.74317" lon="14.8608201"><ele>673.2</ele><time>2026-05-03T10:17:57.026Z</time></trkpt><trkpt lat="40.7431381" lon="14.8609316"><ele>672.0</ele><time>2026-05-03T10:17:58.039Z</time></trkpt><trkpt lat="40.7431109" lon="14.8610236"><ele>673.0</ele><time>2026-05-03T10:17:58.96Z</time></trkpt><trkpt lat="40.7430119" lon="14.8610551"><ele>674.0</ele><time>2026-05-03T10:18:01.96Z</time></trkpt><trkpt lat="40.7429451" lon="14.8610445"><ele>675.0</ele><time>2026-05-03T10:18:02.954Z</time></trkpt><trkpt lat="40.7428517" lon="14.8610301"><ele>676.0</ele><time>2026-05-03T10:18:03.954Z</time></trkpt><trkpt lat="40.7427691" lon="14.8610131"><ele>677.0</ele><time>2026-05-03T10:18:04.954Z</time></trkpt><trkpt lat="40.7426988" lon="14.8609853"><ele>678.0</ele><time>2026-05-03T10:18:06.042Z</time></trkpt><trkpt lat="40.7426255" lon="14.8609434"><ele>678.0</ele><time>2026-05-03T10:18:06.957Z</time></trkpt><trkpt lat="40.7425451" lon="14.8608921"><ele>678.0</ele><time>2026-05-03T10:18:07.955Z</time></trkpt><trkpt lat="40.742465" lon="14.8608386"><ele>678.0</ele><time>2026-05-03T10:18:08.942Z</time></trkpt><trkpt lat="40.7423935" lon="14.8607945"><ele>678.0</ele><time>2026-05-03T10:18:09.957Z</time></trkpt><trkpt lat="40.7423186" lon="14.8607452"><ele>678.0</ele><time>2026-05-03T10:18:10.954Z</time></trkpt><trkpt lat="40.7422325" lon="14.8606908"><ele>678.0</ele><time>2026-05-03T10:18:11.97Z</time></trkpt><trkpt lat="40.7421462" lon="14.8606345"><ele>678.0</ele><time>2026-05-03T10:18:13.023Z</time></trkpt><trkpt lat="40.7420627" lon="14.8605887"><ele>678.0</ele><time>2026-05-03T10:18:13.957Z</time></trkpt><trkpt lat="40.7419832" lon="14.8605372"><ele>678.0</ele><time>2026-05-03T10:18:14.96Z</time></trkpt><trkpt lat="40.7419084" lon="14.8604751"><ele>678.0</ele><time>2026-05-03T10:18:15.951Z</time></trkpt><trkpt lat="40.7418239" lon="14.8604287"><ele>678.0</ele><time>2026-05-03T10:18:16.955Z</time></trkpt><trkpt lat="40.7417397" lon="14.8604352"><ele>678.0</ele><time>2026-05-03T10:18:18.953Z</time></trkpt><trkpt lat="40.7416945" lon="14.8605413"><ele>679.6666666666666</ele><time>2026-05-03T10:18:21.021Z</time></trkpt><trkpt lat="40.7416807" lon="14.8606463"><ele>681.3333333333334</ele><time>2026-05-03T10:18:23.014Z</time></trkpt><trkpt lat="40.7417173" lon="14.8607702"><ele>683.0</ele><time>2026-05-03T10:18:24.958Z</time></trkpt><trkpt lat="40.7417661" lon="14.8608541"><ele>684.6666666666667</ele><time>2026-05-03T10:18:25.952Z</time></trkpt><trkpt lat="40.7418184" lon="14.8609595"><ele>686.3333333333334</ele><time>2026-05-03T10:18:27.02Z</time></trkpt><trkpt lat="40.7418517" lon="14.8610651"><ele>688.0</ele><time>2026-05-03T10:18:28.012Z</time></trkpt><trkpt lat="40.7419001" lon="14.861196"><ele>682.0</ele><time>2026-05-03T10:18:28.959Z</time></trkpt><trkpt lat="40.7419361" lon="14.8613195"><ele>676.0</ele><time>2026-05-03T10:18:29.96Z</time></trkpt><trkpt lat="40.7419548" lon="14.8614334"><ele>670.0</ele><time>2026-05-03T10:18:30.962Z</time></trkpt><trkpt lat="40.7419488" lon="14.8615369"><ele>664.0</ele><time>2026-05-03T10:18:31.958Z</time></trkpt><trkpt lat="40.7419251" lon="14.8616576"><ele>658.0</ele><time>2026-05-03T10:18:32.955Z</time></trkpt><trkpt lat="40.7418973" lon="14.8617904"><ele>661.4</ele><time>2026-05-03T10:18:33.954Z</time></trkpt><trkpt lat="40.7418713" lon="14.8619218"><ele>664.8</ele><time>2026-05-03T10:18:34.963Z</time></trkpt><trkpt lat="40.7418583" lon="14.8620338"><ele>668.2</ele><time>2026-05-03T10:18:35.98Z</time></trkpt><trkpt lat="40.7417704" lon="14.8621504"><ele>671.6</ele><time>2026-05-03T10:18:37.957Z</time></trkpt><trkpt lat="40.7416949" lon="14.8622025"><ele>675.0</ele><time>2026-05-03T10:18:38.96Z</time></trkpt><trkpt lat="40.7416028" lon="14.8622555"><ele>675.0</ele><time>2026-05-03T10:18:39.957Z</time></trkpt><trkpt lat="40.7414943" lon="14.8623088"><ele>675.0</ele><time>2026-05-03T10:18:41.029Z</time></trkpt><trkpt lat="40.7413775" lon="14.8623729"><ele>675.0</ele><time>2026-05-03T10:18:42.026Z</time></trkpt><trkpt lat="40.7412989" lon="14.8624284"><ele>675.0</ele><time>2026-05-03T10:18:43.02Z</time></trkpt><trkpt lat="40.7412194" lon="14.8624702"><ele>675.0</ele><time>2026-05-03T10:18:44.96Z</time></trkpt><trkpt lat="40.7412894" lon="14.8624064"><ele>675.0</ele><time>2026-05-03T10:18:50.017Z</time></trkpt><trkpt lat="40.7413472" lon="14.8624424"><ele>675.0</ele><time>2026-05-03T10:18:51.043Z</time></trkpt><trkpt lat="40.741408" lon="14.862544"><ele>675.0</ele><time>2026-05-03T10:18:52.023Z</time></trkpt><trkpt lat="40.7414444" lon="14.8626543"><ele>675.0</ele><time>2026-05-03T10:18:52.956Z</time></trkpt><trkpt lat="40.7414794" lon="14.862775"><ele>675.0</ele><time>2026-05-03T10:18:53.958Z</time></trkpt><trkpt lat="40.7415012" lon="14.8629077"><ele>675.4</ele><time>2026-05-03T10:18:54.958Z</time></trkpt><trkpt lat="40.741516" lon="14.8630422"><ele>675.8</ele><time>2026-05-03T10:18:55.954Z</time></trkpt><trkpt lat="40.7415197" lon="14.8631697"><ele>676.2</ele><time>2026-05-03T10:18:56.959Z</time></trkpt><trkpt lat="40.7414935" lon="14.8632976"><ele>676.6</ele><time>2026-05-03T10:18:58.014Z</time></trkpt><trkpt lat="40.7414473" lon="14.8634079"><ele>677.0</ele><time>2026-05-03T10:18:58.957Z</time></trkpt><trkpt lat="40.7413951" lon="14.8634986"><ele>676.3333333333333</ele><time>2026-05-03T10:18:59.957Z</time></trkpt><trkpt lat="40.7413418" lon="14.8635904"><ele>675.6666666666666</ele><time>2026-05-03T10:19:00.955Z</time></trkpt><trkpt lat="40.7412858" lon="14.8636659"><ele>675.0</ele><time>2026-05-03T10:19:01.957Z</time></trkpt><trkpt lat="40.7412277" lon="14.8637149"><ele>674.3333333333334</ele><time>2026-05-03T10:19:02.959Z</time></trkpt><trkpt lat="40.7411433" lon="14.8637369"><ele>673.6666666666667</ele><time>2026-05-03T10:19:03.956Z</time></trkpt><trkpt lat="40.7410648" lon="14.8637534"><ele>673.0</ele><time>2026-05-03T10:19:04.95Z</time></trkpt><trkpt lat="40.7409782" lon="14.8637717"><ele>676.5</ele><time>2026-05-03T10:19:05.972Z</time></trkpt><trkpt lat="40.740888" lon="14.863784"><ele>680.0</ele><time>2026-05-03T10:19:06.985Z</time></trkpt><trkpt lat="40.7408025" lon="14.8637913"><ele>683.5</ele><time>2026-05-03T10:19:07.956Z</time></trkpt><trkpt lat="40.7407103" lon="14.8638094"><ele>687.0</ele><time>2026-05-03T10:19:08.952Z</time></trkpt><trkpt lat="40.7406187" lon="14.8638291"><ele>690.5</ele><time>2026-05-03T10:19:09.961Z</time></trkpt><trkpt lat="40.7405339" lon="14.8638465"><ele>694.0</ele><time>2026-05-03T10:19:10.955Z</time></trkpt><trkpt lat="40.7404441" lon="14.8638849"><ele>694.0</ele><time>2026-05-03T10:19:12.949Z</time></trkpt><trkpt lat="40.7404152" lon="14.8639757"><ele>694.0</ele><time>2026-05-03T10:19:14.959Z</time></trkpt><trkpt lat="40.7404138" lon="14.8641477"><ele>694.0</ele><time>2026-05-03T10:19:16.955Z</time></trkpt><trkpt lat="40.7404367" lon="14.8642425"><ele>694.0</ele><time>2026-05-03T10:19:17.952Z</time></trkpt><trkpt lat="40.7404214" lon="14.8643321"><ele>694.0</ele><time>2026-05-03T10:19:18.948Z</time></trkpt><trkpt lat="40.7403877" lon="14.8644149"><ele>694.0</ele><time>2026-05-03T10:19:19.984Z</time></trkpt><trkpt lat="40.7403438" lon="14.8645106"><ele>694.3333333333334</ele><time>2026-05-03T10:19:20.958Z</time></trkpt><trkpt lat="40.7402883" lon="14.8645942"><ele>694.6666666666667</ele><time>2026-05-03T10:19:21.953Z</time></trkpt><trkpt lat="40.7402419" lon="14.8646605"><ele>695.0</ele><time>2026-05-03T10:19:22.956Z</time></trkpt><trkpt lat="40.7401713" lon="14.8647185"><ele>695.3333333333334</ele><time>2026-05-03T10:19:24.959Z</time></trkpt><trkpt lat="40.7400376" lon="14.8647221"><ele>695.6666666666666</ele><time>2026-05-03T10:19:26.953Z</time></trkpt><trkpt lat="40.7399687" lon="14.8647179"><ele>696.0</ele><time>2026-05-03T10:19:27.955Z</time></trkpt><trkpt lat="40.7398977" lon="14.8647005"><ele>696.0</ele><time>2026-05-03T10:19:28.952Z</time></trkpt><trkpt lat="40.739825" lon="14.8646822"><ele>696.0</ele><time>2026-05-03T10:19:29.956Z</time></trkpt><trkpt lat="40.7397407" lon="14.8646603"><ele>696.0</ele><time>2026-05-03T10:19:30.949Z</time></trkpt><trkpt lat="40.7396647" lon="14.8646502"><ele>696.0</ele><time>2026-05-03T10:19:31.953Z</time></trkpt><trkpt lat="40.7395466" lon="14.8646885"><ele>696.0</ele><time>2026-05-03T10:19:33.961Z</time></trkpt><trkpt lat="40.7395708" lon="14.8647682"><ele>696.0</ele><time>2026-05-03T10:19:37.955Z</time></trkpt><trkpt lat="40.7395844" lon="14.8648609"><ele>696.0</ele><time>2026-05-03T10:19:40.955Z</time></trkpt><trkpt lat="40.7395276" lon="14.8649332"><ele>696.0</ele><time>2026-05-03T10:19:42.959Z</time></trkpt><trkpt lat="40.7394332" lon="14.8649549"><ele>696.0</ele><time>2026-05-03T10:19:44.961Z</time></trkpt><trkpt lat="40.7393699" lon="14.8649428"><ele>696.0</ele><time>2026-05-03T10:19:45.959Z</time></trkpt><trkpt lat="40.7392984" lon="14.8649167"><ele>696.0</ele><time>2026-05-03T10:19:46.962Z</time></trkpt><trkpt lat="40.7392289" lon="14.864893"><ele>696.0</ele><time>2026-05-03T10:19:47.967Z</time></trkpt><trkpt lat="40.7391548" lon="14.8648626"><ele>690.0</ele><time>2026-05-03T10:19:48.947Z</time></trkpt><trkpt lat="40.739084" lon="14.8648387"><ele>684.0</ele><time>2026-05-03T10:19:49.954Z</time></trkpt><trkpt lat="40.7390157" lon="14.8648248"><ele>678.0</ele><time>2026-05-03T10:19:50.968Z</time></trkpt><trkpt lat="40.7389024" lon="14.8648086"><ele>672.0</ele><time>2026-05-03T10:19:52.955Z</time></trkpt><trkpt lat="40.7388027" lon="14.8648306"><ele>666.0</ele><time>2026-05-03T10:19:54.951Z</time></trkpt><trkpt lat="40.7387281" lon="14.8648919"><ele>660.0</ele><time>2026-05-03T10:19:57.956Z</time></trkpt><trkpt lat="40.7387011" lon="14.8649741"><ele>654.4</ele><time>2026-05-03T10:19:59.96Z</time></trkpt><trkpt lat="40.738676" lon="14.8651143"><ele>648.8</ele><time>2026-05-03T10:20:01.955Z</time></trkpt><trkpt lat="40.738661" lon="14.8652014"><ele>643.2</ele><time>2026-05-03T10:20:03.062Z</time></trkpt><trkpt lat="40.7385887" lon="14.8653326"><ele>637.6</ele><time>2026-05-03T10:20:04.95Z</time></trkpt><trkpt lat="40.7384934" lon="14.8653717"><ele>632.0</ele><time>2026-05-03T10:20:06.956Z</time></trkpt><trkpt lat="40.7384338" lon="14.8654317"><ele>631.8333333333333</ele><time>2026-05-03T10:20:08.961Z</time></trkpt><trkpt lat="40.7384015" lon="14.8655429"><ele>631.6666666666666</ele><time>2026-05-03T10:20:09.956Z</time></trkpt><trkpt lat="40.7383586" lon="14.8656634"><ele>631.5</ele><time>2026-05-03T10:20:11.034Z</time></trkpt><trkpt lat="40.7383018" lon="14.8657552"><ele>631.3333333333334</ele><time>2026-05-03T10:20:12.031Z</time></trkpt><trkpt lat="40.7382422" lon="14.8658141"><ele>631.1666666666667</ele><time>2026-05-03T10:20:13.034Z</time></trkpt><trkpt lat="40.7381753" lon="14.8658681"><ele>631.0</ele><time>2026-05-03T10:20:13.964Z</time></trkpt><trkpt lat="40.7381034" lon="14.8659301"><ele>630.6</ele><time>2026-05-03T10:20:14.966Z</time></trkpt><trkpt lat="40.7380418" lon="14.8660078"><ele>630.2</ele><time>2026-05-03T10:20:15.965Z</time></trkpt><trkpt lat="40.7379603" lon="14.8660984"><ele>629.8</ele><time>2026-05-03T10:20:16.958Z</time></trkpt><trkpt lat="40.7378622" lon="14.8661822"><ele>629.4</ele><time>2026-05-03T10:20:17.969Z</time></trkpt><trkpt lat="40.7377625" lon="14.8662634"><ele>629.0</ele><time>2026-05-03T10:20:18.997Z</time></trkpt><trkpt lat="40.7376905" lon="14.8663414"><ele>629.0</ele><time>2026-05-03T10:20:20.031Z</time></trkpt><trkpt lat="40.7376152" lon="14.8664068"><ele>629.0</ele><time>2026-05-03T10:20:21.033Z</time></trkpt><trkpt lat="40.7375364" lon="14.8664483"><ele>629.0</ele><time>2026-05-03T10:20:22.024Z</time></trkpt><trkpt lat="40.737453" lon="14.8664565"><ele>629.0</ele><time>2026-05-03T10:20:22.959Z</time></trkpt><trkpt lat="40.7373508" lon="14.8664598"><ele>629.0</ele><time>2026-05-03T10:20:23.96Z</time></trkpt><trkpt lat="40.7372427" lon="14.8664634"><ele>629.0</ele><time>2026-05-03T10:20:24.961Z</time></trkpt><trkpt lat="40.7371502" lon="14.8664735"><ele>629.0</ele><time>2026-05-03T10:20:25.959Z</time></trkpt><trkpt lat="40.7370539" lon="14.8665707"><ele>629.0</ele><time>2026-05-03T10:20:27.952Z</time></trkpt><trkpt lat="40.7370406" lon="14.8666543"><ele>629.0</ele><time>2026-05-03T10:20:28.951Z</time></trkpt><trkpt lat="40.7370523" lon="14.8667483"><ele>629.0</ele><time>2026-05-03T10:20:29.953Z</time></trkpt><trkpt lat="40.7370537" lon="14.8668351"><ele>629.0</ele><time>2026-05-03T10:20:30.96Z</time></trkpt><trkpt lat="40.7370537" lon="14.8669294"><ele>624.0</ele><time>2026-05-03T10:20:31.961Z</time></trkpt><trkpt lat="40.7371042" lon="14.8670782"><ele>619.0</ele><time>2026-05-03T10:20:33.962Z</time></trkpt><trkpt lat="40.7371183" lon="14.8671628"><ele>614.0</ele><time>2026-05-03T10:20:34.948Z</time></trkpt><trkpt lat="40.7371071" lon="14.8672684"><ele>609.0</ele><time>2026-05-03T10:20:35.95Z</time></trkpt><trkpt lat="40.7370811" lon="14.867351"><ele>604.0</ele><time>2026-05-03T10:20:36.953Z</time></trkpt><trkpt lat="40.7370143" lon="14.8673987"><ele>599.0</ele><time>2026-05-03T10:20:37.954Z</time></trkpt><trkpt lat="40.7369487" lon="14.8674321"><ele>605.2</ele><time>2026-05-03T10:20:38.957Z</time></trkpt><trkpt lat="40.7368694" lon="14.8674752"><ele>611.4</ele><time>2026-05-03T10:20:39.959Z</time></trkpt><trkpt lat="40.7367781" lon="14.8675186"><ele>617.6</ele><time>2026-05-03T10:20:40.954Z</time></trkpt><trkpt lat="40.7367039" lon="14.86761"><ele>623.8</ele><time>2026-05-03T10:20:42.964Z</time></trkpt><trkpt lat="40.7366556" lon="14.8677593"><ele>630.0</ele><time>2026-05-03T10:20:44.962Z</time></trkpt><trkpt lat="40.7365537" lon="14.8678496"><ele>630.0</ele><time>2026-05-03T10:20:46.964Z</time></trkpt><trkpt lat="40.7364929" lon="14.8679148"><ele>630.0</ele><time>2026-05-03T10:20:48.963Z</time></trkpt><trkpt lat="40.736463" lon="14.8680043"><ele>630.0</ele><time>2026-05-03T10:20:51.959Z</time></trkpt><trkpt lat="40.7364932" lon="14.86823"><ele>630.0</ele><time>2026-05-03T10:20:54.03Z</time></trkpt><trkpt lat="40.7365147" lon="14.868388"><ele>630.0</ele><time>2026-05-03T10:20:55.019Z</time></trkpt><trkpt lat="40.7365211" lon="14.8685494"><ele>627.4</ele><time>2026-05-03T10:20:56.024Z</time></trkpt><trkpt lat="40.7365197" lon="14.8686941"><ele>624.8</ele><time>2026-05-03T10:20:56.959Z</time></trkpt><trkpt lat="40.7364929" lon="14.8688151"><ele>622.2</ele><time>2026-05-03T10:20:57.959Z</time></trkpt><trkpt lat="40.7364326" lon="14.8689038"><ele>619.6</ele><time>2026-05-03T10:20:58.96Z</time></trkpt><trkpt lat="40.7363549" lon="14.8689369"><ele>617.0</ele><time>2026-05-03T10:20:59.958Z</time></trkpt><trkpt lat="40.7362593" lon="14.8689374"><ele>617.0</ele><time>2026-05-03T10:21:00.959Z</time></trkpt><trkpt lat="40.7361474" lon="14.8689391"><ele>617.0</ele><time>2026-05-03T10:21:01.973Z</time></trkpt><trkpt lat="40.7360425" lon="14.8689514"><ele>617.0</ele><time>2026-05-03T10:21:03.027Z</time></trkpt><trkpt lat="40.7359713" lon="14.8689512"><ele>617.0</ele><time>2026-05-03T10:21:04.007Z</time></trkpt><trkpt lat="40.7359084" lon="14.868929"><ele>617.0</ele><time>2026-05-03T10:21:05.035Z</time></trkpt><trkpt lat="40.7358452" lon="14.8689019"><ele>617.0</ele><time>2026-05-03T10:21:06.955Z</time></trkpt><trkpt lat="40.7357634" lon="14.8690196"><ele>615.6666666666666</ele><time>2026-05-03T10:21:10.057Z</time></trkpt><trkpt lat="40.7357291" lon="14.8691182"><ele>614.3333333333333</ele><time>2026-05-03T10:21:11.017Z</time></trkpt><trkpt lat="40.7356669" lon="14.8692113"><ele>613.0</ele><time>2026-05-03T10:21:11.951Z</time></trkpt><trkpt lat="40.7356048" lon="14.8692898"><ele>611.6666666666666</ele><time>2026-05-03T10:21:12.966Z</time></trkpt><trkpt lat="40.7355505" lon="14.8693462"><ele>610.3333333333334</ele><time>2026-05-03T10:21:13.954Z</time></trkpt><trkpt lat="40.7355018" lon="14.8694116"><ele>609.0</ele><time>2026-05-03T10:21:14.956Z</time></trkpt><trkpt lat="40.735466" lon="14.8694869"><ele>609.0</ele><time>2026-05-03T10:21:15.956Z</time></trkpt><trkpt lat="40.7354228" lon="14.8695566"><ele>609.0</ele><time>2026-05-03T10:21:16.956Z</time></trkpt><trkpt lat="40.7353923" lon="14.8696419"><ele>609.0</ele><time>2026-05-03T10:21:18.013Z</time></trkpt><trkpt lat="40.7353651" lon="14.8697506"><ele>609.0</ele><time>2026-05-03T10:21:18.973Z</time></trkpt><trkpt lat="40.735333" lon="14.8698564"><ele>609.0</ele><time>2026-05-03T10:21:19.957Z</time></trkpt><trkpt lat="40.7352968" lon="14.8699802"><ele>609.0</ele><time>2026-05-03T10:21:20.957Z</time></trkpt><trkpt lat="40.735254" lon="14.8700985"><ele>614.0</ele><time>2026-05-03T10:21:21.959Z</time></trkpt><trkpt lat="40.7352104" lon="14.8702083"><ele>619.0</ele><time>2026-05-03T10:21:22.965Z</time></trkpt><trkpt lat="40.7351696" lon="14.870301"><ele>624.0</ele><time>2026-05-03T10:21:23.959Z</time></trkpt><trkpt lat="40.7351254" lon="14.8704029"><ele>629.0</ele><time>2026-05-03T10:21:24.959Z</time></trkpt><trkpt lat="40.7350795" lon="14.8705187"><ele>634.0</ele><time>2026-05-03T10:21:25.962Z</time></trkpt><trkpt lat="40.7350269" lon="14.8706201"><ele>634.0</ele><time>2026-05-03T10:21:26.978Z</time></trkpt><trkpt lat="40.7349523" lon="14.8707122"><ele>634.0</ele><time>2026-05-03T10:21:27.963Z</time></trkpt><trkpt lat="40.7348804" lon="14.8707877"><ele>634.0</ele><time>2026-05-03T10:21:28.959Z</time></trkpt><trkpt lat="40.7347902" lon="14.8708501"><ele>634.0</ele><time>2026-05-03T10:21:29.957Z</time></trkpt><trkpt lat="40.7346992" lon="14.8708768"><ele>634.0</ele><time>2026-05-03T10:21:30.956Z</time></trkpt><trkpt lat="40.7346002" lon="14.8708827"><ele>634.0</ele><time>2026-05-03T10:21:31.948Z</time></trkpt><trkpt lat="40.7345" lon="14.8708811"><ele>634.0</ele><time>2026-05-03T10:21:32.953Z</time></trkpt><trkpt lat="40.7344118" lon="14.8708506"><ele>634.0</ele><time>2026-05-03T10:21:33.954Z</time></trkpt><trkpt lat="40.7343362" lon="14.8707942"><ele>634.0</ele><time>2026-05-03T10:21:34.961Z</time></trkpt><trkpt lat="40.7342715" lon="14.8707316"><ele>634.0</ele><time>2026-05-03T10:21:35.958Z</time></trkpt><trkpt lat="40.7342095" lon="14.8706723"><ele>634.0</ele><time>2026-05-03T10:21:36.956Z</time></trkpt><trkpt lat="40.7341537" lon="14.8706295"><ele>634.5</ele><time>2026-05-03T10:21:37.955Z</time></trkpt><trkpt lat="40.7341116" lon="14.8704981"><ele>635.0</ele><time>2026-05-03T10:21:39.954Z</time></trkpt><trkpt lat="40.7341041" lon="14.870413"><ele>635.5</ele><time>2026-05-03T10:21:40.958Z</time></trkpt><trkpt lat="40.7340852" lon="14.8703308"><ele>636.0</ele><time>2026-05-03T10:21:41.962Z</time></trkpt><trkpt lat="40.7340507" lon="14.8702463"><ele>636.5</ele><time>2026-05-03T10:21:42.959Z</time></trkpt><trkpt lat="40.7340158" lon="14.8701442"><ele>637.0</ele><time>2026-05-03T10:21:43.954Z</time></trkpt><trkpt lat="40.7339548" lon="14.870035"><ele>637.0</ele><time>2026-05-03T10:21:45.956Z</time></trkpt><trkpt lat="40.7338587" lon="14.8700151"><ele>637.0</ele><time>2026-05-03T10:21:47.955Z</time></trkpt><trkpt lat="40.7337379" lon="14.8700382"><ele>637.0</ele><time>2026-05-03T10:21:50.039Z</time></trkpt><trkpt lat="40.7336685" lon="14.8700805"><ele>637.0</ele><time>2026-05-03T10:21:50.987Z</time></trkpt><trkpt lat="40.7336124" lon="14.87014"><ele>637.0</ele><time>2026-05-03T10:21:52.035Z</time></trkpt><trkpt lat="40.7335207" lon="14.8701747"><ele>635.5714285714286</ele><time>2026-05-03T10:21:53.971Z</time></trkpt><trkpt lat="40.7334598" lon="14.8701478"><ele>634.1428571428571</ele><time>2026-05-03T10:21:54.974Z</time></trkpt><trkpt lat="40.7333897" lon="14.8701324"><ele>632.7142857142858</ele><time>2026-05-03T10:21:55.976Z</time></trkpt><trkpt lat="40.7333061" lon="14.8701808"><ele>631.2857142857142</ele><time>2026-05-03T10:21:58.041Z</time></trkpt><trkpt lat="40.7332726" lon="14.8702683"><ele>629.8571428571429</ele><time>2026-05-03T10:21:58.967Z</time></trkpt><trkpt lat="40.7332352" lon="14.8703652"><ele>628.4285714285714</ele><time>2026-05-03T10:21:59.976Z</time></trkpt><trkpt lat="40.7331967" lon="14.8704352"><ele>627.0</ele><time>2026-05-03T10:22:00.974Z</time></trkpt><trkpt lat="40.7330977" lon="14.8705246"><ele>627.0</ele><time>2026-05-03T10:22:02.974Z</time></trkpt><trkpt lat="40.7330407" lon="14.870587"><ele>627.0</ele><time>2026-05-03T10:22:03.973Z</time></trkpt><trkpt lat="40.7329779" lon="14.8706898"><ele>627.0</ele><time>2026-05-03T10:22:04.98Z</time></trkpt><trkpt lat="40.7329261" lon="14.8708099"><ele>627.0</ele><time>2026-05-03T10:22:05.964Z</time></trkpt><trkpt lat="40.7328682" lon="14.8709116"><ele>627.0</ele><time>2026-05-03T10:22:06.974Z</time></trkpt><trkpt lat="40.7328045" lon="14.8709705"><ele>628.0</ele><time>2026-05-03T10:22:07.968Z</time></trkpt><trkpt lat="40.732736" lon="14.871019"><ele>629.0</ele><time>2026-05-03T10:22:08.969Z</time></trkpt><trkpt lat="40.7326436" lon="14.8710667"><ele>630.0</ele><time>2026-05-03T10:22:09.969Z</time></trkpt><trkpt lat="40.7325571" lon="14.8711116"><ele>631.0</ele><time>2026-05-03T10:22:10.97Z</time></trkpt><trkpt lat="40.73247" lon="14.8711387"><ele>632.0</ele><time>2026-05-03T10:22:12.043Z</time></trkpt><trkpt lat="40.7323746" lon="14.8711723"><ele>632.0</ele><time>2026-05-03T10:22:13.03Z</time></trkpt><trkpt lat="40.7322732" lon="14.8711923"><ele>632.0</ele><time>2026-05-03T10:22:13.959Z</time></trkpt><trkpt lat="40.7321678" lon="14.8712138"><ele>632.0</ele><time>2026-05-03T10:22:14.961Z</time></trkpt><trkpt lat="40.7320642" lon="14.8712216"><ele>632.0</ele><time>2026-05-03T10:22:15.963Z</time></trkpt><trkpt lat="40.7319614" lon="14.8712231"><ele>632.0</ele><time>2026-05-03T10:22:16.961Z</time></trkpt><trkpt lat="40.7318583" lon="14.8712262"><ele>630.8000000000001</ele><time>2026-05-03T10:22:17.96Z</time></trkpt><trkpt lat="40.7317681" lon="14.8712399"><ele>629.6</ele><time>2026-05-03T10:22:18.962Z</time></trkpt><trkpt lat="40.7316908" lon="14.8712646"><ele>628.4000000000001</ele><time>2026-05-03T10:22:19.963Z</time></trkpt><trkpt lat="40.7316472" lon="14.8713547"><ele>627.2</ele><time>2026-05-03T10:22:21.028Z</time></trkpt><trkpt lat="40.7316163" lon="14.8714876"><ele>626.0</ele><time>2026-05-03T10:22:22.041Z</time></trkpt><trkpt lat="40.7315669" lon="14.8716309"><ele>627.2</ele><time>2026-05-03T10:22:23.023Z</time></trkpt><trkpt lat="40.7314937" lon="14.8717745"><ele>628.4000000000001</ele><time>2026-05-03T10:22:23.964Z</time></trkpt><trkpt lat="40.7314465" lon="14.8719062"><ele>629.6</ele><time>2026-05-03T10:22:24.957Z</time></trkpt><trkpt lat="40.731401" lon="14.8720323"><ele>630.8000000000001</ele><time>2026-05-03T10:22:25.957Z</time></trkpt><trkpt lat="40.7313511" lon="14.8721449"><ele>632.0</ele><time>2026-05-03T10:22:26.956Z</time></trkpt><trkpt lat="40.7312985" lon="14.8722374"><ele>632.0</ele><time>2026-05-03T10:22:27.955Z</time></trkpt><trkpt lat="40.7312405" lon="14.8722943"><ele>632.0</ele><time>2026-05-03T10:22:28.949Z</time></trkpt><trkpt lat="40.7311476" lon="14.872312"><ele>632.0</ele><time>2026-05-03T10:22:30.952Z</time></trkpt><trkpt lat="40.7310935" lon="14.8722175"><ele>632.0</ele><time>2026-05-03T10:22:32.952Z</time></trkpt><trkpt lat="40.7310628" lon="14.8721378"><ele>632.0</ele><time>2026-05-03T10:22:33.953Z</time></trkpt><trkpt lat="40.7310324" lon="14.8720423"><ele>632.0</ele><time>2026-05-03T10:22:35.048Z</time></trkpt><trkpt lat="40.7310087" lon="14.8719272"><ele>631.1428571428572</ele><time>2026-05-03T10:22:35.956Z</time></trkpt><trkpt lat="40.7309917" lon="14.8718218"><ele>630.2857142857143</ele><time>2026-05-03T10:22:37.044Z</time></trkpt><trkpt lat="40.7310067" lon="14.8717149"><ele>629.4285714285714</ele><time>2026-05-03T10:22:37.963Z</time></trkpt><trkpt lat="40.7310382" lon="14.8716194"><ele>628.5714285714287</ele><time>2026-05-03T10:22:38.966Z</time></trkpt><trkpt lat="40.7310566" lon="14.8715268"><ele>627.7142857142858</ele><time>2026-05-03T10:22:39.958Z</time></trkpt><trkpt lat="40.7310599" lon="14.8714389"><ele>626.8571428571429</ele><time>2026-05-03T10:22:40.963Z</time></trkpt><trkpt lat="40.7310398" lon="14.8713594"><ele>626.0</ele><time>2026-05-03T10:22:41.969Z</time></trkpt><trkpt lat="40.7310294" lon="14.8712718"><ele>626.0</ele><time>2026-05-03T10:22:42.975Z</time></trkpt><trkpt lat="40.731044" lon="14.8711817"><ele>626.0</ele><time>2026-05-03T10:22:43.963Z</time></trkpt><trkpt lat="40.7310571" lon="14.8710819"><ele>626.0</ele><time>2026-05-03T10:22:44.963Z</time></trkpt><trkpt lat="40.7310994" lon="14.8709745"><ele>626.0</ele><time>2026-05-03T10:22:46.027Z</time></trkpt><trkpt lat="40.7311403" lon="14.870871"><ele>626.0</ele><time>2026-05-03T10:22:46.995Z</time></trkpt><trkpt lat="40.7311669" lon="14.870782"><ele>626.0</ele><time>2026-05-03T10:22:48.046Z</time></trkpt><trkpt lat="40.7311837" lon="14.8706879"><ele>625.6</ele><time>2026-05-03T10:22:48.959Z</time></trkpt><trkpt lat="40.7312009" lon="14.8705892"><ele>625.2</ele><time>2026-05-03T10:22:49.957Z</time></trkpt><trkpt lat="40.7312061" lon="14.8704991"><ele>624.8</ele><time>2026-05-03T10:22:51.959Z</time></trkpt><trkpt lat="40.7310998" lon="14.870478"><ele>624.4</ele><time>2026-05-03T10:22:55.036Z</time></trkpt><trkpt lat="40.7309945" lon="14.8704819"><ele>624.0</ele><time>2026-05-03T10:22:56.028Z</time></trkpt><trkpt lat="40.7308865" lon="14.8705032"><ele>619.1666666666666</ele><time>2026-05-03T10:22:57.027Z</time></trkpt><trkpt lat="40.730796" lon="14.8705531"><ele>614.3333333333334</ele><time>2026-05-03T10:22:57.956Z</time></trkpt><trkpt lat="40.7307244" lon="14.8706257"><ele>609.5</ele><time>2026-05-03T10:22:58.951Z</time></trkpt><trkpt lat="40.730662" lon="14.8707"><ele>604.6666666666667</ele><time>2026-05-03T10:22:59.953Z</time></trkpt><trkpt lat="40.7305964" lon="14.8707635"><ele>599.8333333333334</ele><time>2026-05-03T10:23:00.952Z</time></trkpt><trkpt lat="40.7305175" lon="14.8707994"><ele>595.0</ele><time>2026-05-03T10:23:01.954Z</time></trkpt><trkpt lat="40.7304118" lon="14.8708186"><ele>595.0</ele><time>2026-05-03T10:23:02.972Z</time></trkpt><trkpt lat="40.7303115" lon="14.8708379"><ele>595.0</ele><time>2026-05-03T10:23:03.951Z</time></trkpt><trkpt lat="40.7302032" lon="14.8708945"><ele>595.0</ele><time>2026-05-03T10:23:04.958Z</time></trkpt><trkpt lat="40.7300931" lon="14.8709795"><ele>595.0</ele><time>2026-05-03T10:23:06.048Z</time></trkpt><trkpt lat="40.729984" lon="14.8710586"><ele>588.75</ele><time>2026-05-03T10:23:06.95Z</time></trkpt><trkpt lat="40.7298682" lon="14.8711341"><ele>582.5</ele><time>2026-05-03T10:23:07.954Z</time></trkpt><trkpt lat="40.7297533" lon="14.8711995"><ele>576.25</ele><time>2026-05-03T10:23:08.954Z</time></trkpt><trkpt lat="40.7296373" lon="14.8712579"><ele>570.0</ele><time>2026-05-03T10:23:09.95Z</time></trkpt><trkpt lat="40.7295283" lon="14.8713248"><ele>570.0</ele><time>2026-05-03T10:23:10.95Z</time></trkpt><trkpt lat="40.7294284" lon="14.8713954"><ele>570.0</ele><time>2026-05-03T10:23:12.023Z</time></trkpt><trkpt lat="40.7293421" lon="14.8714621"><ele>570.0</ele><time>2026-05-03T10:23:13.038Z</time></trkpt><trkpt lat="40.7292521" lon="14.8715286"><ele>570.0</ele><time>2026-05-03T10:23:13.953Z</time></trkpt><trkpt lat="40.729185" lon="14.8715925"><ele>570.0</ele><time>2026-05-03T10:23:14.962Z</time></trkpt><trkpt lat="40.7291152" lon="14.8716733"><ele>568.8</ele><time>2026-05-03T10:23:15.984Z</time></trkpt><trkpt lat="40.7290462" lon="14.8717645"><ele>567.6</ele><time>2026-05-03T10:23:17.037Z</time></trkpt><trkpt lat="40.7289718" lon="14.8718493"><ele>566.4</ele><time>2026-05-03T10:23:18.041Z</time></trkpt><trkpt lat="40.7289027" lon="14.8719285"><ele>565.2</ele><time>2026-05-03T10:23:18.961Z</time></trkpt><trkpt lat="40.728827" lon="14.872002"><ele>564.0</ele><time>2026-05-03T10:23:19.956Z</time></trkpt><trkpt lat="40.7287518" lon="14.8720752"><ele>561.6</ele><time>2026-05-03T10:23:20.973Z</time></trkpt><trkpt lat="40.7286784" lon="14.8721521"><ele>559.2</ele><time>2026-05-03T10:23:22.055Z</time></trkpt><trkpt lat="40.7285978" lon="14.8722202"><ele>556.8000000000001</ele><time>2026-05-03T10:23:23.044Z</time></trkpt><trkpt lat="40.7285171" lon="14.8722938"><ele>554.4</ele><time>2026-05-03T10:23:23.961Z</time></trkpt><trkpt lat="40.7284451" lon="14.872372"><ele>552.0</ele><time>2026-05-03T10:23:24.961Z</time></trkpt><trkpt lat="40.7283835" lon="14.8724528"><ele>552.0</ele><time>2026-05-03T10:23:25.984Z</time></trkpt><trkpt lat="40.7283168" lon="14.8725389"><ele>552.0</ele><time>2026-05-03T10:23:26.976Z</time></trkpt><trkpt lat="40.7282516" lon="14.8726301"><ele>552.0</ele><time>2026-05-03T10:23:28.077Z</time></trkpt><trkpt lat="40.7281101" lon="14.8728399"><ele>552.0</ele><time>2026-05-03T10:23:29.956Z</time></trkpt><trkpt lat="40.7280393" lon="14.8729477"><ele>547.4</ele><time>2026-05-03T10:23:30.972Z</time></trkpt><trkpt lat="40.7279726" lon="14.8730552"><ele>542.8000000000001</ele><time>2026-05-03T10:23:32.042Z</time></trkpt><trkpt lat="40.7279056" lon="14.8731587"><ele>538.2</ele><time>2026-05-03T10:23:33.053Z</time></trkpt><trkpt lat="40.7278378" lon="14.8732579"><ele>533.6</ele><time>2026-05-03T10:23:33.96Z</time></trkpt><trkpt lat="40.7277687" lon="14.8733531"><ele>529.0</ele><time>2026-05-03T10:23:35.038Z</time></trkpt><trkpt lat="40.7276921" lon="14.8734573"><ele>523.8</ele><time>2026-05-03T10:23:35.965Z</time></trkpt><trkpt lat="40.727614" lon="14.8735572"><ele>518.5999999999999</ele><time>2026-05-03T10:23:36.971Z</time></trkpt><trkpt lat="40.7275453" lon="14.8736494"><ele>513.4</ele><time>2026-05-03T10:23:38.043Z</time></trkpt><trkpt lat="40.7274591" lon="14.873736"><ele>508.2</ele><time>2026-05-03T10:23:38.966Z</time></trkpt><trkpt lat="40.7273801" lon="14.8738227"><ele>503.0</ele><time>2026-05-03T10:23:39.963Z</time></trkpt><trkpt lat="40.7272857" lon="14.8739106"><ele>503.0</ele><time>2026-05-03T10:23:40.96Z</time></trkpt><trkpt lat="40.727207" lon="14.8739913"><ele>502.99999999999994</ele><time>2026-05-03T10:23:41.959Z</time></trkpt><trkpt lat="40.7271412" lon="14.8740566"><ele>502.99999999999994</ele><time>2026-05-03T10:23:42.963Z</time></trkpt><trkpt lat="40.7270755" lon="14.8741"><ele>503.0</ele><time>2026-05-03T10:23:43.947Z</time></trkpt><trkpt lat="40.7269535" lon="14.8741332"><ele>503.0</ele><time>2026-05-03T10:23:45.955Z</time></trkpt><trkpt lat="40.7268659" lon="14.8741485"><ele>502.7142857142857</ele><time>2026-05-03T10:23:46.954Z</time></trkpt><trkpt lat="40.726792" lon="14.8741459"><ele>502.42857142857144</ele><time>2026-05-03T10:23:47.977Z</time></trkpt><trkpt lat="40.7267282" lon="14.8741481"><ele>502.14285714285717</ele><time>2026-05-03T10:23:48.984Z</time></trkpt><trkpt lat="40.7266648" lon="14.8741271"><ele>501.8571428571429</ele><time>2026-05-03T10:23:49.953Z</time></trkpt><trkpt lat="40.726583" lon="14.8740639"><ele>501.57142857142856</ele><time>2026-05-03T10:23:51.954Z</time></trkpt><trkpt lat="40.7265296" lon="14.8741119"><ele>501.28571428571433</ele><time>2026-05-03T10:23:53.951Z</time></trkpt><trkpt lat="40.7265349" lon="14.8742214"><ele>501.0</ele><time>2026-05-03T10:23:55.947Z</time></trkpt><trkpt lat="40.7266134" lon="14.8743296"><ele>496.8333333333333</ele><time>2026-05-03T10:23:57.961Z</time></trkpt><trkpt lat="40.7266703" lon="14.8743698"><ele>492.66666666666663</ele><time>2026-05-03T10:23:58.953Z</time></trkpt><trkpt lat="40.7267328" lon="14.8744046"><ele>488.5</ele><time>2026-05-03T10:23:59.946Z</time></trkpt><trkpt lat="40.7267858" lon="14.8744912"><ele>484.3333333333333</ele><time>2026-05-03T10:24:01.958Z</time></trkpt><trkpt lat="40.7267558" lon="14.8746129"><ele>480.16666666666663</ele><time>2026-05-03T10:24:03.962Z</time></trkpt><trkpt lat="40.7266422" lon="14.8746774"><ele>476.0</ele><time>2026-05-03T10:24:06.003Z</time></trkpt><trkpt lat="40.7265667" lon="14.8747231"><ele>475.99999999999994</ele><time>2026-05-03T10:24:06.959Z</time></trkpt><trkpt lat="40.7264826" lon="14.8747545"><ele>476.0</ele><time>2026-05-03T10:24:07.964Z</time></trkpt><trkpt lat="40.7263915" lon="14.8747675"><ele>476.0</ele><time>2026-05-03T10:24:08.959Z</time></trkpt><trkpt lat="40.7263072" lon="14.874763"><ele>476.0</ele><time>2026-05-03T10:24:09.958Z</time></trkpt><trkpt lat="40.7262283" lon="14.8747305"><ele>475.99999999999994</ele><time>2026-05-03T10:24:10.96Z</time></trkpt><trkpt lat="40.7261653" lon="14.874664"><ele>476.0</ele><time>2026-05-03T10:24:11.947Z</time></trkpt><trkpt lat="40.7261055" lon="14.8745724"><ele>472.75</ele><time>2026-05-03T10:24:12.956Z</time></trkpt><trkpt lat="40.7260453" lon="14.8744417"><ele>469.5</ele><time>2026-05-03T10:24:13.953Z</time></trkpt><trkpt lat="40.7259863" lon="14.8743162"><ele>466.25</ele><time>2026-05-03T10:24:15.031Z</time></trkpt><trkpt lat="40.72593" lon="14.8741786"><ele>463.0</ele><time>2026-05-03T10:24:15.968Z</time></trkpt><trkpt lat="40.7258848" lon="14.8740233"><ele>463.0</ele><time>2026-05-03T10:24:17.033Z</time></trkpt><trkpt lat="40.7258541" lon="14.8738628"><ele>463.0</ele><time>2026-05-03T10:24:18.01Z</time></trkpt><trkpt lat="40.7258234" lon="14.8736878"><ele>463.0</ele><time>2026-05-03T10:24:18.955Z</time></trkpt><trkpt lat="40.7258039" lon="14.8735076"><ele>463.0</ele><time>2026-05-03T10:24:19.952Z</time></trkpt><trkpt lat="40.7257871" lon="14.8733345"><ele>464.25</ele><time>2026-05-03T10:24:21.051Z</time></trkpt><trkpt lat="40.7257621" lon="14.8731736"><ele>465.5</ele><time>2026-05-03T10:24:22.016Z</time></trkpt><trkpt lat="40.7257334" lon="14.8730169"><ele>466.75</ele><time>2026-05-03T10:24:22.947Z</time></trkpt><trkpt lat="40.7257122" lon="14.8728586"><ele>468.0</ele><time>2026-05-03T10:24:23.951Z</time></trkpt><trkpt lat="40.7256988" lon="14.8727047"><ele>467.25</ele><time>2026-05-03T10:24:24.954Z</time></trkpt><trkpt lat="40.725684" lon="14.8725453"><ele>466.5</ele><time>2026-05-03T10:24:25.947Z</time></trkpt><trkpt lat="40.7256822" lon="14.8723968"><ele>465.75</ele><time>2026-05-03T10:24:26.952Z</time></trkpt><trkpt lat="40.7256681" lon="14.8722472"><ele>465.0</ele><time>2026-05-03T10:24:27.951Z</time></trkpt><trkpt lat="40.7256459" lon="14.8721149"><ele>465.0</ele><time>2026-05-03T10:24:28.954Z</time></trkpt><trkpt lat="40.7256169" lon="14.8719978"><ele>465.0</ele><time>2026-05-03T10:24:29.952Z</time></trkpt><trkpt lat="40.7255627" lon="14.8719098"><ele>465.0</ele><time>2026-05-03T10:24:30.956Z</time></trkpt><trkpt lat="40.7255058" lon="14.871824"><ele>465.0</ele><time>2026-05-03T10:24:31.95Z</time></trkpt><trkpt lat="40.7254476" lon="14.8717203"><ele>465.0</ele><time>2026-05-03T10:24:33.051Z</time></trkpt><trkpt lat="40.7253618" lon="14.8714354"><ele>463.8</ele><time>2026-05-03T10:24:34.954Z</time></trkpt><trkpt lat="40.7253173" lon="14.8712838"><ele>462.6</ele><time>2026-05-03T10:24:35.982Z</time></trkpt><trkpt lat="40.7252885" lon="14.8711573"><ele>461.4</ele><time>2026-05-03T10:24:37.016Z</time></trkpt><trkpt lat="40.7252499" lon="14.8710724"><ele>460.2</ele><time>2026-05-03T10:24:38.028Z</time></trkpt><trkpt lat="40.7251872" lon="14.8710369"><ele>459.0</ele><time>2026-05-03T10:24:38.956Z</time></trkpt><trkpt lat="40.7250983" lon="14.8710245"><ele>455.4</ele><time>2026-05-03T10:24:39.955Z</time></trkpt><trkpt lat="40.7249951" lon="14.8710176"><ele>451.79999999999995</ele><time>2026-05-03T10:24:41.065Z</time></trkpt><trkpt lat="40.7248385" lon="14.8709911"><ele>448.20000000000005</ele><time>2026-05-03T10:24:42.966Z</time></trkpt><trkpt lat="40.7247388" lon="14.8709724"><ele>444.6</ele><time>2026-05-03T10:24:44.96Z</time></trkpt><trkpt lat="40.7246625" lon="14.870937"><ele>441.0</ele><time>2026-05-03T10:24:46.965Z</time></trkpt><trkpt lat="40.7245679" lon="14.8708854"><ele>441.0</ele><time>2026-05-03T10:24:48.96Z</time></trkpt><trkpt lat="40.7245006" lon="14.8708725"><ele>441.0</ele><time>2026-05-03T10:24:49.958Z</time></trkpt><trkpt lat="40.7244112" lon="14.8708745"><ele>441.0</ele><time>2026-05-03T10:24:50.963Z</time></trkpt><trkpt lat="40.7243203" lon="14.8708832"><ele>441.0</ele><time>2026-05-03T10:24:51.962Z</time></trkpt><trkpt lat="40.7242145" lon="14.8708982"><ele>441.0</ele><time>2026-05-03T10:24:52.964Z</time></trkpt><trkpt lat="40.7240968" lon="14.8709201"><ele>439.20000000000005</ele><time>2026-05-03T10:24:53.956Z</time></trkpt><trkpt lat="40.7239936" lon="14.8709027"><ele>437.40000000000003</ele><time>2026-05-03T10:24:54.967Z</time></trkpt><trkpt lat="40.7239206" lon="14.8708678"><ele>435.6</ele><time>2026-05-03T10:24:56.024Z</time></trkpt><trkpt lat="40.723846" lon="14.8708176"><ele>433.8</ele><time>2026-05-03T10:24:56.968Z</time></trkpt><trkpt lat="40.7237699" lon="14.8707582"><ele>432.0</ele><time>2026-05-03T10:24:57.962Z</time></trkpt><trkpt lat="40.7236894" lon="14.8706737"><ele>432.0</ele><time>2026-05-03T10:24:58.958Z</time></trkpt><trkpt lat="40.7236067" lon="14.8705902"><ele>432.00000000000006</ele><time>2026-05-03T10:24:59.963Z</time></trkpt><trkpt lat="40.7235272" lon="14.8705331"><ele>432.00000000000006</ele><time>2026-05-03T10:25:00.96Z</time></trkpt><trkpt lat="40.7234522" lon="14.8704788"><ele>432.0</ele><time>2026-05-03T10:25:02.96Z</time></trkpt><trkpt lat="40.7233838" lon="14.8705964"><ele>432.0</ele><time>2026-05-03T10:25:04.959Z</time></trkpt><trkpt lat="40.7233201" lon="14.8706933"><ele>429.20000000000005</ele><time>2026-05-03T10:25:05.961Z</time></trkpt><trkpt lat="40.7232535" lon="14.8708015"><ele>426.40000000000003</ele><time>2026-05-03T10:25:06.966Z</time></trkpt><trkpt lat="40.7231552" lon="14.8708703"><ele>423.6</ele><time>2026-05-03T10:25:07.959Z</time></trkpt><trkpt lat="40.7230498" lon="14.8709108"><ele>420.79999999999995</ele><time>2026-05-03T10:25:08.962Z</time></trkpt><trkpt lat="40.7229582" lon="14.8709743"><ele>418.0</ele><time>2026-05-03T10:25:09.958Z</time></trkpt><trkpt lat="40.7228749" lon="14.8710539"><ele>416.1666666666667</ele><time>2026-05-03T10:25:11.038Z</time></trkpt><trkpt lat="40.7228136" lon="14.8711411"><ele>414.33333333333337</ele><time>2026-05-03T10:25:12.038Z</time></trkpt><trkpt lat="40.7227467" lon="14.8712237"><ele>412.5</ele><time>2026-05-03T10:25:12.975Z</time></trkpt><trkpt lat="40.722685" lon="14.8712858"><ele>410.66666666666663</ele><time>2026-05-03T10:25:13.963Z</time></trkpt><trkpt lat="40.7225956" lon="14.8713461"><ele>408.8333333333333</ele><time>2026-05-03T10:25:15.963Z</time></trkpt><trkpt lat="40.7225254" lon="14.8713283"><ele>407.0</ele><time>2026-05-03T10:25:17.012Z</time></trkpt><trkpt lat="40.7224442" lon="14.8712915"><ele>405.5</ele><time>2026-05-03T10:25:18.031Z</time></trkpt><trkpt lat="40.7223185" lon="14.8712664"><ele>404.0</ele><time>2026-05-03T10:25:18.967Z</time></trkpt><trkpt lat="40.7221724" lon="14.8712336"><ele>402.5</ele><time>2026-05-03T10:25:19.969Z</time></trkpt><trkpt lat="40.7220338" lon="14.8711903"><ele>401.0</ele><time>2026-05-03T10:25:20.967Z</time></trkpt><trkpt lat="40.7218975" lon="14.8711843"><ele>398.0</ele><time>2026-05-03T10:25:21.979Z</time></trkpt><trkpt lat="40.7217618" lon="14.8711773"><ele>395.0</ele><time>2026-05-03T10:25:22.996Z</time></trkpt><trkpt lat="40.7216348" lon="14.8711772"><ele>392.0</ele><time>2026-05-03T10:25:23.964Z</time></trkpt><trkpt lat="40.7215016" lon="14.8711865"><ele>389.0</ele><time>2026-05-03T10:25:24.963Z</time></trkpt><trkpt lat="40.721374" lon="14.8711812"><ele>389.0</ele><time>2026-05-03T10:25:25.97Z</time></trkpt><trkpt lat="40.7212612" lon="14.8711317"><ele>389.0</ele><time>2026-05-03T10:25:26.974Z</time></trkpt><trkpt lat="40.7211831" lon="14.8710745"><ele>389.0</ele><time>2026-05-03T10:25:27.954Z</time></trkpt><trkpt lat="40.7211063" lon="14.8710243"><ele>389.0</ele><time>2026-05-03T10:25:29.969Z</time></trkpt><trkpt lat="40.7210578" lon="14.8711906"><ele>389.0</ele><time>2026-05-03T10:25:32.965Z</time></trkpt><trkpt lat="40.7210739" lon="14.8713165"><ele>389.0</ele><time>2026-05-03T10:25:33.968Z</time></trkpt><trkpt lat="40.7210945" lon="14.8714538"><ele>389.0</ele><time>2026-05-03T10:25:34.971Z</time></trkpt><trkpt lat="40.7211225" lon="14.8716096"><ele>389.0</ele><time>2026-05-03T10:25:35.97Z</time></trkpt><trkpt lat="40.7211401" lon="14.8717672"><ele>389.0</ele><time>2026-05-03T10:25:36.97Z</time></trkpt><trkpt lat="40.7211686" lon="14.8719173"><ele>387.6</ele><time>2026-05-03T10:25:37.966Z</time></trkpt><trkpt lat="40.7212176" lon="14.8720452"><ele>386.2</ele><time>2026-05-03T10:25:38.973Z</time></trkpt><trkpt lat="40.7212894" lon="14.8721485"><ele>384.8</ele><time>2026-05-03T10:25:39.97Z</time></trkpt><trkpt lat="40.7213607" lon="14.8722351"><ele>383.40000000000003</ele><time>2026-05-03T10:25:40.968Z</time></trkpt><trkpt lat="40.7214105" lon="14.8723521"><ele>382.0</ele><time>2026-05-03T10:25:41.965Z</time></trkpt><trkpt lat="40.7214426" lon="14.8724933"><ele>380.3333333333333</ele><time>2026-05-03T10:25:42.971Z</time></trkpt><trkpt lat="40.7214726" lon="14.8726166"><ele>378.66666666666663</ele><time>2026-05-03T10:25:43.972Z</time></trkpt><trkpt lat="40.7214983" lon="14.8727161"><ele>377.0</ele><time>2026-05-03T10:25:44.97Z</time></trkpt><trkpt lat="40.7215102" lon="14.8728176"><ele>375.3333333333333</ele><time>2026-05-03T10:25:45.969Z</time></trkpt><trkpt lat="40.7215217" lon="14.8729241"><ele>373.6666666666667</ele><time>2026-05-03T10:25:46.969Z</time></trkpt><trkpt lat="40.7215282" lon="14.8730295"><ele>372.0</ele><time>2026-05-03T10:25:47.977Z</time></trkpt><trkpt lat="40.7215252" lon="14.873161"><ele>372.0</ele><time>2026-05-03T10:25:48.965Z</time></trkpt><trkpt lat="40.7215256" lon="14.8733095"><ele>372.0</ele><time>2026-05-03T10:25:49.968Z</time></trkpt><trkpt lat="40.7215384" lon="14.8734567"><ele>372.0</ele><time>2026-05-03T10:25:50.969Z</time></trkpt><trkpt lat="40.7215611" lon="14.8735749"><ele>372.0</ele><time>2026-05-03T10:25:51.968Z</time></trkpt><trkpt lat="40.7215716" lon="14.873668"><ele>372.0</ele><time>2026-05-03T10:25:52.968Z</time></trkpt><trkpt lat="40.7215306" lon="14.8737467"><ele>370.6666666666667</ele><time>2026-05-03T10:25:54.967Z</time></trkpt><trkpt lat="40.7214546" lon="14.873789"><ele>369.3333333333333</ele><time>2026-05-03T10:25:55.956Z</time></trkpt><trkpt lat="40.7213528" lon="14.8738195"><ele>368.0</ele><time>2026-05-03T10:25:56.972Z</time></trkpt><trkpt lat="40.7212619" lon="14.873847"><ele>366.66666666666663</ele><time>2026-05-03T10:25:58.039Z</time></trkpt><trkpt lat="40.7211827" lon="14.873874"><ele>365.3333333333333</ele><time>2026-05-03T10:25:58.961Z</time></trkpt><trkpt lat="40.7211137" lon="14.8739"><ele>364.0</ele><time>2026-05-03T10:25:59.96Z</time></trkpt><trkpt lat="40.7210342" lon="14.8739251"><ele>361.8333333333333</ele><time>2026-05-03T10:26:00.967Z</time></trkpt><trkpt lat="40.7209528" lon="14.8739446"><ele>359.66666666666663</ele><time>2026-05-03T10:26:01.964Z</time></trkpt><trkpt lat="40.7208783" lon="14.8739681"><ele>357.5</ele><time>2026-05-03T10:26:02.967Z</time></trkpt><trkpt lat="40.7208156" lon="14.8739888"><ele>355.3333333333333</ele><time>2026-05-03T10:26:03.961Z</time></trkpt><trkpt lat="40.720736" lon="14.8739992"><ele>353.1666666666667</ele><time>2026-05-03T10:26:05.98Z</time></trkpt><trkpt lat="40.7206659" lon="14.8739258"><ele>351.0</ele><time>2026-05-03T10:26:07.96Z</time></trkpt><trkpt lat="40.7206493" lon="14.8738363"><ele>351.0</ele><time>2026-05-03T10:26:08.951Z</time></trkpt><trkpt lat="40.720625" lon="14.8737543"><ele>351.0</ele><time>2026-05-03T10:26:10.017Z</time></trkpt><trkpt lat="40.7206058" lon="14.8736551"><ele>351.0</ele><time>2026-05-03T10:26:12.046Z</time></trkpt><trkpt lat="40.7206672" lon="14.873589"><ele>351.0</ele><time>2026-05-03T10:26:14.96Z</time></trkpt><trkpt lat="40.7207357" lon="14.8736031"><ele>351.0</ele><time>2026-05-03T10:26:47.969Z</time></trkpt><trkpt lat="40.7206853" lon="14.8736666"><ele>351.0</ele><time>2026-05-03T10:29:11.958Z</time></trkpt><trkpt lat="40.7205948" lon="14.8736625"><ele>351.0</ele><time>2026-05-03T10:29:14.954Z</time></trkpt><trkpt lat="40.7205882" lon="14.8737849"><ele>351.0</ele><time>2026-05-03T10:29:37.945Z</time></trkpt></trkseg></trk></gpx>